GFSSW_sfc_wetblb_000.txt.gz
Wetbulb
54.70 54.91 54.97 54.69 54.88 55.30 55.85 56.33 56.33 56.45 56.52 56.65 56.55 56.29 56.41 56.37 56.14 50.53 45.97 52.34 54.97 63.63 66.60 62.33 60.33 59.50 57.79 53.13 54.00 52.88 44.75 42.07 43.92 44.55 46.76 48.67 48.03 51.14 53.58 51.01 50.88 53.55 52.94 55.14 56.80
53.17 53.09 53.29 54.04 53.84 53.80 54.30 54.39 55.04 55.69 56.36 56.43 56.43 56.17 56.34 56.59 51.44 47.82 54.92 61.68 63.43 66.46 60.69 58.76 55.96 57.09 51.38 51.70 52.56 49.55 44.29 45.21 49.87 49.59 48.41 48.95 49.54 51.74 50.73 52.04 49.65 51.09 53.64 55.71 55.74
53.70 53.75 53.53 52.85 52.75 53.01 53.59 54.23 54.05 54.35 55.49 56.32 56.19 55.99 56.48 55.39 44.88 44.09 61.78 60.97 63.96 64.29 57.01 59.19 58.53 55.95 50.50 50.11 50.92 49.35 47.39 51.24 51.78 52.50 50.99 50.92 51.24 52.49 51.15 50.89 53.33 50.81 52.93 53.38 53.73
54.37 54.37 54.32 53.90 53.67 52.95 52.53 52.89 54.11 54.39 54.45 55.00 55.52 55.87 56.43 50.57 34.94 47.12 67.12 67.52 67.60 61.10 53.24 56.85 56.15 51.35 48.26 48.13 52.17 46.11 50.66 52.56 52.83 53.22 51.34 50.60 52.08 52.58 52.97 52.95 55.84 54.86 54.01 53.94 53.03
53.47 53.88 54.14 54.16 54.03 53.87 53.67 53.45 52.84 53.65 53.98 54.23 54.69 55.72 51.64 43.94 41.81 48.40 61.34 58.79 59.68 57.07 51.20 51.67 53.17 51.21 46.75 48.11 50.80 47.37 50.32 52.12 52.57 51.67 52.33 52.58 51.24 52.17 52.99 56.10 56.29 54.67 52.39 52.30 53.12
52.99 53.14 53.10 53.08 53.50 54.10 54.27 53.96 53.46 52.55 52.69 53.79 54.13 55.09 48.62 38.99 49.89 48.81 52.26 49.87 50.92 55.17 52.18 49.65 49.81 53.37 48.85 48.86 48.48 49.77 50.68 51.40 51.86 52.45 53.35 51.52 52.08 53.20 54.94 57.05 54.69 53.78 52.33 51.77 53.06
53.19 52.99 52.84 52.80 52.94 53.15 53.82 54.09 53.68 53.27 52.89 52.46 53.99 51.98 46.66 43.03 52.37 53.43 52.24 48.01 48.01 53.13 52.21 52.63 51.55 49.28 46.81 43.55 47.15 46.83 44.09 46.15 47.76 49.49 49.26 51.75 48.10 49.75 54.68 53.80 51.42 51.66 51.85 51.23 52.94
52.84 53.10 52.71 52.80 52.80 52.85 53.24 53.81 53.91 53.50 53.43 52.73 53.29 49.58 41.15 51.16 52.29 51.04 51.68 49.40 50.93 46.86 50.97 55.24 55.01 49.28 44.41 45.61 44.86 41.68 41.59 37.58 45.14 47.93 48.95 49.02 43.18 50.42 53.46 51.43 51.23 51.40 51.77 51.09 51.28
52.65 53.08 52.55 52.48 52.82 52.92 53.15 53.50 53.13 53.26 53.19 52.02 48.26 45.87 38.81 51.83 47.68 51.18 51.36 47.06 48.42 45.62 45.44 51.01 52.23 46.69 44.52 42.64 39.57 38.14 36.60 37.76 40.80 46.67 46.37 47.25 44.03 49.91 50.48 49.86 49.51 50.28 50.43 51.10 50.76
52.67 52.94 52.63 52.36 52.57 52.98 53.07 52.36 51.69 51.16 50.21 50.28 48.58 40.21 43.86 41.74 47.97 49.62 51.13 49.95 45.73 43.28 43.10 44.02 44.34 41.38 39.32 38.95 33.94 34.78 35.18 38.19 39.27 43.94 45.25 43.35 43.84 48.40 50.57 49.84 49.23 49.43 49.78 49.83 50.01
52.34 52.82 52.84 52.24 52.38 52.59 50.25 42.77 40.24 41.76 45.25 39.40 39.87 40.11 42.11 47.84 51.07 48.78 48.17 47.02 45.62 42.80 37.35 41.28 39.00 37.52 40.36 42.33 41.60 40.07 38.67 37.54 39.85 44.92 44.25 42.48 43.11 45.97 49.16 47.95 47.49 49.23 50.33 50.24 50.32
52.42 52.40 52.24 52.24 52.38 52.42 45.87 38.58 43.80 43.54 36.66 43.36 43.47 43.94 46.55 47.53 41.93 45.89 49.11 41.15 41.28 37.26 40.72 40.59 37.04 42.00 44.06 43.31 41.85 40.40 37.81 37.39 41.64 45.75 44.66 43.16 42.97 46.07 47.78 48.21 48.16 49.81 50.32 50.42 48.53
52.50 52.21 52.08 52.01 52.27 44.52 40.21 42.25 48.14 45.41 36.76 39.62 42.87 41.92 42.57 44.84 41.46 41.20 46.83 42.95 40.01 37.26 39.24 36.73 40.01 44.56 43.84 42.06 40.00 39.43 38.27 38.81 38.56 44.67 45.04 42.42 40.85 43.47 47.46 48.05 48.53 49.10 49.61 49.16 48.86
52.47 52.40 52.12 52.09 43.86 41.50 41.73 44.51 47.62 47.47 31.27 32.72 37.77 41.43 43.42 43.04 38.61 45.57 48.42 44.17 39.76 36.77 38.44 38.09 42.14 42.06 42.23 41.57 42.30 37.54 43.49 42.53 41.90 41.21 34.63 41.99 31.51 40.29 43.57 46.31 46.91 47.92 47.33 48.55 49.15
52.39 51.83 51.94 51.56 44.64 41.96 43.19 45.44 46.23 43.88 17.49 34.09 37.85 46.78 44.67 39.08 40.84 41.45 46.83 45.04 39.82 37.05 38.23 35.81 39.11 39.78 39.99 42.52 45.35 40.95 45.93 43.16 43.47 39.36 35.33 37.87 33.69 38.88 41.83 42.52 45.64 46.96 48.04 47.74 47.47
52.08 51.72 51.59 46.54 44.19 44.18 45.77 45.17 42.16 28.38 18.60 31.95 38.79 36.91 36.24 40.19 40.98 43.15 42.90 45.57 45.71 38.47 38.68 38.52 42.55 41.98 41.73 44.89 45.17 45.43 41.88 40.66 38.99 35.87 31.15 37.35 35.81 35.25 39.65 43.80 44.97 46.59 47.72 48.73 48.10
51.84 51.26 49.55 48.54 39.31 43.37 44.11 39.86 25.95 20.75 34.33 31.12 32.47 35.83 35.58 34.80 37.16 38.89 38.18 36.77 36.53 33.57 32.98 36.96 37.17 40.99 43.21 39.51 42.80 41.65 35.99 27.85 25.37 25.60 28.59 38.77 35.21 38.89 43.18 45.50 46.64 47.62 47.70 47.90 49.05
50.84 49.60 47.53 47.18 44.38 45.23 40.22 32.81 20.91 27.70 28.92 35.91 34.55 34.41 33.17 35.34 34.40 36.60 37.11 34.23 38.77 36.92 35.69 31.97 29.91 38.08 42.60 40.11 38.96 40.25 37.97 29.16 24.17 26.34 32.35 37.98 33.88 39.89 45.93 48.23 48.13 48.67 47.53 48.31 49.47
48.87 43.13 42.43 43.67 45.54 45.06 34.89 24.78 23.04 28.89 33.39 31.63 32.78 30.02 31.49 33.87 33.86 34.43 33.90 35.46 37.96 39.08 33.17 33.05 33.22 41.06 42.61 43.91 42.99 39.45 34.49 40.42 33.88 35.79 30.90 33.69 39.29 44.63 45.87 46.66 47.12 46.60 47.38 47.40 48.92
44.24 42.47 39.08 45.44 46.52 44.94 33.23 26.03 29.04 34.91 35.12 33.70 26.52 31.19 26.72 29.97 30.69 30.70 32.94 37.96 36.38 40.10 40.80 35.97 31.17 39.81 41.41 42.81 43.94 39.19 41.80 33.61 34.21 25.91 25.25 33.02 35.17 37.53 41.75 43.71 46.10 46.37 45.70 46.87 49.05
38.94 33.47 39.69 46.33 46.17 39.10 28.61 28.00 31.40 36.12 36.35 32.24 30.46 29.04 29.63 29.94 31.86 30.13 32.14 38.04 36.58 36.81 40.22 35.92 34.16 35.65 39.31 37.90 37.22 35.99 35.41 34.62 36.71 32.39 28.51 27.20 33.29 41.51 44.00 45.16 45.84 46.30 46.19 47.14 49.79
39.55 27.07 40.67 45.16 35.59 33.53 28.67 32.54 36.84 34.86 36.89 34.51 34.45 32.47 30.96 32.84 31.00 30.41 31.21 33.83 37.17 37.46 33.33 37.04 32.23 30.88 35.48 39.83 43.10 41.77 39.02 37.05 34.02 30.22 34.19 33.01 34.00 44.26 44.82 44.30 45.18 46.43 47.28 48.00 49.99
36.09 34.96 40.35 42.87 28.24 28.54 32.25 32.26 34.49 33.43 33.79 32.79 31.71 33.40 33.54 31.74 28.46 32.12 33.11 37.54 37.90 36.68 35.32 36.80 31.16 27.50 31.06 35.31 37.86 38.25 39.68 40.25 35.34 33.98 33.22 33.07 34.68 45.50 45.99 46.10 46.00 46.52 47.44 49.15 50.26
36.49 28.40 32.06 36.43 36.78 32.81 30.41 28.72 30.04 36.11 34.22 34.46 32.65 33.19 31.97 31.76 34.01 31.80 32.46 36.29 38.93 38.64 43.33 37.44 31.32 31.05 30.31 32.68 36.26 34.55 38.19 39.75 36.99 31.15 33.08 36.94 37.33 41.67 45.67 45.13 46.22 46.99 47.73 48.96 50.26
32.83 29.23 33.44 29.12 26.62 31.25 31.98 29.32 28.97 29.60 34.69 34.75 31.59 32.35 31.58 29.14 31.03 31.82 34.46 36.18 37.49 40.06 38.06 33.01 27.85 33.28 35.09 38.88 38.41 38.50 38.46 38.96 36.85 38.68 35.33 36.83 38.35 41.15 44.35 46.17 46.65 47.23 48.58 49.88 50.41
32.49 34.68 34.63 33.75 34.52 31.82 29.28 26.74 29.45 31.08 32.35 31.54 30.94 32.63 31.71 29.66 31.13 30.03 33.19 34.76 33.49 37.02 35.19 33.25 28.06 31.81 32.22 38.81 39.75 37.36 38.37 39.38 39.68 39.58 39.32 39.13 39.55 44.21 46.31 48.59 47.97 48.95 49.75 50.27 51.10
41.43 42.00 38.17 33.39 31.42 30.44 30.19 30.55 30.83 33.03 33.96 35.28 33.33 31.02 30.12 33.02 36.63 36.70 37.67 38.63 37.61 35.15 34.58 31.15 29.87 28.27 25.84 33.49 36.03 32.15 38.19 38.58 39.46 40.95 41.10 38.07 43.27 44.35 46.63 48.71 48.69 48.49 50.32 50.98 51.99

GFSSW_sfc_wetblb_003.txt.gz
Wetbulb
53.73 53.61 53.25 53.23 53.29 53.37 53.58 54.09 54.61 54.97 55.79 56.60 56.94 56.61 56.50 56.63 56.40 52.33 46.55 52.71 56.14 62.67 65.58 62.69 61.42 60.24 57.37 56.19 59.34 57.82 51.89 48.59 49.37 49.53 51.86 55.00 54.49 56.13 57.69 57.20 56.99 57.17 58.54 60.33 61.18
54.01 53.79 53.63 53.99 53.77 53.09 52.98 53.24 53.61 54.48 54.45 55.45 56.56 56.37 56.30 56.63 52.23 48.98 55.82 59.96 62.59 64.34 61.22 57.21 54.81 57.91 56.50 56.55 56.85 55.29 51.30 50.86 54.10 54.36 53.36 54.85 54.89 56.22 55.95 56.16 56.51 57.96 59.91 59.13 60.27
53.96 54.46 54.83 54.76 54.48 54.31 54.01 53.72 53.29 53.51 53.84 53.77 54.93 55.35 56.16 55.98 45.84 45.60 64.87 62.77 61.31 66.10 58.77 57.90 56.46 56.49 53.68 55.60 55.69 54.70 51.02 54.28 54.85 55.74 55.46 54.93 55.35 57.30 55.37 53.96 56.87 56.65 58.71 60.60 60.60
53.59 53.61 53.68 53.50 53.82 54.25 54.62 54.46 54.17 53.99 53.21 53.88 54.24 54.72 56.03 52.29 40.49 55.60 59.40 62.94 67.36 59.72 54.66 53.47 55.61 53.58 51.38 51.50 55.58 51.37 54.54 55.07 55.51 56.32 55.41 54.40 56.32 54.94 56.51 56.70 59.51 59.63 60.22 59.76 59.23
53.28 53.57 53.38 53.23 53.07 53.29 53.68 54.11 54.56 54.25 53.79 52.97 53.69 54.15 51.97 46.04 45.18 50.50 57.29 56.73 58.83 58.74 51.90 52.61 53.65 52.86 50.01 52.19 53.26 52.37 53.78 55.54 56.43 56.46 56.18 56.40 54.63 55.08 55.39 57.97 59.43 59.86 59.76 59.28 59.56
52.66 53.14 53.08 53.14 52.89 52.83 53.07 53.49 53.81 53.89 53.98 53.71 52.65 53.72 47.68 38.09 52.36 53.86 53.82 53.29 50.81 56.21 52.91 51.82 53.51 54.66 52.26 52.37 51.72 53.57 53.95 54.44 55.63 55.58 56.09 54.08 54.26 55.53 56.11 59.00 58.63 59.20 59.19 59.61 59.56
52.47 52.75 52.99 52.85 52.77 53.07 53.20 53.50 53.35 53.74 53.83 53.30 53.30 50.86 44.86 42.40 52.62 54.09 53.17 52.19 51.59 50.29 50.55 53.10 52.99 53.09 53.49 50.91 54.73 54.01 51.05 53.13 53.68 54.41 54.01 53.77 49.72 50.83 55.86 57.24 56.59 57.29 58.44 58.97 59.18
52.55 52.89 52.94 52.78 52.59 52.97 53.10 53.60 53.47 53.41 53.99 53.74 53.81 49.17 41.29 51.34 53.79 51.96 53.21 51.96 53.50 53.34 51.55 51.13 55.15 51.21 50.28 51.32 48.72 47.23 47.76 44.11 49.38 50.63 51.38 50.41 45.81 52.15 55.65 55.74 55.64 56.58 57.01 56.99 58.79
52.21 52.91 52.65 52.94 52.78 52.76 52.94 53.39 52.52 52.96 53.41 53.16 48.97 46.45 39.48 51.52 47.75 52.10 53.08 49.28 51.23 51.69 51.22 49.92 52.99 51.00 49.60 45.79 44.71 45.67 41.96 43.03 45.72 50.47 50.03 50.54 48.00 52.29 54.66 54.42 54.01 55.29 55.96 56.61 57.63
52.65 52.94 53.10 52.71 52.63 52.60 52.84 51.89 51.38 52.02 51.25 51.11 49.06 41.19 43.48 42.32 48.59 50.51 53.48 51.86 48.70 47.38 46.36 45.82 48.02 45.67 46.30 44.28 38.29 41.51 41.11 43.38 43.39 48.03 48.27 47.76 47.88 51.06 52.99 53.16 53.44 54.75 56.03 56.32 56.78
52.23 52.87 52.56 52.75 52.38 52.28 50.77 47.15 45.01 44.10 45.24 41.67 41.55 41.24 43.03 47.37 49.49 47.12 50.94 49.20 48.52 45.55 41.69 44.41 41.95 40.44 42.79 44.99 45.72 45.25 44.34 43.97 47.11 48.29 46.22 46.34 46.70 49.09 52.22 52.99 53.03 53.88 54.74 56.29 57.95
52.21 52.33 52.35 52.06 52.23 51.92 47.77 42.91 43.31 43.22 37.20 43.40 43.32 43.67 46.25 47.60 41.49 44.80 49.00 43.87 42.96 39.99 43.49 41.65 39.14 44.29 46.04 45.10 43.97 43.89 42.82 43.03 45.31 46.43 46.00 45.85 45.72 49.61 51.37 51.89 52.93 54.31 55.03 56.15 57.78
52.61 52.49 52.26 52.15 52.12 47.40 44.97 44.20 48.56 48.00 37.33 40.06 43.69 42.75 43.66 45.39 40.77 41.47 46.57 44.54 41.20 39.81 40.90 40.21 42.59 44.58 43.77 43.30 42.16 42.63 41.75 42.38 42.37 45.55 46.73 45.78 43.95 46.58 50.53 52.77 53.60 54.16 55.45 56.55 57.08
52.25 52.29 52.24 52.16 46.32 45.84 43.61 47.57 48.95 48.23 32.78 34.30 38.40 42.15 44.25 44.11 38.76 46.47 46.46 44.52 41.92 39.34 41.13 41.49 45.22 43.01 42.18 41.84 43.74 39.73 45.11 44.17 43.31 42.04 38.39 46.68 37.55 45.64 48.49 49.45 51.46 52.80 54.86 56.17 57.49
52.17 51.93 51.87 51.39 45.82 42.66 45.25 48.78 48.90 44.86 19.08 35.86 39.30 48.22 44.99 40.85 42.17 43.43 47.39 43.95 40.18 40.47 41.70 39.49 41.05 41.78 40.89 42.13 45.11 42.18 45.94 44.63 44.31 42.77 42.85 42.86 40.05 43.82 48.16 46.67 49.82 52.62 53.72 56.98 57.70
51.95 51.60 50.70 47.64 47.17 47.04 48.74 48.20 46.00 30.68 19.04 32.78 39.23 37.68 37.72 40.58 41.40 44.00 42.65 45.05 45.68 41.78 41.99 42.32 45.41 43.58 43.71 45.43 46.02 47.26 45.39 45.26 44.99 43.19 36.04 41.21 40.60 40.47 44.37 47.12 49.24 52.71 55.12 55.26 56.38
51.37 50.14 48.39 48.16 42.70 47.73 48.36 44.26 29.30 21.87 34.46 31.24 32.81 36.31 35.75 36.26 37.77 39.82 38.38 36.50 35.66 34.67 35.56 39.49 40.57 43.59 44.75 43.07 46.58 46.09 43.06 36.03 34.09 34.47 33.93 42.87 40.35 41.68 47.72 49.27 50.41 52.26 55.40 55.71 56.49
50.47 49.54 47.57 48.35 49.57 49.15 45.39 35.91 21.29 27.92 29.90 36.20 35.07 35.11 32.08 36.14 35.70 36.42 36.01 36.08 38.80 40.12 38.98 34.99 32.97 40.42 44.35 43.52 42.63 43.75 42.75 37.44 31.16 33.35 36.98 42.32 37.55 41.30 50.81 52.27 52.27 54.04 55.69 55.17 56.26
49.12 47.17 46.41 48.30 48.39 47.79 39.42 25.72 25.80 29.23 33.49 32.42 33.45 30.26 31.11 34.34 34.68 34.12 33.66 35.98 39.40 39.77 35.84 36.56 36.54 43.18 44.14 44.90 45.67 43.18 39.99 45.57 39.38 40.65 37.91 41.29 43.92 48.29 51.48 51.77 53.45 53.65 53.44 54.84 56.12
44.32 43.14 44.66 49.08 49.42 45.10 35.87 27.86 30.16 35.50 35.45 34.60 27.38 31.09 27.65 30.77 31.67 31.78 30.69 37.18 35.35 39.63 41.23 39.49 36.11 42.54 42.53 44.94 45.02 43.74 45.86 38.32 39.90 31.80 30.37 36.61 39.55 42.93 48.81 50.61 52.45 53.39 53.95 54.79 56.06
43.10 38.98 46.28 47.19 47.74 37.57 29.84 30.28 32.74 37.52 37.37 32.85 30.74 29.95 30.86 29.91 32.17 30.77 31.17 34.95 36.76 37.32 40.24 40.66 38.99 40.16 42.08 40.91 40.57 40.99 41.06 42.30 42.78 40.07 34.46 33.12 38.23 50.17 51.20 53.44 53.47 54.09 55.26 55.24 55.99
42.28 34.35 45.11 47.68 36.77 34.87 31.09 32.92 36.06 35.75 38.24 35.80 35.87 34.10 32.04 32.52 30.90 30.56 30.24 32.64 37.79 37.72 34.88 40.52 39.55 36.80 39.63 44.70 46.09 44.54 42.86 43.10 37.79 35.75 39.46 38.56 40.32 51.59 52.88 53.70 53.38 53.21 54.29 55.69 57.00
37.07 35.89 44.78 45.82 29.77 29.79 32.41 32.76 34.90 34.61 35.09 34.36 33.30 35.12 36.03 32.78 29.03 32.68 33.16 37.35 37.83 37.53 36.42 39.65 38.08 34.76 36.76 41.19 44.23 41.96 43.60 44.46 44.61 44.08 38.06 34.77 40.26 51.43 53.42 53.39 53.42 53.89 53.94 55.24 56.68
38.87 31.78 38.22 41.37 38.19 31.81 29.90 30.66 31.09 37.11 35.77 36.20 35.20 36.41 34.63 33.02 35.24 31.89 33.28 36.54 38.78 38.55 42.57 40.77 36.33 36.60 35.92 38.73 41.83 39.65 41.62 43.42 43.44 39.55 39.51 40.04 42.59 47.33 49.99 52.62 53.33 53.68 54.94 56.12 56.64
39.03 34.16 36.87 30.60 33.09 33.07 31.94 31.04 30.16 30.61 35.87 36.71 34.02 33.60 31.68 29.62 31.30 32.95 34.73 36.50 37.87 39.14 39.54 38.08 33.02 36.17 38.84 39.72 42.36 41.24 40.97 41.71 40.90 41.79 38.66 42.70 43.16 46.44 51.06 51.93 53.78 54.88 55.09 55.79 55.93
37.29 35.99 38.47 35.24 35.40 33.01 32.39 30.45 30.44 32.15 32.52 31.74 32.25 34.08 33.49 29.92 31.11 29.36 34.23 34.76 34.28 37.48 37.00 39.23 33.89 35.99 36.25 40.25 41.43 40.62 42.05 42.51 41.82 42.36 42.35 43.55 43.81 50.16 52.23 53.72 53.67 54.29 54.82 55.49 56.19
43.20 43.42 38.97 35.09 33.22 32.06 32.02 31.75 32.14 35.25 35.53 36.33 35.17 33.76 32.65 34.57 37.15 38.10 38.51 38.28 37.98 36.64 36.13 36.36 35.55 34.95 34.65 38.37 40.45 37.67 42.04 42.95 42.87 43.88 43.58 41.14 45.95 49.81 50.14 52.57 55.17 55.25 55.69 56.57 57.08

GFSSW_sfc_wetblb_006.txt.gz
Wetbulb
55.12 55.21 54.69 54.92 54.77 54.43 54.11 53.81 53.82 54.17 54.92 55.15 55.66 56.49 56.65 57.08 56.84 56.75 50.38 55.71 58.63 64.11 65.42 63.23 62.32 61.58 59.78 57.67 60.12 61.35 54.10 51.79 53.25 53.71 54.80 58.30 56.89 59.41 60.51 59.23 60.21 60.87 60.40 62.33 63.59
53.96 54.18 54.65 54.70 54.93 55.04 54.94 54.74 54.46 54.00 53.90 54.21 54.46 55.18 55.86 56.66 55.11 53.21 60.33 59.94 62.86 64.10 55.97 59.29 57.53 59.22 58.23 58.08 58.96 57.91 54.02 53.81 57.08 57.81 56.77 58.16 58.12 58.71 57.90 58.41 58.48 59.86 62.21 63.31 63.48
54.01 54.23 53.93 53.98 53.86 53.82 54.09 54.75 55.13 54.80 54.28 53.92 54.17 54.83 55.57 56.27 51.43 50.51 60.67 64.73 63.47 62.96 54.46 57.91 57.50 56.59 54.72 57.64 58.01 57.59 54.00 57.33 57.69 58.74 59.23 57.92 57.84 59.56 57.49 56.41 58.24 58.82 60.76 62.27 62.78
53.45 53.44 53.73 53.72 53.46 53.39 53.57 53.76 54.19 54.77 54.63 54.25 53.67 54.26 55.36 54.45 43.30 58.22 58.89 61.07 65.03 62.85 55.97 55.05 56.30 53.24 52.73 52.53 57.13 54.67 57.48 58.00 58.55 58.87 58.44 57.31 59.04 57.55 58.17 58.50 60.38 61.11 61.73 61.73 61.86
52.31 52.83 53.32 53.34 53.49 53.31 53.07 53.62 53.67 53.81 53.98 54.41 54.01 53.38 53.45 48.79 48.69 56.65 60.90 60.61 55.81 59.23 54.96 55.01 54.49 54.13 52.59 53.91 53.97 54.61 56.48 58.01 58.38 58.47 58.28 58.63 57.15 57.21 57.95 59.78 61.21 61.13 61.60 61.75 62.11
52.83 53.12 53.30 53.41 53.43 53.19 53.56 53.80 53.83 53.69 53.65 53.76 53.88 53.23 50.47 42.35 53.55 55.80 55.95 55.83 55.01 55.54 56.08 55.42 53.58 56.25 55.38 54.93 53.76 54.85 55.19 55.97 57.50 57.55 58.06 56.76 56.85 57.60 58.12 59.21 59.89 60.44 60.23 60.62 60.94
52.47 52.65 53.02 53.29 53.45 53.51 53.51 53.62 53.65 53.84 53.72 53.99 54.02 52.69 48.07 46.14 53.42 54.72 54.55 54.10 55.08 53.54 53.41 55.06 55.91 55.30 56.12 53.40 56.76 55.08 52.42 53.95 55.00 56.27 55.79 57.15 53.98 54.44 58.14 58.84 58.80 58.78 59.33 60.05 60.76
52.53 52.91 53.04 53.25 53.15 53.47 53.33 53.49 53.55 53.39 53.57 54.02 54.03 51.33 44.49 52.41 54.72 52.89 54.54 54.00 55.23 55.50 53.84 54.23 55.04 53.53 54.79 56.47 53.90 52.06 53.07 49.13 54.27 55.56 56.28 55.79 49.83 55.31 57.92 57.26 56.99 57.84 57.96 58.77 59.97
52.70 53.16 52.91 53.08 52.75 53.08 53.05 53.20 53.09 53.09 53.62 53.65 51.55 48.62 43.87 53.11 49.18 52.15 54.00 51.32 53.36 54.30 55.08 53.57 52.16 51.29 51.66 48.06 47.71 50.14 46.15 48.83 51.23 55.63 53.98 52.98 50.68 55.30 57.60 57.15 56.48 57.37 57.65 57.88 59.35
52.79 52.95 53.22 52.87 52.58 52.89 52.89 52.54 52.79 52.48 53.56 54.00 51.77 44.74 47.59 44.04 49.27 51.87 53.54 53.93 51.02 51.26 50.97 50.16 48.95 47.54 48.16 47.06 42.19 45.61 46.57 47.94 48.58 52.94 53.10 50.93 51.31 54.40 56.53 56.45 55.81 56.23 56.86 57.39 58.61
52.52 52.80 52.87 53.26 52.64 52.35 51.56 51.89 48.64 47.70 48.34 45.34 44.66 44.83 45.76 48.91 49.83 48.61 50.62 51.05 51.18 49.07 44.79 47.92 43.97 43.08 46.29 48.51 48.90 48.78 48.42 48.28 50.80 52.99 51.42 50.72 51.01 52.95 55.60 55.43 54.59 55.74 56.24 57.25 58.75
52.20 52.12 52.35 52.74 52.66 52.42 51.57 46.09 45.93 46.84 40.63 46.45 46.11 45.99 47.69 48.52 43.24 46.79 50.42 45.02 46.73 43.10 46.35 45.59 41.87 46.88 48.79 49.08 48.16 47.97 47.05 47.33 50.44 52.22 51.56 50.35 49.60 52.46 53.81 54.25 55.25 55.86 56.08 57.16 59.37
52.48 52.19 52.24 52.16 52.08 51.42 48.36 47.29 51.24 50.76 40.32 42.88 45.64 44.83 46.23 47.84 43.93 44.98 47.68 45.45 43.66 43.35 44.23 42.93 44.96 47.66 46.99 46.73 45.97 46.47 45.92 46.61 46.27 49.91 51.27 49.09 46.94 49.29 52.48 54.13 54.53 55.74 57.46 59.04 58.87
52.20 52.15 52.05 51.65 48.85 50.55 46.82 50.27 51.78 51.26 34.52 37.92 41.17 45.14 47.14 46.85 42.52 49.41 49.52 45.43 44.28 42.16 44.09 44.11 47.64 46.48 46.02 45.18 46.78 43.62 47.85 46.58 46.52 45.77 42.20 49.14 40.88 48.27 50.97 51.76 53.70 55.14 56.59 57.66 58.69
51.99 51.58 50.86 50.56 48.60 46.48 48.28 51.42 51.62 48.67 23.60 38.24 42.19 50.63 47.31 43.16 44.05 45.19 50.11 46.64 40.50 42.98 44.36 42.08 44.22 44.78 44.74 45.51 47.66 45.53 47.37 47.35 46.83 45.43 45.07 44.99 42.53 46.06 50.40 49.63 52.16 55.03 56.53 58.43 58.75
51.73 51.23 50.18 50.84 48.78 50.01 51.36 51.22 48.58 33.12 23.42 34.88 41.10 40.25 40.38 42.12 42.19 44.94 45.98 48.08 46.41 41.03 44.45 44.37 48.45 46.95 46.91 48.08 48.17 48.91 46.55 47.08 46.95 45.35 39.48 44.01 43.71 44.35 47.86 50.63 52.71 55.10 55.37 57.18 59.07
51.48 50.57 49.74 51.25 46.01 51.55 51.22 46.60 32.61 25.78 36.87 33.61 35.29 39.07 38.36 37.75 38.70 40.85 40.56 41.12 38.76 34.48 35.97 42.75 43.47 46.74 47.78 45.89 48.09 47.34 45.23 39.93 38.30 38.67 38.12 45.94 43.58 45.61 51.38 53.03 53.65 53.68 56.02 59.35 60.85
50.70 49.30 49.24 52.15 51.53 51.16 47.79 38.06 24.77 31.35 31.88 37.88 36.77 37.24 34.44 37.18 37.51 38.30 38.30 37.64 43.08 40.48 38.48 36.66 36.49 43.43 46.99 46.31 44.75 45.27 45.39 40.64 34.45 36.52 40.46 46.01 41.72 46.10 52.25 54.35 55.47 56.16 55.92 58.30 60.70
49.19 53.09 52.60 51.81 51.84 50.23 41.05 30.11 30.36 32.96 35.77 34.47 35.95 33.24 34.08 35.89 36.21 36.61 36.35 35.87 40.76 42.80 35.77 37.18 39.12 45.89 46.41 47.26 48.21 45.55 43.77 48.24 43.12 44.03 41.40 44.18 47.05 51.31 53.99 54.59 55.02 55.80 57.31 58.66 61.23
48.30 48.40 48.60 52.15 52.08 44.71 35.44 30.61 33.89 37.98 38.06 37.48 30.86 33.77 30.96 33.22 33.64 35.06 34.20 35.82 35.89 42.49 44.95 40.94 38.37 45.11 45.28 47.42 48.14 48.19 49.25 42.43 43.58 36.75 35.50 40.41 42.14 43.60 49.64 52.12 54.03 55.14 56.90 59.80 61.09
48.05 43.76 49.17 52.35 50.66 42.96 33.02 33.14 36.29 39.95 39.84 35.60 33.96 33.07 33.59 32.88 34.53 33.60 31.29 35.54 36.36 39.38 43.14 43.02 41.54 42.87 45.07 43.47 43.74 45.63 45.31 46.22 46.34 43.52 38.46 37.71 40.68 51.08 51.08 53.19 55.18 56.76 59.31 60.32 60.85
45.60 39.84 49.19 51.45 40.23 39.13 33.59 35.51 38.28 38.39 40.96 38.45 38.43 36.15 34.25 34.78 34.25 33.80 32.70 35.13 38.81 40.53 36.71 43.60 41.70 38.84 42.03 46.13 48.14 47.61 46.16 46.84 41.41 40.35 42.43 41.04 41.75 53.65 54.65 56.02 56.63 57.02 59.44 60.98 61.54
41.19 41.68 50.03 48.94 33.26 32.13 34.98 36.24 38.27 37.40 37.81 37.34 36.26 37.78 38.86 35.59 31.60 34.79 36.42 39.84 38.72 38.23 37.34 42.33 40.06 37.41 40.60 44.10 46.49 45.22 45.96 47.19 47.70 47.62 42.44 39.60 42.93 52.65 56.09 56.64 57.39 57.73 59.41 60.37 61.05
42.76 37.41 42.45 45.14 40.70 35.44 33.32 34.32 34.57 39.51 38.05 38.71 37.66 38.70 36.90 35.21 37.01 34.01 35.09 38.31 39.55 38.87 41.47 42.51 41.40 40.29 38.89 41.33 45.00 42.81 44.47 46.31 46.59 42.79 42.68 43.32 44.72 48.86 53.54 54.44 56.45 58.02 59.72 60.61 60.83
42.93 39.00 39.89 35.41 36.68 36.36 35.97 34.35 31.98 32.36 38.18 39.61 36.47 36.27 34.70 32.29 33.77 31.52 33.64 36.05 39.34 39.30 40.95 40.38 38.31 41.70 43.16 43.87 44.96 44.80 44.20 45.15 44.88 46.10 43.13 44.76 45.71 48.75 52.39 53.78 56.23 58.47 59.64 59.92 60.11
40.28 37.55 40.14 38.13 38.42 36.19 35.65 34.66 33.35 35.18 35.12 35.46 34.96 36.41 37.27 34.30 35.15 32.23 35.06 35.99 34.91 39.76 40.02 42.64 39.59 42.46 40.19 43.49 44.09 43.29 44.92 45.52 45.90 46.45 46.43 46.39 46.99 52.15 53.81 54.47 55.92 57.60 59.21 59.75 60.03
44.25 45.76 40.13 37.20 35.67 33.90 34.58 34.93 35.56 37.64 38.09 39.22 38.05 36.68 35.98 38.04 40.84 41.61 41.87 41.33 39.69 37.22 37.12 37.95 38.07 39.71 37.24 42.85 42.66 40.80 44.58 45.13 46.01 47.42 47.38 44.51 48.67 53.36 53.22 54.43 56.08 57.97 59.08 60.08 60.81

GFSSW_sfc_wetblb_012.txt.gz
Wetbulb
54.00 54.29 54.18 54.08 54.40 54.60 54.52 54.42 54.77 54.96 55.50 56.00 55.98 55.64 55.64 55.40 55.68 54.84 52.41 57.35 60.97 64.57 64.24 60.48 63.62 63.50 64.00 62.83 62.46 57.62 50.06 49.42 51.81 52.63 54.17 57.97 56.68 59.34 61.20 59.52 60.03 60.90 60.82 62.20 64.14
53.36 53.65 54.07 54.29 54.34 54.30 54.40 54.55 54.50 54.56 54.90 54.94 55.40 55.70 55.79 55.94 52.45 52.13 58.91 65.74 66.19 66.20 56.31 56.20 59.49 60.75 58.61 57.64 59.47 55.45 50.64 50.69 55.70 56.51 55.75 57.53 57.90 58.29 58.53 58.76 59.01 60.37 62.87 63.35 63.47
52.91 53.32 53.77 53.92 54.30 54.35 54.46 54.52 54.52 54.58 54.64 54.70 54.60 54.88 55.90 55.25 51.19 51.79 62.26 64.87 65.10 63.82 55.51 55.75 56.78 59.39 56.22 56.94 55.99 55.69 51.74 54.28 55.92 58.07 58.57 57.90 58.03 59.78 58.03 57.16 59.38 59.42 60.96 62.49 62.54
53.25 53.57 53.75 54.00 54.26 54.34 54.35 54.63 54.70 54.48 54.50 54.49 54.45 54.66 55.44 53.30 43.50 56.16 63.25 61.91 62.57 57.77 54.58 52.83 51.85 50.28 53.40 53.94 56.57 52.57 55.57 56.33 56.59 57.81 57.76 57.15 58.94 57.76 58.27 58.73 61.16 61.32 62.89 62.58 62.18
53.05 53.31 53.66 53.80 54.10 54.65 54.27 54.16 54.63 54.59 54.20 54.02 54.15 54.25 52.77 46.56 48.16 56.71 64.51 63.12 57.56 57.24 55.92 54.36 51.41 50.18 48.84 53.73 55.80 53.82 54.73 56.31 57.54 57.94 57.96 58.68 57.27 57.27 57.62 60.35 61.68 61.44 62.47 62.15 62.34
53.55 53.42 53.44 53.50 53.73 54.16 54.58 54.35 54.37 54.57 53.99 53.90 54.25 53.87 49.97 41.51 53.87 55.47 56.13 55.48 55.67 55.00 55.03 56.78 55.13 53.40 51.16 51.83 53.10 56.17 55.64 55.46 56.63 56.67 57.23 55.72 56.07 56.82 57.78 60.60 60.28 61.06 61.43 61.75 62.25
53.99 53.85 53.07 53.34 53.53 53.86 54.47 54.16 53.68 53.95 53.66 54.07 54.38 53.38 47.54 45.50 53.24 54.19 53.68 53.01 54.34 54.45 52.76 55.57 56.68 54.41 53.36 50.49 54.13 54.39 52.80 55.06 55.70 56.13 55.84 57.42 54.36 54.96 58.25 59.42 59.10 60.04 60.66 61.43 62.11
53.83 53.68 53.68 53.48 53.71 54.10 54.24 53.83 53.45 53.56 53.65 54.14 54.62 52.18 44.03 52.17 53.53 52.07 52.85 51.80 52.83 52.53 52.46 54.56 55.74 53.69 52.86 54.20 52.22 50.80 51.52 48.53 53.62 55.02 55.83 55.58 49.51 56.09 58.88 58.06 58.06 59.10 60.15 61.06 61.57
53.64 53.55 52.92 52.78 52.92 53.20 53.68 53.45 53.76 54.03 54.38 54.63 52.16 49.69 44.39 55.64 50.18 52.62 53.05 49.68 50.42 51.46 52.31 53.99 53.32 51.41 51.82 48.41 47.22 49.19 46.04 47.54 50.41 54.92 54.64 54.35 51.49 55.98 58.79 58.31 57.96 59.04 59.90 59.97 60.72
53.29 53.08 53.18 52.73 52.81 53.18 52.94 52.69 53.42 54.00 54.61 55.38 53.99 47.44 50.15 47.93 50.55 51.85 54.12 52.75 49.78 49.81 49.22 49.00 49.23 46.32 47.45 46.04 41.14 43.83 45.04 47.65 48.74 52.57 53.87 52.33 52.47 55.64 57.81 57.76 57.78 58.47 59.58 59.11 59.88
52.79 53.10 52.81 52.98 53.06 52.61 51.32 52.80 48.76 47.79 50.88 47.51 49.11 47.87 48.92 50.67 51.37 48.82 50.67 48.82 48.66 47.64 43.55 46.86 44.03 41.98 44.55 46.89 47.21 47.53 46.98 46.26 49.69 52.65 51.82 52.19 52.47 54.23 56.74 56.97 56.93 57.95 58.39 58.97 59.66
52.52 52.37 52.67 52.87 52.90 52.29 51.34 48.82 48.37 48.99 41.82 47.87 47.65 47.41 49.01 49.04 44.27 46.93 50.29 44.76 43.85 40.61 45.77 43.68 41.69 46.64 47.79 47.59 46.57 45.81 45.24 45.82 49.61 51.46 51.69 51.39 51.27 54.60 56.40 56.90 57.58 57.85 58.61 59.11 59.39
52.61 52.59 52.55 52.53 52.09 51.62 50.54 49.60 52.49 51.53 41.87 43.74 46.54 46.01 46.72 47.84 44.19 44.87 47.72 45.38 41.68 40.01 41.67 41.25 43.38 47.40 46.60 45.73 45.02 45.57 44.70 45.57 45.56 49.38 51.32 50.75 49.17 52.29 54.83 56.69 57.56 58.00 58.64 58.74 58.48
52.18 52.10 52.16 51.74 48.86 51.18 48.65 52.28 52.56 52.17 36.01 39.40 42.29 45.47 47.12 47.27 43.44 49.15 50.01 46.91 43.21 39.23 40.37 40.93 45.61 44.39 45.04 44.36 46.03 42.82 47.59 47.12 46.79 46.40 43.29 50.54 42.75 51.14 53.07 54.01 55.84 56.94 57.83 58.40 59.72
51.86 52.14 51.91 50.75 50.20 49.05 50.50 53.69 52.54 48.79 23.53 41.30 42.98 50.88 48.31 44.79 45.82 46.07 51.22 47.48 41.59 41.72 41.47 38.48 40.59 42.32 42.06 44.48 47.27 44.88 48.50 47.43 47.39 46.02 46.44 46.21 44.08 47.34 51.82 50.72 52.96 55.80 57.16 58.07 59.15
51.55 51.95 51.63 52.76 51.86 52.80 53.85 52.80 49.19 32.66 23.82 36.97 42.54 41.30 42.10 43.69 44.24 46.08 46.93 49.47 48.06 43.39 42.73 41.27 44.75 42.97 44.87 46.47 47.10 48.99 46.91 46.74 47.17 46.37 41.13 45.85 44.76 45.32 48.53 50.75 53.33 55.91 56.52 58.39 59.47
51.15 50.89 50.22 52.99 48.57 53.95 52.88 47.91 32.44 26.10 38.16 34.57 36.13 39.21 39.32 39.04 40.73 41.60 40.98 40.92 39.08 35.59 36.62 40.42 40.83 43.22 44.39 43.19 46.79 46.37 45.60 39.39 37.45 38.76 38.20 46.72 44.66 47.22 52.12 53.57 53.96 54.78 55.60 58.24 61.73
50.14 49.52 53.06 53.64 54.20 53.64 49.54 39.35 25.92 32.96 33.11 39.95 38.90 38.97 36.47 39.12 38.90 38.94 38.56 36.65 40.98 40.76 36.66 34.66 34.51 40.33 44.12 42.74 43.26 44.35 45.20 40.18 33.23 35.57 39.42 46.24 42.21 46.55 54.38 55.70 56.41 56.04 57.58 60.18 62.47
48.98 54.49 52.87 53.96 54.55 52.82 43.75 31.88 29.95 34.24 37.93 36.99 37.93 34.94 35.17 36.87 38.52 38.89 37.93 36.93 39.66 41.63 35.27 34.14 36.08 44.98 43.45 45.29 45.72 44.17 41.17 47.29 43.29 44.55 41.08 45.00 48.53 52.20 54.60 53.83 55.66 55.52 57.03 61.37 62.57
49.00 50.90 51.02 54.97 54.97 49.70 39.55 33.58 36.31 39.76 39.23 38.75 32.79 33.36 31.20 35.18 34.38 34.62 36.36 39.87 39.51 42.46 43.05 38.55 32.39 41.46 45.23 44.63 45.75 45.35 47.98 41.54 43.65 36.45 37.13 42.35 45.10 45.77 50.78 52.41 53.89 54.81 57.40 61.55 62.98
49.77 46.66 52.23 53.93 53.77 45.53 35.39 36.30 38.45 41.65 41.36 37.56 35.58 34.59 34.72 34.18 36.16 34.64 35.15 39.68 42.08 40.98 42.86 40.76 37.28 36.65 43.20 42.01 40.44 43.35 42.76 44.42 46.75 44.66 39.48 39.24 43.32 52.38 51.36 52.61 54.08 55.47 59.70 61.91 62.35
49.44 42.08 52.41 53.67 41.98 43.56 37.57 39.26 41.20 39.59 42.62 40.22 39.66 37.85 35.27 36.24 34.53 35.83 34.43 36.24 40.27 42.64 37.66 41.06 37.62 34.37 38.27 45.64 45.40 46.60 44.61 45.73 42.19 41.05 44.30 44.47 44.58 55.99 55.56 55.08 56.58 58.87 61.04 62.15 62.82
46.20 46.69 52.72 51.08 37.12 37.25 40.15 38.95 41.05 39.82 40.48 39.48 38.33 39.89 40.44 36.66 33.14 36.15 36.78 40.95 41.20 40.20 37.70 38.57 36.91 32.30 36.16 41.74 46.17 43.83 45.14 47.37 48.50 48.68 44.25 41.58 44.19 55.29 54.58 55.80 57.44 59.72 60.96 61.92 62.35
46.70 40.61 45.58 46.89 45.02 39.57 36.92 37.17 37.02 42.04 40.68 41.21 39.58 40.65 39.02 36.98 39.22 34.95 36.61 40.09 41.08 40.68 41.57 40.78 35.67 34.59 32.54 38.01 41.59 41.76 43.69 46.45 47.28 43.04 45.43 45.76 46.71 50.34 54.11 55.40 57.22 60.06 61.07 61.55 61.91
47.32 42.42 44.58 37.55 39.34 39.80 39.61 38.56 36.40 36.04 40.65 41.33 38.24 38.59 37.06 34.04 35.88 35.58 37.94 39.46 40.96 42.14 40.36 37.99 33.34 36.52 36.87 38.36 38.83 40.80 44.33 45.17 45.82 47.42 44.57 47.34 47.09 51.69 55.19 56.13 57.81 60.84 61.18 60.81 61.40
43.01 41.64 43.38 40.36 42.02 39.81 39.05 37.91 36.79 37.68 38.51 37.39 36.87 38.91 39.05 35.57 36.86 34.84 37.84 38.22 36.88 41.07 39.15 39.74 33.14 37.12 34.54 36.76 38.60 38.39 43.84 45.59 46.97 47.91 48.14 48.76 48.31 54.91 57.84 59.15 58.57 59.93 60.06 59.88 60.88
48.15 48.10 42.36 40.52 40.29 39.00 38.26 38.89 38.71 40.31 40.68 41.55 40.24 38.48 38.03 39.39 42.48 43.30 43.28 42.40 41.32 39.39 37.98 37.33 37.21 35.07 30.55 36.14 36.40 36.15 43.76 45.94 47.09 50.33 50.10 46.43 51.24 55.94 55.33 55.87 57.64 59.73 60.35 60.27 60.77

GFSSW_sfc_wetblb_015.txt.gz
Wetbulb
53.56 53.85 54.05 53.86 54.47 54.66 54.82 54.71 54.81 55.03 55.03 55.28 55.50 55.53 55.72 56.06 56.05 51.14 48.58 54.02 57.37 61.86 64.63 61.02 60.25 59.31 61.54 59.80 60.81 56.47 42.98 40.89 45.47 47.95 50.98 56.12 54.98 57.77 59.35 57.87 59.09 60.22 59.47 60.80 62.59
53.70 53.96 53.92 54.13 54.22 54.48 54.66 54.72 54.73 54.69 54.92 55.09 55.16 55.19 55.60 55.93 50.51 48.23 55.42 62.80 63.85 66.44 57.14 53.22 51.56 57.22 57.09 56.89 57.91 55.69 45.74 45.54 50.01 50.99 51.09 54.57 55.22 56.26 56.87 56.38 57.07 59.09 61.63 62.66 63.06
53.32 53.61 53.92 54.13 54.30 53.97 54.28 54.45 54.64 54.73 54.77 54.70 54.69 54.75 55.40 54.59 47.49 49.16 64.71 63.36 62.70 64.83 55.58 54.97 53.92 53.28 54.64 54.99 54.07 54.24 50.48 52.99 52.67 53.26 54.05 54.17 55.08 57.27 56.27 54.14 57.14 56.54 59.60 60.98 61.46
53.49 53.74 53.80 53.84 53.87 54.14 54.26 54.54 54.58 54.32 54.61 54.58 54.28 54.44 54.95 51.06 37.66 52.51 63.83 64.31 63.68 58.53 53.49 51.44 48.89 44.97 44.18 49.27 54.31 49.54 52.74 54.26 54.49 54.85 54.06 53.07 55.84 55.24 56.03 55.60 57.95 58.55 59.07 59.25 59.06
53.75 53.99 53.71 53.68 53.78 53.86 54.17 54.38 54.59 54.53 54.04 53.94 54.17 54.30 50.36 43.28 43.46 52.14 65.08 63.59 58.12 54.44 51.17 49.05 46.22 44.76 42.49 45.30 49.83 51.22 52.51 53.87 54.82 55.09 54.79 55.62 54.26 54.64 55.29 58.11 58.76 58.76 58.72 58.00 58.17
53.62 53.52 53.52 53.58 53.52 53.61 54.21 54.47 54.63 54.23 53.77 53.78 53.87 53.89 47.24 37.97 50.39 51.75 52.48 55.06 55.19 52.89 51.88 51.11 48.98 49.63 46.83 45.83 45.82 48.71 52.30 53.70 54.30 53.73 54.45 53.74 53.98 54.65 55.42 57.26 57.16 57.38 56.70 57.44 58.05
54.10 53.87 53.42 53.26 53.21 53.34 53.98 53.93 53.64 53.93 53.52 53.80 54.38 52.11 45.24 42.26 50.37 50.71 49.85 48.45 49.54 50.32 49.82 52.26 53.16 52.15 49.77 45.78 49.42 48.92 45.92 48.68 51.22 52.98 52.63 54.71 51.28 51.97 55.92 56.86 56.30 56.15 56.93 57.26 57.46
53.60 53.62 53.17 53.05 52.97 53.37 53.96 53.62 53.42 53.48 53.56 53.99 54.83 50.04 40.95 50.50 51.16 49.60 49.63 48.67 50.32 50.14 49.31 50.05 50.10 47.57 46.06 48.87 48.60 46.07 46.04 41.71 47.86 50.07 52.34 52.95 46.74 52.74 55.24 55.31 55.01 56.26 57.25 57.46 57.24
53.62 53.35 52.98 53.00 53.15 53.26 53.72 53.40 53.85 54.02 54.42 54.50 50.13 46.72 39.94 53.88 48.93 50.66 50.37 47.76 48.82 48.93 48.64 50.70 47.94 44.94 46.24 42.63 40.86 42.69 39.28 41.30 44.46 50.16 50.11 49.92 47.62 52.43 55.11 54.83 54.64 55.39 56.36 56.87 57.44
53.21 53.07 53.09 53.11 53.00 53.25 52.91 52.76 52.85 54.02 53.15 53.13 52.05 44.73 47.08 46.17 50.63 51.60 51.95 51.70 49.17 46.91 45.93 44.92 42.52 41.30 41.20 39.68 34.40 38.23 39.82 42.60 42.75 47.60 49.48 48.28 48.07 51.66 53.74 54.18 54.02 54.87 55.86 56.42 56.92
52.59 52.76 52.67 52.67 52.92 52.24 50.47 46.25 44.80 43.58 47.14 43.71 45.04 45.87 47.49 51.81 54.18 48.97 51.21 48.39 46.74 44.57 38.41 42.22 36.94 35.35 39.30 41.76 43.30 43.19 42.59 41.90 45.03 48.91 47.80 47.14 47.65 50.01 52.72 52.96 52.66 53.24 53.01 54.52 54.96
52.11 52.26 52.59 52.62 52.82 52.17 49.02 44.43 45.79 44.62 37.92 45.07 45.42 45.24 47.87 49.00 44.67 46.81 49.18 42.60 41.65 36.63 40.21 38.79 35.44 40.59 43.99 44.19 43.33 42.51 40.47 40.40 44.79 48.22 46.75 46.24 46.01 49.94 51.28 51.45 52.20 52.97 53.30 53.86 54.78
51.96 52.09 52.56 52.81 52.38 49.51 46.56 47.64 51.07 48.22 37.42 40.73 44.49 44.16 44.62 46.29 42.48 42.98 45.84 43.44 39.83 37.00 37.21 34.72 39.28 44.46 42.79 42.06 41.29 41.52 40.19 40.61 40.97 45.22 46.44 44.60 43.18 46.06 49.81 51.72 53.37 53.93 53.87 54.33 55.25
51.55 51.67 52.17 52.08 47.88 47.96 45.90 50.11 49.71 48.89 30.07 36.23 42.91 44.61 45.03 44.91 40.50 47.17 47.78 43.93 40.46 36.54 37.51 36.03 40.21 40.92 41.17 40.22 42.29 37.89 44.48 44.27 43.42 41.72 36.58 44.61 35.88 43.84 47.22 49.31 51.52 53.17 53.88 53.71 55.08
51.13 51.61 51.96 51.04 45.99 45.49 48.09 50.58 49.24 44.10 19.86 39.49 41.29 50.33 46.99 42.28 44.54 45.33 48.33 44.74 39.37 39.25 38.36 35.07 37.37 37.31 37.24 40.44 43.61 40.35 45.95 44.00 43.61 41.02 39.90 41.09 37.48 40.41 46.83 46.11 48.18 50.92 51.91 52.65 53.65
50.89 51.50 51.26 49.90 47.24 48.97 50.20 50.07 46.64 31.37 22.01 35.02 41.01 39.38 39.07 41.36 42.59 44.87 45.50 47.28 46.05 40.59 40.35 39.14 43.31 40.35 38.83 41.55 43.23 44.78 43.08 42.73 42.36 39.88 33.25 39.44 39.31 40.03 42.86 45.94 49.03 50.94 52.55 53.74 55.83
50.92 50.51 49.02 50.53 44.48 50.02 48.68 44.69 31.42 23.41 37.17 33.52 35.26 38.80 38.46 37.49 39.71 40.83 39.94 38.94 35.26 33.30 33.25 38.84 40.03 41.76 42.56 38.02 40.75 40.49 37.27 30.30 29.82 30.84 31.17 40.63 38.73 41.53 46.18 49.40 50.53 50.68 51.33 55.08 58.78
50.28 49.48 49.96 52.13 50.63 49.14 45.38 35.55 22.91 32.03 32.73 37.76 36.96 37.94 34.37 36.48 36.37 37.50 36.75 33.40 38.98 38.77 32.95 30.88 29.77 39.47 44.10 38.97 35.79 36.24 37.45 31.30 25.05 28.42 32.75 41.14 35.68 40.65 48.85 51.18 52.13 53.14 51.37 58.40 59.25
49.18 49.33 48.51 50.50 51.56 48.56 39.35 29.88 26.97 32.64 36.99 35.62 36.14 32.32 32.31 35.97 35.36 35.35 34.70 35.14 38.08 39.37 32.36 31.12 32.03 41.83 42.35 43.09 40.47 36.42 33.51 40.95 35.16 37.55 34.39 37.11 41.41 45.88 48.29 49.54 51.31 51.93 53.44 57.03 58.50
45.57 45.61 47.21 51.62 51.25 45.57 35.57 31.27 34.82 38.17 38.30 36.56 30.21 34.26 29.45 32.46 33.12 33.20 32.90 38.63 36.40 40.22 40.73 35.74 28.58 38.26 40.23 42.19 42.10 39.55 40.83 33.90 35.66 27.79 27.31 35.80 38.34 39.96 46.04 47.83 50.38 50.40 54.54 56.77 58.62
45.33 43.12 48.52 51.64 49.95 41.93 29.30 32.77 36.66 39.58 40.06 36.28 34.18 32.50 33.10 32.49 33.09 32.44 33.84 37.82 38.69 38.16 38.13 37.41 32.38 33.06 37.89 35.87 34.86 37.58 35.41 36.56 37.01 35.95 31.05 30.31 36.45 47.64 48.79 48.48 48.57 49.67 56.90 56.80 58.27
44.79 39.27 49.01 49.35 37.84 38.25 31.94 36.86 40.40 38.95 41.80 39.54 39.15 35.83 34.41 34.73 32.91 32.75 32.63 36.21 40.79 38.97 33.35 37.11 34.03 30.34 33.19 39.93 42.62 40.51 38.29 37.77 32.75 33.44 36.31 35.57 37.80 49.52 49.17 48.86 52.84 54.84 57.03 58.00 59.20
40.91 43.20 49.80 47.33 31.51 32.48 37.66 37.32 39.15 38.70 38.29 37.85 36.32 38.28 36.61 34.27 30.56 34.90 35.16 40.91 40.75 39.01 36.89 36.62 31.33 26.68 29.96 35.54 40.26 38.38 41.32 40.00 38.75 38.74 35.58 34.74 37.31 49.45 50.68 51.15 56.89 56.52 57.69 58.55 59.07
42.41 37.11 41.62 43.10 41.12 36.53 34.27 35.18 35.52 41.40 38.62 39.10 37.51 37.53 35.27 33.61 35.56 33.66 35.12 39.59 40.78 40.26 42.35 39.74 32.93 29.65 25.62 32.16 36.10 34.89 37.67 40.48 39.25 35.25 37.33 39.54 41.44 46.99 49.23 50.96 55.63 56.70 57.65 58.30 58.91
43.67 38.01 39.99 32.50 35.26 37.25 37.64 36.82 35.38 34.95 39.92 39.46 36.49 36.60 34.79 31.33 32.71 31.57 35.45 37.37 40.54 41.74 40.51 37.42 31.94 33.41 34.71 37.06 36.68 35.53 35.65 36.85 36.71 40.27 37.51 41.52 42.56 46.79 50.57 52.60 55.80 57.12 57.68 57.96 58.60
41.23 39.54 40.65 37.90 38.81 37.55 37.78 35.75 35.77 37.38 37.00 36.09 35.10 36.85 37.09 33.16 34.04 31.74 34.95 34.74 34.57 38.25 38.29 38.48 31.90 34.82 32.68 37.03 36.80 34.28 36.29 36.53 37.60 40.56 42.16 43.24 43.78 50.39 55.63 56.77 56.26 57.18 57.64 57.95 58.55
45.08 45.69 42.48 38.80 36.89 35.16 35.85 37.37 37.37 38.41 39.81 40.23 38.89 36.86 36.24 37.88 40.88 39.60 40.12 39.25 38.77 36.80 35.04 35.65 32.23 32.52 29.71 35.79 34.39 30.33 34.14 36.52 38.99 42.08 43.68 41.07 47.29 53.51 52.84 53.76 53.78 55.47 57.67 58.25 58.88

GFSSW_sfc_wetblb_018.txt.gz
Wetbulb
53.68 53.24 53.54 53.75 53.39 53.43 54.11 54.28 54.63 55.03 55.23 55.35 55.41 55.44 55.62 55.70 55.70 50.69 46.35 51.89 53.85 60.80 63.83 57.56 60.97 57.85 55.74 56.04 58.87 54.85 41.19 39.09 43.17 45.85 47.94 52.65 51.85 57.62 59.22 57.05 58.57 59.33 58.40 59.66 61.89
53.57 53.87 53.84 54.08 54.01 54.03 53.90 53.83 53.90 54.50 54.62 55.11 55.14 54.96 55.01 55.37 50.61 47.37 53.91 60.07 62.09 64.52 56.31 52.55 50.88 53.32 52.85 55.32 55.95 52.70 42.05 42.72 47.82 49.68 47.85 50.66 51.21 52.85 53.95 54.91 56.07 57.70 60.44 61.13 61.38
53.90 54.00 54.18 54.05 54.03 54.12 54.22 54.33 54.53 54.75 54.60 54.37 54.73 54.74 54.91 54.06 45.55 46.39 61.64 61.64 61.45 62.65 57.23 54.58 52.75 50.69 46.28 53.12 54.02 52.98 50.22 52.23 52.19 52.81 52.14 50.98 52.25 54.60 53.22 52.13 55.10 55.87 56.94 59.90 59.77
53.57 53.94 54.01 53.89 54.11 54.01 54.07 54.22 54.51 54.67 54.42 54.33 54.05 54.35 54.49 50.07 32.33 50.95 63.21 63.82 65.02 59.14 56.15 51.23 48.99 44.36 42.17 43.70 53.40 49.20 53.36 55.54 56.19 56.35 54.49 52.07 54.37 52.91 53.74 53.83 57.04 57.44 58.02 58.34 58.42
53.68 53.89 54.00 53.69 53.69 53.77 53.90 53.95 53.97 53.93 54.03 53.86 53.87 53.90 49.87 42.65 42.59 48.79 58.99 56.25 55.79 56.40 52.63 49.70 45.20 43.61 40.39 43.25 45.49 46.27 51.25 53.88 53.34 53.68 54.57 54.87 53.07 52.93 53.44 56.50 58.13 58.12 57.44 56.55 55.82
53.54 53.51 53.49 53.61 53.53 53.70 54.15 54.18 54.06 53.75 53.61 53.53 53.62 53.29 45.73 36.36 48.33 50.28 50.39 49.82 49.68 48.74 48.09 47.27 46.21 46.17 43.26 43.61 43.20 45.47 46.24 47.61 50.88 52.24 52.61 51.79 52.46 53.60 54.64 57.37 57.08 55.86 55.55 55.64 55.09
53.77 53.38 53.25 53.22 53.61 54.14 54.28 53.82 53.68 53.89 53.65 53.79 53.78 51.19 44.60 40.87 49.81 49.17 47.33 45.51 47.40 47.35 45.60 49.91 50.08 48.00 45.83 43.21 47.61 47.04 43.36 45.47 47.06 47.28 48.62 53.25 49.82 50.45 55.12 56.28 54.89 55.32 55.05 55.36 55.79
53.38 53.66 53.02 52.92 53.01 53.26 53.69 53.52 53.31 53.68 54.18 54.53 54.06 49.83 41.32 49.65 49.85 48.79 48.81 47.52 48.91 48.57 47.52 48.23 47.87 43.99 43.04 46.51 46.16 42.78 42.06 38.63 45.47 47.36 48.65 48.57 42.91 51.42 54.70 53.66 53.51 54.65 55.64 56.10 56.49
53.21 53.06 52.79 52.84 52.82 52.94 53.48 53.23 53.50 54.10 54.43 54.37 49.19 46.61 39.88 52.47 48.47 50.45 49.24 46.06 47.84 48.01 47.34 49.46 45.68 42.02 42.37 39.19 37.31 39.83 36.87 38.58 42.08 47.02 46.98 47.02 44.64 50.55 53.71 52.94 51.68 52.71 53.92 55.01 56.04
52.55 52.50 52.63 52.63 52.67 53.02 52.85 52.39 52.48 53.13 53.13 53.00 51.39 43.94 45.80 44.14 49.89 52.67 50.71 49.16 46.49 46.05 45.25 43.08 40.51 37.83 36.25 36.27 32.42 35.57 37.38 40.31 40.11 44.61 46.58 45.38 45.34 49.16 51.29 51.68 51.68 52.55 53.49 54.25 55.12
51.67 52.17 52.24 52.51 52.93 52.79 50.47 45.61 42.65 39.68 42.89 40.88 41.75 44.05 45.75 48.77 52.05 49.67 51.11 48.13 46.61 43.26 35.82 39.27 33.61 33.06 36.45 38.98 40.09 40.91 39.86 39.73 42.17 45.95 45.04 44.96 45.56 47.60 50.01 50.53 50.39 51.70 52.87 53.37 52.97
51.31 51.31 51.90 52.60 52.90 52.54 48.12 42.39 43.73 43.18 35.87 44.10 43.94 43.84 45.96 46.49 41.11 44.37 49.08 41.71 40.36 35.25 38.28 35.93 32.90 38.05 40.62 40.71 40.23 39.18 37.25 37.38 41.80 44.75 43.66 43.84 44.07 47.33 49.37 49.72 50.82 50.94 51.85 52.50 52.55
51.47 51.56 51.87 52.41 51.85 47.88 44.76 45.20 48.41 45.51 35.27 39.92 44.98 45.31 43.37 44.99 40.74 41.83 45.33 42.65 38.17 35.36 35.51 32.51 36.16 41.63 40.35 38.44 37.70 38.48 36.74 37.60 38.19 42.66 44.36 42.45 40.61 42.68 46.69 48.11 49.06 50.78 52.04 52.41 52.62
51.20 51.31 51.69 51.70 46.22 44.86 43.69 48.32 47.29 44.75 28.35 35.76 40.09 43.62 46.34 44.34 39.64 46.37 46.58 42.82 38.65 34.88 35.88 34.43 38.40 37.32 36.34 37.09 38.93 34.32 41.42 41.71 40.62 38.93 33.67 41.99 32.94 40.96 44.02 45.55 47.71 49.17 49.67 50.10 51.79
51.19 51.59 51.55 50.81 44.07 42.45 47.07 46.26 46.58 41.03 18.49 38.36 40.66 48.55 45.62 41.22 43.10 44.95 47.89 42.85 37.13 36.86 36.07 32.97 35.86 35.22 34.75 36.60 40.91 36.93 42.60 41.34 40.95 37.80 35.39 37.84 32.95 36.25 43.50 43.39 45.90 48.66 50.50 49.81 51.07
50.93 51.28 51.06 47.19 44.37 46.24 48.11 45.66 43.85 28.26 17.36 33.92 40.54 39.43 39.75 41.22 41.83 43.87 44.05 46.69 45.50 38.37 38.28 37.00 41.25 38.91 37.14 39.28 39.54 41.34 39.79 39.56 39.46 34.99 29.43 36.64 35.41 35.07 39.84 43.05 45.96 48.16 49.83 51.43 50.98
50.73 50.42 49.39 48.80 42.50 47.20 45.11 41.15 26.69 20.15 36.34 32.80 34.05 37.93 36.91 36.20 38.01 39.48 38.17 37.49 34.84 32.06 30.55 36.55 38.23 42.21 42.63 37.09 39.30 37.01 30.62 25.25 24.07 25.99 28.22 38.38 35.47 38.26 42.29 45.12 47.10 47.75 49.27 49.92 55.93
50.05 49.42 47.98 48.94 47.01 46.54 41.45 33.00 21.10 30.41 31.77 37.63 36.68 36.71 33.27 36.00 36.47 36.95 35.21 32.67 38.98 37.29 30.91 29.68 27.11 37.50 42.72 38.06 33.40 32.75 31.16 25.85 21.02 23.72 29.12 38.79 32.17 37.14 45.17 47.84 48.91 50.33 49.82 56.32 57.06
49.12 43.55 44.68 47.13 48.32 44.64 36.09 23.13 23.51 32.35 35.81 34.30 34.78 31.19 31.48 35.00 35.68 34.94 33.70 32.99 36.71 36.61 30.18 29.04 30.35 40.87 40.85 41.00 38.72 33.56 30.62 34.18 29.71 33.72 28.78 33.25 38.06 42.34 45.69 46.32 47.22 47.95 54.60 55.62 56.69
43.62 41.57 43.22 48.37 47.12 42.28 32.02 29.59 32.76 38.06 38.42 37.11 28.94 32.75 27.71 30.63 31.53 31.66 32.80 37.56 36.07 38.18 38.51 34.26 27.61 37.00 39.30 40.88 39.69 36.64 38.62 29.45 28.81 23.77 22.52 31.44 34.25 36.11 41.90 44.41 46.80 46.48 53.41 54.83 56.84
41.44 40.04 45.72 47.86 46.56 37.29 24.61 29.94 35.62 40.25 40.68 35.80 33.53 31.57 31.85 31.29 32.28 31.22 33.33 37.08 39.21 38.00 37.59 34.91 31.11 32.07 37.52 34.79 32.50 33.14 31.97 32.33 32.09 30.70 25.96 26.00 31.28 42.16 42.86 45.65 46.08 47.07 54.78 56.16 57.06
39.44 35.60 46.31 46.07 34.63 33.29 27.65 35.37 39.78 38.34 40.90 38.53 37.12 35.57 33.19 33.34 32.11 31.72 32.21 36.05 40.66 39.13 33.41 35.66 31.87 28.13 30.83 37.96 40.19 37.05 34.53 33.73 26.20 27.20 31.96 31.28 32.95 45.52 44.33 46.78 46.98 54.16 56.23 56.83 57.85
38.08 37.89 46.08 45.68 28.53 26.13 33.65 36.57 38.41 37.57 37.88 36.28 34.93 37.01 36.13 32.38 28.67 33.53 35.75 40.06 40.76 37.94 34.64 35.54 28.54 23.47 26.10 32.70 37.62 35.03 37.80 38.06 35.12 33.49 30.49 31.01 33.58 45.52 45.59 48.39 53.11 53.74 55.81 57.20 58.70
37.50 33.47 36.15 37.10 36.09 31.52 32.07 34.63 34.81 40.63 39.24 39.50 36.86 37.52 34.98 32.85 34.88 31.63 33.89 38.78 40.35 39.97 42.09 39.62 31.03 27.65 22.03 28.92 33.74 32.06 35.15 36.93 34.58 30.15 32.34 33.68 37.87 42.53 44.53 47.85 52.88 55.20 56.34 57.58 58.48
38.19 33.35 35.91 31.66 34.44 34.64 34.27 35.54 34.57 35.21 39.23 38.83 36.13 36.26 34.77 30.98 31.95 29.89 33.87 36.13 39.38 41.60 40.16 36.35 29.35 31.23 32.22 34.04 34.75 34.79 34.95 35.28 33.81 34.76 31.73 36.79 38.31 42.83 45.42 49.87 54.18 56.03 56.65 57.37 57.66
35.69 35.56 39.66 37.25 36.21 34.30 34.68 33.82 35.43 36.44 36.42 35.32 34.33 36.62 36.79 33.56 34.79 32.57 34.41 33.83 32.66 37.07 36.26 37.51 31.03 33.39 30.27 34.40 34.86 33.23 35.91 36.01 36.31 36.06 35.73 37.51 38.44 46.51 52.38 54.68 54.30 55.91 56.98 56.96 57.55
39.69 40.14 38.46 37.76 36.46 35.18 34.97 36.51 36.23 37.99 38.66 39.35 37.83 35.93 35.25 36.80 39.90 40.17 39.63 38.68 36.38 34.44 33.23 34.20 32.57 31.09 25.46 34.49 34.30 29.03 33.51 35.15 36.30 39.14 39.38 35.88 41.71 47.81 49.28 52.95 53.80 55.46 57.13 57.32 57.87

GFSSW_sfc_wetblb_021.txt.gz
Wetbulb
53.52 53.66 53.52 54.05 54.20 54.21 54.31 54.48 54.61 54.57 54.81 55.12 55.02 55.27 55.04 55.04 55.02 49.82 44.46 49.66 52.96 59.49 63.24 56.25 60.60 58.81 55.36 52.35 57.52 50.60 40.44 38.47 42.25 44.41 46.61 51.61 53.20 57.21 57.86 55.80 55.35 57.36 57.39 59.31 61.48
53.64 53.62 53.97 54.22 54.19 54.20 54.13 54.26 54.31 54.50 54.69 54.85 54.74 54.61 54.58 54.92 49.58 45.41 51.45 57.13 60.39 62.38 54.47 50.36 48.91 55.96 49.55 51.14 54.47 51.32 40.94 41.35 46.33 47.90 46.99 49.68 50.94 55.27 56.04 55.60 53.95 54.61 58.71 60.04 59.98
53.58 53.36 53.56 53.85 53.91 53.88 53.94 54.07 54.26 54.36 54.27 54.31 54.30 54.29 54.14 53.31 41.74 42.60 63.33 61.75 61.21 60.92 57.91 54.21 52.01 49.99 45.76 51.79 52.05 51.18 48.27 49.83 49.28 49.39 51.56 51.02 51.35 51.45 51.96 50.54 53.46 52.76 55.67 57.61 57.81
53.39 53.35 53.83 53.71 53.65 53.69 53.86 54.07 54.06 54.07 53.92 53.85 53.72 53.79 53.79 48.73 29.75 44.82 62.02 59.52 59.02 56.82 55.11 51.71 49.56 45.82 41.75 42.92 49.83 47.85 52.27 53.95 54.43 55.96 55.94 54.23 54.48 53.26 51.98 52.33 55.17 56.16 57.00 56.76 56.85
53.45 53.68 53.64 53.57 53.62 53.72 53.74 53.91 53.97 54.05 53.84 53.74 53.45 52.98 49.05 40.85 41.17 47.40 55.71 53.08 49.79 55.32 52.56 50.43 46.24 43.58 39.43 41.33 44.22 45.37 49.64 52.40 53.43 52.62 52.25 54.97 53.92 53.43 53.16 55.30 56.44 56.48 56.75 56.42 56.22
53.36 52.95 53.11 53.14 53.07 53.45 54.02 53.81 53.74 53.62 53.69 53.41 53.33 52.82 44.81 35.59 47.43 48.93 48.79 48.52 47.15 45.26 43.93 49.38 44.91 45.46 42.41 41.70 43.33 43.68 44.60 46.54 47.73 48.26 50.48 50.32 51.46 52.47 53.25 55.95 55.66 56.00 55.85 55.67 54.82
52.91 52.84 52.79 52.94 53.11 52.99 53.68 53.54 53.47 53.29 53.66 53.95 53.58 50.53 43.77 40.51 49.11 48.71 46.97 45.10 46.21 45.85 43.06 45.36 49.69 46.04 43.53 40.94 45.07 44.66 41.33 43.95 44.84 44.20 45.33 48.59 46.50 47.79 53.01 55.43 54.32 54.99 55.30 55.40 54.39
52.34 52.56 52.34 52.57 52.44 52.86 53.62 53.50 53.44 53.86 54.60 54.65 53.14 48.63 40.63 49.58 48.86 48.08 48.09 46.64 47.74 47.08 46.11 46.99 46.43 42.72 41.22 44.32 43.88 40.52 40.42 37.58 44.22 45.85 46.62 47.24 41.87 50.32 52.50 53.31 53.20 53.74 53.57 54.08 54.89
51.77 52.38 51.84 52.08 52.15 52.80 53.49 53.44 53.60 54.73 54.75 54.36 48.19 44.70 39.93 51.95 48.25 50.74 49.40 45.70 46.31 46.77 46.42 49.00 44.33 40.39 40.61 37.85 35.57 37.46 33.60 35.18 39.15 45.38 45.76 45.94 43.29 49.30 51.68 51.25 50.63 51.80 52.64 53.47 53.59
51.52 52.02 51.82 51.86 52.46 52.92 52.68 52.66 52.83 52.07 53.13 52.86 50.82 41.87 43.19 41.28 46.09 48.71 50.05 48.93 44.81 44.52 43.19 42.10 39.07 35.55 33.83 34.22 31.00 33.59 34.73 37.55 37.57 42.42 44.54 43.23 43.30 47.41 49.24 49.17 48.80 49.82 51.09 51.84 52.67
51.31 51.56 51.95 52.47 52.63 52.36 50.43 45.00 41.26 39.03 41.54 38.95 40.69 40.61 42.24 45.99 48.50 45.95 48.19 45.74 45.11 41.97 35.35 37.79 32.66 31.79 35.65 37.47 37.87 37.62 36.35 36.05 40.08 44.05 42.49 42.36 42.80 45.20 47.18 48.10 48.61 49.81 50.53 51.07 50.91
51.17 51.15 51.48 52.47 52.37 52.20 46.21 41.32 42.77 42.47 34.82 43.11 43.23 43.95 46.93 47.53 41.41 44.40 48.10 40.29 38.77 33.46 36.60 33.75 31.67 36.18 38.95 38.43 37.50 36.45 34.77 34.63 39.01 42.62 41.14 40.60 40.21 43.64 45.98 47.14 48.58 49.34 49.93 50.26 50.93
51.10 50.91 51.37 51.93 51.53 46.22 42.76 44.48 46.89 43.36 33.83 38.57 43.19 43.51 44.05 44.00 40.41 40.79 44.19 41.33 37.03 34.16 33.59 30.85 34.51 39.82 38.29 36.23 35.38 34.68 34.06 34.87 35.47 40.23 41.90 39.83 38.01 40.53 44.36 45.88 47.42 48.29 48.42 49.24 50.02
50.90 51.27 51.44 50.85 45.51 43.80 42.57 47.55 45.61 42.95 26.67 34.54 39.81 43.67 44.87 44.26 39.67 46.72 46.90 41.98 37.36 33.07 33.93 32.50 36.78 36.01 34.34 34.07 36.28 31.25 37.89 38.83 38.82 35.99 30.97 39.13 30.09 38.60 41.84 43.21 45.21 46.60 45.98 47.99 49.89
50.73 50.89 51.08 50.56 43.41 42.32 45.79 45.53 45.76 39.48 17.60 37.65 39.65 47.39 44.80 40.99 42.71 43.37 48.27 42.77 35.29 35.50 33.97 31.24 33.63 33.31 33.30 34.63 36.89 33.86 39.67 38.02 37.44 34.89 32.60 35.18 30.37 36.50 39.99 39.91 42.87 45.49 46.79 48.24 49.14
51.04 50.68 50.35 46.09 42.95 45.86 46.92 44.55 41.29 26.22 15.73 33.14 39.28 37.41 36.71 39.20 40.93 43.60 42.81 46.03 43.53 37.72 35.97 34.41 39.33 36.94 35.73 38.14 38.33 39.12 36.74 36.40 35.88 32.80 25.91 33.66 32.84 34.49 37.56 40.27 42.40 45.01 46.53 48.30 48.55
50.81 50.54 48.98 48.05 41.34 45.26 43.70 39.21 25.24 19.39 34.34 32.00 32.92 36.59 34.80 34.80 36.59 39.13 37.55 37.11 33.58 29.86 28.70 34.16 35.35 38.41 39.87 34.45 37.50 35.91 29.11 22.43 21.87 23.21 25.13 35.05 33.45 35.96 39.95 42.44 43.40 43.94 45.67 46.96 47.47
50.27 49.40 46.85 47.98 45.76 44.99 39.47 31.10 20.59 29.24 30.95 37.15 35.98 35.05 31.51 34.41 34.26 36.59 35.39 32.96 38.00 35.93 31.66 29.33 27.00 36.08 41.92 37.33 32.55 31.12 30.31 22.90 20.39 22.32 25.82 36.07 30.28 35.05 42.51 45.14 46.62 47.02 47.33 46.84 52.03
48.79 42.60 42.29 45.66 47.35 42.91 34.33 22.68 22.88 31.33 35.31 33.97 34.22 30.09 29.72 33.43 34.23 33.77 33.07 33.45 36.33 36.74 30.67 29.38 28.90 39.53 40.08 40.65 37.82 32.25 27.31 33.28 26.74 29.40 24.87 30.21 34.93 40.83 44.15 44.84 45.44 45.16 46.21 49.82 54.95
41.19 40.63 42.45 46.68 45.58 39.79 31.29 28.73 31.02 37.49 37.65 36.68 28.79 32.41 26.93 29.56 30.11 30.49 31.66 36.98 35.98 38.22 37.49 32.92 26.31 36.13 38.55 39.22 39.15 34.71 36.71 27.14 24.97 21.55 21.17 27.94 30.84 33.87 38.68 41.85 43.97 44.19 44.60 50.41 55.55
40.18 38.67 44.34 46.37 44.04 35.88 24.82 28.53 34.20 39.63 39.24 35.65 32.30 30.53 30.98 30.48 30.86 29.85 32.39 36.47 38.81 37.60 36.88 32.74 29.25 30.43 35.67 33.15 30.30 32.14 30.07 30.68 29.38 27.64 22.94 23.27 28.23 38.80 40.32 41.88 42.57 46.07 45.55 53.41 56.36
37.05 33.90 44.88 43.72 33.39 30.31 26.18 33.81 39.08 37.87 40.40 38.03 36.43 34.11 32.05 32.33 30.26 30.56 31.75 35.49 40.14 38.14 32.22 34.48 30.51 26.84 29.53 35.65 38.18 36.91 32.57 31.63 24.62 25.14 27.74 27.90 30.31 42.17 41.20 43.07 46.74 47.41 50.32 55.57 58.04
37.47 36.27 44.26 42.99 25.50 24.44 31.77 35.32 38.14 37.23 37.55 37.33 35.60 36.05 35.02 31.45 29.17 32.40 34.03 39.10 39.15 36.49 33.01 33.87 27.51 23.27 24.70 30.85 35.45 32.53 34.76 34.25 33.09 30.64 27.00 26.15 30.59 42.04 42.59 43.27 50.43 52.09 53.52 57.03 58.50
39.17 31.99 34.77 35.39 34.45 29.86 31.47 32.98 33.98 39.89 38.52 38.70 36.24 36.42 34.20 32.52 33.49 30.97 32.48 37.35 39.05 38.40 42.33 38.58 29.04 26.23 21.57 26.52 31.53 30.09 34.42 35.38 33.04 26.73 29.52 31.33 33.57 38.97 41.54 42.54 46.00 52.80 54.60 57.65 58.23
36.81 32.09 34.42 28.84 31.47 33.69 33.05 33.73 33.37 33.80 38.92 38.37 35.05 35.01 34.50 31.60 31.51 30.84 32.98 34.99 37.98 40.46 38.06 35.13 27.37 31.38 31.09 32.07 32.56 32.48 32.79 33.76 32.46 33.36 29.74 32.44 35.05 38.74 40.28 43.71 46.58 53.35 56.07 57.09 57.43
33.77 32.97 38.95 33.80 34.61 32.80 33.25 34.88 34.84 35.72 35.97 34.45 34.91 35.98 35.52 32.91 33.25 31.56 34.34 34.62 33.77 34.95 36.30 37.08 28.01 32.36 29.66 33.13 33.41 31.15 33.74 34.03 35.08 35.11 34.85 34.96 34.50 43.31 44.99 48.16 52.98 54.49 56.59 56.64 57.08
37.13 37.67 37.91 34.34 33.73 34.37 34.31 34.92 35.17 37.22 37.75 39.22 37.89 35.91 34.12 35.68 38.86 38.50 39.12 38.46 38.18 35.03 34.77 34.01 32.11 29.36 25.00 31.74 31.32 29.99 33.14 33.83 35.40 36.67 36.17 32.94 39.49 44.01 44.15 48.43 52.52 53.92 56.56 56.91 57.46

GFSSW_sfc_wetblb_024.txt.gz
Wetbulb
53.26 53.20 53.45 53.60 53.78 53.73 53.99 54.14 54.16 54.35 54.50 54.67 54.80 54.75 54.53 54.53 54.39 49.01 43.37 47.65 52.58 58.93 61.05 53.84 59.04 57.62 54.58 53.37 54.84 48.54 40.32 37.84 41.50 43.80 45.57 49.94 49.09 53.95 56.88 55.06 55.04 56.34 55.69 57.47 59.54
53.26 53.23 53.34 53.74 53.84 53.87 53.93 53.88 54.01 54.14 54.10 54.34 54.23 54.16 54.19 54.33 48.32 44.33 49.85 54.69 57.31 59.54 53.01 49.07 45.90 54.11 47.21 48.72 53.39 46.20 39.14 40.75 45.65 47.55 46.80 48.78 48.11 50.42 51.83 51.89 53.61 54.94 56.42 58.28 59.25
53.16 53.46 53.83 53.94 53.91 53.73 53.98 54.03 54.12 54.21 54.24 54.07 53.88 53.86 53.78 52.24 37.72 38.17 59.67 60.39 57.29 57.36 54.68 53.22 52.30 50.88 47.49 49.69 49.66 50.42 45.83 45.28 46.87 48.24 49.10 49.57 49.95 52.02 51.53 49.14 52.06 53.50 54.51 55.97 56.42
52.85 53.24 53.45 53.46 53.38 53.55 53.77 53.92 54.13 54.30 54.20 53.90 53.77 53.16 53.09 47.05 30.01 40.08 58.91 56.67 55.77 54.47 52.97 50.73 47.54 45.14 41.36 44.79 50.80 46.67 51.29 52.38 51.38 53.36 54.35 52.97 55.16 53.60 53.00 52.80 55.12 54.93 55.47 54.67 55.09
52.41 52.96 53.11 52.98 53.02 53.08 53.43 53.72 53.86 53.90 53.76 53.35 53.31 53.30 47.08 38.22 37.65 47.10 54.57 51.76 48.44 47.07 51.42 48.62 44.09 44.55 38.83 40.41 44.75 47.36 48.91 52.42 54.03 53.78 53.51 54.40 52.63 53.34 53.85 56.35 56.70 56.34 56.09 54.89 54.51
52.10 52.16 52.28 52.59 52.78 52.82 53.24 53.83 53.72 53.74 53.48 53.85 53.47 52.97 44.34 33.42 45.74 48.64 48.34 47.90 45.37 43.28 42.21 46.96 45.44 45.09 41.78 40.19 42.91 43.02 44.23 46.31 48.27 49.52 49.72 50.38 50.89 50.99 52.97 55.11 54.93 55.18 54.89 55.34 54.67
51.66 51.63 52.05 52.23 52.49 52.78 53.42 53.74 53.84 53.89 54.74 54.24 53.54 51.18 43.58 39.14 47.98 49.26 47.96 46.27 46.05 46.18 41.88 43.45 47.01 45.32 42.03 39.52 43.43 43.09 39.85 41.42 42.90 43.27 45.38 47.85 45.78 47.24 52.12 53.27 52.54 53.48 54.63 54.92 54.92
51.32 51.65 51.88 52.02 52.36 52.80 53.17 53.58 53.77 54.36 55.44 54.25 53.76 48.33 38.60 48.17 48.82 48.14 47.02 45.81 47.37 46.80 45.32 45.12 44.34 40.71 41.46 42.73 41.74 39.86 39.49 36.33 43.48 43.47 45.82 47.58 42.17 49.31 52.01 52.22 52.04 53.26 53.53 53.77 53.36
51.63 51.79 51.71 51.94 52.38 52.87 53.08 53.26 53.78 54.21 54.77 54.04 46.43 43.65 38.55 50.56 47.07 49.91 48.46 45.70 46.89 46.00 45.12 47.56 42.96 39.39 39.02 36.38 33.75 35.40 34.46 33.32 38.12 44.01 43.93 44.73 42.77 47.11 50.93 50.38 49.06 49.39 50.47 51.57 52.97
51.44 52.00 51.63 51.94 52.40 52.76 52.54 52.97 52.74 52.14 52.88 52.16 50.20 40.01 41.10 41.05 45.15 47.81 49.05 47.69 44.88 43.34 41.18 40.14 37.97 34.49 32.91 33.85 29.13 31.73 31.36 35.80 35.83 41.11 43.15 41.04 42.29 45.61 48.21 48.42 48.04 48.41 49.54 49.91 50.47
51.08 51.46 51.67 51.92 52.11 52.19 49.39 43.55 40.24 38.89 40.60 37.68 39.50 39.63 41.21 44.84 48.11 45.94 47.87 45.11 43.40 40.13 33.12 36.03 31.13 30.01 34.56 36.66 36.35 35.48 34.54 33.65 37.82 41.95 39.52 39.92 41.43 43.51 44.91 45.49 46.17 47.55 48.56 49.71 50.64
51.08 51.04 51.26 51.57 51.76 51.68 44.10 40.76 41.90 42.02 35.08 42.44 42.08 41.98 44.61 44.78 41.24 43.77 47.27 39.19 38.50 32.66 35.14 32.08 29.85 34.65 37.82 37.10 36.02 34.49 32.30 31.87 37.19 40.70 39.25 38.31 37.71 41.22 43.13 43.82 44.92 46.08 47.57 47.86 47.93
51.02 50.34 50.57 51.14 51.37 45.60 41.94 43.57 44.68 41.99 33.03 37.59 41.08 41.99 42.95 42.53 39.73 40.29 42.97 40.45 36.55 33.03 32.73 29.31 33.15 38.47 36.93 34.57 33.90 32.77 31.87 33.08 33.81 38.70 40.38 38.25 36.93 39.57 43.47 44.15 45.57 46.28 46.90 47.74 48.20
51.21 50.38 50.29 50.31 44.39 42.37 41.98 45.70 45.00 42.32 25.98 32.74 38.47 41.67 43.17 42.30 38.60 46.24 46.31 41.23 37.35 32.29 33.34 31.26 35.57 35.09 33.15 33.41 34.76 28.99 36.50 36.69 36.65 34.33 28.82 37.49 28.62 37.44 40.89 41.85 43.41 44.62 45.48 46.77 46.37
50.58 50.43 50.10 49.68 42.21 41.25 44.09 44.81 42.91 38.13 16.32 36.31 38.47 44.94 43.63 37.84 40.39 42.87 47.26 41.33 35.02 34.77 34.88 30.60 32.29 31.90 31.14 32.69 35.54 32.36 37.99 35.73 35.13 31.97 29.38 32.37 28.70 35.65 38.45 37.44 40.01 43.41 44.92 45.54 46.62
50.30 50.30 49.99 45.75 43.58 44.47 45.41 42.77 40.01 25.80 15.50 32.14 38.32 36.66 35.98 37.67 38.68 42.29 42.32 44.25 43.20 36.99 35.79 33.96 37.82 36.13 34.25 36.54 36.72 37.71 35.00 34.10 32.77 29.78 23.36 30.60 30.59 31.99 34.56 38.65 41.80 43.20 43.58 45.24 45.63
50.49 50.33 48.10 47.18 40.53 43.83 42.39 37.01 24.44 17.89 32.80 30.99 32.20 35.85 34.33 32.88 34.90 37.87 36.03 36.09 33.32 29.39 28.82 32.65 33.19 37.10 38.32 32.86 35.35 33.73 27.55 20.74 19.79 20.72 22.84 32.47 30.30 33.92 37.50 40.74 41.61 42.99 44.24 45.27 45.97
49.95 47.59 47.41 47.19 44.82 44.35 37.70 30.09 20.05 28.19 29.77 36.27 35.20 34.52 30.15 32.68 32.61 34.76 33.08 32.65 37.62 35.80 31.23 28.58 24.28 34.41 39.53 34.23 30.76 30.38 28.56 21.25 19.39 20.47 23.05 33.27 27.56 32.69 40.80 43.15 43.79 44.53 44.07 44.45 44.81
47.84 42.56 42.10 44.06 46.35 41.10 33.62 22.32 22.25 28.80 34.82 33.37 33.68 29.60 28.79 32.09 32.08 31.45 29.82 32.09 35.83 36.40 29.77 29.54 28.87 38.47 39.13 39.25 36.64 30.55 26.81 31.89 25.07 26.38 22.66 27.60 32.13 38.13 42.15 42.17 43.17 42.85 44.04 43.34 44.66
40.36 40.08 41.90 45.54 43.85 38.77 30.99 28.87 29.08 36.12 37.07 35.65 28.28 31.07 26.00 28.60 28.77 28.17 29.10 35.24 35.18 38.34 37.23 32.23 26.18 36.24 38.68 39.36 40.13 33.20 34.42 25.25 23.15 19.88 19.89 25.37 27.93 30.44 36.77 38.58 41.78 42.55 43.73 44.32 49.78
38.81 37.64 43.40 44.48 42.68 35.07 24.74 27.90 33.05 38.46 38.65 34.91 32.12 31.04 30.36 29.55 29.38 28.28 29.90 35.08 37.89 36.52 36.45 33.07 29.86 30.42 35.02 31.68 29.54 32.86 28.24 28.57 26.61 24.90 22.04 22.07 26.22 36.63 38.20 40.06 40.33 46.43 52.45 45.74 53.60
36.43 33.33 43.56 42.20 32.20 27.63 25.13 32.17 38.31 36.99 40.46 38.13 36.26 33.96 31.27 31.40 29.64 29.31 29.63 33.87 38.81 36.83 31.78 34.91 30.25 26.27 29.03 34.51 36.65 33.75 30.91 29.85 24.00 23.87 25.32 24.07 26.06 39.56 39.03 40.43 42.54 44.00 53.01 52.97 57.89
38.04 36.83 42.79 40.27 23.70 23.43 30.94 34.17 36.31 36.07 36.31 36.83 35.20 36.21 35.06 31.07 28.51 31.96 32.99 38.01 37.81 35.72 32.17 33.07 27.52 23.61 24.84 29.65 33.82 30.50 32.47 31.54 30.66 28.78 25.21 23.21 26.93 39.39 40.42 41.49 43.75 44.03 53.05 56.68 57.35
39.12 30.28 34.08 34.43 32.95 29.10 31.70 33.68 32.94 38.98 37.43 37.89 35.67 36.11 34.21 33.26 34.51 31.85 31.92 36.70 37.58 37.63 41.99 37.76 27.56 25.08 19.99 25.34 30.06 27.72 31.42 33.27 31.57 25.12 26.18 28.43 31.19 37.39 39.61 39.87 42.77 47.29 53.17 56.97 58.15
34.63 30.93 33.84 27.09 28.59 30.31 33.99 34.71 33.29 33.43 38.18 37.36 34.81 35.11 34.97 31.99 31.91 31.76 33.03 34.11 37.40 39.37 36.10 34.70 29.08 28.93 30.36 32.11 31.96 30.60 30.58 31.42 30.01 31.12 28.14 30.74 32.04 37.67 38.16 40.36 42.73 50.88 55.29 56.67 57.51
29.73 30.44 33.29 30.18 31.67 30.72 32.49 32.09 33.41 34.98 35.17 33.58 33.62 35.36 36.13 33.30 33.43 31.25 34.17 34.64 34.00 36.70 34.76 33.84 29.84 30.17 28.51 32.03 31.89 29.86 32.05 32.64 32.51 32.62 32.58 34.03 33.74 41.12 43.43 42.74 45.34 52.51 56.16 56.46 57.64
37.46 35.12 34.17 31.03 29.00 27.13 28.52 32.94 33.52 35.85 37.68 38.09 37.38 35.86 34.62 36.20 38.80 38.53 38.73 37.99 37.31 36.51 33.77 34.13 29.59 26.64 22.83 30.51 30.47 25.08 30.47 31.48 32.90 34.87 34.05 30.63 36.53 41.05 41.62 43.89 45.51 52.21 55.95 56.58 57.59

GFSSW_sfc_wetblb_027.txt.gz
Wetbulb
53.62 53.55 53.81 53.88 54.03 54.00 54.14 54.16 54.31 54.52 54.63 54.53 54.56 54.45 54.34 54.38 54.57 49.80 43.94 48.45 53.33 59.55 59.98 51.73 50.71 56.64 59.08 57.77 56.94 53.74 47.17 44.37 45.02 45.28 47.02 52.94 52.32 56.63 58.02 57.68 58.07 59.33 59.90 61.33 63.68
52.99 53.01 53.29 53.69 53.67 53.62 53.56 53.79 54.14 54.39 54.54 54.61 54.38 54.17 53.94 53.95 49.08 45.19 50.83 56.47 58.44 59.69 53.64 49.01 46.02 54.17 53.55 53.81 56.71 52.15 47.69 46.85 49.35 49.35 49.20 51.51 51.99 53.47 53.82 55.09 55.24 57.45 58.94 60.73 62.09
52.81 53.30 53.38 53.33 53.28 53.23 53.48 53.59 53.78 54.10 54.22 54.26 53.75 53.64 53.61 53.02 42.76 42.94 61.31 56.76 57.41 57.84 53.15 52.32 52.88 49.68 47.62 51.38 53.92 53.33 47.91 50.72 50.46 50.24 51.20 50.85 50.96 52.82 52.78 53.19 55.75 55.61 57.38 59.47 59.85
52.55 52.76 52.88 52.95 53.08 53.12 53.39 53.56 53.90 54.29 54.25 53.82 53.50 53.63 53.72 48.51 34.79 48.93 56.41 55.81 55.47 51.74 52.18 52.82 49.82 47.43 46.29 46.07 51.96 49.31 52.87 52.91 52.19 51.21 50.32 49.23 52.07 52.31 54.26 54.78 58.27 59.55 60.19 60.03 59.40
51.97 52.34 52.72 52.80 52.86 53.03 53.53 53.98 54.22 54.28 53.84 53.66 53.63 53.73 48.93 42.62 42.24 48.32 54.35 53.02 51.40 50.00 46.62 50.25 46.71 45.88 44.98 47.01 48.86 49.42 51.15 53.87 55.00 55.03 54.14 55.99 54.60 54.70 55.88 58.71 60.15 59.93 59.47 59.21 59.69
51.87 52.27 52.58 52.68 52.66 53.08 53.48 53.96 54.00 54.22 54.11 54.37 53.79 53.43 45.87 38.46 48.09 50.15 51.12 51.19 49.47 48.59 47.05 46.59 49.11 47.18 45.36 45.83 46.11 49.37 50.06 51.49 53.87 55.04 55.55 54.03 54.22 55.60 55.97 58.41 57.62 58.15 58.24 58.69 59.14
51.93 52.08 52.20 52.37 52.54 52.87 53.59 53.94 54.00 53.94 55.29 54.15 54.26 51.76 44.43 43.19 50.43 51.77 51.67 50.49 50.02 48.89 45.92 47.21 47.06 48.53 46.17 43.37 47.62 47.00 44.63 46.92 47.79 51.23 52.35 54.29 50.08 51.61 55.64 56.35 55.21 55.89 56.81 58.00 59.16
51.57 51.78 51.95 52.20 52.41 52.99 53.40 53.87 53.90 54.51 55.22 54.86 54.33 49.57 42.80 50.38 52.73 51.12 52.12 50.11 50.95 50.30 48.18 48.97 46.76 43.68 45.39 47.86 45.47 43.19 44.06 40.62 46.99 47.15 48.33 49.05 44.10 51.61 54.47 54.07 53.70 55.19 56.39 57.26 58.68
51.05 51.91 51.64 52.07 52.35 52.91 53.17 53.17 54.08 54.19 55.02 54.52 49.74 47.49 42.36 52.53 47.85 50.58 51.93 47.60 49.25 48.75 48.24 48.17 45.20 41.85 43.88 41.04 39.74 42.21 38.28 40.32 43.20 48.28 47.60 47.16 45.82 51.37 54.41 54.25 54.20 55.65 56.31 56.14 57.02
51.32 51.78 51.32 51.66 52.22 52.58 52.56 52.91 53.55 54.97 53.74 52.48 51.18 43.12 45.82 43.94 47.85 49.25 51.39 50.10 46.32 46.34 44.33 43.15 42.42 40.27 40.62 39.65 33.59 36.91 37.83 40.37 40.73 45.56 46.48 45.54 45.81 49.84 52.54 51.86 52.29 53.43 54.09 54.48 55.29
50.90 51.72 51.16 50.89 51.72 52.13 50.82 49.49 45.70 44.32 45.67 41.38 42.25 41.41 43.67 47.49 49.71 47.99 49.94 47.11 45.86 44.13 38.63 41.27 36.64 34.27 38.46 40.57 41.29 40.23 39.48 39.61 43.02 45.84 45.42 44.61 45.47 47.78 50.32 50.76 50.59 51.42 52.38 53.41 54.57
50.75 51.03 50.78 50.72 51.47 51.47 48.67 45.54 45.20 45.69 39.34 44.85 44.18 43.77 46.01 46.96 41.98 46.05 48.50 41.73 41.04 38.62 39.64 37.95 33.89 38.69 40.13 40.60 39.39 39.23 37.76 37.51 40.94 43.71 43.20 44.12 43.63 46.76 48.15 48.47 49.95 50.45 51.43 52.39 53.65
50.24 50.54 50.78 50.72 51.04 48.45 46.92 46.89 49.34 47.20 39.09 40.69 43.60 42.74 44.91 45.77 41.75 42.84 46.08 43.09 39.23 37.18 38.22 35.32 37.45 39.78 38.88 38.07 37.31 38.25 37.10 37.97 37.51 41.55 43.89 42.45 41.12 44.06 47.69 49.53 50.32 51.06 52.11 52.74 53.53
49.81 50.22 50.49 50.07 46.90 46.92 46.24 49.17 49.45 47.56 34.09 35.31 40.05 42.98 44.98 44.82 39.97 46.63 48.12 44.27 39.73 36.28 37.41 36.50 40.48 37.70 37.33 36.33 38.27 34.22 39.64 39.51 39.21 38.56 35.01 42.36 33.88 42.29 45.45 46.45 48.08 49.33 50.69 52.21 52.81
50.12 50.47 50.28 49.35 46.28 45.77 47.27 49.44 47.75 44.42 22.62 37.30 39.75 47.68 45.47 40.46 41.59 42.64 48.64 44.41 38.31 38.23 38.58 35.46 35.98 36.14 35.42 36.66 38.71 36.03 40.49 38.71 38.15 37.00 36.70 37.70 34.88 39.85 44.67 43.39 46.09 48.53 50.16 51.65 52.74
50.65 50.36 50.09 47.81 46.78 48.24 49.14 47.54 45.46 32.11 21.98 33.49 39.75 38.50 38.81 40.32 39.89 42.70 42.93 45.90 44.65 39.59 39.83 38.12 42.40 39.13 37.83 39.00 39.11 40.26 38.48 38.66 38.69 36.84 29.80 35.79 35.24 37.35 41.02 43.40 45.30 47.98 49.50 51.16 52.93
50.50 50.01 48.45 47.95 46.38 48.56 47.56 44.30 31.92 25.43 35.03 32.14 33.92 37.86 37.04 35.49 36.70 38.03 37.23 37.36 35.60 32.26 31.61 36.44 37.05 39.77 40.42 36.03 39.44 38.10 34.87 28.32 26.88 27.89 27.50 37.45 34.73 38.08 43.86 45.25 46.40 47.87 49.19 51.22 52.94
49.90 47.15 49.24 49.19 50.06 49.10 44.54 37.43 25.24 29.63 31.38 37.51 36.59 36.81 32.89 35.88 35.86 36.15 35.27 33.55 38.29 36.07 33.30 29.36 28.25 36.31 40.15 37.18 35.51 36.44 35.18 30.08 22.98 25.89 29.53 36.36 32.04 38.25 45.62 48.01 48.84 49.49 51.17 52.28 53.51
47.85 47.85 47.69 49.42 49.33 46.66 41.67 31.12 29.13 31.38 35.83 34.55 35.93 31.51 31.46 34.79 34.84 34.56 34.28 33.37 36.56 37.83 30.33 29.37 29.75 39.53 40.58 41.38 39.69 36.40 32.26 38.09 31.90 33.25 30.88 33.89 37.34 42.00 44.40 45.91 47.87 49.86 52.35 53.56 57.83
44.83 45.52 47.29 49.01 48.60 46.11 38.62 31.63 33.22 37.00 38.27 37.27 30.28 33.37 29.46 32.64 32.33 32.84 32.58 36.74 36.30 39.33 39.62 34.24 28.20 36.76 38.16 40.93 41.69 37.90 40.04 31.71 33.20 25.32 24.96 32.20 33.99 36.98 41.99 44.35 47.09 48.44 50.86 54.55 57.67
44.48 44.49 48.08 47.72 47.85 42.34 34.11 33.28 35.48 39.81 39.75 35.93 33.93 32.74 33.64 32.44 32.90 31.96 32.29 36.59 39.04 38.17 39.56 37.03 32.90 32.52 36.90 34.21 33.24 32.98 34.77 35.77 35.48 33.74 29.03 29.65 34.79 43.91 44.27 45.01 45.61 47.31 50.11 57.05 55.75
42.62 40.06 47.63 47.21 39.90 35.80 35.13 35.69 38.46 38.23 40.85 38.48 38.83 36.77 34.45 34.16 32.63 32.21 31.72 35.38 40.68 39.96 34.78 37.92 34.85 29.18 31.83 38.19 39.46 37.32 35.20 36.82 31.44 30.18 32.85 32.20 33.42 45.33 45.32 45.92 46.93 47.32 49.17 57.95 59.40
39.38 39.44 47.37 45.77 34.82 34.32 35.63 35.52 37.49 36.93 37.85 37.25 36.02 37.82 38.12 34.31 31.07 33.78 34.94 39.44 40.34 38.66 36.39 37.96 32.63 26.68 29.23 34.92 37.78 34.53 36.60 37.05 36.58 36.13 31.77 29.79 33.65 44.89 45.50 45.57 47.14 47.54 50.20 58.29 58.32
40.64 36.06 40.16 40.73 38.55 34.47 32.43 33.87 34.03 39.65 38.67 39.21 37.56 38.62 36.08 33.98 36.51 33.50 34.23 38.20 40.04 39.52 41.59 40.12 34.41 30.31 25.57 29.25 33.67 31.47 34.33 36.33 35.13 31.60 32.34 33.34 35.60 40.49 42.84 43.59 46.08 48.29 51.68 58.25 58.44
38.57 36.13 38.12 33.01 33.62 33.12 33.78 34.52 33.35 33.78 38.85 39.23 35.62 35.94 35.61 32.52 32.73 32.48 35.43 36.38 38.80 39.77 39.93 37.22 30.84 32.90 33.35 34.07 34.45 33.66 33.19 34.27 33.33 34.60 30.93 34.96 36.00 39.63 42.53 44.60 46.54 49.26 50.66 56.39 57.69
35.10 35.13 38.36 34.46 34.53 34.45 34.41 33.51 33.93 35.34 35.10 33.91 33.52 35.21 36.41 33.52 34.27 32.21 34.64 34.87 33.67 38.05 37.47 37.73 31.96 33.56 30.66 34.12 33.96 31.38 34.15 34.87 34.90 35.13 35.02 35.77 35.44 42.96 44.72 46.68 47.01 48.21 50.30 55.28 57.77
40.22 39.43 37.93 35.04 33.79 32.77 33.37 33.93 33.48 35.05 36.53 38.81 36.53 35.50 35.08 37.29 39.37 39.80 40.65 39.34 37.84 35.86 35.63 35.80 34.29 31.26 26.47 32.14 32.01 28.11 33.39 34.74 35.87 37.57 37.00 33.23 38.19 43.04 43.20 44.96 47.07 49.40 51.87 53.24 59.80

GFSSW_sfc_wetblb_030.txt.gz
Wetbulb
53.03 53.62 53.55 53.83 53.86 54.02 54.10 54.25 54.38 54.61 54.78 54.99 55.07 55.09 54.95 54.86 54.97 53.34 48.12 51.93 55.04 60.42 60.10 54.31 52.02 58.54 59.32 59.91 59.91 59.14 51.97 49.71 50.11 48.74 49.33 52.97 52.75 57.13 59.93 59.51 60.58 61.63 62.25 63.85 67.54
53.33 53.49 53.67 53.68 53.84 53.79 53.83 53.98 54.32 54.34 54.53 54.78 54.85 54.70 54.54 54.56 53.09 50.94 54.61 56.59 58.47 60.22 53.58 51.05 49.06 53.79 56.03 55.82 57.82 55.21 51.99 51.95 54.39 53.83 50.32 51.33 53.01 55.29 56.53 58.48 59.36 60.15 61.68 62.47 64.43
52.92 53.18 53.22 53.52 53.68 53.63 53.86 54.13 54.34 54.70 54.95 54.91 54.56 54.44 54.59 54.74 48.34 51.37 60.53 57.29 57.25 57.51 54.58 52.58 52.78 49.96 53.28 55.55 55.46 55.69 51.67 55.30 55.55 55.61 53.59 52.69 53.79 55.16 54.70 55.71 59.50 59.54 61.13 61.92 62.26
52.83 53.00 53.37 53.40 53.40 53.65 53.96 54.47 54.74 55.12 55.07 54.75 54.70 54.44 54.59 52.63 40.16 51.93 55.96 56.43 56.57 54.75 52.91 52.96 51.57 48.43 47.89 49.99 54.24 51.69 55.26 55.74 55.93 56.23 53.72 51.95 55.33 54.44 54.95 55.33 59.26 60.25 61.43 62.50 62.62
52.36 52.95 53.23 53.06 53.31 53.41 53.97 54.51 54.83 54.92 54.98 54.75 54.97 54.32 53.53 47.53 45.38 50.55 54.71 56.99 54.55 52.89 49.17 48.18 49.71 48.89 46.67 49.12 50.80 51.43 53.24 55.73 56.42 55.76 54.80 54.17 53.64 54.50 55.38 58.28 60.14 60.48 61.46 61.73 62.07
51.97 52.28 52.53 52.70 52.97 53.34 53.65 54.32 54.62 54.50 54.85 55.30 55.08 53.97 50.72 42.52 51.67 53.36 54.02 54.18 53.54 52.12 49.85 49.31 49.14 51.24 48.13 47.49 49.05 51.55 51.53 53.13 55.02 55.22 56.37 54.22 55.57 56.29 57.89 60.19 60.33 60.96 61.16 61.66 61.81
51.91 51.79 52.23 52.38 52.67 53.22 53.66 54.27 54.29 54.41 55.26 56.21 54.67 54.35 49.14 46.52 53.11 55.48 55.14 53.61 53.78 52.49 49.64 50.30 50.19 47.63 50.32 47.09 49.83 49.70 47.71 50.26 51.72 53.87 53.57 55.95 52.95 54.12 58.01 59.68 59.51 59.84 60.72 61.03 61.65
51.61 51.64 52.00 52.27 52.50 53.02 53.66 53.98 53.76 54.80 55.68 55.60 54.93 53.52 47.06 53.02 55.57 54.19 54.39 53.05 53.56 53.79 52.14 52.28 51.66 47.96 47.32 50.79 48.35 45.49 46.54 43.48 49.75 51.31 52.06 53.10 48.93 55.82 58.54 58.13 57.83 58.53 58.89 59.31 60.76
51.86 51.45 51.75 52.10 51.96 52.71 53.26 53.37 53.98 54.49 55.33 55.22 53.93 51.25 44.94 53.67 50.20 52.53 53.71 50.70 51.83 52.15 52.00 51.43 49.84 46.08 45.78 43.51 42.90 45.18 40.56 43.17 45.37 51.02 50.19 49.84 48.12 53.59 56.85 56.79 56.37 57.41 58.02 58.59 59.98
51.71 51.16 51.09 51.47 51.60 52.18 52.47 53.11 55.02 55.38 55.44 54.78 53.84 47.89 48.27 45.66 50.10 51.48 53.57 52.19 49.35 49.22 47.76 47.04 45.82 42.76 42.08 41.74 36.28 40.04 41.68 43.14 43.57 48.33 49.83 48.40 48.21 52.04 54.78 55.28 55.88 56.90 57.80 58.88 59.47
51.30 51.07 51.14 51.20 51.52 51.99 52.87 53.30 50.27 48.80 49.26 46.08 45.40 45.06 46.44 50.15 51.56 49.41 51.60 50.05 48.65 46.74 42.63 45.58 40.93 38.48 40.61 42.08 42.55 42.97 42.71 42.75 45.41 48.56 47.72 47.92 48.23 50.21 53.09 53.79 54.21 55.79 56.37 57.10 57.75
50.90 50.65 50.95 51.18 51.54 51.87 53.37 49.00 48.07 49.21 43.58 48.49 47.80 47.52 49.20 49.65 44.39 47.24 51.08 45.58 45.25 41.32 44.16 41.93 38.91 42.55 42.56 41.82 41.01 41.80 40.71 41.75 45.03 47.59 47.72 47.11 47.01 50.08 51.88 52.74 54.12 54.71 55.40 56.02 57.22
50.98 50.64 50.78 51.07 51.50 52.96 51.55 49.99 53.83 53.02 44.30 43.76 46.29 45.70 46.35 48.00 43.82 44.52 47.55 46.50 43.51 40.97 41.23 39.45 41.65 43.51 41.03 39.91 38.57 40.12 39.43 40.64 41.50 45.30 47.14 46.14 44.84 47.62 51.02 52.67 53.52 54.43 55.42 55.98 56.54
51.15 50.58 50.99 50.75 50.03 53.14 50.75 52.82 54.27 53.05 39.91 39.03 42.09 45.32 46.66 47.10 43.02 47.84 49.16 45.98 43.47 40.10 41.36 40.73 43.56 41.45 40.38 38.49 39.90 36.09 41.82 41.99 41.54 41.31 37.51 46.17 37.44 45.49 48.59 49.61 51.46 52.87 54.46 55.17 56.25
51.28 50.75 50.92 49.80 51.70 51.63 51.61 54.71 53.95 50.38 29.15 39.60 41.67 49.10 47.29 43.22 43.40 43.66 49.53 45.74 41.07 41.17 42.12 39.24 40.86 39.79 38.34 38.95 41.33 38.46 42.09 41.86 41.54 40.69 40.58 40.96 39.22 43.57 47.89 46.76 49.68 52.20 53.57 54.99 56.06
51.27 50.73 49.99 50.92 53.62 53.43 54.59 54.00 50.60 37.28 24.73 36.53 41.45 41.09 41.56 42.45 42.60 43.65 44.25 46.93 46.77 42.80 43.47 42.28 45.73 42.86 41.13 41.82 41.44 42.70 39.67 39.86 40.80 39.09 34.06 39.78 39.94 40.84 44.29 47.05 49.47 51.77 52.88 53.76 54.72
50.99 49.94 50.72 53.83 51.41 55.05 54.62 49.67 37.32 31.41 38.44 35.83 37.26 40.88 40.65 38.93 40.31 40.61 40.00 39.69 37.90 34.14 35.63 39.85 40.79 43.76 43.96 39.55 41.89 40.61 36.99 31.14 29.79 31.05 30.39 40.98 38.74 41.27 47.43 48.86 48.76 50.10 52.41 53.43 55.45
50.16 48.31 50.99 54.58 56.13 54.48 51.89 42.31 30.46 34.67 35.24 40.60 39.70 40.35 37.02 39.31 39.45 39.85 38.47 37.19 40.38 39.48 36.39 33.09 31.25 39.11 42.88 40.47 37.20 37.74 36.59 31.01 26.05 29.33 32.66 39.96 35.65 41.03 48.05 50.08 50.52 51.79 53.35 55.43 57.19
48.78 55.33 54.83 56.28 55.84 53.77 46.35 35.93 35.42 36.04 38.43 37.76 39.23 36.02 36.65 38.30 39.17 38.68 37.89 36.95 39.01 40.68 33.41 33.17 32.61 41.27 42.50 43.03 40.88 37.64 33.09 40.37 33.31 35.18 34.40 37.41 40.85 45.29 47.90 48.32 49.92 51.54 53.94 56.07 60.17
50.74 53.08 53.06 54.29 55.54 51.49 43.25 35.05 37.49 40.16 40.66 40.28 33.31 36.86 33.86 36.42 36.49 36.68 36.45 38.93 38.07 40.93 42.41 37.68 31.37 39.26 40.53 42.89 42.46 40.56 39.82 31.29 33.73 25.35 28.11 35.82 37.53 39.25 44.60 45.91 48.49 50.48 52.07 56.73 62.40
51.00 47.98 51.41 54.02 53.79 47.16 38.66 38.05 39.21 42.37 42.08 38.22 37.15 36.31 37.14 34.68 37.09 36.08 35.53 39.37 40.75 40.29 42.65 40.65 36.38 35.18 39.78 37.15 35.75 36.40 35.86 37.31 36.20 34.92 31.28 32.35 37.00 46.21 47.53 48.81 48.72 50.54 52.68 59.42 61.80
48.61 43.13 52.76 53.05 43.04 44.81 38.62 38.10 39.71 40.76 43.26 40.52 41.37 39.86 37.66 37.84 35.54 36.30 35.75 38.28 43.01 42.42 37.73 41.28 36.94 31.96 35.47 40.64 42.74 38.91 37.41 35.39 31.16 31.39 36.03 35.49 39.12 49.34 49.57 49.58 49.95 50.54 52.72 59.89 60.31
43.36 44.44 53.05 50.25 38.43 37.12 39.25 38.51 40.09 39.95 39.96 39.21 38.25 40.54 41.30 38.07 32.98 36.95 37.96 42.33 42.53 41.00 38.64 40.65 36.17 30.38 32.92 38.20 40.95 37.51 38.94 37.13 38.64 36.63 33.84 33.72 38.37 49.10 48.83 48.79 49.92 50.23 51.96 55.74 60.52
43.28 39.06 45.90 46.99 45.28 37.98 37.05 36.71 37.32 41.65 41.14 41.31 39.75 41.04 39.31 36.83 39.27 34.77 36.45 39.84 41.83 41.53 43.05 41.29 37.34 33.35 29.65 33.47 37.25 34.47 36.51 38.79 37.64 33.63 34.27 36.80 39.89 45.21 47.14 47.52 48.81 50.09 51.55 55.17 61.12
42.96 39.91 41.72 39.38 41.38 40.05 39.84 37.22 35.89 35.50 41.11 42.08 38.70 38.80 36.70 33.27 36.22 35.62 38.20 38.65 39.98 41.18 40.89 38.61 34.12 35.50 36.84 37.86 37.84 36.67 36.05 37.02 36.45 37.62 34.12 37.38 39.62 43.32 46.39 47.53 48.66 50.03 50.96 52.44 60.06
40.64 38.57 41.92 40.74 40.91 38.73 38.33 37.17 35.92 37.08 38.12 37.21 36.63 38.47 37.53 34.17 35.31 33.39 36.32 36.31 35.26 39.06 37.78 38.25 33.68 36.41 33.78 37.23 37.54 34.99 37.40 37.59 37.60 38.28 38.25 39.04 38.89 45.64 47.41 48.00 47.44 48.87 49.93 51.44 52.91
42.96 41.21 37.78 38.50 38.68 35.63 37.88 37.62 37.69 39.65 40.11 41.25 39.45 37.07 37.52 39.89 41.76 43.00 42.27 41.40 40.10 36.21 35.97 35.44 34.36 33.59 30.17 36.36 36.13 31.95 36.43 37.71 38.56 40.34 40.06 36.59 41.50 45.54 45.22 46.17 47.28 49.16 50.56 51.46 52.05

GFSSW_sfc_wetblb_033.txt.gz
Wetbulb
53.90 54.14 54.17 54.32 54.33 54.47 54.55 54.67 54.90 55.11 55.53 55.79 55.83 55.91 55.79 55.59 55.61 56.97 52.40 55.31 55.89 60.79 59.79 54.38 54.41 54.20 59.09 58.25 60.75 60.71 52.95 50.50 51.41 50.78 51.96 55.35 54.02 57.08 59.86 59.40 62.22 63.76 63.69 65.63 68.02
53.50 53.84 53.82 54.00 54.03 54.19 54.39 54.72 55.01 55.28 55.56 55.79 55.98 55.79 55.64 55.38 55.42 53.06 57.30 57.96 58.07 59.75 54.11 52.31 51.68 53.26 53.60 55.64 57.63 56.40 53.27 52.71 55.45 55.23 54.14 55.30 54.44 55.30 56.59 57.74 59.53 62.19 63.88 64.96 67.65
53.18 53.63 53.75 53.91 53.92 54.00 54.35 54.75 55.08 55.72 55.82 56.09 55.80 55.67 55.51 55.88 53.08 54.83 61.47 57.73 58.15 58.25 53.98 54.43 53.14 52.94 50.23 55.07 55.02 56.20 53.54 56.20 56.14 56.66 56.69 55.32 54.73 55.57 54.74 56.28 59.96 60.80 62.56 63.48 64.07
52.85 53.18 53.62 53.48 53.71 53.89 54.26 54.63 55.37 55.82 55.87 55.92 55.86 55.86 55.70 56.06 44.11 53.87 57.30 57.46 58.86 57.36 52.77 53.22 52.39 50.04 48.86 48.72 55.30 51.75 55.43 56.74 57.25 57.63 57.10 55.57 56.72 55.59 55.65 55.78 60.44 62.83 63.88 63.89 63.72
52.74 52.82 53.02 53.14 53.32 53.65 54.02 54.60 55.07 55.39 55.60 55.74 55.79 56.21 55.46 51.95 47.81 53.65 55.68 59.26 56.18 54.52 51.38 49.66 49.83 50.88 48.28 49.62 51.15 52.58 54.17 55.37 56.72 56.76 57.34 57.68 55.37 55.56 56.31 58.35 59.20 59.95 62.09 62.18 63.03
52.12 52.55 52.60 52.91 53.14 53.27 53.74 54.35 54.67 54.75 55.12 55.88 56.17 55.41 54.71 47.76 53.42 55.09 55.24 55.29 54.71 53.43 52.25 51.31 49.25 51.80 50.07 49.91 49.49 51.53 51.60 52.56 54.46 54.82 56.20 55.47 55.50 55.99 56.97 59.43 59.37 59.18 59.45 61.16 61.87
52.38 52.23 52.18 52.66 52.93 53.09 53.23 54.11 54.11 54.13 55.20 56.35 56.94 55.87 52.63 48.32 54.57 55.80 55.91 54.37 54.92 53.88 50.99 53.00 51.81 49.53 50.75 49.32 51.91 50.52 47.73 50.14 51.88 53.09 53.55 56.65 52.59 53.50 58.14 59.63 58.99 59.47 60.30 61.72 63.07
52.43 52.53 52.32 52.45 52.84 52.92 53.29 53.84 53.84 54.23 55.63 56.44 55.46 56.85 50.52 53.58 55.75 54.14 54.49 53.42 54.97 54.71 53.76 53.69 53.43 50.32 48.14 49.25 48.06 47.57 47.92 43.99 49.55 51.91 53.02 52.42 48.71 54.84 58.14 58.36 58.19 59.55 60.70 61.29 62.67
52.22 52.61 52.04 52.34 52.57 52.67 52.94 53.47 53.68 55.25 55.95 55.95 55.76 54.42 48.49 55.01 50.89 52.57 53.91 51.41 52.95 53.82 53.71 53.38 51.91 48.50 48.21 43.20 41.94 44.32 41.73 44.24 45.88 50.49 50.89 50.64 48.99 54.23 57.12 57.78 58.15 58.99 60.06 60.74 61.94
51.84 52.07 51.65 51.94 52.36 52.59 52.75 52.61 55.21 54.91 56.18 57.49 55.72 50.29 51.46 46.39 50.79 51.64 54.07 52.73 50.56 50.80 49.91 49.71 48.60 45.10 45.00 42.39 36.38 39.95 41.41 43.56 44.07 48.34 48.86 48.16 49.46 52.28 54.48 54.98 56.62 57.89 59.26 59.72 60.22
52.05 52.00 51.33 51.54 52.02 52.38 52.77 56.14 52.17 51.97 53.10 47.91 47.83 46.65 47.40 50.93 52.42 50.08 51.86 50.74 50.59 48.81 44.41 47.99 44.11 41.77 43.41 44.68 44.11 42.49 41.52 42.14 45.79 48.90 47.79 47.40 48.75 50.63 53.29 53.99 54.26 56.50 58.17 59.67 61.33
52.31 51.48 51.33 51.90 52.27 52.40 53.71 51.26 50.26 51.72 45.40 50.46 49.53 48.40 49.88 50.94 46.14 48.51 51.09 46.54 46.58 42.90 45.50 43.90 41.14 44.90 45.55 44.58 42.74 41.98 40.69 40.86 44.19 47.42 48.03 47.92 47.48 50.25 52.54 53.53 54.53 55.32 56.33 57.67 59.36
51.80 51.88 51.51 51.94 52.36 53.18 53.23 51.84 55.48 54.80 46.13 46.93 47.90 47.07 47.48 48.80 45.92 46.54 48.62 47.01 44.72 42.26 42.74 40.80 42.74 45.52 43.88 42.78 41.01 41.02 39.74 40.54 41.19 45.44 47.66 46.83 45.23 48.38 51.11 52.83 54.20 55.23 56.46 57.25 58.05
51.98 52.12 51.61 51.41 50.27 54.62 53.32 54.98 56.07 55.09 42.01 42.65 44.21 47.03 47.55 48.12 44.96 48.79 49.40 47.00 44.27 41.43 42.71 42.21 44.73 42.69 41.98 41.13 42.15 38.20 42.86 41.91 41.14 41.28 38.10 46.76 38.39 46.03 49.67 50.59 52.11 53.87 55.43 56.27 57.39
52.01 51.96 51.23 49.79 55.14 53.39 53.82 56.65 55.97 53.06 32.95 42.45 43.84 50.10 48.37 45.40 45.22 46.23 49.09 47.03 42.14 41.54 42.36 39.99 41.68 41.22 40.26 41.88 43.05 40.16 43.26 42.03 41.63 40.00 40.92 41.32 39.63 44.11 49.17 48.00 50.38 53.05 54.09 55.71 57.06
51.82 51.69 50.90 52.79 56.35 55.04 56.40 56.05 53.42 40.80 30.70 39.60 43.68 42.99 43.62 45.48 44.32 46.20 45.73 48.08 46.96 42.44 43.10 42.75 45.78 44.81 43.46 44.54 44.16 43.81 41.26 41.60 41.63 39.78 34.23 39.88 39.81 41.08 44.87 47.61 50.45 53.11 54.20 55.33 55.97
51.54 50.84 50.64 56.08 53.18 56.48 56.56 52.02 40.23 35.38 42.24 39.15 40.14 43.07 42.77 42.15 42.13 42.91 42.27 41.67 38.65 35.19 35.75 40.49 41.18 44.10 45.95 41.48 43.96 42.07 38.24 30.90 29.85 30.59 30.75 40.78 38.91 42.10 47.65 49.75 51.48 51.96 53.63 55.02 56.44
50.68 49.39 52.83 56.31 57.82 56.82 54.12 45.88 34.68 39.49 39.63 43.75 42.37 42.54 40.38 41.09 41.44 41.74 40.91 38.89 41.16 40.23 37.13 33.30 31.68 38.33 44.43 42.24 40.40 39.82 38.70 31.81 24.13 27.17 32.00 39.59 34.74 40.57 49.50 51.70 52.51 52.91 53.70 54.70 56.12
49.63 56.12 55.61 57.53 57.47 55.81 48.65 39.31 38.92 40.27 41.51 40.45 41.71 39.68 39.37 40.93 41.20 40.99 39.77 39.34 40.21 41.75 35.22 34.27 33.62 42.43 43.86 44.29 43.65 40.47 35.73 41.82 34.68 35.79 30.57 34.15 39.37 44.92 48.49 49.79 50.83 52.49 53.82 55.44 57.36
51.70 53.58 54.94 56.95 57.52 53.14 45.33 39.32 41.50 42.98 43.25 42.79 37.18 39.85 36.74 39.12 38.75 38.98 38.66 41.60 39.65 42.57 43.48 39.12 32.79 40.84 42.13 44.11 44.14 42.22 43.43 33.36 34.49 26.95 25.20 33.47 35.82 39.22 44.16 47.19 49.93 51.68 52.76 55.15 60.73
51.92 48.28 53.59 56.64 54.34 48.64 40.13 41.52 41.95 44.59 44.34 40.76 39.70 38.79 38.52 37.84 39.14 38.57 38.44 41.84 43.16 41.98 43.75 41.20 38.06 37.26 41.38 39.62 38.55 36.63 35.16 38.12 37.73 34.27 28.66 29.86 35.02 46.49 46.62 48.26 49.42 51.54 53.27 59.19 61.94
50.44 45.36 54.80 52.83 43.46 46.55 41.98 40.98 41.31 42.99 45.60 43.26 42.64 40.67 39.54 39.62 37.41 37.61 36.99 40.81 44.29 44.28 38.70 42.04 38.71 34.13 36.75 41.92 44.62 42.66 39.44 38.10 30.02 31.25 36.68 34.32 34.33 46.97 51.13 51.75 52.51 51.78 53.68 59.38 61.93
46.68 47.96 54.05 51.14 39.62 41.77 44.35 42.68 42.56 42.02 43.22 41.79 39.92 42.01 42.36 37.94 35.11 39.82 40.90 44.25 44.20 42.55 39.75 41.90 36.75 30.83 34.19 39.20 41.99 39.03 40.35 41.18 40.20 38.11 32.95 29.67 32.83 46.47 51.26 51.11 51.94 51.59 53.30 60.53 61.78
47.24 42.87 47.57 47.35 48.21 42.92 42.35 41.32 39.89 44.22 43.17 42.88 41.02 42.13 40.10 39.18 41.86 38.44 39.54 42.00 42.42 41.17 43.49 42.43 37.60 33.78 29.94 34.27 34.36 32.16 36.17 40.51 39.33 32.07 33.58 34.45 36.37 39.58 47.25 49.35 50.70 51.52 52.22 55.06 62.05
48.88 44.19 43.90 40.83 42.39 42.00 42.25 42.76 39.74 39.24 42.83 42.97 41.35 40.47 40.01 36.42 38.43 37.67 40.16 40.60 41.57 42.65 41.60 38.78 33.37 34.95 37.01 39.06 39.00 37.75 38.05 37.61 36.51 38.00 33.51 36.24 36.58 38.81 42.84 47.69 50.27 50.98 51.50 52.80 59.67
43.48 42.44 44.75 42.07 44.03 40.08 40.72 39.76 40.36 40.65 41.66 40.43 39.02 41.30 40.56 35.29 36.41 35.21 38.34 39.76 38.08 39.88 39.13 40.07 32.78 35.05 33.72 38.36 38.98 36.94 38.56 38.99 38.82 39.18 39.08 38.77 38.21 44.17 47.26 49.52 49.36 49.87 50.54 51.77 55.34
45.23 44.17 41.34 40.22 41.46 40.24 38.90 38.58 38.66 40.93 42.94 43.69 41.64 40.18 40.22 42.46 44.42 45.73 45.18 44.93 43.97 39.59 36.29 35.77 35.30 33.78 30.99 36.83 36.96 33.45 37.88 38.58 39.63 41.08 40.38 36.76 41.77 45.78 45.43 47.22 48.89 49.92 50.58 51.22 53.67

GFSSW_sfc_wetblb_036.txt.gz
Wetbulb
53.72 54.09 54.25 54.39 54.40 54.58 54.78 54.94 55.31 55.63 56.15 56.47 56.72 57.05 56.71 56.54 56.12 55.65 52.79 54.24 56.23 61.63 59.93 53.35 53.02 53.25 53.80 52.84 58.07 57.70 51.79 49.62 50.49 50.82 51.71 55.12 53.96 56.67 57.59 56.14 59.67 62.29 63.83 65.75 68.21
53.77 53.73 53.93 54.30 54.31 54.34 54.41 54.72 55.28 55.79 56.16 56.63 56.86 57.21 56.84 56.64 53.53 53.40 57.86 58.26 59.36 60.08 52.67 51.50 50.84 52.37 50.42 51.16 53.78 53.56 51.27 51.70 55.06 54.94 54.03 55.34 55.10 55.81 54.83 54.67 56.13 60.48 64.29 66.31 67.30
53.04 53.60 53.60 53.81 54.03 54.12 54.32 54.65 55.21 55.68 56.31 56.57 56.80 56.93 56.93 56.29 53.34 53.29 60.69 56.88 59.17 58.75 55.27 53.47 52.17 51.45 49.21 50.88 50.99 52.09 50.35 54.82 55.96 56.85 56.90 55.52 55.43 57.25 54.26 52.50 56.02 57.99 62.20 63.75 66.28
52.93 53.45 53.51 53.58 53.77 53.76 54.24 54.57 55.06 55.59 55.85 56.11 56.27 56.55 57.21 55.29 44.85 54.77 58.02 57.87 60.90 58.30 55.03 51.07 49.94 48.50 46.85 47.48 50.57 48.26 52.45 54.15 55.80 57.53 56.87 55.79 57.40 55.60 55.93 55.19 57.30 59.25 62.47 63.91 63.65
52.65 53.21 53.01 53.00 53.36 53.73 53.91 54.37 54.84 55.06 55.36 55.69 56.18 56.60 55.38 53.51 50.82 55.11 60.15 59.80 56.98 55.33 52.43 50.38 47.65 48.48 46.73 48.13 49.57 47.90 50.01 53.17 54.83 55.36 55.91 57.00 55.86 56.06 56.04 58.31 59.11 58.69 60.30 63.16 63.08
52.92 53.11 53.19 53.06 53.33 53.46 53.76 54.02 54.14 54.43 54.73 55.53 56.67 56.73 53.67 48.60 54.20 55.13 55.22 55.44 54.85 53.51 51.65 51.77 49.58 49.64 47.18 47.73 48.28 49.95 49.67 50.05 52.21 54.50 55.27 53.96 54.93 56.43 57.47 59.18 58.51 59.21 58.95 61.46 62.79
52.68 52.54 52.58 52.83 53.12 53.35 53.86 53.95 54.05 54.28 54.76 55.74 56.92 56.01 52.10 51.12 54.12 54.96 55.13 53.00 54.08 53.33 51.13 52.42 52.42 49.40 48.73 46.45 50.11 49.73 46.84 48.79 49.85 50.73 51.20 53.65 51.01 52.80 57.87 58.96 57.82 58.59 59.04 60.02 61.83
52.87 52.76 52.28 52.41 52.70 53.18 53.53 53.85 53.78 54.20 55.24 56.32 56.94 54.71 50.81 54.18 54.78 53.51 53.25 52.54 54.22 54.03 53.11 53.72 53.15 49.94 48.07 49.13 46.70 44.46 46.11 42.85 47.98 49.42 50.67 50.32 45.61 51.99 56.55 57.27 57.60 58.44 59.12 59.84 61.00
53.66 53.21 52.61 52.20 52.67 53.05 53.44 53.42 53.64 55.07 56.34 56.55 54.39 54.81 49.02 55.69 51.12 52.50 52.84 50.80 51.80 52.57 53.05 53.20 51.53 47.79 47.26 43.34 41.50 42.41 38.28 41.02 44.35 49.41 48.58 48.25 46.73 52.09 54.90 55.53 56.06 57.79 59.05 59.87 61.13
53.42 52.48 52.84 52.55 52.22 52.94 52.82 52.66 54.55 54.31 55.92 57.66 55.79 50.11 52.54 48.23 50.47 51.42 53.30 52.36 49.66 50.36 49.53 49.24 47.98 44.90 44.70 41.91 35.17 38.62 39.16 40.73 40.86 45.17 47.53 46.86 46.92 51.17 53.72 54.00 54.13 55.98 57.10 58.72 60.53
53.15 52.77 52.19 52.67 52.55 52.59 52.53 55.63 51.65 50.85 54.17 49.86 48.88 48.42 48.16 50.66 52.39 50.21 51.88 49.95 49.95 48.95 43.89 47.17 43.43 41.00 43.68 44.84 44.16 42.93 41.34 40.03 42.91 45.60 45.26 46.19 47.29 49.47 51.60 52.58 53.21 55.25 57.03 57.73 58.82
52.42 52.32 52.63 52.65 52.67 52.76 52.34 52.17 50.32 51.66 45.31 50.74 50.47 49.78 50.17 50.62 46.27 49.34 51.24 46.12 45.55 42.12 45.08 43.30 40.21 44.73 45.96 45.18 43.58 42.35 40.17 39.68 42.66 44.96 44.79 44.28 44.47 49.01 51.12 51.93 53.35 54.66 55.31 56.81 58.79
52.14 52.53 52.90 52.49 52.39 52.69 54.65 52.24 55.15 55.04 45.75 48.11 49.11 47.36 48.14 48.90 45.96 46.91 49.08 46.68 43.44 41.84 42.00 40.09 42.40 45.51 43.88 42.60 41.68 41.44 39.95 40.07 39.46 42.67 43.94 43.19 42.34 45.72 49.63 52.15 53.29 54.22 56.33 57.11 57.57
51.91 52.16 52.45 51.85 50.26 54.83 53.89 55.58 56.01 55.28 41.04 43.44 44.35 47.23 48.14 48.16 45.01 49.42 49.83 46.33 43.86 40.89 41.88 41.04 43.91 42.58 42.06 40.75 41.91 37.79 43.10 42.34 40.81 38.99 34.70 42.71 35.75 44.23 47.53 49.27 51.30 53.21 54.18 55.61 57.54
51.89 52.27 52.23 50.99 52.47 52.75 53.62 56.26 55.92 52.60 32.80 44.12 44.71 50.70 48.47 45.43 46.33 46.83 49.85 46.34 41.32 41.27 41.47 38.82 40.47 40.67 39.69 41.30 43.48 40.36 44.24 41.76 40.90 38.61 38.10 38.40 36.08 40.70 46.86 46.67 49.74 52.36 54.75 55.40 55.76
51.69 52.31 51.76 53.79 53.68 56.59 55.84 56.32 54.35 40.84 32.03 40.80 44.54 43.55 43.95 45.85 45.93 46.69 46.68 48.73 47.30 42.66 42.61 41.79 45.48 43.70 43.39 44.06 44.22 45.00 42.09 41.43 40.41 37.82 32.37 37.04 36.94 37.48 42.35 46.03 48.99 52.46 54.22 55.48 56.16
51.42 51.33 50.49 54.96 52.28 56.06 55.98 52.36 39.94 35.74 43.95 40.39 41.24 43.77 43.09 42.50 43.56 43.81 42.62 41.85 39.49 35.97 35.95 40.04 40.44 44.38 45.24 40.70 43.79 42.39 38.45 30.77 29.26 30.39 29.67 38.43 36.46 39.75 44.54 47.41 49.26 50.86 52.74 54.61 56.90
50.24 49.89 52.67 53.33 56.61 56.18 52.62 44.71 34.23 41.34 41.35 44.35 43.18 42.96 40.65 43.40 42.31 42.34 41.39 39.21 42.71 40.26 36.37 33.32 31.38 39.96 43.10 41.03 37.82 37.63 37.02 30.11 23.39 26.23 30.28 37.65 32.89 38.24 46.01 48.97 50.73 52.26 53.28 55.04 56.43
49.03 55.99 54.54 56.28 57.26 54.86 47.55 37.76 38.25 41.23 42.97 41.15 41.88 39.90 40.17 42.29 41.73 41.32 41.02 40.14 41.62 41.62 35.07 33.68 33.58 42.08 42.48 43.24 41.44 39.11 36.14 41.23 33.54 35.22 30.13 34.26 37.64 43.05 45.89 46.27 48.61 50.77 53.11 54.02 55.67
49.42 52.96 53.82 58.13 57.41 51.95 44.13 38.97 41.98 44.89 44.06 42.84 37.05 40.53 36.85 39.12 39.10 39.77 39.65 42.75 41.49 43.85 44.55 39.51 32.53 40.20 41.30 43.01 43.62 40.87 42.68 33.93 35.49 25.29 23.71 31.24 33.10 35.43 42.02 44.11 47.26 49.55 52.10 54.28 56.14
50.81 49.95 55.00 57.51 54.30 47.73 39.83 41.34 42.98 44.90 44.22 41.10 39.69 38.87 38.93 37.74 39.62 38.82 38.50 42.00 44.05 43.49 44.44 41.96 37.72 36.97 40.83 38.53 37.52 39.36 36.57 35.72 36.11 33.53 26.30 25.94 31.64 42.32 44.27 45.17 46.81 49.43 52.68 54.41 56.73
50.75 44.72 55.41 54.20 43.17 45.55 41.94 43.63 43.72 43.53 45.07 44.17 44.00 41.07 39.15 39.69 38.23 37.94 37.31 41.25 45.03 43.61 38.31 42.22 37.96 33.14 35.60 41.49 43.02 41.01 39.34 37.20 31.64 29.93 33.42 31.96 32.08 44.95 43.85 43.49 42.95 50.43 52.61 56.23 60.59
47.35 48.13 54.76 53.28 41.49 41.82 44.48 44.31 44.84 42.78 43.23 42.79 41.06 42.82 43.18 39.51 35.66 39.18 40.39 44.61 44.62 41.89 38.95 40.43 35.75 29.81 32.14 38.04 40.93 38.19 39.05 37.32 36.86 37.86 32.05 28.98 31.71 45.79 40.98 41.41 42.81 45.10 52.14 52.98 60.27
48.36 42.98 48.64 48.79 48.43 44.02 41.32 40.76 41.62 45.53 43.49 43.73 42.55 43.33 41.18 39.74 41.96 38.53 39.50 43.22 43.63 42.28 43.60 41.88 36.37 32.49 28.25 32.17 35.12 32.70 35.82 38.43 37.61 32.82 33.49 33.49 35.09 39.19 38.05 40.68 43.24 46.35 51.83 51.98 60.02
49.29 44.95 46.06 41.06 42.41 43.12 43.13 41.66 40.41 39.72 44.57 44.41 41.89 41.63 40.37 37.08 38.25 37.27 40.51 41.21 43.17 43.93 40.89 38.82 33.99 35.58 36.02 37.23 37.34 36.22 35.03 36.85 35.82 37.27 33.35 34.83 35.59 38.33 40.24 41.61 43.78 46.18 49.49 51.86 58.79
43.51 41.95 43.34 41.74 43.98 42.97 42.00 40.49 39.05 41.00 41.11 39.62 39.66 41.07 41.52 38.49 39.14 37.37 39.86 40.50 40.34 42.95 40.46 41.06 32.55 35.26 33.65 37.05 37.44 35.27 37.94 37.21 37.57 38.17 37.61 37.50 36.80 43.03 44.79 45.13 45.64 47.30 49.89 50.11 55.19
47.18 46.34 41.80 39.94 42.89 42.01 40.80 40.14 39.50 41.17 41.75 43.51 41.88 40.36 39.83 41.39 45.41 45.68 45.93 45.96 44.32 39.98 36.83 34.82 34.41 34.30 30.13 36.50 36.38 31.85 36.75 38.04 38.63 39.73 38.90 35.10 39.97 43.95 43.27 45.09 47.01 49.07 50.12 50.23 51.42

GFSSW_sfc_wetblb_039.txt.gz
Wetbulb
53.81 54.17 54.11 54.31 54.44 54.47 54.63 54.94 55.27 55.61 56.15 56.68 57.02 57.23 57.24 57.08 56.74 52.07 48.05 53.59 54.57 60.69 60.83 51.40 50.18 50.41 50.55 48.62 50.15 53.34 45.33 42.82 46.73 47.96 50.09 54.60 52.83 56.56 56.16 52.90 54.25 57.90 62.34 64.04 66.65
53.49 53.84 54.05 54.11 54.14 54.25 54.42 54.74 55.03 55.58 56.10 56.48 56.86 56.91 56.94 56.94 52.23 49.95 57.48 60.86 61.13 60.72 51.47 48.64 47.98 49.23 45.13 46.18 47.16 46.88 44.08 45.53 50.83 52.78 51.99 54.20 54.13 54.79 54.42 54.18 52.70 56.61 63.65 64.86 65.59
53.35 53.58 53.83 53.69 54.01 54.02 54.33 54.58 54.88 55.34 55.91 56.19 56.46 56.46 57.07 56.57 49.74 49.55 61.30 61.71 60.84 58.56 54.12 52.06 50.33 47.27 43.72 45.64 46.14 46.90 44.50 49.89 51.77 54.33 55.49 54.63 54.69 56.45 54.32 51.75 52.01 52.93 60.92 63.24 64.45
53.44 53.69 53.91 53.82 53.83 53.93 54.22 54.49 54.86 55.13 55.60 55.73 56.01 56.57 57.23 53.34 41.45 53.96 61.39 62.22 62.04 57.94 53.90 51.18 46.55 40.69 40.70 41.06 45.96 42.84 47.00 50.16 51.01 52.87 52.71 52.46 55.35 54.17 55.03 54.81 56.52 56.14 57.52 60.40 62.80
53.11 53.33 53.48 53.30 53.49 53.80 54.01 54.25 54.40 54.64 54.80 55.16 55.68 56.63 53.41 48.61 50.04 54.67 63.19 61.80 57.86 54.78 52.41 49.00 44.60 41.40 38.84 42.55 44.05 43.28 45.71 47.90 50.29 51.68 52.27 53.20 51.74 52.87 54.09 57.16 58.80 57.77 56.98 56.47 60.55
53.13 53.19 53.17 53.13 53.17 53.29 53.65 53.99 54.17 54.25 54.52 55.00 55.63 56.81 51.40 44.81 51.57 54.41 57.64 54.55 54.52 50.71 47.80 48.20 45.18 46.62 42.36 41.67 40.42 43.67 45.07 46.61 48.10 47.90 50.67 50.73 51.24 52.98 54.40 56.96 57.47 57.95 56.37 56.31 59.74
53.95 53.43 53.18 53.35 53.25 53.31 53.70 53.96 53.94 54.12 54.38 55.26 56.17 55.08 48.14 46.08 52.48 50.77 51.33 47.39 50.13 51.19 49.09 50.11 49.75 46.10 44.66 41.54 44.51 44.38 40.91 44.10 45.63 46.77 47.09 48.90 47.34 50.53 54.74 55.56 54.83 56.43 56.83 56.52 57.20
53.40 53.12 52.96 53.18 53.45 53.25 53.46 53.86 53.67 53.90 54.72 56.30 56.47 51.65 44.91 55.93 52.83 50.89 49.45 49.02 51.25 50.88 50.54 50.49 50.78 45.89 42.95 44.76 43.72 40.09 40.02 34.12 40.63 45.99 47.33 45.84 40.67 47.94 51.69 53.63 53.61 55.33 56.91 57.71 57.21
53.25 52.89 52.69 52.48 52.95 53.37 53.55 53.29 53.49 54.26 55.15 56.95 51.41 48.53 46.84 55.65 49.88 50.99 50.07 49.53 50.43 50.22 50.35 52.06 48.28 43.83 43.37 38.21 34.71 36.48 32.32 34.11 37.85 43.06 44.36 44.22 42.13 47.70 50.37 51.03 51.51 52.60 54.50 56.98 57.61
52.71 52.56 52.99 52.72 53.32 53.45 53.11 53.31 53.96 54.03 54.32 54.14 54.22 46.21 50.10 48.83 49.09 51.57 51.20 51.79 48.49 48.11 47.88 46.71 42.97 38.93 37.68 35.04 27.01 32.23 33.51 36.55 36.52 39.52 41.68 40.48 42.05 46.76 48.84 49.32 49.54 51.14 53.74 56.40 56.84
52.83 52.73 52.04 52.91 53.45 52.80 50.91 49.19 46.72 45.91 48.19 47.94 49.63 49.17 49.18 49.43 51.31 49.76 52.27 49.23 47.71 45.29 39.33 42.67 36.58 34.11 38.06 41.02 41.09 39.72 38.15 37.17 40.08 42.94 40.20 39.67 40.63 43.14 45.32 47.73 48.28 49.77 50.82 53.94 56.47
52.39 53.02 52.58 52.96 53.27 52.85 48.99 46.01 47.27 46.57 41.12 48.88 49.35 48.82 50.53 48.89 45.03 48.30 52.00 44.55 43.24 37.68 41.38 37.99 34.02 40.81 43.43 42.63 41.49 40.07 37.76 36.82 40.03 42.45 41.15 39.71 39.34 42.58 44.36 45.17 46.43 48.87 50.33 51.77 54.42
52.13 52.36 52.82 53.11 52.65 49.96 48.22 51.28 51.73 50.67 40.24 45.47 49.70 47.58 47.85 47.17 44.67 45.47 48.37 45.14 41.25 38.60 38.75 35.19 38.54 42.80 41.26 39.52 38.85 38.06 36.50 36.86 37.04 41.18 41.79 39.10 36.97 39.50 43.25 45.30 47.50 48.57 50.76 51.71 53.15
51.86 51.99 52.44 52.00 49.32 50.53 49.55 52.14 51.99 50.89 34.21 42.64 44.37 45.99 47.44 46.84 43.47 49.68 49.31 45.14 41.21 37.63 38.89 37.22 40.84 40.24 38.66 37.99 39.38 34.67 40.66 39.94 38.72 36.10 30.45 38.54 28.33 36.53 40.62 42.40 45.50 47.26 48.04 48.86 51.12
51.43 51.75 51.76 51.41 46.64 47.46 50.25 51.53 51.53 47.57 27.85 43.58 43.69 49.45 47.10 43.40 44.99 46.16 49.55 45.07 39.48 39.38 38.41 35.71 37.87 37.73 37.46 39.34 41.85 38.23 42.85 40.45 39.50 36.35 32.92 34.13 29.58 34.58 39.28 39.38 41.70 45.35 47.96 48.48 49.72
50.95 51.07 50.97 50.54 48.47 50.22 53.74 52.04 49.69 36.35 29.28 39.58 44.14 42.60 41.64 44.10 44.76 47.10 45.82 46.46 45.28 40.79 40.27 38.66 43.05 41.67 40.40 42.87 42.78 43.62 39.86 38.30 37.45 34.38 27.10 32.26 31.08 32.31 35.95 39.41 41.96 44.96 47.11 49.25 51.35
50.26 49.94 49.28 51.05 47.66 53.86 52.53 47.99 35.28 31.80 44.53 39.37 39.93 42.60 40.96 40.41 42.54 43.94 41.67 38.60 35.19 32.00 31.62 36.64 37.22 41.22 44.12 38.47 41.43 39.28 32.24 24.41 22.28 24.40 24.80 34.31 31.73 33.34 38.94 42.57 43.52 43.92 45.64 47.98 49.63
49.68 49.18 50.97 51.64 51.20 52.63 49.11 40.71 30.08 40.41 39.77 43.37 41.45 41.20 38.46 41.82 41.64 41.89 39.74 35.90 41.11 38.00 31.28 28.44 27.55 37.65 42.23 38.02 33.90 34.48 34.21 27.10 21.64 20.59 24.90 34.90 28.62 33.24 41.55 43.69 45.43 46.71 46.13 47.12 48.89
48.72 50.01 50.81 52.89 54.23 51.09 42.46 32.70 34.73 39.82 41.82 39.59 39.92 37.33 37.52 40.83 40.41 39.65 37.78 37.28 40.24 40.76 32.18 30.23 31.61 41.23 41.73 42.19 40.81 36.54 30.52 37.62 30.39 32.12 25.51 29.20 34.31 39.06 41.70 42.96 43.25 43.19 44.83 46.48 48.04
45.56 47.81 50.67 55.39 53.95 47.54 38.30 37.20 40.44 42.99 42.19 41.07 34.41 38.72 34.13 36.20 36.00 36.30 36.90 41.08 39.80 42.32 41.32 36.13 29.54 39.30 40.48 42.09 41.28 37.45 39.96 28.39 30.46 20.95 20.61 27.29 29.83 30.81 37.75 38.24 41.14 41.77 42.47 44.76 47.16
46.11 45.46 51.10 54.70 50.49 41.81 34.59 37.88 42.33 45.09 43.61 40.17 37.74 37.33 36.64 35.45 36.22 35.20 36.79 40.09 42.46 41.06 41.06 37.26 34.90 34.03 37.71 35.00 33.72 34.35 33.18 33.02 31.83 29.73 20.95 20.20 25.79 40.33 37.55 39.25 40.05 41.32 43.31 45.22 46.15
45.46 40.87 51.81 50.63 37.75 40.91 37.63 43.08 43.48 43.65 45.30 42.89 42.63 39.71 37.66 37.56 35.48 35.17 34.91 39.22 43.82 41.98 36.20 39.11 34.10 28.78 32.02 38.74 41.06 38.52 35.78 33.83 28.51 25.65 28.49 26.87 28.01 40.36 39.59 41.04 41.92 41.71 44.28 46.32 47.95
42.14 44.71 51.12 49.29 36.13 36.20 41.32 41.44 43.03 43.05 42.67 41.47 39.96 40.60 40.05 35.88 32.60 37.68 38.69 43.66 43.70 40.82 37.72 37.53 31.36 26.79 28.78 33.86 38.62 34.31 35.56 36.47 35.26 33.77 28.16 26.53 28.68 41.10 41.58 41.36 42.60 42.48 44.64 46.65 47.64
44.00 39.19 44.72 45.48 44.44 39.20 37.47 38.74 38.29 45.28 43.52 43.34 41.19 41.02 38.55 36.63 38.45 36.62 36.89 41.35 43.60 42.09 43.65 41.94 35.53 30.67 25.78 30.11 33.75 31.22 34.19 35.59 33.53 29.44 29.06 29.99 33.80 37.91 39.45 40.50 42.55 43.91 44.34 45.38 45.85
45.04 40.62 40.76 36.13 36.97 39.05 39.84 39.24 38.34 37.96 42.90 42.01 38.83 38.87 37.72 32.57 34.73 34.50 37.95 39.85 41.72 44.87 41.94 39.48 33.24 33.73 34.48 35.90 36.13 35.16 34.64 34.79 32.72 33.88 29.71 32.79 34.11 38.30 39.86 40.92 42.96 44.73 44.82 44.95 45.13
39.50 37.27 39.45 36.16 39.67 39.03 40.39 36.95 37.05 38.78 38.13 36.94 36.21 38.90 37.64 33.55 35.12 33.30 37.31 37.37 35.87 41.06 39.54 40.05 32.00 35.50 33.76 35.80 35.68 33.48 35.67 35.75 35.34 35.82 35.12 35.78 35.16 41.52 42.72 43.58 43.32 44.18 44.97 44.74 45.69
45.23 43.71 40.42 36.78 37.03 36.66 36.73 37.23 37.89 39.62 40.90 41.53 39.12 37.04 36.22 38.22 41.46 41.91 41.93 41.17 41.06 38.51 36.09 34.44 34.04 32.69 27.80 34.65 34.36 29.14 34.86 36.20 37.37 38.81 36.91 32.71 38.24 40.72 41.32 42.40 42.58 43.46 44.81 45.56 47.29

GFSSW_sfc_wetblb_042.txt.gz
Wetbulb
53.95 53.82 54.02 54.20 54.23 54.32 54.44 54.71 54.92 55.28 55.67 56.20 56.60 56.82 56.84 56.81 56.61 51.81 46.41 52.80 54.31 60.28 60.39 52.76 49.43 48.42 48.34 46.98 48.54 49.13 40.25 39.57 45.74 47.90 49.93 53.74 51.56 55.03 56.99 53.81 55.22 56.90 61.38 63.24 66.03
53.81 53.81 54.09 54.25 54.28 54.10 54.26 54.51 54.74 54.97 55.46 55.87 56.27 56.55 56.46 56.86 52.10 49.22 54.72 61.59 61.34 60.96 51.07 47.43 46.73 48.60 43.24 44.73 44.71 42.86 40.25 42.86 48.28 50.70 50.30 52.29 52.73 54.40 54.43 54.04 54.12 54.86 63.00 65.50 65.53
53.60 53.77 53.87 53.95 53.96 54.06 54.16 54.39 54.59 54.93 55.18 55.45 55.79 56.05 56.63 56.51 48.81 50.47 61.20 62.53 62.20 60.62 52.90 51.06 49.00 46.39 40.57 43.01 43.10 41.67 41.36 48.35 49.83 51.35 52.11 51.99 52.27 54.42 51.99 51.09 53.34 53.18 55.72 63.42 64.74
53.82 53.85 53.89 53.87 53.68 53.72 53.99 54.16 54.57 54.72 54.94 54.91 55.34 55.79 57.03 52.77 38.44 52.91 62.93 62.90 62.97 57.54 52.76 50.15 45.75 38.84 37.63 38.62 43.01 39.17 43.98 45.64 48.04 50.59 50.51 49.74 52.43 50.96 51.94 52.45 55.70 56.77 57.06 60.20 62.80
53.80 54.15 53.94 53.87 53.79 53.68 53.88 54.21 54.37 54.43 54.41 54.76 55.26 55.87 52.43 46.67 49.10 55.46 63.89 63.28 59.66 55.08 51.23 48.53 42.14 39.40 35.19 38.83 41.27 39.88 42.78 44.48 46.12 46.96 49.69 51.44 50.18 50.21 50.98 53.95 56.17 57.30 57.52 55.52 61.61
53.57 53.51 53.55 53.48 53.21 53.77 53.77 53.76 53.80 53.86 54.28 54.63 55.32 56.29 50.07 41.17 54.27 53.36 60.20 55.68 54.52 50.13 46.86 46.47 42.64 43.98 40.10 38.81 38.00 40.70 41.89 42.23 43.54 44.38 45.32 46.36 48.39 49.84 51.28 54.26 54.60 55.88 56.24 55.28 56.61
53.40 53.66 53.05 53.23 52.92 53.03 53.87 53.92 53.82 53.51 53.97 54.80 56.09 54.45 47.38 43.41 53.04 50.77 53.49 48.56 47.63 49.26 47.15 48.21 47.82 44.93 42.00 40.08 42.28 42.39 38.44 40.70 42.00 42.77 43.86 46.90 44.42 45.92 50.16 52.41 53.63 54.78 55.43 55.51 55.82
53.02 53.06 53.04 53.00 52.92 53.16 53.35 53.70 53.56 53.64 54.38 54.89 56.42 51.35 42.34 53.34 52.60 51.44 47.24 47.43 49.20 49.10 48.62 49.08 48.98 44.34 41.02 42.14 41.75 37.82 36.65 31.21 37.84 41.71 44.74 44.67 39.44 46.19 49.07 48.82 49.51 51.16 53.87 55.06 56.47
53.37 53.24 53.04 52.67 52.79 53.02 52.96 52.90 53.60 54.53 55.23 55.21 50.04 46.69 44.73 56.29 49.19 50.08 48.97 48.24 48.89 48.92 48.48 51.07 46.88 42.75 41.44 36.06 32.16 33.00 28.60 31.48 35.19 40.52 41.22 41.39 39.71 45.94 48.07 47.90 48.03 49.56 50.62 52.35 53.89
53.24 53.04 53.16 52.67 52.52 52.73 52.22 52.85 52.98 53.42 53.57 54.38 52.55 44.53 47.84 47.82 47.97 50.36 50.19 50.17 47.15 46.42 45.74 45.29 40.76 36.82 35.16 32.76 26.35 29.82 30.57 33.76 33.43 37.98 38.78 37.68 37.76 41.47 44.31 44.87 45.55 47.53 49.24 50.78 52.38
53.31 52.81 52.57 52.92 52.77 52.74 50.26 46.66 42.38 43.24 46.55 45.47 48.06 47.68 49.88 50.24 50.10 48.59 51.10 48.43 46.68 42.81 36.52 40.06 34.17 31.54 35.58 37.62 38.92 37.79 35.90 34.64 37.70 41.28 37.88 37.51 38.25 40.34 42.26 42.88 42.62 43.86 46.07 48.34 50.45
52.90 52.46 52.38 52.61 52.86 52.47 47.88 44.33 45.82 45.15 39.08 47.26 47.98 47.80 50.13 49.77 44.21 47.08 51.04 43.31 41.91 35.84 39.03 35.51 31.51 38.00 40.73 39.61 38.02 36.83 34.58 33.60 37.89 41.00 39.31 37.70 38.32 41.50 41.58 41.57 42.47 43.38 44.72 46.07 48.61
52.03 51.76 52.09 52.16 51.70 49.31 46.15 49.33 51.33 47.79 38.28 44.08 48.00 47.50 47.63 47.46 43.83 44.38 46.96 43.75 39.71 36.70 36.23 32.34 36.60 41.10 39.39 36.90 37.19 36.23 33.75 35.40 35.43 39.08 39.51 37.52 35.69 38.45 41.76 42.15 43.56 44.44 45.37 46.47 47.22
51.41 51.33 51.39 51.19 47.86 45.74 46.19 50.80 49.09 47.68 33.36 40.78 42.99 45.39 46.19 45.39 42.11 48.07 48.52 44.01 39.88 36.31 36.59 35.15 39.24 38.54 36.64 36.51 38.75 32.66 40.25 39.26 38.12 34.72 27.58 36.98 27.20 35.51 38.50 39.31 40.85 42.35 42.65 44.00 46.54
51.00 51.14 51.18 50.81 44.09 42.51 49.23 50.21 48.51 46.34 25.50 44.28 43.15 48.44 45.93 41.79 43.77 45.10 48.64 43.57 38.16 38.00 36.74 34.45 36.45 35.82 34.49 38.10 40.81 35.76 41.42 38.55 37.56 34.16 30.45 33.46 27.23 33.82 36.50 36.85 39.40 41.45 42.73 43.92 45.37
50.75 50.82 50.52 47.86 45.68 46.41 49.62 48.27 47.95 35.98 27.98 38.95 43.00 41.91 40.46 42.25 43.03 45.22 44.24 45.10 43.44 38.44 37.41 37.12 40.87 38.72 39.42 41.91 41.69 42.01 37.83 35.86 34.31 31.17 25.41 31.62 29.16 31.35 33.32 36.13 39.29 41.71 43.14 45.04 45.09
50.37 50.15 49.28 49.52 43.79 47.77 47.63 45.88 35.39 31.29 43.91 38.14 38.28 41.39 39.63 39.10 41.42 43.02 41.78 36.97 33.41 29.20 29.48 34.61 35.25 40.01 42.87 36.74 38.88 36.14 29.94 22.59 20.57 20.22 22.88 32.63 29.80 32.66 36.51 39.32 41.15 41.87 43.45 44.57 46.71
49.75 49.40 49.04 49.87 46.95 47.10 44.60 38.06 29.67 38.51 37.13 42.31 40.48 40.33 37.36 40.06 39.63 40.27 38.13 34.13 38.39 36.39 29.91 26.98 26.97 36.10 41.22 36.63 32.76 31.39 33.51 24.32 19.42 20.23 23.16 33.09 25.62 31.86 39.31 42.43 43.76 44.63 44.36 45.46 45.76
48.65 45.55 47.28 49.36 50.50 46.26 39.70 30.39 31.99 37.81 40.32 38.67 39.38 36.39 36.78 38.92 38.54 37.46 35.96 35.73 38.33 37.74 30.23 28.74 30.52 40.24 40.91 40.56 37.67 33.28 29.59 36.60 29.79 30.57 27.18 27.72 31.41 36.59 41.75 41.51 42.50 42.79 44.06 43.56 44.37
42.19 44.24 46.24 51.94 50.15 43.78 36.00 34.94 37.67 43.75 42.64 41.43 34.31 37.88 33.81 35.14 34.53 33.70 34.33 39.90 38.60 40.42 37.77 34.12 27.84 38.14 39.95 40.58 39.89 35.26 36.87 26.12 27.56 21.34 20.66 25.26 27.69 28.80 35.80 38.01 40.11 40.25 41.05 42.64 44.81
42.84 42.05 48.40 49.52 45.94 40.28 31.83 35.16 40.59 44.27 43.79 40.27 37.24 36.44 35.30 33.57 33.93 32.89 34.76 38.65 41.39 39.64 38.91 34.99 31.97 33.03 36.25 33.49 32.07 30.96 29.86 31.75 31.67 29.70 22.52 20.06 24.43 36.84 37.51 37.98 37.98 39.42 41.68 42.19 43.77
39.98 38.14 48.93 46.20 35.23 35.59 34.60 39.89 42.06 42.37 44.91 41.59 40.70 38.38 35.39 35.76 33.41 33.06 33.46 37.38 42.76 40.70 35.09 36.75 32.29 28.02 32.17 38.67 39.94 36.70 32.80 31.33 22.82 22.94 28.02 24.89 26.43 38.96 38.41 39.08 39.31 40.38 42.02 43.79 45.38
39.02 39.53 47.20 45.04 29.54 31.41 36.43 39.90 41.23 40.40 41.82 39.81 38.23 38.88 38.19 33.87 30.72 36.00 37.38 42.78 42.81 39.34 35.82 36.10 29.99 27.60 29.02 33.50 37.86 34.96 35.88 35.87 33.12 31.69 24.69 25.14 26.39 39.99 40.36 41.02 41.11 40.13 42.53 44.21 45.45
39.19 35.04 38.10 39.54 38.02 34.13 33.82 36.03 36.87 43.63 41.90 40.55 38.86 38.97 36.53 34.41 35.21 33.44 35.05 40.04 41.53 41.67 44.53 41.41 35.48 31.70 26.52 30.71 34.71 31.59 34.03 35.80 33.82 27.63 27.80 29.04 29.95 35.61 38.29 39.72 40.88 41.11 43.65 43.56 45.03
38.18 34.71 35.57 30.47 32.58 33.61 34.44 36.83 36.19 35.64 39.62 38.60 36.17 37.09 34.53 29.55 32.22 32.03 35.25 36.74 40.10 43.42 40.60 38.92 33.69 34.37 34.66 35.72 35.73 34.80 33.98 34.41 32.95 32.21 27.61 30.39 31.08 35.30 37.76 39.33 40.96 43.36 45.80 45.98 45.98
34.55 32.52 34.85 32.76 34.90 34.26 35.71 33.18 35.20 37.09 36.52 35.32 33.99 36.96 35.19 30.98 32.68 31.04 33.75 34.37 33.71 38.08 36.21 40.24 32.68 34.29 31.12 34.80 34.54 32.97 35.38 35.44 35.03 34.66 33.71 33.82 32.42 39.37 40.94 42.54 42.26 43.59 45.48 44.50 45.91
39.81 39.52 37.64 33.22 32.21 31.12 31.92 33.51 34.80 37.17 37.80 39.49 36.45 34.54 34.12 36.27 38.89 38.96 39.56 39.31 37.95 35.55 33.01 34.77 33.66 32.06 26.94 32.86 31.89 28.26 34.90 36.05 35.97 37.19 34.87 30.12 35.03 41.48 40.85 42.82 42.78 43.53 44.49 44.88 44.94

GFSSW_sfc_wetblb_045.txt.gz
Wetbulb
53.74 53.86 54.06 54.24 54.17 54.16 54.47 54.32 54.57 54.80 55.12 55.45 56.04 56.24 56.33 56.47 56.37 50.98 45.50 49.56 53.45 59.63 59.79 51.42 49.25 48.21 46.92 44.29 48.10 49.10 40.96 40.14 45.63 47.36 48.65 52.45 50.27 54.07 55.96 53.59 54.88 55.93 56.76 60.40 67.70
54.26 54.11 53.86 54.02 53.87 53.90 54.04 54.23 54.40 54.67 54.92 55.26 55.48 55.82 55.95 56.36 51.12 49.03 55.25 58.52 60.91 60.82 49.45 45.53 44.85 47.66 41.80 43.12 44.20 43.16 38.69 41.69 48.05 51.03 49.44 50.34 50.82 51.65 51.64 51.02 52.59 54.16 57.24 58.75 66.48
54.15 54.23 54.27 54.10 54.05 53.93 54.04 54.10 54.33 54.61 54.63 54.74 55.02 55.38 55.83 55.75 47.92 50.16 61.33 60.98 62.58 59.68 52.04 49.90 48.22 44.82 38.78 40.76 42.25 41.34 40.03 46.38 48.90 49.62 50.52 50.18 50.51 52.08 50.35 49.21 51.49 51.89 54.34 56.70 62.08
53.78 53.96 53.84 53.75 53.62 53.26 53.90 54.02 54.25 54.44 54.39 54.36 54.64 55.42 56.13 51.63 37.34 52.43 62.10 63.62 62.24 56.76 51.53 48.75 43.89 37.15 35.47 36.99 42.16 37.90 42.16 43.79 45.31 47.81 48.06 47.18 49.48 48.47 49.33 49.73 53.44 54.16 55.43 55.93 55.09
53.07 53.53 53.82 53.58 53.39 53.26 53.40 53.26 53.66 54.00 54.13 54.13 54.76 55.59 51.70 43.84 47.47 56.16 64.36 62.33 57.92 54.61 49.39 46.49 40.57 37.46 34.13 36.78 39.74 36.73 40.51 42.57 43.94 43.69 44.26 47.07 46.86 47.94 48.53 51.53 53.31 54.23 55.47 55.16 55.02
52.70 52.85 53.00 53.39 53.21 53.14 53.11 53.21 53.11 53.31 53.65 53.94 54.97 55.92 47.89 35.96 51.80 54.30 57.77 55.44 55.38 50.64 45.74 45.48 42.00 43.10 38.47 37.86 36.89 39.54 39.71 41.18 41.63 42.59 43.26 43.73 45.10 46.81 48.26 51.42 51.44 52.53 52.85 54.59 54.23
53.36 53.15 53.40 53.05 53.04 53.15 52.86 52.76 52.49 52.90 53.79 54.29 55.11 54.06 46.41 41.05 51.15 51.21 54.57 49.67 50.00 50.25 46.26 47.17 46.23 43.16 40.59 38.12 40.29 40.92 37.07 38.57 40.33 41.71 42.81 45.58 42.54 43.70 48.58 50.73 49.28 50.28 51.83 53.64 54.42
54.14 53.64 53.33 53.17 53.16 52.95 53.01 52.71 52.97 53.42 54.01 54.62 55.81 50.41 41.04 50.70 51.40 52.31 47.84 47.78 47.39 48.48 47.16 47.33 46.81 42.75 39.52 40.95 40.19 35.97 34.85 30.02 36.60 39.64 42.61 43.09 38.19 44.99 47.83 47.67 48.21 49.56 50.39 52.38 53.34
53.95 53.83 53.19 53.05 53.03 52.90 52.65 52.87 53.21 53.94 54.60 54.75 48.86 44.89 42.75 55.25 49.95 50.39 47.39 47.02 46.89 47.51 47.26 49.79 45.75 40.99 39.90 34.49 31.54 32.00 26.64 28.93 33.75 38.44 38.54 39.82 37.04 42.93 44.53 44.47 44.53 46.10 47.46 49.99 50.37
52.98 53.29 52.95 52.36 52.80 52.78 52.29 52.56 52.01 52.71 53.68 54.24 51.98 43.60 46.47 46.90 49.09 48.97 48.28 48.62 45.95 45.08 44.55 43.65 38.83 35.80 33.18 31.90 25.76 29.53 28.77 31.98 32.36 37.43 37.31 36.64 37.44 40.29 43.08 43.35 43.02 43.50 44.81 46.05 48.14
52.76 52.70 52.18 51.93 52.03 52.50 49.53 45.19 41.69 40.46 46.74 42.27 45.86 45.88 48.07 50.69 50.74 47.17 49.45 47.19 45.37 41.61 34.86 37.75 33.05 30.09 34.13 35.39 36.86 35.52 33.56 32.42 36.05 39.85 36.44 36.28 37.38 39.66 41.39 41.39 41.37 42.23 43.34 44.61 46.33
51.97 51.66 51.80 52.14 51.96 51.98 47.43 44.56 45.38 44.10 38.25 45.42 45.73 47.39 50.55 48.83 44.34 46.77 49.31 41.79 40.25 34.72 37.33 34.12 30.06 36.56 38.99 37.63 36.07 34.73 31.99 31.97 35.96 40.55 38.48 36.68 36.66 39.91 40.20 40.45 40.94 41.91 42.50 43.47 44.91
51.65 51.59 51.37 51.56 51.59 47.60 44.08 46.92 50.24 45.37 37.34 42.43 46.24 45.85 45.96 47.02 43.77 43.70 45.73 42.47 38.41 35.18 34.77 31.25 35.34 39.44 37.85 35.35 36.09 33.85 32.70 33.52 33.74 38.30 38.49 35.78 34.91 36.28 39.41 40.63 41.78 42.05 42.72 43.13 43.94
51.05 50.93 51.11 51.03 46.59 43.53 45.01 49.24 47.69 45.26 32.60 40.49 42.47 46.10 46.11 43.74 40.89 47.06 47.08 43.38 38.43 35.36 34.90 33.62 37.62 37.19 34.73 34.44 36.89 30.14 37.85 38.19 36.56 32.88 26.35 36.16 25.62 34.67 37.40 37.81 39.40 40.14 40.22 41.31 42.49
50.59 50.82 50.60 50.18 42.75 42.86 47.99 47.20 46.27 45.75 24.48 43.45 41.88 47.17 44.48 40.48 42.41 43.91 47.06 42.38 37.51 36.69 35.49 34.03 34.93 34.41 32.78 35.41 39.10 34.19 39.71 36.80 35.60 31.93 28.59 30.90 25.49 32.65 35.50 36.15 38.00 39.73 40.35 41.40 42.46
50.49 50.74 50.26 47.21 44.70 46.50 47.65 45.66 46.27 34.52 27.51 38.55 42.95 42.21 40.92 40.78 41.46 43.59 43.47 43.67 41.89 36.89 35.83 35.50 39.08 37.11 36.26 40.31 40.05 40.58 35.62 33.43 31.45 28.40 21.20 28.82 28.64 29.93 33.61 35.72 37.12 39.82 43.04 44.99 44.90
50.45 50.40 49.06 48.35 43.37 45.55 45.30 43.95 32.83 27.71 41.50 36.95 37.75 41.01 37.95 37.96 40.14 41.71 39.45 35.87 32.57 28.21 28.00 33.43 33.43 38.69 41.26 35.12 36.76 34.26 27.56 20.80 19.97 19.55 20.61 30.63 27.88 30.74 35.59 37.93 39.71 41.10 42.56 43.82 44.36
49.69 48.99 48.63 48.47 45.93 46.02 43.41 37.35 28.93 37.41 35.55 40.83 40.04 39.79 35.84 38.63 38.30 39.51 36.94 33.03 37.41 34.55 28.69 26.07 26.50 35.29 39.86 35.64 31.77 30.35 29.13 21.86 17.11 19.88 22.44 31.40 24.38 29.75 38.08 41.18 42.91 43.63 43.28 43.86 43.21
48.25 44.86 45.97 48.20 49.14 44.17 39.30 29.99 30.44 36.55 40.47 38.12 39.18 35.99 36.21 37.63 37.38 36.44 34.45 34.52 37.28 35.94 29.13 27.45 29.25 38.78 39.82 39.66 36.86 31.27 27.68 32.42 25.73 26.27 21.73 25.90 30.47 35.24 39.51 40.18 41.38 41.32 42.56 41.28 41.92
41.37 43.34 45.65 49.64 46.45 42.98 35.65 34.16 35.99 41.89 41.68 40.03 32.54 36.05 31.56 33.67 32.80 32.03 32.49 38.36 37.42 39.05 36.35 33.02 26.95 36.18 38.36 38.99 38.74 34.41 35.99 27.75 27.57 21.31 18.73 24.02 25.99 27.80 33.50 35.83 39.47 39.72 39.33 40.48 42.13
41.90 41.49 47.33 45.92 45.16 39.82 30.81 33.74 38.84 42.79 43.12 38.84 35.03 33.49 33.57 32.75 32.32 31.40 33.44 37.37 40.17 38.51 37.12 34.11 30.16 31.50 35.05 32.61 31.04 30.45 27.93 30.03 28.40 28.01 21.06 20.16 24.03 33.17 35.06 37.85 37.76 39.05 40.22 40.15 41.23
38.80 37.40 47.24 44.86 35.67 33.25 32.72 37.80 41.29 40.82 43.40 40.23 39.06 36.77 34.28 34.33 31.88 31.76 32.07 35.95 41.57 39.35 33.26 35.13 30.60 27.13 31.09 37.86 39.50 37.00 32.83 31.73 24.27 22.80 25.31 25.38 25.99 39.48 38.17 38.03 38.27 39.31 41.17 42.30 42.87
39.57 38.12 46.21 43.72 27.90 29.56 34.49 38.23 39.71 39.07 39.63 38.37 36.85 37.19 36.84 32.54 28.92 34.23 35.98 40.96 40.89 38.05 34.65 35.10 30.30 27.30 27.79 31.23 36.21 34.48 35.90 35.90 34.34 32.38 26.21 23.60 25.49 38.60 38.14 38.80 40.01 39.52 41.67 42.88 43.23
38.40 33.05 36.64 36.90 35.33 32.30 32.45 34.47 35.99 41.95 39.45 38.91 37.33 37.34 34.61 32.63 34.07 31.79 33.47 38.41 39.33 38.64 44.01 40.39 34.78 31.45 25.75 29.20 34.06 32.00 33.99 35.64 33.69 28.90 26.71 27.28 29.38 34.74 37.16 37.79 39.13 40.04 41.07 41.49 43.65
36.14 32.84 33.93 28.77 30.82 31.62 32.11 35.10 34.31 34.01 38.12 36.96 34.49 35.39 33.13 28.83 30.61 30.53 33.41 34.82 37.42 41.20 38.70 38.28 32.18 33.52 34.24 34.73 34.76 33.50 32.85 33.71 32.57 33.64 30.10 30.63 30.27 34.05 36.83 37.39 38.88 41.76 42.83 43.09 44.48
33.49 32.28 33.93 31.74 33.25 31.76 32.71 31.51 33.10 35.65 35.36 34.26 32.20 35.27 33.44 29.64 31.84 30.84 31.80 31.15 31.77 35.76 35.45 39.06 30.56 34.15 31.45 33.93 33.68 31.46 33.57 34.13 34.33 34.75 33.79 33.58 32.30 38.86 39.98 41.33 42.27 42.67 44.03 43.35 44.57
37.85 37.58 37.90 31.91 30.74 28.69 29.64 31.97 33.01 34.67 36.55 38.01 35.37 32.80 32.35 34.86 36.85 37.79 37.86 37.57 36.31 33.83 31.79 33.45 34.79 32.63 26.82 32.06 31.15 27.81 34.21 35.63 35.51 36.85 35.89 30.25 35.15 38.78 37.49 38.62 39.10 40.38 43.99 44.55 46.32

GFSSW_sfc_wetblb_048.txt.gz
Wetbulb
54.34 54.49 54.35 54.43 54.23 54.12 53.87 53.95 54.20 54.57 54.76 55.04 55.41 55.56 55.92 56.04 55.76 49.52 45.84 49.10 52.55 57.71 59.43 50.39 46.85 46.17 45.29 43.97 47.60 49.62 40.38 38.84 44.68 46.38 47.90 52.28 50.25 52.96 54.59 52.77 52.39 54.58 54.63 56.15 66.77
54.41 54.23 54.19 54.19 54.08 53.77 53.27 53.67 53.97 54.14 54.52 54.75 55.01 55.20 55.58 55.76 49.39 47.98 55.13 57.66 59.10 59.92 47.36 44.51 43.31 45.41 40.10 41.73 43.66 43.26 36.44 40.57 46.86 49.69 48.43 50.49 50.49 51.00 50.81 50.10 49.95 52.57 54.87 56.43 66.35
53.24 53.65 54.09 54.04 53.89 53.73 53.37 52.99 53.64 54.20 54.32 54.47 54.65 55.01 55.49 55.08 45.70 48.13 61.17 60.47 61.43 57.90 50.52 48.91 47.17 43.05 37.35 39.46 40.54 40.80 36.81 44.37 47.88 48.53 48.99 48.00 48.32 49.75 47.74 46.63 49.56 49.18 51.56 54.45 54.97
53.62 53.71 53.78 53.48 53.39 53.37 53.41 53.43 53.56 53.54 54.21 54.21 54.49 54.94 55.84 49.51 37.49 49.63 63.53 62.04 61.31 55.04 49.77 47.48 42.19 35.88 33.96 35.42 39.47 35.00 41.06 42.35 44.08 45.68 45.44 45.08 47.30 46.34 47.52 47.58 50.43 51.33 52.35 53.03 54.30
53.83 53.96 53.98 53.55 53.36 53.24 53.30 53.32 53.24 53.17 53.16 53.80 54.22 54.77 50.13 39.79 44.64 54.62 64.32 61.34 56.40 53.12 47.50 45.24 38.92 36.62 33.54 35.33 38.74 36.01 39.19 42.06 43.21 43.29 42.93 44.80 44.08 44.88 45.59 49.07 51.21 51.47 51.99 52.70 52.95
53.45 53.83 53.68 53.64 53.30 53.15 53.17 52.67 52.50 52.50 52.33 53.80 54.04 54.73 45.67 33.75 47.32 52.80 55.48 55.38 53.90 49.22 44.10 45.27 41.05 41.37 37.63 36.07 35.36 38.26 39.18 40.78 41.88 42.57 42.43 42.72 43.80 44.94 46.92 49.80 49.98 50.62 50.62 51.45 52.23
53.51 53.41 53.33 53.16 53.33 53.37 52.99 52.54 52.18 52.25 53.30 53.89 54.11 53.45 44.46 38.90 49.11 50.34 52.28 48.55 49.61 49.96 44.95 46.21 44.84 41.93 39.80 36.42 38.61 39.25 35.82 38.04 39.34 40.70 41.10 43.37 40.51 41.76 46.96 49.70 48.81 48.89 49.07 49.86 51.15
53.47 53.00 52.72 52.66 52.73 52.96 53.64 53.34 52.89 53.36 53.86 54.14 55.14 49.56 38.92 48.56 49.76 51.74 47.65 47.56 48.59 48.51 46.33 45.94 45.91 41.63 38.38 39.36 38.47 33.89 32.56 27.93 35.39 39.42 41.49 41.61 35.75 43.37 44.31 45.44 45.90 47.36 47.77 48.53 49.12
52.69 51.93 52.27 52.46 52.64 52.87 52.81 52.63 53.04 53.95 54.34 54.81 47.87 42.92 41.58 53.78 49.71 50.07 47.31 45.39 45.67 46.04 45.93 49.41 44.61 39.18 38.99 33.69 30.44 30.97 26.26 27.85 33.44 37.73 38.29 38.15 35.49 42.33 43.93 43.62 43.74 44.95 47.50 46.60 46.47
52.52 52.37 52.29 51.93 52.12 52.54 52.10 52.10 51.73 53.70 53.63 53.76 51.66 42.38 45.36 45.77 48.73 49.22 47.34 47.09 44.61 43.81 42.68 42.00 37.56 34.27 32.06 30.83 24.03 27.07 27.67 30.77 30.53 36.30 37.55 35.64 35.18 39.69 42.54 42.46 42.20 43.58 44.73 45.51 46.03
51.64 51.71 51.77 51.32 51.75 52.16 49.40 43.98 41.26 39.50 45.74 40.54 43.79 43.73 45.62 49.28 49.65 46.00 48.14 45.63 43.71 40.41 33.75 36.08 32.26 29.17 32.90 34.19 34.83 33.30 31.76 30.65 34.38 38.01 35.81 35.05 36.08 38.52 40.54 40.82 40.86 41.71 43.49 44.78 45.67
51.18 50.91 50.78 50.96 51.51 52.07 45.38 43.88 44.22 42.24 37.49 44.24 44.90 45.99 48.86 48.01 43.35 46.48 48.32 40.63 38.94 33.50 35.72 32.92 28.84 35.13 37.33 36.06 34.82 33.44 30.53 30.63 35.03 38.59 36.77 35.23 35.45 39.05 39.56 39.90 40.83 41.43 42.01 43.05 44.64
51.32 50.33 50.56 50.84 51.48 46.10 42.96 45.81 47.36 44.47 36.41 41.16 44.81 44.25 44.57 46.40 42.57 43.47 44.63 40.95 37.34 33.76 33.15 30.04 33.84 38.24 36.43 33.67 34.39 31.81 30.76 31.25 32.46 36.75 36.68 34.19 32.57 34.81 38.45 39.57 41.14 41.60 41.81 42.35 42.86
50.98 50.35 50.75 50.67 45.44 42.38 44.22 47.28 45.99 44.10 32.64 39.10 41.14 44.35 45.51 44.63 40.90 47.25 46.00 42.59 36.93 34.22 33.52 32.17 36.01 35.81 33.04 32.91 35.08 28.61 36.30 36.12 35.12 30.76 23.73 34.48 22.44 30.86 35.27 37.66 38.71 39.69 39.54 40.87 40.91
50.95 50.76 50.67 49.67 42.05 42.96 45.95 45.35 44.41 44.58 22.90 41.66 41.28 47.15 43.70 40.06 41.09 43.11 45.92 41.28 36.99 35.41 34.38 32.81 33.64 32.96 31.60 33.58 37.34 32.55 37.85 35.18 33.86 29.36 26.69 28.31 24.14 26.55 34.16 33.44 36.42 40.23 41.83 40.33 43.59
50.73 50.84 50.55 46.63 44.07 45.50 46.54 44.34 45.23 33.04 25.61 37.78 41.75 41.30 40.98 41.81 41.95 44.57 43.21 43.38 41.07 36.09 34.46 34.24 37.47 35.91 35.08 38.11 38.67 38.71 34.07 31.41 29.05 26.23 20.32 26.07 25.49 25.78 29.43 32.67 35.42 38.47 40.70 43.42 44.08
50.49 50.09 48.81 47.00 41.70 44.40 44.26 43.15 32.04 26.74 40.26 36.01 35.77 38.73 37.85 38.30 39.86 41.26 38.15 34.62 31.47 27.98 27.17 32.63 32.29 36.81 39.89 33.74 35.36 33.01 26.49 19.97 18.68 18.54 19.62 28.49 26.07 28.71 34.59 38.61 38.80 39.31 41.00 42.93 43.47
49.64 48.77 48.33 47.57 45.46 45.82 42.70 36.87 27.17 36.06 34.86 40.23 38.10 38.28 34.65 38.24 37.46 38.12 35.47 31.90 37.21 33.93 28.34 26.29 26.26 34.76 38.68 34.47 31.06 29.55 27.74 20.67 16.22 17.74 21.32 29.46 22.92 28.06 36.81 39.42 41.09 42.69 42.40 43.05 42.83
48.16 44.58 45.30 47.26 48.17 43.30 38.83 29.43 29.68 34.85 38.85 37.44 37.23 33.63 33.17 36.47 35.88 35.18 32.61 32.95 36.65 35.41 28.44 26.87 28.60 37.18 38.46 38.04 35.83 29.83 26.26 30.20 23.94 23.57 17.72 24.11 28.24 34.76 38.08 38.25 40.55 40.91 41.58 41.08 41.10
41.63 42.97 44.81 46.38 44.87 42.17 34.97 33.37 34.85 40.39 40.06 38.83 30.96 34.37 30.02 31.91 31.56 31.18 31.67 36.82 36.74 38.69 35.25 31.50 26.30 34.99 37.06 37.68 37.31 33.04 34.73 24.43 24.16 19.40 17.85 22.22 24.80 26.83 32.42 35.10 37.11 38.20 38.91 39.50 40.58
42.17 41.02 45.96 45.30 43.91 38.42 29.73 32.20 37.76 41.68 41.30 38.29 33.68 32.06 32.53 31.55 31.77 30.32 32.37 35.93 38.92 36.90 35.48 32.37 28.87 29.94 33.82 31.82 30.18 29.26 26.50 28.20 27.29 26.38 20.10 19.71 23.63 32.85 33.36 34.95 35.46 38.23 40.43 39.07 40.17
39.65 36.57 45.82 43.64 35.42 31.24 31.20 35.80 40.82 39.64 41.80 39.09 37.50 35.36 33.26 33.25 30.89 30.52 31.21 34.87 40.00 38.37 32.29 34.37 29.20 26.59 29.72 36.65 37.45 33.33 30.32 29.10 26.67 23.26 25.21 25.26 25.60 36.81 35.61 37.18 37.04 38.14 39.88 41.21 42.35
39.33 37.71 45.45 42.81 27.66 28.34 33.21 36.51 38.13 37.79 38.22 36.92 35.52 36.01 35.86 31.54 29.09 32.68 34.39 39.54 39.71 36.10 33.52 34.41 29.02 23.46 26.21 29.53 33.95 31.31 33.55 33.24 32.61 32.32 26.15 23.51 25.60 37.54 36.87 37.61 38.98 38.08 39.56 41.42 42.46
36.42 32.43 35.95 35.91 33.81 30.91 30.20 32.95 34.70 40.46 38.05 37.36 35.62 36.07 33.06 31.34 33.23 31.40 32.55 37.09 38.14 37.19 43.01 39.49 30.98 28.15 23.52 27.73 31.18 30.56 32.57 33.85 33.28 28.18 27.94 28.68 29.32 34.74 36.69 37.03 38.30 38.93 39.82 41.24 43.44
33.66 30.76 32.06 27.11 29.43 29.93 29.26 32.92 33.44 33.00 36.84 36.15 33.21 34.08 31.74 27.58 28.91 29.69 32.32 33.43 36.54 39.80 35.86 35.92 31.45 33.08 33.46 34.06 33.77 32.34 31.77 32.70 30.88 31.51 28.95 30.57 31.34 34.89 37.16 37.89 38.52 39.87 41.95 41.48 43.37
32.05 30.82 32.48 30.30 32.28 30.52 30.56 29.14 31.31 33.86 33.52 33.08 30.76 33.43 31.87 28.22 30.48 29.41 31.01 30.79 30.63 34.30 34.57 34.85 31.63 33.75 30.39 33.20 32.98 31.24 33.11 32.86 33.02 33.29 33.45 34.65 33.45 39.22 38.73 40.08 39.48 39.82 40.25 40.42 44.13
36.91 36.26 35.22 30.32 29.25 28.22 27.78 31.05 32.04 32.83 34.76 36.65 34.16 32.33 31.00 33.27 35.39 35.21 35.24 36.10 35.10 32.85 33.10 35.56 34.64 32.09 26.95 31.01 30.25 27.23 31.37 33.49 34.72 37.05 36.31 31.75 34.33 37.76 37.37 37.72 38.27 38.73 39.85 40.45 44.17

GFSSW_sfc_wetblb_051.txt.gz
Wetbulb
54.00 54.26 54.52 54.76 54.24 54.08 53.94 53.33 53.66 54.38 54.56 54.93 55.31 55.44 55.53 55.98 55.61 52.33 50.12 53.78 55.83 57.28 59.03 51.42 50.02 49.78 49.53 48.84 51.41 54.72 48.25 45.46 47.33 48.07 49.62 54.33 52.05 55.03 56.44 54.53 55.66 56.89 56.99 57.63 63.34
54.17 54.09 54.13 53.97 53.73 53.96 53.92 53.85 53.87 53.58 54.49 54.82 55.00 55.17 55.36 55.73 52.49 50.47 57.12 57.59 59.54 59.71 51.26 48.89 47.62 48.65 46.64 47.14 49.43 49.15 45.50 46.25 50.94 52.03 51.79 53.59 52.91 52.48 52.42 52.43 52.37 54.77 56.79 57.49 57.56
54.30 54.52 54.41 54.24 54.18 53.98 53.89 53.71 53.63 54.04 53.84 54.31 54.69 54.75 55.23 55.93 49.60 50.89 61.04 60.23 60.66 58.18 53.84 52.65 51.18 48.08 45.26 46.83 46.72 46.56 44.37 48.25 49.92 51.56 51.97 51.91 50.86 52.34 49.86 49.04 52.87 51.24 53.84 55.38 56.02
54.67 54.73 54.55 54.43 54.22 53.91 53.77 53.73 53.56 53.72 53.44 53.30 54.04 54.54 55.24 53.52 42.33 54.65 62.83 61.88 61.62 55.94 52.85 51.49 48.12 44.50 43.59 43.20 44.73 42.78 44.91 45.49 48.37 47.53 47.18 48.22 47.72 47.45 49.08 50.10 52.08 52.79 53.27 54.60 56.00
54.00 54.53 54.57 54.12 53.88 53.92 53.91 53.79 53.36 52.96 52.87 52.44 53.46 53.86 53.21 45.54 47.56 56.53 63.27 61.67 57.88 54.01 50.80 49.55 46.44 44.97 42.37 43.54 44.39 42.93 43.65 45.48 46.49 46.38 46.63 47.28 46.27 47.07 46.71 49.58 51.06 52.52 54.10 54.98 56.10
53.89 53.68 53.77 53.31 53.17 53.27 53.38 53.24 52.63 52.43 52.16 52.71 53.23 53.87 49.97 39.64 50.47 55.44 59.21 57.06 55.31 52.68 50.10 50.42 47.56 47.57 44.82 43.83 43.43 44.27 44.23 44.90 45.61 46.04 46.26 45.14 46.23 46.31 48.27 50.56 50.04 51.12 52.14 53.69 54.66
53.50 52.73 52.27 52.37 52.63 52.92 52.98 53.16 52.91 52.41 52.97 53.55 53.42 53.56 47.36 43.29 52.44 53.78 55.20 54.14 54.55 52.96 49.07 50.59 49.90 47.09 46.35 42.88 45.24 44.08 41.37 43.17 43.70 44.31 44.00 45.85 43.16 43.79 47.97 49.52 49.29 51.09 51.98 52.75 53.81
52.44 52.51 51.87 52.27 52.31 52.45 52.79 52.33 52.16 52.74 52.95 53.90 54.22 52.51 43.69 50.19 53.24 54.79 54.00 52.69 53.18 53.17 51.43 50.31 50.85 47.82 46.13 46.19 43.23 40.92 39.94 38.30 42.75 42.98 43.85 44.25 39.00 44.91 46.42 46.99 47.11 48.18 49.63 50.73 52.14
52.87 52.58 51.87 51.89 52.03 52.47 52.31 52.39 53.38 54.20 54.09 54.59 52.29 48.66 46.18 56.43 52.43 52.46 53.36 48.50 48.89 49.08 50.02 50.35 49.25 45.32 44.87 41.93 39.62 39.62 36.65 36.67 39.33 43.56 43.64 42.62 40.18 45.21 46.70 46.08 46.38 47.52 48.73 49.75 51.35
52.68 52.10 51.16 51.20 51.70 51.70 51.80 52.40 53.59 55.07 54.34 54.56 52.57 46.21 50.10 48.49 52.46 52.37 51.29 49.19 47.43 47.06 46.16 46.32 45.43 43.31 42.41 40.42 33.89 34.42 35.49 36.93 37.04 41.63 42.75 41.29 41.11 44.22 45.66 45.49 45.62 46.35 47.52 48.71 50.19
51.70 51.47 51.39 51.20 51.39 51.15 51.02 49.82 47.64 45.77 50.18 45.16 45.55 45.66 47.28 51.37 51.77 49.08 50.23 48.23 47.09 45.48 40.96 42.25 40.71 37.95 39.05 40.09 39.35 38.75 37.24 36.10 39.24 42.40 41.05 40.51 40.76 42.64 45.20 45.67 45.76 46.50 47.52 48.43 49.36
51.13 51.29 51.22 51.28 51.29 51.89 49.88 48.62 47.67 48.10 43.33 46.78 47.10 47.53 49.50 50.47 45.52 48.74 51.05 44.85 43.53 39.74 40.83 39.88 37.07 40.89 41.06 40.12 39.01 38.60 36.64 36.50 39.64 42.07 40.77 39.79 39.05 42.53 43.91 44.97 46.33 47.21 47.49 48.12 48.72
50.90 50.88 51.23 51.35 51.35 49.17 48.10 49.03 50.88 49.02 42.82 44.43 46.51 45.96 46.98 49.09 44.92 45.87 48.03 45.10 42.32 39.67 39.16 37.27 38.99 41.35 39.58 38.88 37.97 38.38 36.64 36.41 35.85 39.59 41.36 39.18 37.49 39.21 43.01 45.40 46.28 47.49 48.46 48.70 48.63
50.72 51.12 51.29 50.82 48.47 47.24 48.89 50.63 50.17 49.27 40.26 41.37 43.67 46.46 47.53 47.43 43.36 49.49 48.90 45.92 42.00 39.24 38.94 38.79 40.44 39.32 38.54 37.31 38.93 35.20 40.24 38.86 37.61 36.07 32.14 38.86 30.75 37.93 40.82 41.88 44.13 45.88 47.56 48.33 49.31
50.50 51.07 51.12 49.81 48.07 48.73 50.04 50.20 50.34 49.92 28.88 43.33 43.33 50.20 47.47 43.52 43.67 44.58 47.99 45.03 40.92 39.91 39.84 37.85 38.70 38.25 37.49 38.54 40.71 37.07 40.71 39.34 38.31 36.30 34.80 35.43 32.47 36.78 40.30 39.25 41.84 44.58 46.01 47.70 49.10
50.58 50.95 50.34 49.20 48.65 50.71 50.04 49.57 51.15 39.24 28.63 38.75 43.52 42.60 42.78 43.73 43.94 46.42 45.26 45.93 44.22 40.37 40.10 39.57 41.89 40.87 39.94 40.74 41.82 41.40 39.17 38.71 36.33 35.08 29.49 33.28 32.96 34.91 37.58 39.48 41.75 44.94 46.48 47.57 49.12
50.24 50.31 49.76 49.44 48.00 49.98 49.90 49.69 38.99 33.58 41.50 37.69 38.61 41.12 40.70 40.32 41.51 42.35 40.59 39.85 37.68 34.29 34.56 37.52 37.97 40.95 43.11 39.15 40.74 39.58 36.55 30.09 28.59 28.92 28.35 34.96 32.45 35.86 40.34 42.58 43.66 44.60 46.62 48.50 49.69
49.71 48.98 50.17 50.08 51.80 50.89 49.65 44.10 32.52 36.94 37.12 42.12 40.65 40.39 37.90 40.31 39.93 40.14 38.74 37.17 40.28 38.18 35.16 32.90 31.23 38.68 42.45 39.94 37.61 37.68 36.45 30.18 21.86 25.40 29.27 35.32 29.67 37.02 42.10 44.22 45.69 47.16 48.75 49.70 50.54
48.45 50.49 51.19 52.13 51.57 49.36 46.50 37.08 36.26 37.35 39.85 38.91 40.00 36.48 36.87 39.08 39.02 38.60 37.54 36.87 39.43 40.51 34.50 32.70 32.25 40.31 41.25 41.70 40.65 35.94 33.24 37.67 32.25 33.34 28.44 32.59 36.26 40.20 42.88 43.31 44.77 45.34 46.85 48.23 49.89
47.95 49.15 50.88 50.51 49.60 48.79 43.29 36.88 38.95 42.15 41.38 40.98 34.48 37.42 33.88 36.49 36.18 36.50 36.25 39.30 39.06 41.60 41.75 36.88 31.13 38.69 40.59 41.68 41.60 39.43 40.79 32.11 33.80 23.96 22.91 30.58 32.28 33.53 38.71 40.81 43.13 44.07 45.87 47.68 48.80
48.00 47.62 51.40 49.36 50.02 45.85 38.92 37.94 40.56 43.96 42.95 40.12 37.53 36.33 36.60 35.63 37.09 35.66 35.85 38.82 41.55 40.63 41.71 39.59 35.49 34.76 38.18 36.87 36.17 35.99 35.10 35.24 34.24 32.40 25.93 25.10 31.27 40.80 40.61 41.80 42.42 44.16 46.01 47.26 48.13
45.72 42.70 50.24 49.46 42.82 38.13 38.93 38.66 40.74 41.42 43.61 41.75 40.92 39.06 37.31 37.53 35.58 35.53 35.19 38.19 42.77 42.53 37.43 40.38 36.73 31.72 34.26 40.47 41.58 39.74 36.94 36.65 29.97 28.67 31.60 30.70 30.41 42.95 43.04 43.74 44.04 44.52 45.85 47.27 48.43
41.92 42.87 49.43 48.58 38.78 37.31 38.29 38.67 39.94 39.76 40.78 39.94 38.61 39.68 39.96 37.10 34.05 36.86 37.32 41.41 42.07 40.87 38.40 40.41 35.00 29.19 31.17 36.03 38.82 36.35 37.76 38.13 37.40 34.56 29.27 26.07 30.96 43.32 43.85 43.72 44.92 44.82 46.06 46.96 47.66
42.03 38.59 41.28 41.57 39.49 36.10 34.14 35.21 37.07 42.22 40.36 40.25 39.00 39.90 37.95 35.85 38.72 35.85 36.02 39.47 40.82 40.70 42.28 42.09 37.01 32.87 28.12 32.13 36.42 33.36 36.04 37.30 35.32 29.32 31.13 31.90 34.34 39.06 41.12 42.25 44.22 45.33 45.57 46.41 47.42
38.50 35.94 36.75 33.04 35.48 35.36 35.14 35.44 35.01 35.57 39.66 40.02 37.76 36.96 34.93 32.75 33.63 33.67 36.56 37.63 39.66 41.92 41.13 40.64 32.95 35.25 35.52 35.94 36.15 35.25 35.38 36.20 34.51 34.82 29.70 33.64 34.78 38.53 41.35 42.62 43.85 44.12 45.00 45.07 45.43
37.92 37.19 37.94 35.76 35.16 34.15 34.26 34.45 34.14 35.47 35.31 35.87 35.80 36.08 36.10 32.86 34.41 32.22 35.56 36.14 35.28 39.23 39.86 41.30 32.79 35.40 32.09 35.30 35.54 33.44 35.96 36.55 36.62 36.81 36.27 36.46 35.76 42.53 44.11 44.55 43.20 43.35 43.43 43.39 44.45
41.30 41.43 39.03 33.62 33.49 33.33 33.59 34.71 34.21 35.31 36.45 37.89 37.12 35.11 33.97 36.12 38.98 39.98 40.15 39.73 39.19 37.21 37.26 37.48 35.23 31.77 28.00 34.59 34.41 30.77 35.91 37.34 37.75 39.01 38.23 33.85 39.40 43.66 42.04 41.89 42.28 42.93 43.58 43.36 44.05

GFSSW_sfc_wetblb_054.txt.gz
Wetbulb
55.13 55.08 54.75 54.95 54.96 54.48 54.38 54.41 54.49 54.57 54.57 54.99 55.35 55.51 55.62 55.86 55.94 56.44 54.09 56.17 57.51 58.56 58.43 53.56 52.69 52.73 53.16 52.88 55.21 57.07 51.93 49.66 50.75 51.07 52.34 55.67 54.22 57.22 58.60 56.63 58.00 58.71 58.76 60.61 61.16
55.13 55.26 55.42 55.31 55.14 54.83 54.57 54.57 54.41 54.07 54.01 54.56 54.76 55.13 55.20 55.74 55.64 53.87 58.86 58.48 60.10 59.38 53.84 50.96 49.62 51.19 50.37 51.06 52.51 52.73 50.40 50.71 54.32 54.70 53.81 55.43 55.77 55.23 54.18 55.28 55.84 57.58 60.23 60.22 60.72
54.94 54.99 55.13 55.14 55.09 55.01 54.79 54.69 54.51 54.24 53.96 54.19 54.21 54.61 55.15 56.21 53.80 51.83 60.78 59.74 60.18 60.39 56.17 53.87 52.04 50.61 48.30 50.69 50.85 51.12 49.06 52.69 53.18 54.56 55.55 54.83 54.94 56.39 53.13 52.08 55.57 55.93 56.79 58.31 58.41
54.62 54.85 54.98 54.62 54.39 54.43 54.39 54.79 54.74 54.20 53.83 53.58 53.39 54.45 54.96 56.07 45.53 56.42 62.47 61.36 61.56 57.84 55.47 53.20 50.36 47.64 47.08 46.65 50.62 47.16 50.67 51.60 52.30 53.90 52.01 52.13 54.72 52.83 53.00 52.50 54.61 55.45 56.05 56.05 57.26
54.18 54.41 53.65 53.22 53.64 53.33 53.69 54.05 54.08 53.56 53.33 52.88 52.89 54.00 55.32 49.84 48.69 59.02 63.40 61.67 58.16 55.37 52.42 51.19 48.91 47.78 45.67 46.98 47.71 46.63 48.53 49.13 50.53 50.69 51.18 51.99 50.75 50.34 51.93 53.54 52.89 53.59 54.75 55.43 56.40
53.60 53.06 52.81 52.77 52.87 53.09 53.08 53.72 53.14 52.93 52.67 52.36 53.35 53.67 53.42 43.93 54.79 58.98 60.40 58.14 55.32 54.01 51.96 52.00 49.82 50.16 47.39 46.82 46.47 47.52 47.75 48.09 49.27 49.37 49.98 48.26 48.63 49.53 50.97 52.65 51.96 52.66 53.48 54.67 56.01
53.33 53.00 52.76 52.59 52.82 52.84 53.06 53.41 53.08 52.59 52.69 53.02 53.43 55.04 50.47 46.76 55.44 57.50 59.34 56.45 55.27 53.45 50.44 52.14 51.93 49.33 49.09 46.10 48.40 47.32 44.50 46.61 47.22 47.91 47.45 48.68 45.78 47.01 51.21 51.76 51.28 51.32 53.75 54.40 55.08
53.08 52.48 52.44 52.19 52.39 52.64 52.87 52.75 52.62 53.01 53.08 53.18 53.85 54.95 47.56 52.27 56.40 56.33 57.39 55.35 55.61 55.00 53.15 52.85 52.79 50.11 48.69 49.48 47.05 45.04 44.84 41.82 45.71 46.05 46.83 46.30 42.20 47.02 49.95 49.71 49.92 50.35 50.73 53.28 54.74
51.67 52.41 52.14 52.23 52.31 52.48 52.43 52.62 54.02 54.53 53.79 54.58 54.98 52.98 47.93 57.11 53.78 54.78 56.12 50.59 51.50 52.40 52.85 51.88 51.38 48.88 48.28 45.22 43.47 44.08 40.28 41.20 43.02 46.89 46.03 45.92 43.67 47.91 49.75 49.78 49.26 49.98 50.59 51.55 53.16
52.21 52.19 51.94 52.06 52.06 51.96 51.94 52.85 55.55 55.88 55.62 56.39 55.43 50.19 52.24 49.22 53.50 54.30 54.65 52.24 49.58 49.46 48.91 48.99 48.64 46.19 46.14 43.73 38.31 40.38 40.30 41.19 41.50 45.23 45.68 44.78 44.90 47.78 49.38 49.34 49.11 49.31 50.72 50.83 51.28
51.58 51.73 52.02 51.90 51.98 51.66 53.10 55.47 52.64 51.39 53.30 49.43 48.99 48.57 49.78 53.05 54.74 51.57 52.10 50.59 49.94 48.27 43.90 46.78 43.83 41.67 43.55 43.65 42.95 41.84 40.83 40.34 42.69 45.16 43.89 43.93 44.59 46.45 48.61 48.98 49.04 49.68 50.45 50.99 51.24
51.62 51.71 51.67 52.04 51.79 52.11 54.83 52.63 51.08 52.26 47.43 51.21 50.35 50.41 51.84 52.60 47.88 50.11 52.91 47.41 46.56 43.33 44.24 43.22 40.83 44.16 44.25 43.30 41.94 41.64 40.58 40.87 42.87 44.19 43.49 43.14 42.95 46.01 47.35 47.93 48.80 49.91 50.15 50.99 51.47
51.13 51.33 51.78 52.02 52.19 53.31 54.64 52.08 55.57 54.06 48.20 47.69 49.46 48.61 49.85 51.43 47.22 47.47 50.50 48.38 45.11 43.02 42.91 41.27 42.44 43.71 42.72 41.73 40.57 41.54 40.30 40.15 39.50 42.32 44.18 42.88 41.94 43.97 45.94 47.13 48.60 49.48 51.02 51.57 51.47
50.72 51.33 51.68 51.54 51.49 56.06 53.79 55.16 55.91 54.76 44.80 43.56 46.10 48.59 50.13 50.35 46.00 50.66 51.18 48.16 45.38 42.48 42.75 42.46 44.33 42.20 41.69 40.38 41.40 38.79 42.34 40.81 40.08 39.65 36.92 42.61 35.30 42.49 44.94 45.04 46.77 47.99 49.48 50.37 51.38
50.39 51.22 51.60 50.13 56.23 54.25 53.82 56.60 56.16 53.43 34.33 44.72 45.54 52.41 49.97 46.94 46.57 46.97 50.85 48.49 43.53 43.70 43.27 41.16 41.82 41.62 40.80 41.53 42.72 40.19 42.34 41.54 41.43 40.10 39.92 40.03 37.16 42.21 43.86 42.67 44.80 46.51 47.96 49.49 51.07
50.43 51.38 51.07 54.52 57.33 55.03 56.56 56.23 55.00 43.57 33.20 41.30 45.76 44.76 45.13 46.29 46.06 47.85 48.05 49.11 47.58 44.22 44.49 43.25 46.67 44.16 43.58 43.76 43.77 43.90 42.15 42.54 42.56 40.60 34.39 39.28 38.01 39.57 42.33 43.63 44.85 47.08 48.27 49.08 50.83
50.31 50.62 52.32 55.21 53.43 57.83 57.01 54.09 43.18 37.21 44.44 41.20 41.95 43.89 43.80 43.75 44.73 45.79 45.09 44.62 42.03 38.57 39.13 42.24 41.87 44.50 44.64 41.92 44.29 43.13 40.43 34.85 33.57 33.95 34.37 39.48 36.69 40.14 44.00 45.24 46.29 47.32 48.53 50.08 51.64
49.71 49.42 52.71 56.84 57.78 57.77 55.02 48.05 36.76 40.60 40.85 44.84 43.73 43.59 41.41 43.93 44.36 43.76 43.27 41.73 45.02 43.35 40.05 37.01 35.17 41.69 44.88 42.77 41.10 41.65 40.58 34.83 27.46 30.97 35.16 39.70 35.20 41.57 45.73 46.93 48.13 49.10 49.93 50.72 51.84
48.91 57.53 57.68 57.78 56.80 56.23 49.96 40.68 40.55 41.40 42.70 41.72 43.25 40.64 41.40 42.73 42.19 41.91 42.03 41.13 43.13 44.16 38.30 36.59 36.48 43.01 43.61 45.01 44.08 40.56 37.31 41.97 35.72 37.18 33.75 37.32 41.08 45.04 46.77 45.84 47.13 47.27 48.40 49.67 51.31
54.12 55.62 56.66 56.11 56.39 53.85 47.13 40.17 42.81 44.90 44.03 43.70 38.82 40.88 38.28 40.60 39.89 40.13 40.16 42.22 41.12 44.16 45.50 41.10 35.21 42.34 43.20 44.48 44.87 42.62 44.03 35.67 37.01 28.54 28.75 35.60 37.58 38.95 42.72 44.16 45.70 46.23 47.57 49.26 50.80
53.83 51.06 54.93 55.76 55.31 50.12 42.79 42.77 43.89 46.76 45.86 42.47 41.34 40.78 41.01 39.89 40.91 39.88 39.30 42.02 43.24 43.20 44.91 43.16 39.60 38.78 41.96 39.94 39.15 39.99 38.46 39.31 39.21 36.43 30.30 30.56 36.73 44.91 43.58 45.38 45.29 47.06 48.15 49.44 50.51
52.59 46.28 55.13 55.67 46.97 48.57 43.61 43.27 41.50 44.13 46.22 44.42 44.29 42.89 41.32 41.58 40.07 39.94 39.20 41.61 44.44 44.26 39.70 41.79 38.71 35.05 37.75 43.27 44.22 42.81 40.62 39.76 33.65 32.88 36.39 33.82 34.94 46.57 46.81 46.94 47.26 47.66 49.14 50.48 51.61
46.29 49.30 55.66 53.41 43.55 42.26 43.54 42.49 42.70 42.27 43.22 42.98 42.19 43.29 43.91 41.21 37.50 40.05 40.83 44.26 44.33 43.64 40.44 43.64 38.06 32.68 35.38 40.27 42.52 39.93 41.93 42.11 41.53 39.32 34.58 31.33 35.86 46.78 47.03 47.47 48.81 48.58 49.69 50.28 50.88
45.80 42.71 46.91 50.02 46.77 40.66 39.17 39.49 39.67 44.24 43.43 43.81 43.14 43.95 42.39 40.39 42.64 38.94 38.46 42.18 43.99 43.77 42.47 43.18 39.43 35.15 31.42 35.83 39.24 36.49 38.97 39.74 37.93 32.98 34.82 36.11 38.11 42.87 45.16 46.27 47.93 48.74 50.07 49.76 49.77
45.30 42.75 42.17 39.95 41.87 40.57 40.65 39.44 37.96 37.98 42.84 44.12 41.66 40.42 39.62 37.28 38.59 37.78 40.49 41.27 42.60 43.18 43.03 42.41 35.33 37.63 38.52 39.17 39.20 38.42 37.87 38.60 36.84 38.49 32.84 37.66 38.85 42.50 45.40 46.45 47.82 49.10 49.63 48.93 49.12
42.80 41.05 44.39 41.13 39.94 39.80 37.93 39.39 37.35 38.77 38.73 37.97 38.17 40.23 40.48 37.75 38.21 36.45 39.26 39.59 38.13 41.64 41.44 42.84 34.75 37.83 35.37 38.36 38.45 36.42 38.37 39.02 39.33 40.52 40.53 40.91 40.30 46.69 47.59 48.66 47.51 46.57 46.99 47.34 48.11
47.26 47.29 43.03 39.89 38.92 38.49 39.37 37.93 37.16 38.70 39.84 40.57 40.28 38.88 37.05 38.73 41.38 42.39 42.89 42.68 42.06 39.23 37.95 37.62 35.97 34.84 31.50 36.96 36.95 33.28 38.46 40.09 41.42 42.94 42.05 37.95 42.83 46.71 46.01 45.15 45.57 44.88 46.17 46.71 47.39

GFSSW_sfc_wetblb_057.txt.gz
Wetbulb
55.97 55.97 55.96 56.06 55.98 55.89 55.68 55.00 55.33 55.20 55.12 54.95 55.41 55.42 55.98 56.12 56.18 57.20 55.34 57.78 59.15 59.26 58.04 54.90 54.55 54.01 54.84 54.53 56.61 57.55 51.42 49.48 51.67 52.55 54.25 57.30 55.99 58.18 59.35 58.03 58.30 59.54 59.07 61.23 62.41
55.28 55.51 55.64 55.78 55.56 55.52 55.42 55.36 55.04 54.99 55.08 54.82 55.12 55.14 55.39 55.80 55.55 54.44 59.32 62.07 59.50 59.13 56.21 52.86 50.62 52.33 51.71 52.70 54.69 53.10 50.31 50.37 54.13 55.38 55.33 57.04 56.73 57.43 56.28 56.63 57.26 58.08 60.30 61.87 61.96
54.76 55.08 55.31 55.28 54.81 54.71 54.74 54.95 55.01 55.11 54.99 54.69 54.66 54.57 55.06 56.11 54.50 55.14 61.23 60.64 61.18 60.96 57.88 55.16 53.24 52.04 49.80 52.42 52.67 53.17 49.93 53.02 53.92 55.57 56.49 55.62 56.38 57.83 56.70 54.58 56.55 57.08 58.83 60.53 60.74
54.70 54.68 54.32 53.76 53.66 53.86 54.11 54.34 54.71 55.08 54.62 54.28 54.03 54.15 54.80 56.09 48.23 58.27 62.10 61.03 61.34 61.25 56.38 54.64 52.02 49.71 48.63 48.24 52.10 49.97 52.97 53.69 54.11 54.91 55.03 54.38 56.63 55.86 56.91 57.26 58.09 58.23 58.54 58.65 58.41
54.29 54.34 53.90 53.55 53.57 53.55 53.77 53.87 54.34 54.06 53.83 53.54 53.68 54.19 55.65 53.06 50.76 61.53 62.89 61.69 59.95 56.86 54.45 53.23 50.96 49.86 47.38 49.26 50.88 50.06 51.78 53.12 53.88 54.02 54.15 55.19 53.70 53.83 54.80 57.18 57.60 56.02 56.19 56.59 58.16
54.14 54.08 53.76 53.19 53.08 53.11 53.35 53.67 53.74 53.52 53.29 53.49 53.62 54.22 55.41 48.14 56.59 60.47 59.46 58.19 57.00 54.44 53.63 53.52 51.78 52.13 49.75 49.16 48.64 50.93 50.64 51.09 52.37 52.09 53.13 51.34 51.69 52.57 53.85 56.34 55.53 55.54 54.67 56.59 57.99
53.51 53.00 52.19 52.81 53.12 53.14 53.32 53.89 53.34 52.93 53.40 53.45 54.10 55.72 54.03 51.04 55.46 59.01 59.14 56.67 55.93 54.18 52.09 53.30 53.60 50.93 51.02 48.38 50.95 49.53 46.73 48.92 49.53 50.64 50.58 51.78 48.68 49.29 53.51 54.67 53.85 54.21 55.30 55.69 57.14
53.11 53.15 52.67 53.02 53.15 53.11 53.18 53.13 53.04 53.72 53.94 53.92 54.46 56.68 51.40 54.03 56.60 56.33 57.55 55.82 55.69 55.24 53.87 54.08 53.51 51.80 50.45 51.78 48.97 46.73 47.02 43.30 47.93 48.99 49.27 48.84 44.06 49.81 53.05 52.86 52.16 53.08 54.19 54.83 57.02
52.63 52.71 52.67 52.96 53.02 52.93 52.86 52.59 54.50 55.49 54.63 54.50 55.32 55.91 51.33 55.95 52.71 56.06 56.73 52.93 53.47 53.98 54.29 53.57 52.20 50.02 50.50 46.29 45.03 46.32 41.99 43.79 45.38 48.28 47.64 47.12 44.95 49.81 52.08 51.57 51.63 52.75 53.47 54.06 55.58
52.56 52.83 52.52 52.65 52.85 52.67 52.69 52.65 55.17 54.91 55.88 57.27 57.75 51.88 54.38 49.48 53.72 54.41 55.86 53.79 51.02 51.29 50.50 50.08 49.66 47.25 47.15 45.69 40.09 42.93 43.43 44.14 43.90 47.67 47.58 46.34 46.46 49.23 51.44 51.28 51.36 52.11 52.79 53.56 54.02
51.77 52.46 52.59 52.52 52.63 52.69 53.40 57.13 54.82 54.47 55.71 52.58 51.54 51.19 52.09 54.19 55.80 53.42 54.41 52.09 51.40 49.68 45.89 48.97 45.37 43.17 45.42 47.50 46.61 44.94 44.14 43.74 45.77 47.97 45.31 45.82 46.62 48.39 50.72 51.20 50.71 51.46 52.33 52.87 54.19
51.48 52.07 52.38 52.40 52.79 52.82 54.50 54.39 52.62 54.27 49.24 53.26 51.69 51.92 53.11 53.75 49.16 51.36 53.71 48.69 48.49 44.90 47.89 45.47 42.77 46.45 47.50 46.41 44.58 43.99 42.65 42.95 45.55 47.04 46.10 45.51 45.24 48.11 49.55 50.03 51.03 51.63 51.90 52.65 53.86
50.98 51.62 52.17 52.63 52.92 53.73 56.71 54.13 57.70 56.77 50.28 49.56 50.44 50.29 51.41 52.86 49.15 49.54 51.71 49.55 47.06 45.26 45.36 43.15 45.51 46.28 44.46 44.25 42.66 43.28 42.34 42.94 42.97 45.36 45.98 44.56 43.07 45.71 48.65 50.12 50.99 51.62 52.50 53.04 53.73
51.61 51.94 52.64 52.47 50.46 58.44 55.83 57.13 57.88 57.40 46.26 46.72 48.03 49.98 51.36 51.35 47.65 52.50 52.21 49.71 47.26 44.29 45.65 44.84 47.21 43.65 43.37 42.52 43.76 40.70 45.35 43.92 42.31 41.15 38.46 45.44 37.49 44.88 46.58 46.96 48.50 49.75 51.03 52.04 53.15
51.38 51.65 52.17 51.42 58.04 55.82 56.07 58.01 57.97 56.47 37.71 46.76 47.48 53.74 51.88 48.81 48.74 48.91 52.77 50.18 45.07 45.52 45.33 42.77 44.37 43.06 42.24 43.37 45.28 42.39 45.57 43.39 43.12 41.58 41.49 41.76 39.64 43.11 47.36 45.78 47.27 49.22 49.87 50.98 52.60
50.99 51.17 51.94 56.52 58.70 57.10 58.29 58.05 57.37 45.29 36.71 44.30 47.70 46.40 46.89 48.03 48.02 49.23 49.00 50.98 50.32 46.46 46.58 45.33 48.01 46.30 45.12 46.24 45.77 46.05 44.04 43.67 43.48 41.93 35.97 41.20 40.49 41.37 44.57 45.93 47.34 49.17 49.76 50.71 51.65
50.38 50.53 51.90 57.71 55.19 59.35 58.80 55.60 45.15 40.00 47.59 43.73 44.28 46.23 46.16 45.89 46.95 47.60 46.77 46.07 43.83 40.82 41.32 44.79 44.85 46.72 46.87 42.69 45.82 44.83 41.88 35.66 35.00 35.60 35.24 43.10 40.29 42.63 46.28 47.33 47.37 47.90 49.32 50.97 52.76
49.48 49.25 54.72 57.89 59.58 59.26 56.56 49.73 39.57 44.03 43.79 47.28 45.85 46.29 43.88 46.08 46.27 46.54 45.81 43.83 47.21 45.67 41.85 38.66 36.87 44.88 47.30 43.67 41.00 41.91 42.16 36.38 29.77 32.89 35.87 42.46 37.34 42.77 48.06 49.84 49.45 49.85 51.17 51.86 52.69
48.20 57.89 58.53 60.90 59.18 58.18 51.56 43.13 43.61 45.45 45.29 44.05 45.14 42.96 43.77 45.54 44.98 45.06 44.82 43.83 45.54 46.21 40.06 39.05 39.21 45.84 46.80 46.93 44.73 41.50 38.15 43.72 37.56 39.48 35.77 38.98 42.55 46.14 48.54 48.34 48.68 49.65 49.69 50.41 52.33
53.66 56.46 57.03 60.33 59.87 55.84 49.06 42.93 46.14 47.74 46.56 45.85 41.04 44.16 41.34 43.52 43.31 43.73 43.04 44.89 43.34 45.67 47.43 43.05 36.49 44.28 46.03 46.86 46.14 43.86 45.12 36.03 38.42 29.37 28.26 35.90 38.32 39.83 44.70 46.82 48.43 47.84 49.09 50.67 51.81
54.96 51.92 57.88 60.58 58.42 51.79 44.65 46.34 46.72 48.64 47.93 44.16 43.19 42.84 43.57 42.87 43.84 42.64 41.82 44.78 45.36 44.91 46.16 44.11 40.41 40.22 43.78 42.57 40.86 41.58 39.14 40.67 40.08 37.50 31.52 32.02 36.23 46.13 45.49 47.35 47.27 48.57 49.71 50.74 51.82
54.12 47.70 58.77 58.50 47.93 50.46 45.48 46.03 43.13 45.45 47.73 46.45 46.16 44.86 43.49 43.88 42.39 42.03 41.34 43.59 46.33 46.22 40.82 44.04 41.75 36.34 39.27 44.63 46.45 44.18 41.84 41.00 34.90 33.75 37.66 37.42 37.58 47.32 48.08 48.92 49.15 48.82 50.49 51.89 53.02
49.32 49.86 57.33 53.68 45.01 44.83 46.20 44.73 45.50 44.26 45.02 44.59 44.53 46.06 46.56 43.35 39.59 42.06 42.81 46.58 46.16 45.17 41.86 44.51 39.32 33.29 35.44 40.86 44.24 41.78 42.81 42.99 42.41 42.20 37.07 33.42 37.60 48.40 48.65 48.60 49.76 49.59 50.33 51.70 52.50
48.90 45.61 50.03 51.02 49.51 44.25 43.36 43.12 42.29 45.47 44.44 45.27 44.88 45.85 44.22 42.73 44.32 40.44 41.85 43.24 46.05 45.59 45.10 44.61 39.82 35.82 31.74 35.26 36.39 34.71 38.41 42.33 41.32 36.88 37.45 37.92 40.14 44.60 46.26 46.86 48.63 49.82 51.06 50.96 51.94
50.48 46.76 46.37 41.96 44.18 44.25 44.32 43.60 41.69 41.34 44.96 45.90 43.33 43.98 42.30 39.17 39.99 39.50 41.60 42.35 44.63 46.44 44.54 43.23 36.05 37.58 39.12 40.24 40.01 39.05 39.05 40.26 39.35 40.53 35.87 39.40 40.01 43.78 46.21 46.95 48.71 49.77 50.77 51.29 51.36
44.37 43.88 46.33 44.52 45.88 43.73 41.68 42.99 41.16 41.84 41.60 40.47 40.35 41.69 42.46 39.47 39.97 37.99 40.30 41.24 40.37 43.79 42.74 44.33 35.97 38.58 35.64 39.84 40.17 38.53 39.96 40.42 40.66 40.86 40.64 40.69 40.06 45.65 48.08 48.57 48.84 49.29 50.15 49.96 50.20
48.28 49.73 46.23 44.66 45.12 42.25 42.57 41.95 40.65 41.78 42.46 42.75 42.00 41.27 40.15 41.56 43.72 44.30 44.91 44.49 43.75 40.91 39.90 39.73 37.95 35.90 32.54 37.40 37.81 34.85 39.46 40.42 41.38 42.75 42.01 38.83 43.44 46.73 46.72 47.82 48.90 49.30 49.84 49.14 49.33

GFSSW_sfc_wetblb_060.txt.gz
Wetbulb
55.68 55.82 55.83 56.03 55.98 55.56 55.47 55.42 55.52 55.58 55.35 55.67 55.79 55.72 55.96 55.82 55.84 55.10 52.11 59.13 60.44 61.95 57.76 52.59 53.82 54.86 54.71 52.73 55.00 55.17 48.99 47.27 48.46 50.25 52.83 56.79 55.37 57.56 58.27 56.42 57.39 59.02 58.68 60.28 62.37
55.07 55.30 55.68 55.45 54.90 54.31 54.69 54.92 55.38 55.70 55.15 55.37 55.37 55.52 55.40 55.39 53.64 51.89 60.67 62.75 62.42 60.84 52.78 51.41 50.30 51.89 50.16 51.13 52.26 51.53 47.85 47.63 51.51 52.54 52.59 55.17 55.82 56.89 56.23 55.82 56.38 57.86 59.84 60.75 61.46
54.83 54.77 55.18 54.72 54.07 54.03 54.02 54.20 54.48 55.28 55.43 55.25 54.92 55.13 54.88 54.77 51.88 53.25 63.36 63.93 62.59 60.44 56.47 57.38 53.78 51.63 48.65 50.82 51.27 51.15 48.60 51.15 51.89 53.24 53.87 53.44 54.39 57.33 55.76 54.55 56.88 56.60 58.64 60.18 60.39
54.63 54.86 54.58 54.66 54.16 53.71 53.97 54.01 54.21 54.73 54.88 54.69 54.80 54.64 55.06 54.38 47.50 56.25 63.10 63.16 61.95 59.02 58.29 54.39 52.57 48.81 47.58 47.53 50.75 48.09 51.22 52.33 52.80 53.71 53.34 52.53 54.68 54.39 56.01 56.57 59.37 59.59 60.04 59.54 58.66
53.54 53.53 54.05 53.40 53.21 53.62 53.99 53.95 54.07 54.33 54.30 54.40 54.35 54.37 54.82 52.00 51.51 58.70 64.10 62.06 58.45 57.26 54.95 53.31 51.26 50.17 46.71 48.33 49.38 48.03 49.72 51.84 53.24 53.47 53.54 54.11 52.58 53.19 54.53 58.51 59.10 59.47 59.06 58.14 57.83
53.00 52.95 52.85 52.69 53.12 53.63 53.95 53.81 53.54 53.76 53.99 53.95 54.23 54.28 52.95 47.45 58.60 58.95 57.56 57.10 56.49 55.47 53.25 53.14 51.80 52.39 49.51 48.64 48.03 49.81 50.23 50.78 52.00 52.42 52.95 51.38 51.81 53.19 54.32 57.00 56.61 56.72 56.53 56.48 56.25
53.28 52.41 52.80 53.26 53.58 53.51 53.66 53.55 53.10 53.96 53.87 54.24 54.36 54.92 52.45 51.78 54.64 59.10 57.56 56.91 56.31 54.76 52.15 53.59 53.43 51.14 50.80 47.99 50.65 49.44 46.60 48.94 49.51 50.12 50.45 52.03 48.79 49.75 53.63 54.31 53.30 54.42 56.26 56.20 56.65
52.91 52.56 53.01 53.45 53.43 53.31 53.52 54.00 53.87 53.90 54.80 54.78 54.74 54.34 50.44 57.63 57.89 55.89 58.12 56.36 56.86 55.88 53.91 54.34 53.95 50.80 49.61 50.86 48.93 46.60 46.71 42.27 47.21 48.84 49.88 49.75 44.56 50.46 53.30 53.08 52.40 53.40 54.69 55.21 56.17
51.98 52.84 52.82 53.26 53.18 53.27 53.69 53.69 53.60 55.98 56.18 55.33 53.33 53.29 51.41 56.97 51.29 54.94 56.27 53.90 54.85 54.28 54.42 54.10 52.24 48.65 48.93 45.55 43.50 45.26 40.79 42.42 44.23 48.67 48.10 47.45 44.71 48.89 51.41 51.28 51.69 53.03 54.15 53.74 55.55
52.55 52.61 52.32 52.86 53.01 53.48 53.52 53.09 55.31 54.50 55.07 55.73 56.55 52.28 54.63 52.09 51.37 54.32 56.34 55.22 51.54 51.21 50.35 49.77 48.54 45.51 45.95 43.95 38.43 40.99 41.81 43.55 43.48 46.95 47.17 45.69 45.23 48.41 50.00 50.71 50.78 51.67 52.46 53.52 54.23
52.07 52.36 52.47 52.78 53.05 53.28 53.07 56.52 53.82 53.21 56.23 52.71 52.93 51.97 52.56 54.29 55.86 53.44 54.45 52.57 51.23 49.28 44.75 48.36 44.35 41.56 44.51 46.38 45.74 44.87 44.01 42.82 45.96 48.45 46.87 45.99 46.24 47.90 50.00 50.91 50.62 51.63 52.73 53.71 54.61
51.91 52.18 52.24 53.05 53.38 53.36 53.07 54.75 53.19 54.09 48.29 54.18 54.65 52.27 53.91 54.47 49.64 51.52 54.45 48.67 47.85 44.12 47.12 45.25 42.45 46.65 47.45 47.09 46.00 44.73 42.74 42.29 45.50 47.78 46.59 45.88 45.06 47.68 49.15 50.30 51.36 52.47 52.83 53.40 54.51
51.84 52.00 52.39 53.12 53.24 53.02 56.39 54.62 57.45 57.04 48.80 51.83 52.02 50.72 51.31 52.34 49.14 49.92 51.70 49.29 46.32 45.09 45.17 43.27 45.01 47.48 45.80 44.51 43.39 43.37 41.71 41.75 42.01 45.38 46.95 45.06 42.74 44.97 47.78 49.80 51.26 52.24 53.43 53.98 54.56
51.57 51.82 52.52 52.42 51.48 57.91 56.22 58.11 57.86 58.20 44.79 48.53 47.99 50.13 51.30 51.75 47.99 53.06 53.17 49.97 46.83 43.94 45.20 44.58 47.32 45.74 44.07 42.77 43.72 40.20 45.10 44.20 43.25 41.83 37.61 44.84 36.41 43.85 47.00 47.98 49.73 50.87 52.02 52.61 53.71
51.22 51.60 52.09 51.83 55.11 55.94 56.23 57.84 58.13 56.29 35.95 48.45 48.33 54.42 51.84 48.61 49.42 49.45 53.23 49.88 44.79 45.14 45.93 43.22 44.06 43.84 42.50 42.85 45.10 42.12 45.76 44.10 43.04 40.81 40.20 40.31 37.64 41.38 46.21 45.09 47.26 49.34 50.04 51.42 52.94
51.00 51.02 51.16 56.04 56.32 59.33 58.87 58.42 57.19 44.97 36.23 45.82 48.11 46.78 46.58 48.51 48.56 50.04 49.21 51.16 49.86 45.97 46.35 45.39 48.46 46.78 45.33 46.07 45.61 46.61 43.96 43.25 43.03 40.59 34.04 38.87 38.62 39.48 42.91 45.69 47.81 49.07 50.04 50.73 51.42
50.29 50.02 49.70 56.30 54.47 59.21 58.96 54.68 44.23 39.34 49.37 44.84 45.26 47.19 46.32 45.54 46.73 47.50 46.38 45.42 43.22 40.03 40.72 44.67 44.94 47.26 47.64 43.42 45.55 43.62 40.77 33.49 32.72 33.49 32.92 41.44 39.29 41.82 46.90 48.04 48.87 48.69 49.48 51.15 52.39
49.27 48.72 53.11 56.31 58.88 59.10 56.38 48.58 38.36 45.46 45.96 48.91 46.69 46.34 43.59 46.07 46.33 46.39 45.47 43.69 46.95 45.15 41.58 38.17 36.00 45.03 48.33 44.56 42.44 41.85 39.99 33.70 26.65 29.53 33.83 41.74 35.32 41.86 48.54 49.83 49.93 49.91 50.31 50.87 52.24
48.00 57.30 56.74 59.20 61.00 57.91 51.14 41.84 42.43 45.69 47.98 45.17 44.96 42.27 43.12 46.00 45.63 45.64 44.75 43.89 45.79 47.30 40.11 37.77 38.68 46.95 47.20 47.66 46.24 41.99 37.74 42.32 36.16 36.45 33.86 37.38 41.77 46.60 48.46 48.10 48.85 49.03 50.24 50.47 52.09
49.07 56.12 56.67 61.65 60.52 55.43 47.50 42.02 46.15 49.86 48.27 46.99 41.08 43.61 40.60 43.33 43.35 43.56 43.12 46.28 44.17 46.80 47.67 42.80 36.24 43.42 44.75 46.95 47.02 43.97 45.38 36.02 36.88 28.31 27.08 34.03 36.38 38.18 44.25 46.33 48.03 48.19 49.12 50.53 52.01
51.50 53.19 58.58 61.14 58.23 50.21 42.86 45.57 47.97 50.09 48.11 44.32 42.93 41.84 42.40 42.06 43.28 42.27 42.45 45.33 46.57 45.74 46.87 44.53 40.60 39.84 42.88 41.03 40.60 41.36 39.41 40.59 39.32 36.49 29.53 29.08 34.21 45.07 45.64 46.62 46.85 47.88 49.63 50.38 51.49
51.67 48.19 58.75 57.49 45.35 48.05 46.39 47.34 46.09 46.26 48.03 46.05 46.17 44.47 43.27 43.89 42.28 41.81 41.12 43.04 46.72 46.57 41.32 42.12 37.61 35.39 38.11 44.03 44.98 43.83 40.93 41.29 34.06 32.63 36.56 35.67 35.70 46.94 48.07 48.02 48.25 49.34 49.92 50.73 52.05
46.82 50.40 58.27 55.11 43.81 44.04 46.62 45.52 46.30 45.24 45.14 44.92 44.15 45.61 46.25 42.96 39.17 42.01 43.05 46.72 47.06 45.46 41.33 42.70 36.62 31.74 34.17 39.53 43.12 39.08 39.65 40.16 39.88 41.55 35.09 32.51 35.64 47.91 45.94 48.02 48.35 47.27 48.65 51.29 53.13
48.84 44.44 50.48 50.70 49.58 46.17 43.79 42.67 43.11 47.03 45.26 45.92 45.20 45.72 44.09 42.49 44.14 40.67 40.98 44.32 45.80 45.07 45.11 44.44 39.32 35.58 30.26 33.69 36.17 33.77 37.15 39.13 38.48 34.37 35.42 36.36 38.48 43.33 45.20 44.77 46.37 46.64 48.73 51.21 52.14
50.32 46.77 48.03 42.12 44.50 45.40 44.91 43.62 41.74 42.33 46.18 46.18 43.01 43.17 41.57 38.21 39.73 39.57 41.76 42.35 44.27 45.46 44.44 43.07 35.75 37.93 38.21 38.80 38.72 36.01 37.33 38.45 36.93 37.97 35.34 38.29 38.81 42.51 45.76 47.14 48.04 50.07 50.17 49.99 49.97
45.47 43.62 46.83 44.72 47.41 45.13 43.87 42.87 42.61 42.84 42.30 40.50 40.50 42.13 42.41 39.50 40.18 38.00 40.33 40.57 39.92 43.45 42.52 43.94 35.83 38.28 35.53 38.89 39.29 37.29 39.31 39.67 40.06 40.37 39.64 40.87 40.95 45.81 47.00 48.26 48.48 48.89 48.94 48.43 49.63
48.82 48.08 44.75 43.07 45.12 44.02 43.35 42.12 41.26 42.49 43.18 44.02 43.07 41.70 40.58 42.10 44.38 44.56 44.94 44.39 43.29 41.08 40.31 39.85 38.43 35.44 31.11 37.51 37.55 33.67 38.60 39.73 40.60 42.49 40.77 37.26 41.44 45.14 44.88 45.67 46.98 48.63 48.60 48.53 48.79

GFSSW_sfc_wetblb_063.txt.gz
Wetbulb
54.95 55.09 55.09 55.29 55.25 54.58 54.36 54.40 54.81 55.27 55.89 55.76 55.63 55.76 55.83 55.77 55.49 51.43 47.99 53.72 55.38 61.47 60.30 54.32 50.66 49.08 51.31 48.83 49.85 50.07 43.34 40.93 43.52 46.48 48.32 52.64 51.34 52.59 54.60 53.19 55.70 57.55 57.31 59.31 59.90
54.93 54.67 54.83 54.92 54.88 54.40 53.96 54.06 54.22 54.44 54.92 55.62 55.52 55.52 55.44 55.27 50.70 48.55 55.72 63.53 63.48 62.60 52.17 49.17 45.97 47.21 45.78 45.91 46.52 44.55 42.03 43.04 47.62 48.80 48.48 50.53 50.61 52.22 53.33 52.78 53.85 55.74 58.71 60.07 59.63
54.19 54.33 54.28 54.32 54.37 53.97 53.77 54.19 54.10 54.18 54.65 55.18 55.31 55.16 54.96 54.08 47.43 49.83 65.52 62.88 63.11 61.58 52.19 52.31 53.66 49.49 42.67 44.30 44.42 45.08 42.07 46.98 48.61 50.21 50.66 49.81 50.45 52.54 52.38 50.72 53.36 53.98 56.79 58.61 57.98
53.70 53.88 53.76 53.72 53.53 53.10 53.51 53.87 54.26 54.47 54.75 55.02 54.91 54.98 54.94 51.51 42.16 53.13 64.86 64.30 63.55 57.07 54.16 53.96 51.57 43.54 41.26 40.36 44.45 41.87 46.76 48.15 49.31 51.25 51.14 49.70 51.46 50.93 51.72 55.12 57.68 58.42 58.31 58.10 55.39
53.22 53.31 53.42 52.89 53.22 53.33 53.73 53.87 54.10 54.05 53.95 54.53 54.73 54.84 51.91 47.28 47.88 58.68 64.53 63.68 57.36 54.63 53.63 52.31 47.74 45.06 40.25 42.61 44.00 42.89 45.20 47.88 49.76 50.39 50.45 51.15 50.37 50.19 49.85 57.40 58.53 57.37 58.16 56.41 54.68
52.98 52.91 52.70 53.24 53.41 53.45 53.58 53.53 53.35 53.38 53.48 54.10 54.79 54.69 49.69 42.41 55.55 58.34 58.81 56.26 54.81 52.83 51.38 49.57 47.28 48.08 44.64 43.81 41.67 44.85 45.33 45.88 47.41 46.84 47.75 48.35 49.22 48.75 50.58 54.35 55.69 56.07 55.05 55.24 54.56
52.91 52.36 52.54 52.85 53.35 53.42 53.30 53.08 52.95 53.59 53.76 54.25 54.72 53.20 48.28 46.73 56.02 56.45 55.68 52.93 53.92 53.44 51.09 51.25 50.61 47.24 45.99 43.11 46.48 46.09 42.31 44.08 45.13 45.12 45.69 47.58 45.39 46.98 50.34 52.22 51.34 51.72 52.03 54.05 54.00
52.62 52.33 52.55 52.97 53.19 53.40 53.46 53.88 54.18 53.98 54.34 54.63 54.83 51.42 44.65 55.51 54.95 54.06 54.04 53.89 55.12 54.14 52.54 52.06 51.04 46.87 43.56 45.69 45.09 41.73 41.78 35.77 41.73 44.93 46.42 44.69 40.43 47.23 50.10 49.84 49.86 51.10 51.24 51.95 53.12
53.01 52.26 52.41 52.78 53.01 53.24 53.93 53.91 53.95 55.54 56.45 55.23 50.43 47.68 46.05 56.77 50.90 53.38 53.86 53.78 53.78 53.37 52.06 53.43 48.77 44.17 44.22 39.47 36.83 38.18 34.30 36.65 40.13 45.16 44.88 43.83 42.00 47.09 49.59 48.72 47.43 48.18 49.77 51.52 50.96
52.84 52.38 52.14 52.38 52.74 53.60 53.71 53.53 54.09 54.35 54.42 54.41 53.20 46.80 52.06 51.72 51.30 52.15 53.56 54.13 52.03 50.04 48.64 47.25 43.82 39.56 38.02 35.60 30.15 34.74 35.38 38.87 39.62 43.79 44.08 42.54 42.48 46.06 47.43 47.33 46.27 47.17 48.44 49.76 50.59
52.24 52.53 52.60 53.05 53.38 53.13 52.15 51.41 48.77 48.93 51.69 48.52 51.12 50.34 52.89 52.82 53.47 51.58 54.30 52.36 50.81 46.86 40.11 43.73 37.29 35.05 38.54 41.30 42.05 41.27 39.91 39.20 42.23 45.38 43.70 40.95 41.61 43.81 45.91 45.60 44.91 45.84 47.21 48.01 49.26
51.93 51.76 52.24 53.18 53.49 53.69 50.20 49.33 50.54 49.58 44.34 52.78 53.63 53.75 55.55 52.91 49.30 51.50 54.45 46.88 45.58 40.37 43.18 40.32 36.41 42.81 45.29 44.99 43.38 41.99 40.07 38.25 42.10 44.68 42.97 41.44 41.93 44.12 45.06 45.17 45.58 46.19 47.11 47.65 48.77
51.87 51.88 51.96 52.74 52.96 50.38 49.81 54.06 55.79 52.83 43.47 48.27 51.88 52.06 50.86 50.49 48.12 48.68 50.27 47.71 44.17 41.24 41.76 38.55 41.83 46.27 45.05 42.59 41.76 39.79 38.35 38.66 38.64 42.25 42.99 40.77 38.50 41.36 44.73 45.60 47.10 47.86 47.62 49.10 48.69
51.38 51.44 51.71 51.49 49.95 52.66 51.86 56.12 53.42 54.40 37.40 45.98 47.97 48.82 50.11 49.96 46.59 52.11 52.12 48.08 44.38 40.94 41.77 40.41 44.60 43.94 42.98 42.12 41.73 36.51 42.74 42.36 41.15 38.12 31.33 40.43 29.27 37.89 41.78 43.49 45.64 46.88 47.51 47.20 48.75
51.19 51.35 51.34 50.58 48.51 49.42 54.51 54.08 54.37 51.84 30.93 47.65 47.90 52.09 50.28 46.64 48.25 48.60 52.50 48.22 42.84 42.62 42.04 39.56 41.91 41.82 40.89 42.62 43.79 39.47 44.27 41.53 41.04 36.38 33.52 35.90 30.33 35.32 40.87 40.93 43.40 45.41 46.97 47.55 47.90
50.94 50.84 50.72 51.47 50.12 52.45 55.91 54.66 51.64 39.78 34.14 45.21 47.20 45.80 44.68 46.49 47.21 48.86 48.03 49.04 47.67 43.27 42.86 41.81 45.98 44.23 43.32 45.19 45.27 45.46 42.84 40.61 38.05 33.79 26.99 33.61 33.11 34.52 37.81 40.98 43.71 45.75 46.24 47.19 47.17
50.35 49.75 48.11 50.87 48.47 54.32 55.16 50.24 37.12 34.00 48.86 44.17 44.59 46.52 44.34 43.64 45.03 45.75 44.27 41.76 38.34 34.88 35.15 40.95 42.53 45.51 47.74 42.86 43.30 41.73 34.56 27.55 25.65 26.26 26.42 36.36 35.56 36.15 40.97 44.57 45.54 45.22 45.43 46.09 47.26
49.07 48.97 49.81 50.82 53.06 54.32 51.80 42.78 31.84 42.86 44.61 49.29 46.18 44.60 40.97 43.24 43.57 44.66 44.39 41.40 44.82 43.25 39.12 34.62 33.49 42.83 46.45 42.41 39.65 39.44 37.03 28.95 21.45 23.84 28.88 37.45 32.89 36.35 46.71 48.19 47.67 46.46 45.65 47.06 46.38
48.56 51.15 51.67 54.43 54.99 54.57 45.62 35.04 36.97 43.53 47.06 44.77 44.50 40.82 40.25 43.52 43.26 43.09 42.65 42.66 44.17 44.40 37.03 34.64 35.16 43.66 45.73 45.05 44.39 39.68 33.73 39.99 33.12 33.09 27.27 31.21 37.24 42.83 45.62 46.90 46.50 46.34 46.25 45.52 45.98
45.12 47.93 53.39 58.31 57.72 51.16 41.71 38.70 41.30 47.25 47.59 44.88 38.36 41.63 37.17 39.62 39.29 39.77 39.48 44.03 43.18 45.26 44.90 39.63 33.44 41.85 43.39 44.84 44.41 41.25 42.85 34.06 33.79 25.16 22.71 29.66 33.34 34.68 41.97 43.93 46.35 45.53 45.44 45.13 46.47
46.21 47.96 55.34 57.99 55.34 46.29 36.46 40.30 45.03 49.52 46.87 43.97 40.42 38.94 39.39 38.89 39.71 39.17 39.78 43.17 45.12 43.71 43.32 39.51 36.49 36.13 40.55 38.20 35.84 37.29 35.99 37.65 35.94 33.50 24.39 23.87 29.54 41.30 42.49 43.60 43.45 45.16 46.85 43.32 45.28
43.87 41.76 56.24 55.32 42.10 42.13 39.92 44.88 45.38 44.79 46.99 44.94 44.06 42.37 40.10 40.58 38.60 38.44 38.16 41.61 46.28 44.73 38.41 39.72 36.22 31.78 35.43 41.12 42.55 39.95 36.90 35.99 31.71 30.19 31.35 28.21 29.73 44.15 43.62 44.97 46.22 45.34 46.99 48.30 47.39
39.59 45.02 55.28 52.63 37.73 38.33 43.09 43.86 44.47 43.88 43.72 43.43 42.15 43.33 42.99 38.88 34.66 39.64 40.98 44.97 45.96 42.75 39.49 41.41 34.60 25.57 28.93 35.44 39.95 35.76 37.29 39.09 36.73 35.89 31.45 28.23 28.74 44.99 45.06 45.40 46.06 45.50 46.82 48.31 48.97
41.65 42.45 46.45 47.10 46.03 41.17 40.51 41.29 40.81 45.92 44.21 45.11 43.39 42.53 39.71 38.05 38.66 36.29 38.31 43.34 45.72 44.14 46.17 42.30 33.47 30.64 24.96 30.10 35.52 31.91 36.08 37.49 34.80 30.44 31.99 32.91 34.62 39.44 42.76 43.04 45.41 45.89 47.45 47.65 47.92
44.80 42.74 44.33 38.27 39.80 40.68 42.45 42.10 40.56 40.54 43.56 42.77 39.80 39.80 37.65 33.15 35.54 35.51 38.69 39.85 42.10 45.75 41.50 37.98 30.48 33.64 35.29 37.27 36.87 35.71 35.79 36.50 34.01 35.63 31.26 33.50 35.00 38.42 40.55 43.16 45.27 46.59 47.25 47.52 47.83
42.23 39.66 40.26 38.43 42.31 41.04 41.90 41.01 39.98 40.73 39.87 38.45 37.62 40.64 38.66 34.09 35.68 34.00 36.27 35.86 35.41 39.04 36.59 38.61 28.74 35.17 32.86 36.60 36.76 35.18 37.60 38.23 37.85 36.81 36.27 37.17 36.08 41.86 42.84 43.77 43.73 44.52 45.44 45.50 46.28
44.59 45.47 39.82 39.52 39.76 39.57 40.32 39.94 40.26 41.62 42.07 42.18 40.44 38.46 36.97 39.16 40.60 39.32 38.86 38.69 38.58 35.76 33.86 33.34 31.23 29.39 25.93 34.77 34.06 28.69 36.77 37.59 38.62 40.12 38.32 32.94 36.38 41.38 40.91 42.79 42.23 42.71 44.01 44.14 45.65

GFSSW_sfc_wetblb_066.txt.gz
Wetbulb
54.70 54.53 54.62 54.89 55.37 55.24 54.69 54.19 54.40 54.56 54.61 55.29 55.56 55.29 55.32 55.47 54.96 50.11 45.95 49.93 53.40 59.11 61.00 53.30 52.36 48.88 48.01 45.51 48.34 47.76 38.76 38.14 40.72 42.78 45.01 50.60 48.57 52.08 53.34 52.14 54.40 57.17 57.09 58.63 59.00
54.39 54.28 54.17 54.07 53.96 53.87 53.81 54.01 54.59 54.10 54.36 54.79 54.97 54.97 54.85 54.97 50.26 47.21 53.12 59.78 61.45 63.47 55.03 50.39 47.04 45.30 42.14 44.33 44.87 41.71 36.92 39.80 44.99 46.31 45.82 48.34 48.59 49.04 49.67 50.49 52.18 55.09 57.49 58.61 58.21
53.80 53.78 53.72 53.71 53.40 53.60 53.50 53.62 53.87 54.27 54.34 54.54 54.67 54.42 54.38 54.19 46.10 49.11 63.09 60.38 63.70 63.79 51.47 49.53 48.69 49.30 42.10 41.30 42.72 41.54 40.19 43.43 45.69 47.54 48.98 48.53 49.05 49.72 48.55 47.39 50.95 53.09 55.63 56.22 55.02
53.51 53.53 53.46 53.55 53.53 53.57 53.65 53.90 54.26 54.50 54.19 54.06 53.86 54.09 54.89 50.69 36.88 51.75 65.12 62.05 63.61 57.43 51.43 51.73 49.34 43.15 38.76 38.61 41.70 38.78 43.48 44.93 46.08 48.09 48.32 47.85 50.21 49.38 50.02 50.76 54.78 55.99 56.73 55.22 54.10
52.94 52.99 52.94 53.15 53.52 53.52 53.71 53.98 53.91 53.69 53.69 53.36 53.49 53.93 50.73 45.43 45.70 53.83 65.24 64.41 59.59 53.45 51.76 50.24 46.81 42.73 39.62 40.03 40.71 38.37 41.86 44.79 46.88 47.54 47.71 49.17 48.39 48.95 49.71 52.56 55.49 56.54 56.78 55.71 53.33
52.71 52.44 52.83 53.02 53.10 53.44 53.42 53.50 53.14 52.93 53.14 53.37 53.76 54.32 48.22 40.32 50.66 57.75 58.83 57.88 54.19 50.41 48.51 49.02 47.08 45.79 42.81 40.98 39.50 42.66 42.81 43.39 44.22 44.29 44.44 45.54 46.95 47.16 49.56 52.98 56.25 55.96 54.76 55.36 54.30
53.13 52.57 52.58 53.07 53.38 53.29 53.35 53.14 52.97 53.40 53.82 53.83 53.73 52.94 47.23 43.56 53.92 56.60 55.19 51.76 52.33 52.18 50.14 51.08 48.87 45.32 43.14 41.45 42.80 43.86 39.96 41.99 42.52 42.32 43.74 45.61 43.32 45.45 49.36 51.32 50.71 51.34 51.05 53.83 54.06
53.00 52.90 52.53 52.78 53.17 53.14 53.39 53.99 54.11 54.28 54.82 54.25 54.03 50.53 41.85 52.96 52.29 51.53 53.07 52.34 52.70 52.63 51.59 51.37 48.86 44.35 41.53 42.72 42.88 39.51 38.31 33.19 39.47 42.75 44.15 43.21 38.81 45.11 47.70 48.54 48.84 49.60 50.41 51.91 53.53
53.04 52.88 52.59 52.79 52.98 53.48 53.74 54.13 54.19 54.75 56.17 54.74 49.27 46.40 42.91 56.90 53.85 55.04 53.13 52.01 52.88 52.84 51.59 52.84 47.15 42.71 42.74 36.85 33.68 34.86 30.97 34.03 37.69 42.42 42.26 41.10 40.09 45.01 47.21 47.32 47.03 47.18 48.38 49.84 49.49
52.79 52.75 52.46 52.67 53.15 53.06 53.42 53.73 53.58 53.21 54.35 54.33 52.33 44.31 48.95 51.11 50.32 52.09 51.67 53.30 50.60 49.30 47.37 46.05 41.71 38.07 35.49 33.23 26.94 31.35 32.35 35.72 35.96 41.94 40.96 39.85 40.08 44.04 46.40 46.27 46.66 45.73 45.74 47.67 48.90
52.25 52.46 52.24 52.51 52.63 53.38 50.75 48.41 46.55 46.84 48.93 46.02 48.24 47.54 51.18 54.75 51.69 48.83 51.23 51.23 49.79 45.73 38.55 41.45 35.63 33.02 36.62 38.35 39.45 38.21 36.81 36.14 39.79 42.46 40.34 39.12 39.46 41.81 44.67 44.77 44.06 42.82 44.37 45.85 47.81
52.02 51.69 52.15 52.30 52.38 52.36 48.41 46.48 50.19 46.76 41.62 50.68 51.68 50.33 53.70 54.59 50.06 49.64 53.12 46.10 44.26 39.08 41.25 37.69 34.02 40.56 42.33 42.21 40.91 39.37 37.36 36.70 40.07 42.96 40.32 39.22 39.00 41.55 43.48 43.28 43.83 44.54 45.02 45.44 45.33
51.93 51.91 51.94 52.26 51.78 49.79 47.39 51.18 55.80 51.55 41.97 46.97 50.73 50.60 51.32 52.54 49.18 48.08 49.90 46.72 42.84 39.71 39.42 35.75 39.51 44.30 42.84 40.81 39.88 39.53 36.84 36.60 36.90 40.87 40.66 38.24 36.55 38.89 43.06 44.30 44.81 44.89 45.14 46.09 46.61
51.82 51.49 51.66 51.43 48.19 48.04 48.03 53.70 51.81 50.63 36.50 43.06 47.41 49.20 49.68 48.75 45.36 51.17 51.19 46.75 42.74 39.91 39.85 37.93 42.22 41.56 40.68 40.04 41.11 34.70 40.73 40.68 39.44 35.83 30.24 39.02 27.23 34.86 39.58 41.30 42.77 43.74 43.85 44.33 46.23
51.55 51.54 51.32 50.09 43.53 45.41 52.03 52.81 52.97 49.32 29.63 48.45 46.31 50.83 48.44 45.21 47.05 47.75 51.28 46.42 41.53 41.22 40.08 38.53 39.78 39.39 38.46 40.07 42.60 38.60 42.21 40.57 39.75 34.10 30.61 33.13 28.33 32.91 38.38 38.86 40.48 42.90 43.83 44.82 45.94
51.19 51.14 50.80 48.30 46.12 48.90 51.60 51.44 48.81 38.56 32.12 45.59 46.52 44.62 42.98 44.97 46.06 47.65 47.32 47.84 46.66 41.50 40.49 39.74 43.35 41.82 40.83 45.08 44.22 44.52 40.80 37.77 35.07 31.81 25.76 31.46 31.26 33.34 34.95 37.28 39.80 43.58 45.00 45.93 45.00
50.59 50.19 48.84 48.61 44.63 49.35 49.20 47.42 35.98 32.16 47.92 44.03 45.12 45.03 41.82 41.61 43.47 44.02 42.74 40.56 37.80 32.47 33.34 40.11 40.18 44.33 46.54 41.10 43.37 41.40 33.83 25.52 24.50 22.60 25.95 35.37 33.30 34.42 39.08 43.40 44.83 45.39 46.65 45.95 45.89
49.45 49.02 48.76 48.38 45.77 48.71 48.56 41.46 30.51 40.75 43.12 47.44 44.85 44.16 40.70 42.17 41.79 42.99 41.04 37.80 42.18 41.71 35.75 34.11 31.22 41.84 45.45 42.28 40.03 39.41 37.98 29.96 20.92 20.61 27.14 36.02 29.09 35.51 43.64 45.82 46.73 44.76 44.39 44.04 44.42
48.43 45.63 48.04 49.99 49.01 49.89 43.44 33.48 34.94 41.78 45.58 42.78 42.84 39.33 38.86 41.32 40.86 40.55 38.57 39.21 42.09 42.93 36.38 35.27 35.20 44.15 44.99 45.34 43.83 38.77 33.58 40.53 32.83 33.57 26.58 28.82 34.28 40.48 43.84 45.21 45.23 45.42 44.69 42.15 43.47
43.27 44.97 48.58 54.12 52.30 47.45 39.18 36.32 39.89 45.90 45.71 44.91 37.71 40.70 35.28 37.81 38.14 37.41 37.03 42.91 42.14 43.70 41.89 38.44 31.41 40.37 42.57 44.67 44.73 40.55 41.15 31.19 31.90 24.45 23.04 26.75 29.61 31.42 39.16 41.56 45.14 44.68 45.55 45.92 46.25
43.40 43.02 52.61 56.01 52.41 43.09 34.58 37.40 43.28 47.46 45.19 42.51 39.54 38.08 38.03 37.23 37.60 36.46 37.80 41.53 43.44 42.00 41.52 37.14 33.91 34.53 38.70 36.49 35.55 36.36 35.03 34.18 33.11 32.03 25.59 23.76 26.27 37.34 39.21 41.74 42.87 45.13 46.28 43.74 45.76
39.92 36.73 51.39 52.46 42.06 39.72 36.46 42.90 43.34 44.03 45.66 43.50 42.90 40.90 38.95 39.03 36.98 36.37 36.93 39.60 45.03 43.08 36.84 37.77 33.60 28.66 33.30 39.53 42.42 39.99 37.20 35.37 28.37 26.02 32.30 28.47 27.13 40.66 40.07 43.57 45.20 45.09 46.46 47.23 47.92
39.59 39.50 50.58 49.87 37.29 36.68 40.18 42.55 43.88 42.82 42.96 42.67 41.55 42.16 40.58 36.52 32.63 38.40 38.65 43.68 44.96 41.55 38.17 38.46 30.28 23.61 26.99 32.52 38.37 34.37 36.88 38.02 34.75 33.99 28.01 28.15 30.35 42.61 42.97 42.52 44.74 44.99 47.28 48.56 48.84
37.11 38.32 43.11 44.31 43.42 38.65 37.95 39.91 40.63 46.27 43.60 42.16 40.89 40.91 37.76 35.88 36.62 34.27 36.73 41.84 43.82 43.11 46.37 41.59 31.22 28.42 23.76 28.34 30.98 30.61 34.70 36.84 33.51 27.33 28.57 31.39 33.78 38.15 40.98 40.63 43.35 44.17 45.86 46.97 48.18
39.69 38.79 38.65 34.48 37.32 38.30 39.99 39.95 38.43 37.98 41.81 40.99 38.90 39.68 36.96 31.73 33.53 33.34 37.01 37.96 40.54 45.99 41.71 35.91 29.24 31.90 33.81 35.85 35.86 34.61 34.18 34.84 33.14 32.58 28.91 32.56 33.11 36.53 40.83 40.79 41.28 43.23 45.65 45.97 46.38
40.66 35.63 38.01 35.93 39.15 39.96 40.43 39.20 38.36 39.09 38.28 38.22 36.25 39.52 36.66 32.03 33.70 32.08 34.28 33.24 33.64 35.93 32.75 35.30 27.02 33.19 31.58 35.12 34.67 33.00 34.94 35.97 36.60 37.06 34.84 36.08 34.91 41.30 41.70 42.16 41.90 40.61 41.72 42.13 44.82
41.96 42.81 38.56 36.33 37.45 38.35 39.03 39.49 39.13 40.23 39.99 40.51 39.14 37.52 35.69 37.56 39.14 38.06 37.46 36.63 36.48 33.15 31.63 30.69 29.23 26.91 25.23 33.02 32.89 27.32 35.21 36.69 37.37 38.68 37.35 33.05 35.93 40.01 37.92 39.57 39.22 39.36 40.80 41.47 42.88

GFSSW_sfc_wetblb_069.txt.gz
Wetbulb
54.43 54.24 53.91 53.94 53.97 53.95 53.66 53.80 53.90 54.15 54.44 54.63 54.86 54.87 54.43 54.40 54.27 49.00 44.26 48.20 51.22 57.03 59.38 52.52 51.82 49.12 47.11 44.58 45.86 46.66 37.80 34.21 39.14 40.69 44.30 48.44 46.34 50.49 51.98 50.41 51.97 53.44 55.65 57.39 57.32
53.78 54.01 53.67 53.57 53.57 53.55 53.61 53.82 53.76 53.89 54.35 54.54 54.57 54.51 54.11 54.07 49.62 46.18 52.36 56.72 59.06 62.57 53.70 49.75 47.44 45.12 40.69 42.61 44.07 42.12 35.98 38.50 43.67 45.04 44.88 46.44 46.10 47.73 48.34 48.87 48.98 51.18 56.17 56.57 55.33
53.54 53.46 53.56 53.76 54.15 53.80 53.77 53.99 53.93 54.25 54.42 54.21 54.10 53.76 54.06 53.49 43.22 46.75 59.91 59.22 59.78 59.84 54.03 49.90 47.46 47.62 40.14 40.82 41.58 40.89 39.43 42.17 43.97 45.80 46.70 46.77 47.33 48.53 46.74 45.38 47.80 48.77 53.37 54.84 53.64
53.36 53.04 53.31 53.37 53.73 53.79 53.73 54.08 54.04 54.17 53.97 53.92 53.19 53.30 54.44 49.62 32.78 49.50 65.99 61.50 60.87 59.27 49.78 48.02 47.33 42.86 37.89 37.66 41.15 37.81 42.28 43.00 44.55 46.23 45.82 45.57 48.22 47.49 47.91 48.22 50.70 52.73 54.41 54.08 52.75
53.21 53.30 52.88 53.03 53.39 53.69 53.70 53.65 53.73 53.50 53.06 52.91 52.92 53.10 49.46 42.78 43.60 50.77 64.08 61.11 59.15 52.56 48.97 48.09 45.43 42.08 38.12 38.68 38.99 37.38 40.77 43.12 44.46 44.54 44.58 46.49 45.49 46.10 47.54 50.80 51.86 52.96 54.07 54.00 52.88
53.10 53.12 52.94 52.84 53.46 53.30 53.47 53.32 52.78 52.74 52.80 53.13 53.12 53.37 46.67 36.46 46.80 53.13 58.38 57.82 53.35 48.91 47.72 48.56 46.57 45.67 40.57 39.78 38.52 40.94 40.99 42.02 42.67 42.36 42.63 43.08 44.95 44.88 47.75 50.75 51.02 51.89 53.96 53.96 53.37
53.35 52.74 52.82 52.94 52.94 53.14 53.23 53.23 52.81 53.21 53.29 53.63 52.88 52.19 46.31 41.61 51.73 55.23 54.56 51.17 50.27 50.93 48.39 49.83 49.02 44.02 41.58 39.84 41.23 41.80 38.32 40.04 40.41 40.76 40.96 43.11 41.32 43.18 46.46 49.57 49.79 51.45 53.55 52.44 53.98
53.30 52.88 52.70 52.95 53.32 53.42 53.65 53.77 54.04 54.18 54.11 54.87 53.58 49.42 40.05 49.81 51.27 50.11 51.56 51.31 52.13 51.06 50.19 50.64 48.10 43.41 40.15 41.38 41.14 37.77 36.54 32.24 37.29 40.90 43.06 41.44 37.86 43.44 46.79 46.85 47.78 48.97 49.48 50.28 51.45
53.54 53.25 52.36 52.64 53.19 53.71 53.52 53.40 54.26 54.83 55.40 54.19 47.89 44.79 41.98 54.88 52.75 54.64 51.40 50.40 51.64 51.54 50.47 52.96 46.35 41.47 40.77 35.40 32.32 33.05 29.68 31.41 35.88 39.80 40.70 40.10 37.67 43.20 45.16 44.65 45.12 46.96 48.06 49.15 49.35
53.73 53.23 52.74 52.41 52.82 53.03 53.31 53.63 53.58 53.40 54.64 53.16 51.82 43.18 47.38 49.37 52.84 51.98 52.32 52.50 49.99 48.72 45.63 45.07 40.09 36.54 34.13 32.51 26.02 29.30 30.22 33.45 33.34 38.12 38.84 38.52 39.09 41.70 43.65 43.65 44.03 44.04 46.60 47.42 48.10
53.91 53.28 52.74 52.34 52.45 52.56 49.90 47.40 45.37 44.21 48.03 44.94 46.00 46.20 48.64 52.25 54.33 47.80 50.35 49.57 48.03 44.41 38.11 39.57 34.58 31.73 35.36 36.56 37.59 36.15 34.15 33.64 37.60 41.27 38.09 38.32 38.57 39.91 42.41 42.23 42.40 43.17 43.23 44.36 45.64
53.44 53.32 52.92 52.60 52.18 52.16 48.83 45.16 48.84 46.30 42.52 48.83 49.92 48.18 51.29 52.31 48.64 51.67 50.79 44.15 43.16 38.31 39.69 36.34 32.83 38.47 40.17 39.71 38.31 36.88 34.88 34.69 38.24 41.04 38.34 37.88 37.79 39.59 41.18 42.18 41.88 42.44 42.46 43.75 44.33
53.18 52.89 52.62 52.57 51.73 48.26 46.03 49.02 52.85 49.68 41.22 45.27 49.41 48.97 49.49 50.70 47.51 48.71 48.70 45.71 41.47 38.18 37.74 34.60 38.18 42.43 40.80 38.57 37.52 36.81 34.71 35.65 35.38 39.32 39.32 36.37 35.06 36.72 40.99 42.46 43.68 43.62 42.80 43.92 44.51
52.77 52.45 52.35 52.01 47.05 46.30 46.53 51.72 50.95 49.32 37.43 42.77 45.14 48.59 49.69 49.41 44.60 52.42 50.50 46.13 41.29 38.51 38.39 36.63 41.12 39.83 38.12 37.70 38.67 32.92 39.84 38.83 37.99 34.38 29.34 36.96 28.60 33.76 37.66 39.91 40.87 41.94 41.73 42.46 43.78
52.41 52.41 52.09 51.26 41.84 44.29 49.92 48.99 48.43 48.25 29.76 47.64 45.70 50.64 47.34 44.90 45.83 46.68 49.82 45.25 40.24 39.85 38.61 36.63 38.12 37.53 36.89 38.03 41.66 37.05 41.66 39.07 38.10 33.55 29.23 31.37 27.04 31.49 35.62 36.56 38.75 41.41 42.58 43.44 43.08
52.19 52.30 51.26 47.82 45.64 46.52 49.70 48.48 48.16 37.54 30.82 45.27 45.58 43.25 41.95 43.63 44.55 46.65 46.33 46.93 45.57 40.15 38.81 38.53 41.55 39.97 39.04 43.58 43.66 44.17 39.38 36.01 32.68 29.81 25.02 31.02 29.38 32.14 34.70 36.41 38.14 40.57 42.53 44.27 45.51
51.69 50.94 49.13 48.49 42.14 47.04 47.98 46.37 35.37 30.53 45.73 42.36 42.99 43.52 40.88 40.20 42.19 43.30 41.77 39.27 37.48 31.43 31.93 38.54 39.13 42.66 44.64 39.71 41.95 41.62 33.52 24.77 23.10 23.49 25.87 32.77 29.56 34.34 38.24 40.38 41.72 42.33 44.14 45.28 46.51
50.55 49.12 48.13 48.34 46.63 48.86 48.22 41.38 29.33 38.79 41.50 45.60 42.88 42.12 38.87 40.18 40.02 41.80 39.58 36.21 40.84 38.32 34.67 32.84 31.43 39.85 44.25 41.45 38.27 37.00 37.88 31.25 24.33 20.93 25.81 33.45 27.37 34.36 41.01 44.11 44.87 44.67 43.84 42.78 42.44
49.04 43.61 45.22 49.81 49.67 48.38 43.66 33.75 32.77 39.85 44.17 41.59 41.62 37.40 36.86 39.30 39.04 39.02 36.50 37.66 40.48 40.05 33.28 32.97 33.90 42.79 43.93 43.80 42.15 36.73 33.85 39.24 34.01 33.74 29.36 28.89 32.44 39.35 41.71 42.28 42.65 44.14 44.52 43.47 43.27
43.54 41.80 45.40 51.92 50.83 47.78 39.57 35.44 39.39 45.11 44.94 42.50 36.75 39.16 34.53 36.47 36.77 36.39 35.39 41.43 40.82 42.57 40.02 36.50 30.11 39.17 41.31 42.03 41.27 38.05 39.39 29.60 32.79 25.31 24.23 26.19 27.53 29.69 36.11 38.19 42.15 42.18 41.92 43.14 44.46
39.26 37.47 47.07 52.18 50.77 44.31 35.34 36.81 41.96 45.92 44.62 41.23 38.99 37.79 37.76 36.87 37.34 36.33 36.75 39.95 42.53 40.74 40.34 36.11 32.53 32.85 36.91 34.64 32.99 34.65 34.69 35.62 34.26 32.20 25.61 22.82 25.56 34.49 37.30 38.79 39.64 42.19 44.21 43.98 43.00
38.78 36.18 46.41 49.02 41.39 37.91 37.02 40.91 43.37 44.19 45.59 43.12 42.37 40.91 38.85 38.40 36.35 35.97 36.12 38.25 44.17 42.38 36.53 36.20 32.16 27.76 31.75 37.11 40.05 36.38 34.76 34.93 25.67 28.50 31.60 29.96 26.58 40.71 39.97 40.50 41.72 42.13 45.52 46.64 46.05
38.34 36.27 45.72 47.71 33.98 33.98 39.45 41.58 43.74 42.55 42.76 41.49 39.88 41.23 40.15 36.26 32.12 37.38 37.51 42.17 43.22 40.80 37.37 37.54 28.59 22.88 25.78 30.09 35.06 33.90 35.26 35.47 32.96 30.59 27.33 25.36 25.26 42.41 43.49 41.51 41.37 41.74 43.99 45.52 48.23
36.71 33.45 38.59 41.19 39.08 35.68 36.45 38.56 39.22 44.20 41.65 41.23 40.22 41.00 38.21 36.35 36.08 33.86 35.95 40.27 41.31 42.06 45.51 40.52 29.74 27.63 22.85 27.47 29.55 28.31 32.86 34.83 31.83 27.40 27.23 30.03 30.90 36.22 38.70 40.88 43.01 41.50 42.94 42.34 45.66
40.96 35.92 34.54 30.34 36.12 36.71 41.04 40.06 38.66 37.48 41.55 41.06 38.37 38.97 37.09 31.97 33.77 31.62 35.47 36.62 39.15 45.26 40.24 34.71 28.76 30.32 31.57 33.62 34.01 33.20 32.93 33.44 30.60 31.76 27.84 31.42 31.33 34.42 38.27 39.40 40.44 40.02 41.56 40.98 41.72
36.04 36.73 37.25 33.20 34.81 36.46 40.18 39.33 38.86 39.05 38.26 36.83 35.37 37.77 37.59 32.09 34.56 32.54 34.19 32.55 32.88 35.00 33.26 33.39 26.33 31.33 30.65 34.39 33.89 31.69 34.04 34.30 35.95 35.42 34.25 34.41 34.01 39.04 39.66 40.02 40.13 39.73 40.12 39.95 40.81
39.39 42.39 39.39 38.44 36.97 36.95 37.38 39.94 39.74 39.67 40.04 40.39 38.74 37.27 36.12 36.90 38.93 38.55 37.35 35.89 35.73 33.80 30.89 29.84 28.83 26.00 24.83 31.31 31.41 26.74 34.92 36.44 35.93 38.17 36.96 32.10 35.40 38.35 37.30 38.23 38.33 38.74 39.80 40.09 40.86

GFSSW_sfc_wetblb_072.txt.gz
Wetbulb
54.16 54.04 53.70 53.82 53.81 54.08 53.88 53.86 54.08 54.04 53.96 54.28 54.51 54.75 54.27 53.84 53.65 48.06 43.16 46.91 50.24 57.15 58.06 50.16 50.84 48.10 45.95 43.85 44.53 43.88 36.21 33.22 37.89 40.46 44.08 47.19 45.71 48.91 51.18 49.42 49.74 51.07 51.02 55.23 55.87
53.92 53.41 53.90 53.93 53.72 54.01 53.67 54.06 54.04 54.35 54.48 54.26 54.33 54.01 53.52 53.55 47.99 45.34 51.48 55.40 57.75 59.42 50.73 46.82 46.70 44.03 40.55 41.83 43.26 40.45 33.88 37.54 42.12 43.90 43.88 45.28 45.25 46.16 46.52 47.42 46.83 48.85 51.59 55.03 56.47
53.75 53.45 53.48 53.76 53.88 53.75 53.98 54.01 53.90 54.26 54.45 54.05 53.74 53.26 52.97 52.69 41.80 42.22 58.70 58.18 58.25 58.73 52.24 49.64 46.81 45.49 37.46 39.83 41.07 39.30 36.08 40.76 42.15 44.40 45.43 44.63 44.04 46.94 44.76 45.12 46.30 47.23 49.34 53.13 54.04
53.69 53.62 53.42 53.27 53.39 53.78 54.21 54.27 54.26 53.90 53.65 53.46 52.79 52.55 53.74 49.39 34.62 45.67 64.30 62.04 59.42 56.64 49.56 46.04 45.39 41.41 38.56 37.51 40.83 37.06 41.03 43.35 43.90 44.94 45.21 44.31 46.26 45.46 46.07 47.04 48.92 49.97 50.82 52.50 52.69
53.84 53.63 53.28 53.01 53.23 53.32 53.47 53.68 53.48 53.10 52.73 52.58 52.61 52.81 48.04 39.77 41.08 48.54 62.22 60.49 57.15 51.37 46.14 46.64 43.60 41.00 37.29 37.78 39.05 37.24 39.97 42.46 43.28 42.31 42.32 44.51 43.46 44.37 45.20 48.13 49.72 49.96 50.40 51.74 52.61
53.98 53.59 53.12 53.08 53.05 53.24 53.09 53.01 52.74 52.46 52.34 53.07 52.94 52.31 45.23 34.06 43.75 52.91 57.13 55.31 53.29 47.73 46.59 46.66 45.37 44.63 39.47 38.04 38.16 40.15 39.75 40.89 41.68 41.63 41.27 41.82 42.80 43.44 45.55 48.57 48.76 49.26 49.67 50.03 52.16
54.83 53.89 53.32 53.14 53.26 53.39 53.66 53.07 53.93 53.04 53.29 53.81 52.90 51.42 44.68 39.19 50.22 49.28 55.36 51.24 50.74 49.51 46.45 48.38 48.06 43.63 40.58 37.69 39.89 40.09 36.67 39.47 39.79 40.43 41.25 41.93 40.56 40.90 45.13 46.79 45.61 47.24 48.29 52.02 52.63
54.91 54.38 53.61 53.07 53.13 53.47 53.86 54.22 53.71 53.19 53.52 54.65 52.82 48.95 39.04 47.88 49.55 50.61 51.10 49.73 49.97 49.97 48.70 49.03 47.06 41.97 38.44 39.96 39.36 35.71 34.81 30.78 37.18 39.84 42.42 41.29 37.30 42.26 44.97 45.37 46.15 47.42 48.18 48.98 50.95
54.69 54.36 54.12 53.38 53.13 53.20 53.32 53.20 53.91 54.12 54.32 53.79 47.85 42.58 41.76 54.13 50.92 53.93 50.84 49.05 49.69 50.07 49.42 52.37 46.01 39.62 39.04 34.15 31.18 31.58 27.50 28.64 34.24 38.39 39.34 38.40 35.75 41.75 44.12 44.06 43.86 44.90 46.19 47.44 48.01
54.42 54.20 54.14 53.93 53.15 52.88 52.58 52.83 54.45 54.12 54.27 52.90 51.27 41.68 46.13 47.80 51.70 52.87 51.01 50.98 48.75 47.55 44.56 43.20 38.81 35.28 32.77 32.12 25.39 27.73 27.85 30.75 31.75 37.33 37.47 37.04 37.17 40.32 42.75 42.03 41.91 42.31 43.65 45.43 47.02
54.36 53.97 53.87 53.65 53.54 52.72 49.72 46.88 44.18 42.53 47.83 43.97 44.60 44.07 46.74 50.77 53.23 47.48 51.21 49.37 47.09 43.32 37.39 38.04 33.97 30.98 34.30 35.41 36.15 34.29 32.16 31.57 35.75 39.85 36.46 36.10 36.83 38.91 41.23 40.98 40.77 40.61 40.98 42.68 45.52
53.73 54.00 53.81 53.54 53.36 52.19 48.85 44.21 47.07 46.81 40.87 48.10 48.97 47.56 49.89 50.19 46.66 49.46 49.29 42.88 41.86 37.42 38.42 35.45 32.41 37.03 38.83 37.94 36.56 35.08 32.51 32.56 36.13 39.30 36.42 35.79 35.83 38.34 39.71 40.20 41.18 41.49 41.73 41.51 42.30
53.32 53.26 53.34 53.19 52.08 48.58 45.52 48.49 50.83 48.54 40.76 44.65 48.18 47.64 47.59 49.06 45.29 46.70 46.45 43.44 40.33 37.50 36.61 33.51 36.90 40.81 39.14 36.62 35.74 34.18 32.30 33.10 33.61 37.78 37.51 35.35 34.74 35.40 39.11 40.39 42.56 42.53 42.72 42.79 43.20
52.70 52.80 52.89 52.08 46.98 45.98 45.69 50.88 49.31 48.39 36.22 41.42 44.02 48.18 49.16 49.03 44.78 51.38 48.96 45.52 40.57 38.09 37.24 35.54 39.31 38.65 36.01 35.93 36.60 31.04 37.84 37.31 36.27 32.89 27.98 35.11 28.29 34.15 35.67 38.64 40.66 41.86 41.05 41.29 42.61
52.34 52.59 52.54 51.42 43.21 42.85 48.40 49.24 47.76 47.94 28.40 45.89 45.05 50.15 47.45 44.69 44.54 45.47 48.82 44.53 39.60 38.56 37.87 35.67 36.47 36.01 35.32 36.86 40.94 36.75 40.76 38.37 37.46 33.09 27.96 30.48 26.67 30.48 34.67 35.02 37.47 39.94 41.53 42.53 42.06
52.12 52.33 51.86 46.97 45.30 45.62 47.93 47.91 48.67 38.09 29.50 43.95 44.52 42.47 41.58 42.19 42.92 44.97 45.26 46.23 44.26 38.96 37.21 37.48 40.20 38.85 38.09 41.64 42.09 42.86 38.47 35.96 30.71 28.64 24.17 31.43 28.52 32.20 35.92 35.03 37.05 39.65 41.20 43.77 44.52
51.61 51.06 49.78 47.71 42.87 46.30 46.22 46.69 36.26 32.01 43.76 41.00 41.73 43.77 39.57 38.47 40.53 41.58 40.34 37.20 36.08 30.68 30.71 35.98 37.79 41.36 43.48 38.14 40.17 38.42 32.16 25.15 23.53 21.01 25.36 31.21 27.88 33.13 38.23 39.02 39.66 40.54 42.20 43.23 42.84
50.66 49.61 47.69 47.39 45.73 45.70 47.57 40.99 30.10 37.34 40.33 45.03 42.65 41.84 38.45 40.26 39.95 41.25 38.65 35.85 39.22 35.87 32.03 30.88 28.94 39.04 43.33 39.18 34.83 34.24 33.73 25.78 18.48 21.67 26.26 33.88 26.84 33.49 39.62 42.13 42.74 43.66 43.06 43.25 43.30
49.10 42.84 42.19 46.72 47.76 45.71 42.12 34.52 32.70 39.09 42.81 40.78 41.43 37.88 37.25 39.23 38.55 38.54 35.43 36.39 39.43 38.89 31.82 32.00 33.06 41.91 43.04 42.70 40.07 34.36 31.26 34.68 30.94 32.55 28.45 28.78 32.88 38.37 40.09 40.67 42.00 42.21 43.00 42.81 43.26
43.22 38.98 43.16 48.91 47.95 44.86 37.33 34.19 39.09 44.59 43.86 41.79 35.95 39.39 35.34 36.47 36.10 35.14 34.59 40.12 39.64 41.02 38.41 34.40 29.02 37.76 40.51 40.47 39.77 36.69 38.52 30.60 32.88 24.32 19.81 26.51 27.55 30.27 36.01 38.18 40.68 40.29 41.69 41.96 43.73
39.37 38.92 45.20 46.58 47.95 41.50 32.53 37.15 41.40 45.41 44.33 40.67 38.34 37.22 37.86 36.84 36.52 34.81 36.03 39.44 41.86 39.98 38.98 35.44 31.25 31.34 35.30 33.44 31.50 32.68 31.61 33.33 34.79 32.03 24.91 23.23 26.83 36.54 38.53 39.71 39.45 40.38 41.83 41.79 43.20
39.69 36.30 45.26 48.35 42.42 34.32 32.66 38.03 43.12 43.44 44.91 42.73 41.91 40.41 38.70 38.31 36.14 36.12 36.00 37.76 43.04 41.79 35.65 35.69 31.78 27.78 30.58 35.77 37.72 34.90 32.67 31.44 22.89 19.20 26.20 21.82 25.70 41.43 41.76 41.84 40.83 41.37 41.36 41.86 42.84
36.22 36.20 43.81 44.68 36.24 34.04 36.63 40.21 42.92 42.31 41.68 40.90 39.05 39.85 39.18 36.77 32.71 37.15 37.60 41.86 43.11 40.15 37.34 37.65 28.88 23.00 25.99 28.74 33.09 31.45 34.53 33.69 31.44 28.67 25.44 20.21 25.09 40.91 41.43 40.77 41.26 39.57 40.47 40.88 42.38
37.87 34.13 36.16 37.38 36.73 34.86 35.57 37.49 38.33 44.32 42.67 41.58 39.06 39.49 37.61 35.95 37.26 34.01 35.18 39.45 40.70 41.08 44.94 40.35 28.98 27.23 22.82 26.00 28.13 27.49 31.17 32.92 30.02 20.12 26.43 27.11 29.51 35.13 38.33 38.64 39.46 39.35 39.81 40.87 41.25
39.25 34.27 33.79 29.49 32.56 34.68 35.57 38.92 37.43 38.35 42.03 41.42 37.68 37.30 35.24 31.03 33.81 33.27 34.67 35.66 38.18 45.00 38.73 34.10 28.43 29.36 30.32 31.97 31.97 31.76 31.65 32.06 29.26 30.77 27.39 30.41 30.48 34.24 37.44 38.26 38.39 39.47 40.23 40.30 40.75
34.84 34.28 36.38 34.86 36.95 34.34 38.83 37.48 37.89 39.89 38.70 37.41 36.43 37.63 36.76 32.13 34.16 31.63 33.06 31.88 32.16 35.51 34.43 32.85 26.91 29.63 29.42 33.40 32.61 30.77 32.70 32.60 33.22 34.94 34.75 34.36 32.67 38.89 40.64 39.60 39.07 38.39 38.81 38.78 39.65
39.60 39.90 38.33 37.80 37.81 36.63 37.24 39.03 38.91 38.97 40.44 41.12 39.51 36.77 35.31 37.86 39.24 38.18 36.48 35.45 35.02 33.03 30.05 29.48 28.82 25.39 24.29 29.86 30.12 25.91 31.90 35.60 35.14 36.15 36.02 31.16 33.73 36.82 35.18 36.26 36.82 37.26 38.69 38.61 39.43

GFSSW_sfc_wetblb_075.txt.gz
Wetbulb
54.54 54.21 54.21 54.24 54.23 54.11 54.28 54.11 54.58 54.45 54.52 54.76 55.14 55.12 54.79 54.19 53.61 50.60 45.73 50.57 53.27 56.19 57.04 52.44 53.02 51.38 50.17 48.97 49.70 49.39 45.34 43.10 44.41 44.42 46.71 49.83 48.99 52.12 53.89 52.37 53.62 54.31 54.91 56.38 59.99
54.66 54.29 54.18 54.09 54.23 54.15 54.18 54.16 54.27 54.19 54.45 54.62 54.87 54.48 53.68 53.34 50.03 46.39 52.82 54.77 56.26 59.31 51.50 46.19 49.70 48.42 46.91 47.64 48.53 47.54 43.75 44.22 46.71 48.23 47.34 48.92 48.88 49.81 50.15 50.83 51.35 53.01 56.04 56.67 61.64
54.80 54.54 54.28 54.05 53.67 53.84 54.01 54.49 54.19 54.34 54.74 54.45 53.91 53.31 52.90 52.49 44.49 46.33 59.49 58.03 58.22 59.46 53.89 53.26 49.82 46.75 44.47 46.56 46.44 45.77 43.39 45.32 46.58 48.61 49.04 47.86 47.91 50.34 48.79 47.64 50.71 51.00 53.55 55.61 56.30
55.00 54.69 54.31 53.92 53.46 53.28 53.54 53.58 53.69 53.85 53.56 53.06 52.89 52.48 53.33 49.68 42.30 46.66 64.16 60.75 59.31 57.97 52.90 50.03 50.21 46.87 44.24 43.50 46.19 43.21 44.94 46.92 47.82 48.60 48.24 47.15 49.39 48.01 49.02 49.60 52.47 53.01 54.09 54.85 55.14
54.75 55.00 54.37 53.80 53.49 53.36 53.47 53.48 53.09 52.76 52.54 52.35 52.61 52.41 50.63 45.04 44.98 52.82 61.97 60.35 58.12 56.06 51.16 49.07 48.91 48.24 44.61 44.49 44.53 43.65 44.12 46.00 47.13 46.78 46.28 47.18 45.82 46.42 47.48 50.07 51.79 52.54 53.27 53.50 54.52
55.44 54.83 54.30 54.16 53.77 53.62 53.40 53.58 52.98 52.70 52.49 52.79 52.80 51.83 48.88 40.56 48.47 55.24 58.64 58.11 55.63 52.04 49.71 52.58 51.15 50.15 46.83 45.17 44.95 45.33 44.30 44.99 45.78 46.21 46.47 44.91 46.39 47.05 48.53 51.48 51.34 52.20 52.63 53.68 54.64
55.24 55.06 54.68 54.70 54.13 53.82 53.80 53.44 53.30 53.11 53.39 53.57 52.86 51.61 46.96 43.86 52.75 55.12 57.29 54.96 54.13 52.20 49.30 51.78 52.55 48.85 47.18 44.47 46.31 44.89 42.67 44.36 45.59 46.04 45.74 46.88 44.37 43.64 48.82 50.69 50.26 51.71 52.73 53.61 54.39
55.06 54.93 54.63 54.57 54.44 53.88 53.55 53.40 53.03 53.22 53.44 53.74 53.09 50.91 44.15 50.62 52.68 52.85 57.44 53.09 53.53 52.99 52.01 53.30 52.46 49.31 46.75 46.65 44.15 42.66 41.95 39.89 44.04 44.38 45.96 44.99 41.13 46.59 48.68 48.19 48.59 50.55 51.84 52.99 54.84
54.79 54.55 54.67 54.51 54.35 53.98 53.19 52.72 53.63 53.36 53.95 53.98 50.48 48.11 45.59 56.08 52.55 55.83 55.63 51.44 51.99 52.24 52.55 52.88 50.96 46.21 45.55 42.82 41.17 40.31 37.70 37.50 40.32 44.95 44.08 43.77 41.96 46.00 49.22 48.87 48.11 49.23 50.59 51.32 52.62
54.51 54.20 54.32 54.22 54.14 53.73 52.87 52.50 55.00 54.93 53.92 53.13 51.88 45.56 49.96 50.35 53.92 54.86 53.86 53.18 51.24 50.87 48.30 47.86 46.28 44.27 42.96 41.83 35.21 36.16 36.92 37.99 38.49 43.47 43.94 42.79 42.74 46.01 48.15 48.38 48.15 49.00 49.89 50.92 51.26
54.32 54.04 53.83 53.97 54.06 53.44 51.20 49.69 48.80 47.63 50.84 49.12 48.24 47.02 49.25 53.13 54.71 51.19 53.47 51.63 50.55 48.14 44.10 44.22 42.40 40.17 42.08 42.70 41.62 39.93 38.38 37.93 41.51 44.54 41.68 42.48 43.03 44.97 47.67 48.07 48.07 49.51 49.64 50.29 51.46
53.83 53.83 53.81 53.77 53.58 52.33 50.10 47.30 50.54 51.08 45.09 50.07 50.22 49.90 51.50 52.06 47.82 50.95 53.42 47.86 46.40 42.91 43.64 42.66 40.08 43.96 43.50 42.05 40.72 40.17 38.67 39.14 41.93 44.15 42.43 43.23 42.86 45.88 46.82 47.62 48.84 49.51 50.14 50.41 51.72
53.01 53.07 53.22 53.40 52.49 49.84 48.33 49.76 53.38 53.09 46.03 47.09 49.27 48.82 50.11 51.59 47.74 48.21 49.42 47.21 44.51 42.25 42.34 40.71 41.75 43.18 42.05 41.16 39.88 40.73 38.73 39.49 39.48 42.79 44.53 42.59 41.14 43.56 46.07 47.20 48.50 49.71 50.93 51.30 51.63
52.43 52.56 52.72 52.12 48.67 47.37 48.20 52.70 52.48 52.07 41.40 43.85 46.27 49.24 50.04 50.32 46.36 52.31 50.86 47.82 44.62 42.40 42.15 41.79 44.25 41.93 40.86 40.21 41.26 37.95 42.35 41.62 41.00 40.42 36.10 42.83 33.69 41.90 44.69 45.19 47.05 48.49 50.17 51.18 51.38
52.02 52.37 52.29 51.67 48.69 46.41 50.13 51.07 52.27 51.45 31.99 47.01 46.73 52.89 50.79 47.92 47.20 48.46 51.59 48.48 43.79 43.00 42.60 40.93 41.26 40.64 40.10 40.94 43.01 40.65 44.33 43.38 42.71 40.49 39.60 39.52 36.13 40.20 43.71 42.30 44.73 47.56 49.24 50.71 52.05
51.73 52.16 51.63 48.93 48.44 49.14 51.05 51.03 52.54 40.95 30.84 43.79 45.94 44.71 45.22 46.37 45.91 47.32 47.68 49.90 48.00 44.17 43.19 42.91 44.52 43.53 42.60 44.19 44.96 45.63 43.47 43.01 40.14 39.19 33.12 38.64 37.50 38.33 41.16 43.52 45.52 47.62 48.73 49.75 50.80
51.57 50.98 49.88 49.95 47.77 49.66 50.51 51.51 39.99 33.61 45.01 41.18 41.79 43.99 43.06 42.10 43.41 44.40 43.59 43.18 41.55 37.82 38.63 42.03 41.97 44.64 46.07 42.25 45.02 43.69 40.00 33.21 31.63 32.17 31.15 38.93 36.01 38.52 43.58 45.37 46.21 46.78 48.32 50.28 51.84
50.55 49.60 48.58 49.03 49.95 50.68 52.12 46.13 32.93 38.29 40.39 44.68 43.00 43.44 40.68 42.49 42.33 42.92 41.68 40.18 42.86 40.69 38.69 35.75 34.40 42.07 45.77 42.93 39.91 40.28 39.10 32.55 25.00 26.95 30.35 37.15 31.54 37.35 45.32 47.31 48.13 48.79 48.87 50.47 51.22
49.21 47.05 47.18 50.93 50.90 50.13 48.82 38.64 36.58 40.31 42.80 41.09 41.40 39.00 40.33 41.56 40.94 41.36 40.47 40.39 43.02 43.20 37.62 37.15 36.10 44.04 44.53 45.39 43.84 39.25 36.16 40.77 34.05 35.08 30.61 33.91 38.19 42.87 45.54 45.75 46.45 47.39 48.49 49.36 50.88
45.18 44.30 48.00 50.68 52.00 50.81 44.05 36.72 40.49 44.24 43.85 42.83 36.41 39.97 36.23 39.14 38.89 39.25 39.59 43.07 42.10 44.08 44.31 40.47 34.71 40.24 42.57 44.56 43.77 41.68 43.31 33.71 34.92 25.13 24.21 31.27 33.32 35.10 40.63 42.28 44.92 45.21 46.36 47.86 49.57
46.58 45.81 49.80 50.55 51.95 47.76 40.12 39.61 42.00 46.05 46.00 41.05 39.65 38.57 38.92 38.14 38.95 38.36 38.62 41.84 44.11 42.97 44.40 42.67 38.52 36.49 40.26 38.40 36.94 38.47 37.57 37.93 36.21 32.53 26.95 25.42 31.36 42.45 42.09 42.71 43.52 44.96 46.57 47.00 47.17
44.52 42.97 50.69 50.55 46.04 40.70 38.44 40.78 42.91 44.33 46.89 44.29 43.47 41.21 39.84 39.80 38.38 38.41 38.15 40.40 45.29 44.68 40.04 41.10 39.67 33.99 35.91 39.80 41.30 40.41 37.49 38.26 31.98 28.83 31.07 30.03 29.97 43.11 43.77 44.98 44.59 44.65 45.62 45.94 47.74
42.30 41.96 49.25 49.27 40.43 38.53 40.95 41.43 43.54 43.00 42.88 41.94 41.41 41.23 41.45 38.89 35.81 38.13 39.39 43.78 44.72 43.68 41.58 42.58 36.97 30.59 31.68 35.77 39.29 36.98 38.99 39.79 38.29 35.96 30.00 26.86 30.59 44.07 45.03 44.02 44.59 45.17 45.28 46.10 46.65
44.16 39.20 42.95 42.93 41.63 38.60 36.66 38.53 39.48 44.23 42.99 43.82 41.36 41.47 39.09 37.70 39.75 37.58 38.02 41.94 42.63 42.82 44.99 44.58 37.79 34.18 29.18 32.79 36.13 33.66 36.16 38.31 36.96 31.45 31.41 31.88 34.05 38.82 41.19 42.13 43.80 45.41 46.31 46.18 46.33
43.07 38.09 38.51 35.71 38.75 38.36 36.96 39.04 37.72 38.19 42.59 42.93 40.77 40.28 37.34 34.03 35.23 35.43 38.82 39.36 41.04 45.14 42.55 42.01 34.92 35.86 36.51 37.04 36.98 35.97 35.30 36.15 34.56 35.31 30.80 34.10 34.83 38.85 42.18 43.18 44.45 45.32 45.54 44.99 44.90
41.76 40.78 41.73 39.23 40.01 38.19 38.86 37.90 37.95 39.20 39.11 38.10 37.82 39.40 39.06 34.93 35.87 34.47 37.72 38.19 37.05 40.89 41.40 39.86 36.00 35.75 33.04 36.18 36.27 33.98 36.42 36.76 36.52 36.74 36.31 36.38 35.29 43.04 44.20 44.03 43.40 43.98 43.81 43.16 44.01
42.23 43.80 41.40 38.52 37.87 35.96 37.48 37.67 36.85 37.77 39.78 41.39 40.49 38.55 37.46 38.71 41.39 42.74 42.52 41.53 40.89 39.51 38.58 37.84 36.07 33.09 29.03 34.25 34.69 31.61 35.61 36.05 37.91 39.30 38.24 33.45 39.10 42.93 41.08 40.94 41.48 41.84 42.44 42.47 43.51

GFSSW_sfc_wetblb_078.txt.gz
Wetbulb
55.58 55.33 54.87 54.66 54.34 54.68 54.84 54.80 54.62 54.84 54.99 55.26 55.22 55.42 54.83 54.50 54.03 54.37 50.43 54.52 55.53 58.68 55.74 56.10 55.14 53.66 54.35 53.59 54.51 54.49 48.12 45.77 47.09 47.40 48.16 52.05 51.62 54.91 56.40 54.77 55.75 57.26 57.34 59.27 60.87
55.84 55.44 55.12 54.53 54.32 54.03 54.39 54.75 54.82 54.78 54.99 55.20 55.31 54.74 54.21 53.50 53.04 51.21 58.29 55.04 58.24 58.31 54.23 52.70 51.43 52.31 50.86 51.56 52.20 50.95 47.06 46.80 49.85 50.36 49.30 51.24 52.10 52.64 52.70 53.42 54.24 55.47 57.94 59.42 59.75
55.58 55.92 55.35 54.57 54.20 54.18 54.04 54.15 54.58 54.68 54.90 54.74 54.33 53.75 53.20 54.23 50.96 52.26 59.22 58.22 57.85 59.38 55.44 52.71 53.91 51.66 49.27 50.95 50.59 50.00 47.35 50.06 49.66 50.63 51.60 51.06 51.24 52.76 51.32 50.49 53.49 53.31 55.17 57.50 58.70
55.60 55.81 55.56 55.16 54.63 53.97 54.05 54.47 53.95 53.66 53.72 53.45 53.14 52.95 53.34 53.94 45.17 54.09 64.47 61.51 60.29 57.70 54.23 53.67 52.43 49.46 48.40 47.64 50.59 46.53 49.48 50.05 50.32 50.44 50.37 48.96 50.99 50.16 50.96 51.58 53.99 54.56 55.70 56.27 56.75
55.58 55.73 55.45 55.24 54.76 54.51 54.23 54.21 53.88 53.56 53.00 52.96 53.07 53.08 53.58 50.00 48.18 57.20 62.80 60.95 60.07 57.43 53.51 51.72 50.56 50.26 47.77 48.74 48.90 47.64 48.18 49.32 50.37 49.75 49.96 50.33 48.61 48.75 49.85 52.38 53.43 54.00 54.49 55.00 56.15
55.62 55.25 54.91 54.97 55.04 54.88 54.34 54.07 53.98 53.30 53.17 53.15 53.67 52.61 52.18 45.68 51.64 57.89 58.40 56.40 55.61 54.96 54.09 52.54 50.86 51.99 49.29 48.80 48.16 49.14 48.18 48.36 49.17 49.69 50.00 48.09 48.96 49.52 50.81 52.93 53.09 53.70 54.01 55.22 56.02
55.40 55.44 55.06 54.64 54.75 55.03 54.79 54.40 54.13 53.85 53.80 54.23 54.11 53.50 50.56 49.33 53.41 59.41 58.07 57.10 57.33 54.01 51.19 55.25 54.28 51.28 50.59 47.72 49.85 48.66 46.17 48.12 48.46 49.53 48.56 50.32 47.09 47.33 51.42 52.33 52.21 53.07 54.14 55.04 56.02
55.10 54.97 55.12 54.80 54.76 54.52 54.78 54.36 53.44 53.01 53.71 54.35 54.50 53.71 49.40 53.63 55.33 55.37 58.63 56.14 56.08 54.94 54.45 55.40 55.37 52.42 50.25 50.37 48.04 46.16 46.28 43.58 47.86 47.80 48.48 47.75 43.16 49.04 51.75 51.26 50.81 51.94 53.07 54.04 55.50
54.55 54.42 54.87 54.43 54.49 54.47 54.50 53.54 53.99 53.98 54.27 54.89 53.50 52.41 49.91 56.82 54.73 55.84 58.98 53.80 53.89 53.79 54.79 54.65 54.50 50.86 49.29 46.20 44.60 45.43 41.60 42.50 43.48 47.41 46.78 46.62 44.30 48.21 50.52 50.97 50.84 52.10 52.79 53.53 54.75
53.93 54.20 54.23 54.26 54.36 54.34 53.42 52.67 54.11 54.98 55.28 55.45 54.34 49.97 53.33 52.18 55.68 57.14 57.58 56.01 53.25 53.22 51.92 51.72 51.02 47.48 47.05 44.83 39.46 41.20 40.98 42.09 42.24 45.85 47.09 46.02 45.94 48.85 50.65 50.53 50.48 51.61 52.42 53.24 54.03
53.59 53.74 53.70 53.87 53.97 53.48 52.94 54.95 53.27 52.26 53.43 51.21 50.95 50.71 51.28 55.22 56.53 55.60 56.40 54.39 53.55 51.72 46.80 49.42 45.55 43.33 45.43 46.12 45.11 43.57 42.29 42.02 44.61 47.11 46.07 45.67 46.26 48.16 50.54 51.08 50.65 51.45 51.83 53.24 54.17
52.82 53.27 53.39 53.44 53.46 52.48 53.99 51.19 53.57 54.69 49.35 53.96 52.95 53.02 54.40 54.48 50.52 52.62 56.50 50.13 49.33 45.90 48.33 46.18 43.15 46.76 46.96 46.37 44.19 43.48 42.39 42.91 45.28 46.86 46.45 46.15 45.82 48.85 50.25 50.79 51.61 51.83 52.16 52.79 53.79
51.86 52.19 52.90 53.15 52.39 52.22 53.32 52.72 57.59 56.94 50.08 50.19 52.08 51.24 52.49 53.82 49.91 51.15 53.16 51.32 47.99 46.23 46.23 44.44 45.34 46.14 44.68 44.42 42.83 43.90 42.97 43.15 43.00 46.08 47.47 46.39 44.98 47.17 49.93 50.95 51.60 52.26 53.12 53.59 54.00
51.52 51.76 52.53 52.18 51.31 54.44 52.13 56.15 57.70 56.74 46.09 47.22 49.33 50.46 51.84 52.19 48.50 53.99 53.57 50.46 47.71 45.37 46.20 45.57 47.77 45.19 44.35 43.26 44.66 41.69 45.35 44.20 43.79 43.49 40.14 47.13 38.31 45.68 48.21 48.74 50.25 51.53 52.57 53.30 54.15
51.17 51.78 52.37 51.29 52.73 52.39 54.03 56.39 57.38 55.67 37.03 49.29 49.01 55.43 52.37 48.99 49.63 50.90 55.17 50.81 46.23 46.04 46.25 44.37 44.55 44.27 43.72 44.09 45.70 43.59 46.53 45.62 45.30 43.76 43.64 43.28 41.01 44.26 47.99 46.52 48.61 51.13 52.12 53.23 54.29
51.05 51.99 51.47 52.66 53.60 54.61 55.61 56.22 56.14 44.66 35.07 45.60 48.72 47.92 47.73 48.77 47.86 50.17 50.94 52.50 50.96 47.40 47.68 46.52 48.67 46.75 46.33 46.24 46.67 47.92 46.20 46.27 46.04 44.28 37.88 42.48 41.25 42.71 44.23 45.86 47.61 49.68 51.01 52.42 53.44
51.03 51.14 51.64 54.62 52.40 54.89 55.84 54.65 43.92 38.45 47.26 43.66 44.79 46.51 45.59 44.16 45.07 47.05 46.64 46.26 44.28 41.00 42.07 45.87 46.20 48.25 47.54 45.07 47.72 46.99 44.32 37.92 36.65 37.48 36.57 42.70 39.15 41.54 45.87 47.81 48.80 49.39 51.16 52.71 54.40
50.38 49.76 51.32 54.80 56.72 55.84 56.41 48.81 37.91 40.95 42.97 47.00 45.88 46.35 44.05 45.26 44.49 45.15 44.06 43.43 46.36 44.87 42.34 39.82 38.80 44.85 48.10 46.23 44.48 44.51 43.31 37.44 29.62 32.40 35.67 40.76 35.57 41.22 47.34 49.52 50.32 51.05 52.07 53.19 53.99
49.16 56.82 56.94 55.98 57.37 56.95 51.75 42.69 41.47 43.30 44.93 43.61 45.27 42.97 44.06 45.18 42.89 42.62 43.04 43.40 45.20 46.49 40.43 40.14 39.36 46.49 47.02 47.52 46.33 43.48 40.14 44.75 37.86 38.36 34.27 37.84 41.55 45.48 47.73 48.26 49.24 49.29 50.57 51.12 52.03
51.61 54.51 53.58 56.64 58.30 55.92 49.05 39.95 43.81 46.28 46.12 45.39 40.48 42.69 40.14 41.85 41.60 40.51 40.78 45.62 44.49 46.88 48.16 43.49 38.21 44.23 45.60 47.06 46.27 43.57 45.86 37.18 39.29 28.35 28.41 34.96 36.49 38.00 43.51 45.80 47.20 47.68 49.00 50.27 51.73
53.19 52.44 54.20 57.32 57.93 53.30 45.17 44.88 44.96 47.57 48.06 44.33 42.71 41.94 42.29 41.54 42.59 40.70 40.76 43.78 45.69 45.57 47.47 45.68 41.71 40.26 43.17 42.02 41.40 42.44 40.37 40.70 39.85 37.59 30.09 29.43 34.92 44.61 43.86 45.72 45.96 47.93 48.66 49.39 50.46
52.10 49.05 55.03 56.63 50.48 51.30 46.88 44.32 44.07 46.40 48.83 46.36 46.46 44.66 42.61 43.47 41.53 41.37 40.51 42.57 46.54 46.17 42.57 45.84 42.33 37.41 39.57 44.53 44.85 43.28 40.72 41.40 35.81 32.62 36.03 34.14 34.22 46.27 46.41 47.23 48.54 48.58 48.75 50.01 50.87
48.93 50.14 55.77 54.85 45.75 47.94 46.54 44.51 45.92 45.34 45.82 44.79 43.58 45.44 45.66 42.04 38.86 42.78 42.95 45.28 46.09 45.27 43.05 45.52 40.39 35.09 36.66 40.36 43.05 39.92 41.59 42.15 41.60 39.84 35.06 31.32 35.23 46.13 46.82 46.79 48.09 48.76 49.90 49.82 49.98
49.29 46.27 50.07 50.46 48.83 43.86 42.23 43.21 42.87 46.14 45.14 46.18 44.95 45.62 43.32 41.82 43.73 40.32 41.15 43.84 45.36 44.61 45.44 45.06 40.75 38.21 34.28 37.52 40.81 37.23 39.08 41.28 40.64 35.33 36.38 36.75 38.87 42.97 44.82 45.72 47.51 48.71 49.02 49.24 49.81
48.77 44.03 44.76 43.50 45.43 42.94 42.71 42.16 40.87 39.21 43.95 45.21 42.07 43.10 41.28 38.70 40.72 39.96 41.92 42.27 43.79 44.52 45.13 44.08 37.37 39.83 40.05 40.43 40.20 39.28 38.85 39.57 38.45 39.52 35.39 38.55 38.98 42.53 45.14 46.17 46.77 48.80 48.86 48.48 48.68
46.46 44.84 47.89 45.56 42.43 40.39 40.78 40.17 38.99 38.47 39.41 39.14 40.67 41.37 40.32 38.41 40.44 38.64 39.56 40.96 40.60 43.63 43.69 45.13 37.23 39.75 37.52 39.86 39.32 37.48 39.29 40.28 40.65 40.77 40.49 40.41 39.87 45.45 46.10 46.13 45.88 46.79 46.39 45.93 46.61
50.49 50.70 46.20 42.04 39.69 38.85 39.25 38.37 37.88 38.74 40.44 42.25 42.59 39.24 38.44 39.60 42.64 43.42 44.19 45.48 44.09 41.77 41.07 42.32 39.87 37.49 33.99 38.03 38.62 35.78 40.24 40.19 40.81 42.44 40.50 36.09 42.20 45.12 44.04 44.62 44.46 44.35 44.84 45.11 46.38

GFSSW_sfc_wetblb_081.txt.gz
Wetbulb
56.82 56.60 56.44 55.75 55.07 54.87 54.84 55.11 55.38 55.55 55.56 55.44 55.58 55.63 55.46 55.21 54.53 55.17 53.65 56.92 57.66 60.67 58.17 57.76 55.05 53.61 55.21 53.86 55.52 55.44 48.45 46.69 48.93 49.26 52.57 56.78 54.46 56.94 58.69 57.16 57.56 58.41 58.69 60.76 61.65
56.53 56.54 56.34 55.60 55.20 54.71 54.83 54.84 55.09 55.40 55.59 55.54 55.56 55.35 54.87 54.32 53.85 53.36 60.82 59.80 59.16 58.36 54.38 55.09 52.59 53.14 51.74 52.38 53.69 51.96 48.23 48.49 51.33 51.67 51.86 54.04 53.26 53.71 53.56 56.45 56.05 57.13 59.78 60.54 61.13
56.46 56.46 56.29 55.95 55.76 55.19 54.79 54.87 54.94 54.90 55.02 55.03 54.66 54.18 53.93 54.55 53.80 54.95 62.82 61.22 57.97 59.68 56.48 55.28 55.13 52.72 50.45 52.05 52.09 51.57 48.39 51.19 51.97 52.58 52.94 52.34 52.69 54.00 52.01 51.90 55.42 56.07 58.29 59.35 59.76
55.99 56.31 56.06 55.97 55.90 55.61 55.19 55.08 55.01 55.22 54.80 54.13 53.88 53.95 54.00 55.59 47.21 59.03 64.06 61.94 59.17 57.82 55.70 52.79 54.04 50.35 49.37 49.03 52.29 48.83 51.43 51.72 52.59 52.93 52.21 50.79 52.11 51.12 52.02 52.79 54.43 55.56 56.91 57.12 57.69
55.27 55.80 55.84 55.60 55.52 55.76 55.54 55.05 54.90 55.02 54.53 54.00 54.05 54.34 54.42 53.16 51.80 62.91 64.99 61.85 60.39 57.75 53.84 53.32 52.32 51.33 48.83 50.39 51.04 49.66 50.82 51.41 52.36 52.46 52.05 51.89 50.05 49.93 51.02 53.95 54.74 54.84 55.15 55.07 56.34
55.46 55.43 55.55 55.45 55.53 55.37 55.40 55.13 54.67 54.36 54.64 54.45 54.42 54.33 54.37 48.91 54.09 59.72 59.53 59.80 58.14 56.47 54.43 54.09 52.41 53.73 51.55 50.72 50.05 51.74 50.97 50.78 51.35 51.23 51.89 50.22 49.91 50.14 51.35 54.31 53.78 54.10 54.56 55.40 56.07
55.03 55.25 55.21 55.28 55.29 55.29 54.95 55.19 54.64 54.31 54.28 54.62 55.37 55.40 53.69 52.93 55.10 58.81 58.62 56.52 57.57 55.53 53.51 54.73 55.92 52.39 52.69 50.26 52.45 50.77 48.44 49.76 50.39 50.88 50.26 52.01 48.88 48.67 52.22 53.59 52.95 53.43 54.16 55.60 56.44
54.36 54.43 54.86 54.83 54.71 54.85 54.96 54.66 54.49 54.09 53.91 54.78 55.27 56.17 52.46 56.90 56.78 55.81 59.40 57.45 57.79 56.21 55.46 56.65 56.32 54.00 51.91 52.66 49.77 48.15 48.51 45.18 50.12 50.64 50.42 49.33 44.94 50.70 52.81 51.96 51.26 52.43 53.56 54.24 55.62
53.72 53.82 54.15 53.95 54.31 54.56 54.75 54.12 54.22 54.91 54.82 55.03 55.19 54.83 52.38 56.07 52.68 55.60 58.70 55.49 55.39 55.42 55.94 55.82 55.12 52.29 51.66 47.50 46.01 47.40 43.47 45.30 46.96 50.51 49.38 48.18 46.16 50.16 52.46 52.29 51.21 52.17 52.73 53.68 54.73
53.43 53.32 53.46 53.75 54.16 54.24 53.87 53.37 54.32 54.56 55.29 57.43 57.39 51.77 55.91 52.19 55.19 56.07 58.48 57.45 53.10 53.38 52.84 52.67 51.87 49.27 48.66 46.56 40.91 43.69 43.84 44.81 44.35 47.84 48.62 47.12 46.97 49.51 51.48 51.63 51.92 52.52 52.77 52.72 53.95
53.21 52.95 52.89 53.26 53.69 53.51 53.07 56.17 55.33 54.66 55.54 53.76 53.76 53.03 52.71 56.60 57.74 55.32 56.93 55.82 54.04 52.04 48.27 51.23 47.40 45.33 47.30 48.05 47.43 46.24 45.31 44.40 46.67 48.40 47.41 47.23 47.69 49.41 51.45 51.90 51.90 52.67 53.39 53.85 54.26
52.56 52.80 52.74 52.86 53.28 52.95 53.86 54.02 54.40 56.36 50.84 56.70 55.79 54.54 55.45 55.88 52.20 54.43 56.82 51.48 51.16 47.65 50.24 48.75 45.28 48.55 49.25 48.39 46.82 46.19 44.38 44.45 47.13 48.73 48.09 47.56 47.34 50.42 51.81 52.18 53.03 53.38 53.69 54.04 55.04
52.26 51.97 52.24 52.55 52.76 53.96 56.34 55.69 58.66 58.94 51.33 52.57 54.17 53.66 54.11 54.99 51.37 51.74 54.37 51.87 49.46 47.53 48.37 46.23 48.18 48.51 46.78 46.73 45.19 45.73 44.51 45.01 45.09 47.80 48.84 47.36 45.86 48.28 51.59 52.96 53.71 53.79 54.55 54.71 54.90
51.91 51.57 51.93 52.49 51.01 59.04 55.49 57.94 58.47 58.92 47.22 48.86 51.07 52.60 53.95 54.10 49.56 54.34 54.04 52.70 49.58 46.61 48.15 47.77 49.94 47.43 46.09 44.86 46.60 43.14 47.51 46.41 45.04 44.36 41.28 48.80 40.16 47.38 49.96 50.80 52.13 52.92 54.06 54.52 55.08
51.59 51.74 52.04 51.16 54.04 55.68 55.71 59.02 58.92 57.92 37.64 50.49 50.80 56.55 54.28 51.21 51.63 51.53 55.20 51.35 47.24 47.05 47.59 45.91 46.44 45.72 44.93 46.17 47.32 45.02 48.49 46.96 46.86 45.25 45.06 45.20 43.03 46.40 49.82 48.31 50.46 52.27 53.26 54.10 54.87
51.45 51.66 51.84 54.80 55.59 57.55 58.07 58.57 57.89 46.50 37.86 46.88 50.56 49.93 48.91 50.82 49.83 52.08 51.89 53.32 52.33 48.32 48.58 47.66 50.73 48.59 47.98 48.91 48.42 48.87 47.32 47.23 47.51 45.87 39.89 44.62 44.20 44.56 46.79 47.73 49.20 51.46 52.80 53.54 54.19
50.91 50.96 51.87 57.36 55.32 57.57 58.86 56.70 47.17 41.39 48.60 45.68 46.63 48.71 48.59 47.64 48.16 48.52 47.46 46.85 45.36 41.71 41.65 45.29 47.27 49.86 50.11 46.69 49.18 48.09 45.64 40.14 38.98 39.23 38.73 46.10 42.85 44.56 48.03 49.09 50.11 50.53 51.73 53.73 55.56
50.16 49.50 54.83 57.73 59.53 59.45 57.96 51.79 40.25 44.21 45.39 49.10 48.28 48.18 46.16 47.58 46.89 46.91 45.68 43.93 47.78 46.52 43.03 40.20 39.18 47.00 49.29 47.28 46.16 46.52 45.26 39.16 32.02 34.87 38.75 44.81 39.14 42.90 48.48 51.01 51.58 51.94 52.24 53.13 54.02
48.91 59.79 58.94 60.19 60.64 60.45 54.40 44.78 45.38 46.46 47.35 46.11 47.19 44.11 45.30 46.90 47.32 46.42 46.07 44.90 46.28 47.58 41.30 40.99 41.53 48.52 48.69 49.47 48.30 44.52 42.46 46.54 40.94 41.89 37.04 39.95 43.33 47.17 48.98 50.11 51.30 50.19 50.94 51.65 52.30
53.03 57.62 57.68 59.45 61.92 59.03 51.71 44.66 46.76 48.80 48.74 48.03 43.18 45.91 42.42 44.66 44.38 44.06 44.16 47.07 45.93 48.36 49.79 45.04 39.73 46.89 47.57 48.64 48.74 46.34 47.46 40.10 41.59 32.20 31.59 37.83 39.01 39.83 44.63 45.78 47.63 48.89 49.45 51.00 52.04
54.49 54.39 57.37 60.71 61.06 54.90 47.42 47.98 48.12 50.32 49.47 46.70 45.54 44.28 44.99 43.91 44.37 43.72 43.30 46.05 47.66 46.89 48.08 45.72 43.14 43.28 45.68 43.94 43.12 44.13 42.95 43.20 42.50 40.07 32.80 32.04 36.72 46.69 45.78 47.16 47.28 48.34 49.89 51.16 52.12
55.91 50.97 58.07 60.21 51.86 53.65 48.40 48.61 44.61 48.69 50.34 48.07 48.23 46.81 44.42 45.01 42.95 43.62 43.09 45.86 48.31 47.95 43.33 46.61 43.38 38.44 41.83 47.58 47.22 46.24 43.68 42.99 37.82 36.45 39.08 37.20 37.07 48.57 48.22 48.40 48.81 49.14 50.15 51.76 52.70
51.80 52.73 58.76 57.15 47.50 49.67 50.03 48.04 48.55 47.51 47.54 46.00 45.26 47.44 48.60 44.69 41.39 44.39 45.84 48.46 48.53 46.44 44.07 47.09 42.33 35.58 38.61 44.30 45.46 42.53 43.31 43.93 43.59 42.72 37.42 34.21 37.42 48.51 48.94 48.54 49.69 49.34 50.64 51.28 52.04
52.04 48.45 52.86 55.47 53.19 47.74 46.50 46.14 45.56 48.48 47.58 47.96 46.08 47.74 45.50 43.62 45.49 43.05 43.57 46.51 47.38 46.95 46.33 46.15 42.50 39.17 34.45 39.16 42.79 40.15 41.83 43.11 42.35 38.47 37.91 38.72 40.04 44.84 46.52 47.00 48.62 49.66 51.02 51.00 51.48
52.96 49.09 48.46 46.92 48.68 46.84 46.83 46.48 44.34 42.80 46.77 47.42 45.09 44.75 42.78 41.15 41.92 42.59 44.67 45.09 46.49 48.40 45.84 44.94 37.80 40.71 41.75 42.87 42.62 41.57 40.88 41.39 40.40 41.23 37.71 40.26 40.72 43.88 46.09 47.17 48.64 49.60 49.50 49.01 47.89
48.29 47.55 51.43 47.95 46.23 45.51 43.03 43.07 42.23 41.85 42.54 42.56 42.86 43.02 44.50 41.22 41.50 39.68 42.55 44.25 42.72 45.77 44.94 45.57 38.69 41.12 38.85 42.18 42.07 39.79 41.47 41.78 41.76 41.68 41.71 42.65 42.09 47.95 48.42 48.39 47.20 46.97 45.38 45.87 46.53
54.08 53.23 49.33 46.04 45.17 44.22 44.75 41.66 41.87 43.22 44.01 44.94 43.54 41.43 42.12 43.27 44.99 46.72 47.41 46.00 45.55 43.75 42.80 41.80 40.46 38.71 35.19 41.01 41.08 37.23 41.71 43.07 43.20 44.19 43.30 39.46 43.84 46.98 45.74 45.03 44.50 44.05 44.63 44.86 45.35

GFSSW_sfc_wetblb_084.txt.gz
Wetbulb
57.13 56.89 57.33 56.68 56.23 56.08 55.50 55.45 55.33 55.50 55.97 56.27 56.13 56.19 56.36 55.78 55.42 54.36 51.68 56.91 58.79 61.29 58.72 53.54 55.93 53.80 52.22 51.45 53.42 53.70 47.54 46.54 48.30 49.80 51.95 56.19 56.21 59.40 59.80 56.92 58.53 59.11 58.17 59.80 61.56
56.70 56.94 56.85 56.76 56.93 56.16 55.98 55.65 55.63 55.53 55.49 55.76 56.00 55.87 55.45 54.99 52.55 51.60 59.36 63.21 62.38 59.14 51.40 51.42 53.46 52.19 48.94 50.13 51.61 50.15 46.90 46.43 50.39 52.04 52.32 54.54 55.09 56.00 54.91 55.03 56.27 58.14 60.47 60.23 60.90
56.15 56.43 56.71 56.52 56.27 56.71 56.43 56.19 55.61 55.79 55.72 55.61 55.32 54.96 54.81 54.47 52.40 54.91 66.06 63.69 61.97 58.99 51.82 53.83 54.95 52.30 48.77 50.31 50.14 49.72 47.22 49.93 50.38 51.86 52.68 52.42 52.56 54.54 52.87 51.92 55.25 56.74 58.76 59.91 60.80
55.67 55.88 56.29 56.31 56.24 56.13 55.98 56.48 56.18 55.88 55.95 55.62 54.99 54.90 55.29 54.07 47.68 58.52 63.44 62.85 60.42 56.50 52.34 53.37 53.04 50.35 48.04 47.06 50.50 47.37 50.45 51.08 51.79 52.70 52.28 51.34 53.39 52.01 52.45 52.91 55.83 56.34 56.89 56.98 57.07
54.61 55.24 55.38 55.55 56.03 56.01 55.93 55.78 55.88 55.68 55.42 55.34 54.92 55.09 54.44 52.41 53.21 61.86 66.03 63.02 57.87 53.84 51.26 52.70 50.56 50.88 47.36 48.83 49.77 48.38 49.89 51.42 52.00 52.15 52.42 52.67 51.22 51.19 50.71 53.19 54.57 54.80 55.25 54.95 55.77
54.55 54.57 54.43 54.85 55.30 55.84 55.86 55.80 55.65 55.27 55.17 55.05 55.17 55.14 53.01 48.78 56.27 61.82 59.23 57.97 57.73 55.59 52.94 53.45 52.43 53.25 50.51 49.97 49.17 50.82 50.33 50.69 51.59 51.36 51.82 50.17 50.03 50.55 51.28 53.17 53.01 53.89 54.13 54.28 54.87
54.43 54.43 54.58 54.54 54.77 55.37 55.67 55.34 55.09 54.87 54.75 54.93 55.12 55.59 52.60 52.25 56.80 57.23 58.78 57.90 58.45 55.77 54.13 55.36 54.70 52.31 52.08 49.82 52.75 51.26 48.25 50.00 50.09 50.61 49.72 51.23 47.99 48.51 52.02 52.68 52.39 53.19 54.03 54.91 56.12
54.04 53.91 54.14 54.03 53.99 54.37 55.04 54.89 54.96 54.42 54.42 54.49 55.32 55.62 50.94 59.39 58.88 57.67 58.57 56.41 57.61 57.37 55.29 55.19 55.70 53.98 52.00 52.82 50.58 48.30 48.45 44.26 49.21 49.93 50.39 49.88 44.12 50.25 53.07 52.54 51.47 52.61 52.99 54.05 55.89
53.73 53.46 53.63 53.92 53.65 53.69 54.38 54.41 54.07 55.75 55.33 54.87 54.51 54.41 51.06 58.28 53.32 54.63 56.34 55.25 56.39 55.67 55.32 56.32 54.95 51.58 51.48 47.36 45.75 46.73 41.83 43.98 45.98 50.64 49.81 48.56 45.51 49.97 52.88 52.28 51.26 52.59 53.15 53.80 55.01
53.91 53.27 53.10 53.27 53.42 53.64 53.49 53.36 55.02 54.26 54.83 56.62 57.28 52.80 55.60 52.99 55.07 53.83 56.18 56.92 54.04 53.12 52.29 51.89 50.58 47.93 48.34 46.44 39.07 42.40 43.05 44.66 44.76 48.38 48.91 46.76 46.65 49.29 50.95 51.09 51.84 52.72 52.88 53.07 53.64
54.36 53.64 52.88 52.88 52.85 52.65 52.76 55.36 53.47 52.71 55.28 53.26 53.59 52.71 53.49 56.88 57.83 54.73 55.44 55.46 54.20 51.16 46.94 50.45 46.20 43.72 46.19 47.59 46.96 46.05 44.85 44.49 46.80 48.62 46.88 46.45 46.84 48.66 50.94 51.41 51.27 52.39 53.27 54.47 54.79
54.37 54.09 53.22 52.58 52.50 52.61 51.88 52.01 55.16 55.26 49.97 56.43 56.10 54.95 56.03 56.06 51.92 53.82 55.91 50.50 50.10 46.08 48.98 47.68 44.73 48.35 49.56 48.93 47.47 46.29 44.19 44.01 46.68 48.19 47.53 46.97 46.52 49.27 50.83 51.37 52.56 53.56 54.17 54.96 56.08
53.86 53.43 52.98 52.38 52.60 52.34 53.54 56.21 59.38 57.73 50.60 52.82 55.32 54.97 54.12 54.65 51.43 52.50 53.74 51.51 48.72 46.69 47.64 45.38 47.51 50.51 47.70 46.68 45.49 45.42 44.19 44.40 44.08 47.33 48.84 47.11 44.95 47.24 50.19 52.29 53.38 54.02 55.37 55.14 56.17
53.68 53.27 52.34 52.21 51.20 58.39 55.99 58.48 58.35 59.00 46.09 49.07 50.03 52.58 54.40 54.28 49.89 55.75 55.43 52.15 48.20 45.26 47.12 46.91 50.10 48.26 46.93 44.97 45.73 42.85 47.31 46.44 45.44 44.06 39.66 47.11 38.60 46.25 49.28 50.21 52.02 53.16 54.65 54.92 55.91
53.54 53.25 52.11 51.33 52.13 56.31 56.31 58.96 58.93 57.26 37.30 50.58 51.00 56.47 54.46 50.58 51.91 51.73 55.84 51.92 47.32 46.82 46.70 45.13 46.62 46.07 45.38 45.73 48.00 44.52 48.05 46.82 46.13 44.31 43.77 43.90 41.30 45.26 49.59 48.15 50.42 52.38 53.21 53.94 54.94
53.38 52.78 51.69 55.69 54.74 58.07 58.60 58.60 57.28 45.80 37.29 47.77 50.97 49.49 48.71 50.11 50.39 51.97 51.78 53.31 51.90 47.43 47.70 47.01 50.58 48.80 47.45 48.70 48.98 48.99 46.74 46.38 46.17 44.30 37.78 42.94 42.63 43.27 46.15 47.77 49.45 51.59 52.48 53.05 54.02
52.75 51.64 50.28 55.75 56.39 58.86 59.02 56.24 45.41 41.22 49.83 46.61 47.04 49.28 48.17 47.45 48.48 48.94 48.16 47.32 44.34 41.53 42.03 45.40 46.32 48.37 49.58 46.51 48.67 48.01 44.31 37.42 36.79 37.57 36.58 45.71 42.14 45.13 48.45 49.57 50.01 50.40 51.19 52.51 53.61
51.63 49.63 54.29 57.56 59.88 60.26 57.84 50.35 40.72 46.79 46.72 50.18 48.59 49.13 46.61 48.81 48.23 48.45 47.26 45.07 48.59 46.30 43.14 40.44 38.55 46.95 50.14 48.30 45.46 45.74 44.97 39.02 32.23 33.98 37.52 44.56 39.49 43.53 49.46 51.07 51.87 51.87 52.56 53.05 53.32
49.31 58.27 59.09 60.40 60.49 60.16 54.09 43.14 44.65 46.65 48.47 47.16 47.65 45.38 45.16 48.30 47.76 47.34 46.84 45.92 47.91 48.45 41.35 41.22 40.70 49.42 49.75 50.39 48.54 44.80 41.92 46.48 40.52 41.82 37.40 40.36 43.74 47.74 49.03 49.94 51.02 50.95 51.78 51.57 52.74
50.02 55.06 58.36 60.48 61.06 58.36 50.85 45.05 48.41 50.08 49.28 48.84 43.69 46.83 43.26 45.70 45.72 45.47 45.50 48.08 46.84 49.53 49.69 45.00 38.93 46.65 48.33 50.29 48.91 46.31 48.01 39.85 40.88 31.70 30.82 37.86 39.03 40.14 44.43 46.01 47.86 48.62 49.34 50.40 51.95
52.38 53.68 58.13 61.36 60.45 53.89 46.93 47.05 49.49 51.50 49.90 46.62 45.77 44.98 45.46 44.63 45.12 44.54 44.31 47.50 48.68 48.26 49.74 46.98 42.54 42.18 46.13 44.19 42.10 43.59 42.48 43.18 42.79 40.55 32.67 31.06 36.72 47.23 45.82 47.28 47.07 47.96 49.29 50.60 51.95
53.20 50.26 59.00 60.08 50.81 52.74 49.13 49.49 46.37 48.60 50.62 48.59 48.38 47.10 45.19 45.67 43.81 44.46 43.74 46.24 50.55 48.73 44.43 46.55 43.67 38.52 41.42 46.96 48.45 46.71 43.57 43.65 37.26 35.83 39.85 38.80 37.35 48.54 48.91 48.73 49.57 48.87 50.84 51.24 52.58
49.87 52.22 59.10 57.01 45.39 47.97 49.84 48.89 49.24 48.18 48.11 47.16 45.50 47.80 48.61 44.33 41.46 45.04 45.56 49.60 49.82 48.13 45.17 47.28 42.00 36.39 38.64 43.37 46.10 43.39 44.41 44.12 43.08 42.68 36.41 33.68 36.36 48.11 48.72 48.50 50.11 49.13 50.16 51.10 52.37
50.08 47.76 53.17 53.39 52.27 47.90 46.69 46.55 46.35 50.17 47.74 48.55 47.39 48.03 45.95 44.21 46.28 43.14 44.62 47.55 49.73 47.65 48.92 47.44 42.38 39.30 34.96 37.83 41.82 39.95 42.76 43.85 42.41 37.88 37.11 37.63 39.67 44.20 46.42 48.02 49.01 49.35 49.48 48.97 48.96
50.38 49.03 50.30 45.99 48.16 48.05 47.76 46.61 44.87 44.75 48.39 47.79 45.74 44.86 43.41 41.07 42.12 42.44 44.77 44.51 47.93 49.57 46.78 45.75 38.59 40.86 41.83 42.73 42.40 41.69 41.49 41.76 40.09 40.67 37.22 39.32 39.92 43.18 46.73 47.44 47.44 48.06 47.63 46.50 46.64
48.05 46.59 49.23 46.95 48.64 46.35 45.21 45.49 43.75 44.47 43.97 43.52 42.41 43.03 43.60 41.99 41.59 39.77 41.95 43.25 43.26 46.05 44.99 46.39 38.82 41.30 38.75 42.07 41.72 39.78 41.81 41.70 41.70 41.47 41.09 41.46 41.53 47.01 47.90 47.77 46.39 46.59 45.74 45.42 45.72
52.07 53.05 49.11 46.18 46.66 45.19 45.66 44.53 43.63 45.23 45.52 45.54 43.49 41.83 41.23 43.09 45.48 46.18 46.49 46.70 46.14 44.59 42.81 42.78 40.83 38.19 34.78 41.02 40.49 36.57 41.88 42.69 43.16 44.66 42.96 38.50 42.38 46.23 45.08 44.80 45.03 44.70 45.00 44.24 44.63

GFSSW_sfc_wetblb_087.txt.gz
Wetbulb
56.78 57.13 57.17 57.25 56.98 57.13 56.91 56.05 56.21 56.18 55.91 55.78 55.66 55.85 55.99 55.99 55.52 51.73 47.35 53.03 54.81 61.72 60.82 54.03 52.24 50.46 49.01 44.38 47.21 48.12 40.70 38.84 41.86 44.83 47.50 51.76 52.47 57.37 59.39 57.82 57.68 58.59 56.66 57.90 59.24
56.14 56.41 56.61 56.90 57.03 56.75 56.64 56.77 56.29 56.34 56.25 56.39 56.01 55.73 55.37 55.28 50.54 48.13 55.13 62.23 63.20 63.31 52.08 48.91 46.16 49.91 43.77 43.33 44.44 42.15 38.97 40.87 45.80 47.59 47.63 49.74 52.21 55.08 55.93 56.31 55.39 56.93 59.05 60.92 59.62
55.12 55.53 55.99 56.18 56.41 56.85 56.45 56.59 56.67 56.26 56.56 56.36 56.12 55.65 55.37 54.32 47.97 52.14 65.86 61.75 64.47 62.38 50.96 48.15 48.83 48.46 42.77 43.30 43.23 43.65 40.61 45.35 47.54 48.83 49.50 48.88 50.41 55.77 54.94 52.46 55.34 55.25 56.61 57.68 58.19
54.44 54.74 54.93 55.33 55.51 55.95 56.33 56.32 56.53 56.56 55.77 56.07 55.66 55.62 55.89 51.80 43.33 54.35 65.53 65.32 63.82 56.22 50.10 47.58 47.21 44.09 42.15 40.90 44.64 40.60 45.89 46.86 47.82 49.77 49.25 47.90 51.25 49.56 51.48 52.84 54.60 54.53 55.59 54.12 53.86
53.93 54.10 54.01 54.28 54.73 54.99 55.62 55.84 56.05 55.77 55.62 55.06 55.12 55.39 52.69 47.54 48.95 59.92 64.41 63.09 57.74 53.25 49.34 47.16 46.80 45.20 41.84 43.45 44.19 42.55 45.34 47.68 49.03 49.04 47.91 50.68 47.69 47.17 48.80 52.46 52.66 52.97 53.41 52.78 52.79
54.54 53.97 53.69 53.71 54.34 54.72 55.46 55.49 55.63 55.53 55.04 54.78 54.65 54.74 50.69 44.77 56.97 62.93 60.71 58.25 54.11 49.73 48.00 47.17 47.53 48.59 46.14 44.41 42.83 45.78 46.33 46.84 47.40 47.69 48.07 46.41 47.34 46.64 49.07 52.58 51.78 51.81 51.38 51.97 52.61
54.72 54.44 54.34 53.56 53.82 54.11 54.69 54.76 54.65 54.90 54.64 54.62 54.47 53.63 50.21 48.05 57.51 59.79 56.09 54.29 55.98 54.01 50.50 51.18 51.46 48.37 47.89 45.47 48.20 48.73 44.67 46.55 46.59 46.13 45.76 47.45 44.56 45.13 48.77 50.36 50.10 50.41 51.21 52.01 52.44
54.91 54.51 54.50 54.02 53.47 53.74 54.16 54.10 54.22 54.55 55.02 54.84 54.20 52.40 47.08 57.74 57.16 55.55 55.76 55.20 56.46 55.15 53.31 53.70 52.62 49.17 46.73 48.59 47.97 44.67 43.28 36.97 43.63 46.62 47.58 45.86 39.31 47.07 49.55 48.22 48.17 49.66 51.30 52.33 52.46
55.26 54.87 54.67 54.39 53.75 53.40 53.57 53.55 53.67 54.99 56.15 54.57 51.39 49.95 47.79 59.17 55.16 55.31 55.57 54.57 54.42 54.76 54.09 54.23 51.48 47.07 47.46 42.33 39.53 41.13 35.36 38.10 41.63 46.99 46.26 44.03 40.77 47.25 49.31 48.90 47.40 48.05 49.63 50.84 51.21
55.34 54.91 54.73 54.65 53.98 53.44 52.62 53.07 53.90 54.16 54.17 54.60 54.32 48.79 52.87 52.09 54.77 55.36 53.14 54.01 53.80 52.86 50.30 49.34 45.89 41.93 40.97 38.08 32.34 36.13 37.30 39.87 40.85 45.22 46.08 42.65 42.54 46.06 48.24 48.46 47.98 47.95 48.75 49.58 50.49
55.71 54.97 54.65 54.47 54.06 52.64 51.39 49.35 50.00 48.96 51.52 49.47 49.99 50.74 53.42 56.05 56.05 52.60 53.37 53.21 53.50 50.15 43.47 46.73 40.13 36.98 40.46 43.50 44.41 44.02 41.83 40.32 44.12 47.56 44.93 42.21 42.07 44.67 46.55 46.55 45.92 46.94 48.14 48.63 49.47
55.38 54.99 54.69 54.34 53.55 52.64 50.53 46.54 51.92 52.41 45.79 53.21 54.95 53.01 56.48 55.83 51.11 53.05 54.30 48.83 48.13 43.06 45.53 43.65 39.29 45.21 47.31 46.71 45.30 44.24 40.93 39.94 43.81 46.49 43.18 42.36 42.16 44.80 46.35 46.64 47.25 47.71 48.37 48.81 49.88
54.69 54.41 54.35 54.02 52.68 50.47 48.40 50.53 56.23 56.03 45.00 50.31 54.45 53.49 53.81 53.58 50.10 50.89 51.84 49.74 46.76 44.06 44.46 41.45 45.24 49.07 47.42 44.58 43.66 41.67 40.02 40.65 40.97 44.54 44.38 42.73 39.96 42.86 46.82 47.88 49.10 49.34 49.79 50.30 49.94
54.33 54.02 53.88 53.10 49.72 52.28 51.87 57.10 56.48 55.62 40.28 47.62 49.47 52.95 54.56 52.73 48.55 54.24 53.39 49.95 47.05 43.83 45.32 44.32 47.85 47.22 46.13 44.33 44.12 38.48 44.72 44.87 43.65 40.23 33.65 42.71 30.91 40.26 44.55 45.90 47.97 48.78 47.84 49.22 50.17
54.04 54.00 53.64 52.48 46.89 48.80 54.27 54.42 54.40 52.89 34.91 49.34 49.75 54.32 52.85 49.05 50.47 50.39 54.52 50.34 45.03 44.72 44.26 42.72 44.44 44.78 44.31 44.89 46.39 42.44 46.49 44.61 43.50 38.87 37.32 39.19 33.78 38.64 43.82 44.24 46.46 47.44 48.73 48.83 50.13
53.70 53.88 53.14 50.96 49.45 52.18 55.32 56.05 52.78 41.37 36.33 47.37 49.62 47.58 47.29 48.77 49.68 50.88 50.75 51.12 50.04 45.40 45.01 44.69 48.77 47.43 46.35 47.78 47.62 48.75 44.36 42.42 40.46 36.99 30.31 37.99 36.93 37.51 42.42 44.08 46.22 47.52 48.68 49.57 50.09
53.23 52.96 51.44 51.31 49.53 55.25 55.76 50.84 41.24 38.26 50.42 45.95 46.16 47.70 45.86 45.00 46.68 47.76 45.80 43.79 39.85 36.15 37.03 43.78 44.62 48.10 49.91 44.31 47.36 46.03 38.36 29.55 27.83 28.78 31.02 42.33 38.68 40.48 46.26 47.45 48.54 46.61 47.52 48.50 49.25
52.51 50.88 50.95 52.23 53.90 54.86 52.92 45.34 36.44 45.88 45.68 49.60 48.12 47.49 44.62 47.20 46.95 47.67 45.32 41.55 45.53 44.06 38.35 36.17 35.56 45.24 49.18 46.94 44.03 43.86 41.61 33.75 29.51 27.49 32.35 42.07 36.89 41.24 47.78 48.55 48.54 49.09 48.19 48.82 47.97
50.80 50.69 53.07 56.60 56.37 54.91 48.30 41.27 40.76 46.10 47.68 45.79 46.22 43.01 43.12 47.62 47.26 46.43 44.54 43.27 45.41 46.12 39.35 37.01 38.90 48.47 49.40 49.88 47.82 43.21 39.00 43.63 35.56 37.07 30.62 36.03 41.19 45.20 47.59 47.04 47.70 47.39 47.88 45.31 46.52
47.18 48.23 52.17 59.19 58.29 53.46 44.97 42.18 46.44 50.74 48.52 47.12 41.48 45.13 41.69 44.03 44.29 44.83 43.20 47.32 45.83 46.88 46.60 42.41 35.38 45.41 47.64 48.70 48.92 44.55 45.79 35.00 35.57 27.72 25.06 34.07 36.50 36.19 40.35 42.12 44.11 43.05 42.44 43.97 45.33
46.93 48.54 55.74 58.06 57.20 48.50 40.54 45.44 48.60 50.53 49.28 45.68 43.41 42.12 42.68 42.72 43.01 42.24 43.54 47.28 48.07 46.30 45.67 42.69 39.16 39.99 43.38 42.50 41.71 41.33 39.03 40.38 37.82 35.09 27.25 26.08 31.46 42.58 41.52 41.23 40.66 42.59 43.53 44.72 45.75
47.13 45.38 56.13 57.29 46.05 47.16 45.64 48.20 49.61 48.92 50.03 48.14 46.71 44.90 42.88 43.26 41.40 41.38 41.95 45.73 50.26 48.81 42.87 44.93 38.69 34.24 38.69 45.27 47.88 45.61 42.07 40.81 34.63 33.18 35.03 30.59 32.74 44.54 43.35 43.04 43.74 43.66 45.33 45.58 45.30
43.66 47.24 56.37 54.10 40.00 43.23 47.82 48.89 50.04 47.51 47.36 46.05 44.70 45.85 45.22 41.68 38.19 42.61 44.03 48.94 49.73 47.57 43.35 43.92 36.22 30.52 34.36 40.16 43.81 41.95 43.72 43.00 40.70 36.59 31.07 24.60 28.94 44.32 44.47 44.30 44.35 42.66 43.27 44.43 45.44
44.61 43.64 50.17 50.11 48.85 44.33 42.91 44.18 44.70 49.73 47.58 47.39 45.07 45.90 43.19 41.23 42.74 41.22 42.74 47.08 48.65 47.93 49.94 45.80 37.07 34.70 30.56 36.34 39.91 37.41 40.67 42.03 38.99 29.84 31.88 32.34 34.70 39.19 41.56 41.70 42.27 42.31 42.93 43.24 44.02
46.72 45.63 46.69 39.90 43.57 44.33 44.06 44.04 42.66 43.14 46.20 45.84 43.59 43.43 41.18 38.31 40.10 39.67 43.35 43.52 46.93 49.19 44.72 39.66 32.85 36.37 38.34 40.64 41.08 40.37 40.23 40.75 38.30 37.56 32.28 34.52 34.97 38.49 39.94 40.28 41.14 42.16 42.92 42.64 43.05
44.35 43.64 45.52 42.99 45.07 44.54 43.38 42.70 42.64 43.12 42.69 41.24 41.23 42.03 40.57 36.62 40.29 36.98 39.70 40.35 40.27 44.45 41.03 42.09 32.75 36.54 35.74 40.83 40.54 38.42 40.56 40.79 40.62 40.37 38.27 37.57 36.48 40.52 41.73 42.60 41.65 41.07 41.37 40.98 41.32
49.70 49.76 44.76 43.52 42.97 41.91 42.55 43.36 43.18 43.74 44.34 44.50 41.86 40.10 39.82 41.75 43.55 42.27 41.90 41.70 41.63 40.74 41.45 39.02 35.84 34.66 30.44 39.07 38.80 33.33 39.52 41.62 42.61 40.77 39.42 33.45 36.26 40.84 39.59 40.04 39.40 39.79 40.48 40.06 40.90

GFSSW_sfc_wetblb_090.txt.gz
Wetbulb
55.77 56.12 56.48 56.72 57.10 56.93 56.87 56.90 56.77 56.16 56.34 56.09 56.03 55.79 55.91 55.72 55.16 50.40 46.12 51.50 52.90 59.08 61.52 52.76 51.00 48.34 46.26 42.03 43.71 43.86 35.06 32.67 35.07 38.96 41.37 48.56 46.70 51.88 55.98 57.36 58.00 57.67 56.01 57.03 59.23
55.20 55.37 55.47 56.04 56.52 56.72 56.59 56.65 56.65 56.77 56.14 56.21 56.09 55.81 55.42 55.50 50.43 47.42 53.57 58.32 60.22 63.20 52.96 49.25 44.37 45.51 42.87 40.36 40.54 39.11 32.93 36.37 41.84 42.85 41.84 46.14 46.58 49.25 48.92 53.87 56.67 56.96 59.28 59.04 58.46
54.32 54.59 54.78 54.78 55.13 55.84 55.68 56.16 56.37 56.64 56.37 55.64 55.82 55.26 55.56 55.02 46.40 49.93 62.39 60.31 62.76 63.89 51.90 49.64 46.49 44.65 41.02 39.86 40.29 39.02 37.90 41.45 43.62 45.34 46.40 46.02 47.17 49.77 47.91 51.27 56.83 56.40 56.06 55.77 55.16
54.35 54.25 54.38 54.46 54.42 54.72 55.04 55.66 56.03 56.40 56.00 55.32 55.06 54.84 55.76 51.62 36.83 53.14 65.84 62.94 64.34 57.54 49.24 44.94 43.02 39.00 39.69 38.83 40.94 36.73 42.50 44.18 45.32 46.73 46.48 45.00 49.30 48.33 50.01 51.12 58.76 59.65 55.44 53.19 52.27
54.56 54.40 54.36 54.20 54.23 54.34 54.45 54.85 55.47 55.56 55.51 55.04 54.82 54.43 51.92 46.00 46.70 55.16 64.94 64.10 59.87 52.54 47.91 44.52 41.97 42.82 39.83 41.31 41.92 39.48 42.28 44.80 46.20 46.23 46.18 46.99 46.80 48.29 47.25 52.55 57.56 57.40 57.01 56.06 51.29
55.46 55.10 54.97 54.79 54.34 54.53 54.81 54.70 54.87 54.66 54.89 54.81 54.67 54.01 49.67 43.83 54.31 58.95 59.38 57.30 54.09 49.54 46.74 45.04 45.07 46.57 43.49 42.85 41.22 43.28 44.00 44.72 45.58 45.08 45.08 46.11 46.93 46.53 48.94 50.78 52.98 51.25 51.63 51.52 51.69
55.85 55.73 55.33 55.21 55.05 54.70 54.78 54.25 54.13 54.17 54.30 54.86 54.30 52.68 48.86 47.06 56.53 60.99 57.32 52.19 52.51 50.76 47.94 48.68 47.90 45.71 44.55 43.91 45.83 45.42 41.28 43.92 44.81 44.09 43.77 47.54 44.05 44.36 47.91 48.69 48.90 49.97 50.35 50.99 51.00
55.99 55.73 55.41 55.49 55.40 55.09 55.07 53.99 53.39 53.45 54.33 55.66 54.36 51.97 45.38 55.60 55.28 54.48 53.97 53.13 54.11 52.57 51.49 52.26 50.05 46.48 45.25 46.04 45.62 41.93 40.64 35.90 41.48 44.30 45.71 44.83 40.41 45.43 47.72 46.41 46.48 48.31 49.49 50.61 50.89
55.91 55.55 55.67 55.43 55.21 54.83 54.80 52.46 53.20 54.20 55.56 55.69 50.65 48.19 45.93 57.80 54.35 56.62 56.16 53.12 54.02 54.05 52.94 54.91 50.00 45.89 45.20 39.95 37.23 37.72 33.84 35.50 39.84 43.60 43.44 42.55 39.84 45.85 47.47 46.57 45.84 46.06 47.86 49.51 49.70
55.83 55.41 55.43 55.30 55.20 54.82 53.76 52.81 53.16 53.76 54.26 53.68 53.14 47.27 50.36 51.03 53.92 55.80 53.14 55.15 52.86 51.90 49.82 47.63 45.25 40.54 38.54 36.87 31.20 34.56 34.93 37.74 38.61 44.87 44.54 42.29 41.83 44.75 45.64 46.61 46.49 45.34 46.68 48.01 48.96
55.45 54.63 54.53 54.41 54.49 53.86 51.06 47.08 48.24 47.44 49.20 46.91 48.25 48.23 51.60 55.87 56.48 53.15 52.94 50.30 50.41 48.73 41.33 43.60 38.66 35.87 38.98 40.88 41.37 40.57 39.40 38.46 41.69 44.79 42.94 41.05 42.87 43.74 44.20 44.67 44.55 44.48 45.50 46.54 47.97
54.64 54.19 54.10 53.72 54.17 53.68 50.66 44.45 49.53 48.86 44.26 51.10 52.59 51.50 53.89 54.72 50.84 50.93 51.86 46.87 47.00 42.25 43.75 40.43 37.05 42.70 45.04 44.41 42.92 41.53 39.68 39.00 41.65 45.08 42.14 42.05 41.51 43.77 44.16 44.60 45.21 45.89 45.69 45.95 46.57
53.80 53.76 53.62 53.59 53.64 49.78 46.52 47.46 52.34 52.89 43.20 48.50 52.43 51.97 52.94 53.72 50.76 49.69 49.90 47.85 45.63 42.62 42.32 38.39 41.82 46.57 45.29 43.73 42.39 40.71 38.45 38.53 39.15 43.04 42.46 40.42 38.27 40.57 44.70 46.02 46.89 46.17 46.61 47.61 47.22
53.78 53.49 53.14 52.83 49.59 47.67 47.94 53.75 52.97 52.17 37.84 44.82 48.63 52.06 53.64 52.29 47.39 53.43 51.82 48.47 45.35 42.56 43.15 42.19 46.50 45.27 44.36 43.32 43.59 37.77 43.53 43.01 42.51 38.32 32.95 40.90 30.01 37.48 42.10 43.57 45.37 46.00 45.79 47.29 48.98
54.11 54.11 53.20 52.85 46.18 45.41 52.12 51.43 53.27 49.68 33.65 50.39 49.15 55.01 53.14 49.25 48.87 49.33 52.29 48.83 43.37 43.49 42.82 41.14 42.67 42.23 41.73 44.29 45.91 41.30 44.67 43.27 41.76 36.56 33.95 36.50 32.06 35.91 40.84 41.30 43.22 44.93 47.10 46.96 48.21
53.75 53.93 53.39 48.56 47.29 48.70 52.29 52.53 49.40 40.00 33.91 47.01 48.76 46.76 46.34 47.94 48.76 49.77 48.90 50.29 49.20 44.41 43.55 43.38 46.97 44.71 44.46 47.93 47.28 48.31 44.23 40.73 37.79 34.72 28.92 34.61 34.23 33.53 38.36 41.32 42.95 44.76 46.66 47.92 47.96
53.59 53.32 51.76 51.00 44.77 50.39 49.76 48.57 38.44 35.91 49.29 45.27 44.42 46.43 44.36 43.44 45.61 46.55 45.00 42.39 39.06 35.24 35.35 41.14 42.53 45.87 48.55 43.81 46.22 44.58 37.15 28.38 28.02 27.89 28.12 40.02 37.10 37.48 43.58 45.78 45.32 45.11 45.91 47.92 48.22
52.62 51.58 49.11 50.56 49.03 49.01 49.57 43.84 32.86 43.85 45.56 50.45 46.82 45.57 42.06 44.17 44.80 45.35 42.72 39.11 42.30 39.86 36.12 34.60 33.72 43.86 48.26 45.07 42.77 41.83 38.48 32.33 27.05 27.69 32.24 40.79 35.97 39.14 46.59 47.72 47.01 47.28 46.48 47.12 46.71
50.88 45.92 46.81 51.52 51.15 50.10 46.27 37.47 38.94 44.92 47.49 45.05 45.63 41.76 40.74 46.66 45.46 45.78 42.60 42.18 43.63 42.75 37.07 35.82 37.48 47.17 47.91 47.92 46.24 41.97 37.09 42.19 35.81 36.66 31.57 36.27 40.27 43.29 45.94 45.74 46.11 45.57 46.37 44.76 44.78
46.46 44.13 46.99 53.96 53.62 49.68 43.16 40.18 45.16 50.34 48.25 46.10 39.95 43.02 38.76 40.92 43.17 42.82 41.93 46.56 45.51 46.41 44.75 40.42 34.53 43.23 46.01 46.94 46.79 43.85 45.60 35.48 33.75 26.68 25.63 33.76 36.31 36.06 39.23 41.01 43.58 42.42 41.59 42.52 43.64
42.80 44.11 52.67 55.33 53.85 45.80 38.74 41.23 47.71 51.97 50.16 44.95 41.79 39.97 40.59 39.96 40.11 41.49 42.93 46.06 46.87 45.39 44.09 40.32 36.82 37.81 41.93 40.45 39.68 39.62 38.31 39.32 37.13 34.83 26.16 26.74 32.33 42.13 41.55 40.25 38.81 40.15 41.37 40.67 41.32
42.36 40.27 53.28 54.02 43.71 43.20 41.94 48.16 49.55 48.76 51.11 47.20 45.01 43.19 40.77 41.34 39.69 39.03 40.71 44.63 48.66 47.34 40.78 42.08 36.84 32.56 36.54 42.57 46.16 42.59 41.59 40.52 33.54 30.86 31.72 29.02 31.40 43.58 41.70 41.48 40.15 39.57 40.73 40.78 40.84
39.07 41.15 51.39 51.11 38.68 39.43 44.67 48.26 49.05 48.07 46.46 45.17 43.26 44.01 43.05 39.28 35.81 40.96 42.39 47.04 47.84 44.92 41.35 41.48 34.74 29.50 31.58 37.33 41.45 38.58 42.30 41.75 39.37 34.80 31.28 27.90 30.77 43.11 42.05 39.87 40.03 39.20 39.53 40.96 42.49
40.28 38.95 44.87 46.25 45.53 42.11 41.61 42.65 43.09 47.65 45.74 45.63 43.85 44.54 41.61 39.19 40.17 39.10 41.53 45.18 47.89 47.31 50.57 45.07 36.34 33.29 28.48 34.19 39.17 37.23 39.90 40.53 38.80 29.24 31.76 32.37 34.73 37.62 38.25 38.18 38.78 38.81 39.59 39.68 40.33
42.03 41.72 42.08 38.56 40.76 40.77 42.09 42.39 41.46 41.89 44.58 44.05 41.72 41.08 39.05 35.26 36.28 37.59 40.15 41.64 44.76 47.80 43.22 36.94 31.50 34.41 36.74 38.77 39.51 39.37 39.52 40.45 38.90 38.34 31.76 36.40 33.33 35.87 37.19 37.45 37.22 38.67 39.56 39.57 40.26
41.37 40.91 43.27 40.70 41.94 41.19 41.61 40.69 41.46 41.29 41.14 39.92 38.67 40.19 38.79 34.89 36.62 34.83 37.34 39.76 37.27 42.04 39.11 39.61 31.22 34.58 33.98 39.04 39.37 37.67 39.37 39.73 39.75 40.22 39.25 36.42 33.77 38.77 38.48 38.01 38.18 38.23 39.20 39.19 40.00
47.71 47.88 42.28 40.08 39.69 38.27 39.34 41.89 42.41 41.62 42.88 42.75 40.27 37.68 36.61 38.50 39.78 39.34 39.22 39.60 39.25 36.85 40.16 39.89 33.92 31.18 29.06 38.45 37.28 31.43 38.11 39.60 39.27 38.97 37.37 33.15 35.46 37.24 36.60 37.81 37.48 37.17 38.33 39.90 40.65

GFSSW_sfc_wetblb_093.txt.gz
Wetbulb
55.14 55.10 55.21 55.37 55.57 55.78 55.87 56.42 56.61 56.21 56.28 56.33 56.18 56.11 55.73 55.41 54.78 49.36 45.04 49.89 52.15 57.72 60.49 51.36 49.49 46.96 43.88 40.49 42.11 41.83 34.11 29.49 33.49 36.97 37.98 44.77 44.30 48.68 51.96 50.19 51.04 57.89 55.46 56.20 67.07
54.71 54.73 54.81 54.89 54.72 54.94 55.19 55.47 56.15 56.48 55.88 55.77 55.83 55.68 55.45 55.56 51.03 47.46 52.87 56.63 59.00 59.99 51.39 47.85 42.12 45.02 41.53 39.15 38.82 37.28 30.75 33.88 39.01 40.65 39.51 42.92 43.98 45.21 47.27 48.16 48.37 55.79 58.69 59.61 60.26
54.99 54.81 54.63 54.70 54.67 54.59 54.49 54.71 55.51 56.32 55.82 55.57 55.23 55.09 54.64 54.59 45.55 46.19 58.79 58.81 60.81 61.68 51.29 49.51 45.51 43.61 38.81 37.83 37.78 37.02 34.42 38.63 40.95 42.85 43.35 43.63 44.33 45.83 45.76 44.87 48.00 51.95 56.66 57.77 54.62
55.53 55.74 55.75 55.63 55.26 54.89 54.72 54.59 54.84 55.40 55.63 55.07 55.09 54.83 54.49 51.60 36.77 50.71 65.97 61.87 61.60 59.63 50.20 44.61 41.48 39.17 38.16 39.03 39.92 34.32 40.12 40.78 42.92 43.52 43.73 42.51 45.23 44.94 45.95 47.33 50.83 54.21 58.47 55.83 55.23
55.99 56.23 56.17 55.90 55.78 55.66 55.44 55.03 54.81 54.72 54.80 54.39 54.62 54.56 50.47 44.29 45.71 53.74 66.15 62.69 58.71 54.15 46.81 42.40 40.41 39.48 38.02 39.56 40.23 36.52 39.74 41.70 43.09 42.87 42.41 44.47 43.19 44.45 45.08 49.20 51.15 55.49 58.05 56.73 56.95
56.18 56.11 56.13 56.03 56.03 56.04 56.03 55.61 54.85 54.10 53.60 53.89 54.63 53.88 48.51 42.33 52.65 55.41 60.45 58.37 55.30 48.34 45.43 43.10 42.37 44.09 41.43 40.61 39.89 42.39 42.53 43.82 43.94 42.34 42.05 42.54 43.93 44.39 46.54 50.26 51.58 54.74 55.45 58.44 58.75
56.28 56.24 56.29 55.52 55.50 55.53 54.90 55.05 54.64 53.97 53.26 53.80 54.93 52.05 47.99 45.11 55.81 56.76 56.71 52.93 51.41 50.27 46.12 46.60 46.16 44.42 42.91 41.22 44.37 44.45 39.41 41.44 42.04 42.28 41.22 43.94 41.01 43.05 48.17 49.06 48.59 50.80 49.38 55.44 55.26
56.39 56.14 55.48 55.10 55.20 55.03 54.97 54.41 53.77 52.99 53.49 54.42 55.50 51.03 43.43 53.72 54.29 53.27 52.68 52.04 52.05 50.97 48.78 49.17 47.35 43.01 41.84 44.08 44.18 39.88 38.49 34.48 40.81 42.00 43.15 43.30 36.97 44.00 47.09 47.34 46.50 47.08 47.84 48.51 50.19
55.92 55.44 54.73 54.75 54.75 54.88 55.15 54.44 53.67 53.80 54.57 55.97 49.65 48.28 43.15 56.60 53.28 55.40 54.19 52.38 52.13 51.26 51.07 52.81 47.77 43.42 43.29 38.79 36.23 35.44 32.37 33.90 38.63 41.99 42.12 40.56 38.49 44.31 46.66 45.17 45.57 45.86 46.30 47.27 47.96
55.08 54.43 54.11 53.85 54.01 54.46 54.18 53.34 52.67 53.71 53.74 52.98 52.34 45.11 48.08 49.43 53.85 55.98 54.79 54.89 51.66 50.65 48.98 47.02 42.71 39.63 36.97 35.91 30.77 32.63 33.12 35.93 36.59 41.37 41.30 39.45 39.45 43.99 45.30 44.53 44.57 44.81 45.15 45.67 47.10
54.61 54.14 53.99 53.64 53.68 53.54 52.54 46.34 47.09 45.87 48.20 44.79 46.33 47.10 49.76 54.09 56.43 52.73 52.37 51.43 50.50 46.73 40.65 42.15 37.29 35.35 37.69 38.74 39.84 39.01 37.30 36.35 40.47 43.92 39.99 39.50 39.40 41.20 42.80 43.88 43.82 44.15 44.62 44.09 45.25
54.20 54.05 53.79 53.44 53.37 53.05 51.57 43.58 47.78 47.23 43.52 49.53 50.46 49.82 52.76 52.96 49.83 50.66 50.67 44.60 44.36 40.58 41.91 38.65 36.04 41.14 42.59 42.07 40.67 39.41 37.15 37.08 39.93 42.94 40.21 40.01 40.25 41.25 41.77 42.68 43.22 44.43 44.56 44.74 43.85
54.61 54.05 53.81 53.50 53.28 49.62 45.73 46.79 51.02 50.46 41.99 47.15 50.56 50.35 50.84 51.92 49.34 50.35 47.97 46.41 44.10 41.40 41.15 37.45 40.57 44.57 43.07 41.06 39.86 39.47 36.77 37.65 37.33 41.16 40.92 38.80 37.12 39.10 43.24 45.03 46.31 45.90 45.29 45.69 45.95
54.35 54.08 53.46 53.05 48.62 45.75 46.01 51.63 51.72 49.89 37.04 43.27 47.49 50.67 52.56 51.95 47.04 53.43 49.88 47.51 43.94 41.44 42.09 40.65 44.79 43.51 42.42 41.00 41.84 36.98 43.13 41.97 40.88 37.23 32.04 38.95 29.18 36.17 40.56 42.35 44.01 44.23 43.86 45.48 47.15
54.15 53.61 53.87 52.90 48.07 44.36 49.89 49.25 49.50 48.01 30.29 48.72 47.86 54.31 51.83 48.19 48.22 48.12 51.11 47.74 42.42 42.55 41.94 40.42 41.39 41.18 39.86 41.68 44.33 39.48 43.83 41.74 40.77 34.90 33.36 34.38 30.88 34.81 38.54 39.48 41.92 43.83 45.80 46.38 47.71
53.78 53.34 53.34 49.35 48.39 48.24 50.13 49.77 48.03 38.82 32.45 46.09 47.37 46.69 45.88 47.88 48.22 48.29 47.45 49.38 47.86 42.97 42.26 42.03 46.05 43.76 42.75 46.68 45.99 46.78 41.89 38.89 36.12 33.78 27.76 32.86 32.26 32.34 37.56 39.68 41.64 43.65 45.05 46.78 46.90
52.72 52.40 51.20 51.62 44.02 47.94 47.72 47.07 37.08 33.50 47.83 45.06 43.27 44.85 43.70 42.92 45.39 45.55 43.42 41.67 38.43 34.48 34.42 40.24 40.92 44.65 47.35 43.39 45.21 42.59 35.91 29.29 26.90 27.67 26.76 37.71 34.77 35.48 42.07 43.25 43.63 43.35 44.42 45.35 46.12
51.77 50.95 49.57 50.03 49.97 50.04 47.46 42.65 32.26 42.09 44.86 49.08 46.47 44.19 40.87 42.75 42.56 44.03 41.82 38.44 41.47 38.92 34.36 33.30 32.84 42.92 47.19 44.41 41.70 40.04 37.39 30.27 25.36 26.60 29.63 38.32 32.52 37.57 43.99 45.05 46.18 45.33 42.81 43.46 43.64
50.89 45.67 44.27 47.80 49.68 47.73 45.28 36.11 36.94 43.56 47.62 44.41 45.16 40.29 39.33 44.48 43.82 42.46 40.17 40.08 41.26 41.34 35.16 34.63 36.11 45.98 46.89 47.39 45.67 41.36 34.57 38.46 33.30 34.44 27.76 33.63 37.11 40.62 44.03 45.25 43.19 42.65 42.76 41.56 41.44
47.24 43.13 44.88 50.50 50.96 47.97 41.71 38.89 42.90 49.58 48.98 45.85 39.67 42.49 37.81 39.10 41.75 41.84 41.26 44.89 44.57 44.19 42.58 39.16 33.53 41.81 44.67 45.65 45.36 42.39 43.99 34.49 32.50 26.82 24.18 31.32 33.64 33.75 37.56 37.17 39.57 39.20 38.95 39.99 40.77
42.70 41.54 49.41 52.06 50.67 44.32 37.26 39.20 45.93 50.97 49.70 45.06 41.34 39.41 39.42 38.63 38.77 40.71 41.87 45.24 46.67 45.92 45.09 40.96 36.27 36.55 40.44 38.67 37.65 39.40 36.04 35.68 35.85 32.98 26.59 25.64 31.11 38.29 36.04 37.67 37.40 38.17 39.40 39.26 39.86
40.36 35.84 50.51 51.89 42.17 40.75 39.15 44.17 47.85 48.59 49.71 47.39 45.23 42.60 39.88 40.09 38.19 37.58 39.51 42.82 46.77 45.91 40.66 40.65 35.48 31.91 36.21 40.63 43.88 40.26 39.85 36.98 29.82 31.85 29.93 27.05 31.25 39.41 38.04 38.85 38.59 38.55 40.16 40.14 40.11
39.80 38.72 48.67 49.41 38.34 38.82 42.65 46.14 48.75 46.96 46.47 44.99 43.44 44.17 42.02 38.79 34.68 39.58 41.90 45.56 46.57 43.32 40.88 40.08 32.92 28.73 31.51 35.28 39.63 37.16 39.89 39.98 37.99 37.56 34.00 30.14 29.90 40.88 39.51 38.68 39.26 38.45 39.17 39.63 40.67
39.57 37.82 43.02 46.11 43.59 39.90 39.93 42.03 43.27 46.85 45.15 45.40 43.67 44.00 40.87 37.21 39.10 37.95 40.01 44.17 45.74 46.63 48.20 43.57 34.95 31.96 28.45 31.08 36.10 34.98 38.21 40.26 39.36 31.38 30.70 32.49 33.29 36.49 37.77 37.49 38.33 37.78 38.01 38.29 38.99
38.97 39.82 41.21 36.76 41.12 40.60 39.49 41.44 40.93 41.19 44.24 44.14 41.00 40.66 38.88 34.60 34.86 36.43 38.57 39.92 43.20 45.82 43.41 39.30 32.71 33.14 35.00 37.49 37.65 37.46 38.01 39.05 37.29 36.56 33.00 34.53 35.94 35.41 37.17 38.62 37.63 37.73 38.09 38.11 38.36
41.16 42.30 43.01 41.06 42.68 41.21 41.07 39.70 40.60 40.91 41.13 39.73 38.79 39.87 38.69 34.99 35.89 34.31 35.92 36.13 35.97 39.52 38.42 40.68 31.26 33.30 32.59 37.49 37.56 35.82 37.90 38.70 38.17 38.53 38.52 38.44 32.46 37.95 39.74 39.46 37.72 37.74 37.71 37.45 39.16
45.43 47.71 43.41 39.75 39.56 39.13 38.77 40.05 41.57 41.65 42.26 42.49 40.68 37.80 36.66 38.09 39.20 39.00 39.20 38.63 37.74 35.32 35.80 37.33 35.54 33.26 28.99 36.19 36.43 30.44 35.72 37.84 37.72 37.13 35.93 31.36 34.14 36.91 36.31 37.84 37.22 36.65 37.21 38.17 39.34

GFSSW_sfc_wetblb_096.txt.gz
Wetbulb
55.50 55.29 55.10 55.16 55.09 55.02 55.06 55.43 55.79 56.19 56.30 55.71 55.63 55.55 55.52 55.24 55.44 50.83 45.25 48.97 51.74 58.11 58.64 49.63 48.63 45.16 42.96 39.54 41.71 40.51 32.56 29.62 33.06 35.30 37.44 42.60 40.81 46.04 50.30 48.36 49.63 50.81 53.99 56.21 69.82
56.01 56.09 55.97 55.99 55.87 55.70 55.31 55.01 55.37 55.89 56.04 55.79 55.41 55.31 55.21 55.02 50.85 47.69 53.37 56.80 58.44 58.88 50.01 46.60 42.60 43.73 40.02 37.52 37.88 36.08 30.97 33.24 37.30 38.69 37.96 40.16 41.92 42.41 44.80 45.53 45.85 49.08 55.20 62.57 68.42
56.64 56.56 56.50 56.52 56.52 56.20 56.12 55.80 55.37 55.40 55.77 55.69 55.09 55.02 54.88 53.97 45.21 45.28 57.57 58.65 58.89 59.42 50.47 47.99 43.45 43.25 38.03 36.25 35.81 34.42 33.51 36.48 38.75 41.00 41.66 41.55 41.13 43.62 43.32 42.33 45.31 46.35 51.63 55.95 61.69
56.58 56.51 56.41 56.45 56.20 55.82 55.86 55.76 55.97 55.59 55.13 54.83 54.56 54.53 54.58 51.18 35.92 48.62 64.77 59.99 61.55 56.94 48.60 44.20 40.47 37.73 36.37 36.73 37.59 33.28 38.29 39.26 38.81 42.12 42.11 40.05 42.31 42.67 43.66 44.97 48.60 48.88 50.46 53.92 52.74
56.30 56.13 55.98 55.63 55.50 55.40 55.45 55.39 55.46 55.15 54.62 54.18 54.15 54.40 49.64 42.94 44.49 52.57 65.34 60.82 58.50 55.91 47.10 41.57 39.00 38.86 36.89 38.33 38.43 34.95 38.75 40.47 41.73 41.08 40.88 41.95 41.62 41.89 42.22 46.62 48.56 48.69 50.94 54.33 54.31
55.71 56.06 56.26 55.43 55.12 55.05 55.08 54.90 54.57 54.59 54.46 53.91 54.04 54.28 47.66 38.95 50.77 55.23 59.02 56.77 56.43 50.86 44.90 41.27 40.80 41.99 40.40 39.59 38.67 40.76 41.01 41.59 41.48 40.90 40.15 40.64 40.90 42.29 44.43 47.04 46.89 48.19 51.43 55.61 56.37
55.19 55.30 55.60 54.93 54.77 54.69 55.19 54.96 54.57 54.41 54.01 53.56 54.22 52.16 46.93 44.92 54.03 53.55 56.85 54.03 52.08 49.39 45.34 44.78 44.22 43.26 42.07 39.06 42.23 42.03 38.95 40.91 41.24 39.83 40.08 41.63 39.27 40.44 45.85 46.27 46.64 47.88 50.98 52.94 56.38
55.46 54.84 54.62 54.54 54.36 54.44 54.73 54.65 54.26 54.39 53.98 54.01 54.97 50.54 41.04 51.55 52.65 51.83 53.90 51.21 50.94 50.72 47.77 47.59 45.96 42.05 39.89 42.06 42.38 38.21 37.33 33.41 39.55 40.42 41.23 41.56 35.88 42.65 45.04 44.31 45.48 46.88 47.18 48.55 50.52
55.01 54.39 54.23 54.13 54.15 54.07 54.39 54.36 54.18 54.06 55.03 55.03 49.96 47.29 41.78 54.42 52.10 54.21 53.07 51.86 50.34 49.46 48.66 50.78 45.04 41.13 41.30 37.01 34.78 34.95 30.36 32.37 37.34 39.93 39.86 38.30 37.71 43.27 45.23 43.69 44.08 44.43 45.65 46.95 47.64
54.72 54.10 53.71 53.71 53.96 53.89 53.78 53.69 52.86 54.02 53.65 52.77 51.55 43.16 45.93 47.37 52.55 54.85 53.14 53.92 50.66 48.83 46.86 46.19 42.88 37.35 35.37 34.93 28.60 30.43 31.01 33.90 34.86 40.04 39.87 38.10 38.24 42.15 42.76 43.60 44.02 44.41 44.43 45.30 46.08
54.47 54.10 53.55 53.57 53.75 53.44 52.23 47.67 46.92 45.99 47.45 43.39 45.05 45.16 47.98 52.26 54.75 52.07 53.11 51.65 49.89 46.40 39.17 41.23 36.25 34.63 37.83 38.05 38.19 36.92 35.05 34.82 38.74 42.17 38.92 38.09 37.88 40.85 42.22 41.13 41.92 42.84 43.77 45.21 45.28
54.47 55.20 54.20 53.50 53.36 53.36 51.44 44.20 46.31 46.96 41.78 48.05 48.81 48.26 51.30 51.99 48.47 49.98 52.46 45.73 43.96 39.82 41.22 37.67 34.99 41.13 41.11 40.18 38.93 37.56 35.05 35.37 38.86 41.35 39.24 38.55 38.76 40.16 40.76 41.11 41.37 42.52 43.10 44.37 44.61
54.67 54.65 53.81 53.28 53.38 49.05 45.12 46.52 50.57 49.17 40.91 45.61 48.96 48.75 49.35 50.72 47.58 49.19 48.89 44.71 41.82 39.31 39.17 36.71 41.24 43.24 41.35 38.91 37.79 36.99 35.14 36.11 36.70 39.91 39.47 37.53 36.13 37.66 41.65 43.22 45.44 45.22 44.13 45.27 45.22
54.51 53.45 53.01 53.43 47.57 45.32 44.21 50.31 50.37 48.79 36.04 41.30 45.33 48.82 50.50 50.22 46.32 53.19 48.69 46.67 42.93 39.16 40.58 39.51 43.37 42.50 40.03 39.12 39.48 34.49 41.05 41.01 39.30 35.53 30.53 37.29 28.31 35.10 38.23 40.17 43.21 43.53 44.26 45.61 46.52
53.94 53.12 53.28 53.17 48.38 44.59 47.13 47.81 47.72 45.96 29.25 46.38 46.26 52.92 50.55 46.74 46.93 47.66 49.77 46.63 41.66 41.51 41.04 39.31 40.50 40.19 39.19 41.13 42.01 38.98 42.91 40.43 38.44 33.94 31.63 32.88 29.88 33.80 38.22 39.22 41.25 43.50 45.40 45.54 46.40
52.73 52.56 52.84 50.47 47.62 47.71 49.24 48.36 46.16 37.78 31.25 44.15 47.10 45.23 45.26 46.21 46.61 46.10 46.16 48.57 46.85 42.13 41.13 41.34 44.68 42.91 42.24 44.34 44.78 45.55 40.87 37.32 35.07 32.10 26.61 30.81 30.71 31.14 36.41 38.98 41.42 43.23 44.78 44.86 44.84
52.28 51.97 50.71 50.56 43.47 46.60 46.58 45.60 35.73 31.93 45.52 43.85 41.38 44.35 43.09 42.49 44.54 43.43 41.54 40.75 37.97 34.49 34.40 39.77 40.33 43.19 44.78 41.75 44.56 41.74 35.35 28.16 25.72 25.63 26.38 35.37 32.64 33.97 40.82 42.68 43.38 42.73 41.41 41.95 42.82
51.45 50.77 50.27 49.30 49.43 48.80 46.01 41.64 31.53 40.27 42.78 48.47 45.34 42.77 40.59 42.16 42.22 43.13 39.96 36.65 40.05 38.02 33.56 32.49 31.99 41.44 46.57 43.95 40.91 38.94 36.36 29.31 23.71 24.28 27.93 36.65 30.98 36.33 42.14 42.01 42.44 42.07 41.41 41.83 41.43
50.61 45.80 43.55 45.04 49.12 47.99 43.26 35.31 35.97 40.78 46.63 43.08 44.06 39.57 39.19 42.49 41.82 41.10 38.61 38.91 40.42 39.80 34.76 32.42 34.80 44.85 46.14 46.65 45.14 39.65 36.17 39.31 33.90 32.16 27.66 31.42 35.95 39.86 40.40 40.66 41.02 40.67 40.88 39.84 40.45
47.57 43.70 42.77 48.22 49.94 46.17 41.38 38.21 41.04 47.32 47.86 45.18 38.52 41.40 37.99 39.80 41.37 39.51 37.78 42.46 41.08 41.95 41.28 37.70 32.34 40.87 43.56 44.64 43.74 40.46 42.23 33.57 32.72 26.27 23.95 28.98 31.53 31.92 35.80 36.96 38.49 38.47 38.73 39.99 40.32
42.37 39.71 45.71 49.76 48.60 42.97 36.94 38.33 42.96 48.40 49.07 44.51 41.60 40.29 40.30 39.18 40.85 40.10 41.48 43.57 44.92 42.68 41.96 39.17 35.88 35.83 39.85 37.93 37.01 37.52 35.33 35.61 34.47 29.75 26.33 23.89 28.15 36.59 36.76 37.08 36.93 37.71 39.15 38.76 39.72
43.53 35.23 47.87 49.41 41.86 40.33 37.72 42.21 46.09 46.94 49.17 46.34 44.27 42.70 40.94 41.06 38.55 38.78 40.57 42.44 46.14 45.19 40.30 39.92 36.12 32.24 36.01 39.29 42.21 38.72 36.64 35.87 30.37 29.86 26.97 24.55 27.55 38.16 36.72 37.09 37.95 37.91 39.12 39.22 39.94
40.38 38.74 46.52 48.52 37.51 37.81 41.25 44.10 47.43 45.96 45.58 44.66 42.67 43.85 42.75 39.94 35.64 39.41 41.26 44.58 45.27 44.13 42.21 40.94 33.37 29.97 32.78 34.23 38.12 35.93 38.09 37.94 36.72 37.38 33.12 26.27 29.80 38.71 38.57 38.35 39.88 39.07 37.65 38.70 40.13
41.41 35.30 41.11 44.29 45.45 41.49 40.09 40.36 42.34 46.49 45.06 45.00 43.98 44.73 42.06 39.62 39.51 38.24 39.51 43.38 44.58 45.71 47.56 43.55 34.02 31.76 28.33 30.22 34.53 33.34 36.83 37.83 35.82 29.40 31.12 34.62 32.63 36.04 38.30 38.27 38.50 37.04 37.35 37.69 38.54
40.26 37.82 42.47 36.25 41.11 41.14 41.12 41.01 39.61 40.99 44.06 44.63 41.45 41.44 39.42 36.16 36.21 36.15 38.15 39.27 42.36 44.02 41.83 40.25 34.23 33.31 34.02 36.07 36.08 35.97 36.40 37.60 36.33 36.29 33.12 34.11 34.51 35.33 36.97 37.03 37.34 37.52 37.87 37.85 38.39
39.07 41.57 43.62 41.57 42.34 40.84 40.93 39.87 40.54 40.87 40.62 39.73 40.08 40.56 40.23 36.88 36.55 35.52 36.53 36.07 35.29 38.91 36.83 40.34 30.16 31.92 30.73 35.78 36.08 34.47 36.35 37.11 37.12 38.22 37.49 37.79 34.82 36.81 37.96 38.51 37.18 37.29 37.35 37.36 38.50
45.20 45.24 43.76 39.16 39.53 39.24 39.77 40.04 40.40 41.62 42.49 42.97 41.05 37.98 36.60 37.91 39.50 39.06 38.91 38.32 37.25 35.20 34.58 35.54 36.10 33.90 29.06 34.10 34.67 30.81 34.89 36.42 36.86 37.68 36.63 33.15 36.08 36.91 35.89 37.37 36.67 36.55 37.50 37.75 38.08

GFSSW_sfc_wetblb_099.txt.gz
Wetbulb
56.93 56.75 56.66 56.51 56.73 56.66 56.42 56.02 55.49 55.62 56.19 56.32 55.90 55.60 55.85 55.72 55.01 52.97 48.16 54.92 53.93 57.28 58.64 53.37 52.07 49.52 48.16 46.69 48.44 47.35 42.48 39.90 40.42 41.02 42.67 47.36 46.72 50.01 51.81 49.77 50.98 52.97 53.58 58.23 71.50
56.51 56.49 56.29 56.45 56.32 56.20 56.05 56.01 56.15 55.80 55.82 55.52 55.57 55.10 55.32 55.09 51.75 48.85 55.81 57.17 57.72 58.71 52.97 50.17 47.74 48.31 46.21 45.05 45.95 45.47 41.18 41.37 43.83 44.97 44.27 45.67 45.73 46.62 46.51 47.43 48.48 50.56 54.17 65.25 71.75
56.43 56.38 56.15 55.86 55.88 55.73 55.89 55.84 55.92 56.03 55.74 55.13 54.73 54.83 54.94 54.26 48.37 49.60 58.17 59.82 59.00 59.90 53.37 50.57 49.62 48.60 45.47 44.72 44.29 43.65 41.33 42.78 44.19 45.61 46.74 45.63 45.50 47.40 45.97 45.43 48.22 49.87 52.74 54.35 65.64
56.22 56.32 56.17 55.89 55.60 55.38 55.45 55.33 55.51 55.70 55.73 55.26 54.66 54.40 54.48 51.53 42.72 52.65 63.10 60.48 60.35 58.61 52.70 47.71 47.56 45.99 45.13 42.56 44.13 40.87 43.75 43.65 43.94 45.39 46.26 45.05 47.02 46.16 47.38 48.66 51.92 52.44 53.39 53.37 54.33
55.98 55.96 56.05 55.64 55.23 55.10 55.05 55.29 55.28 55.36 55.26 54.75 54.65 54.27 51.81 47.04 47.77 54.49 63.66 61.16 59.38 55.69 50.69 47.33 45.16 45.79 44.53 45.49 43.58 41.64 44.31 45.13 45.99 45.82 46.82 47.29 45.95 46.52 46.97 50.45 52.29 52.24 52.60 52.92 54.17
56.03 55.98 55.57 55.15 54.96 54.76 54.61 54.89 54.91 54.90 54.78 54.88 54.34 54.32 48.81 42.43 54.16 57.21 59.62 59.37 56.73 54.86 49.81 47.74 46.44 48.28 46.78 46.04 45.52 46.61 46.06 46.98 47.60 47.24 46.14 45.35 46.52 46.03 49.44 51.65 51.56 51.62 52.32 54.13 54.84
56.09 56.05 55.53 54.65 54.63 54.48 54.20 54.31 54.12 54.43 54.93 54.88 54.39 52.75 47.05 47.96 56.01 59.99 58.92 56.96 57.09 54.22 49.86 48.32 47.89 47.85 48.44 45.50 47.76 46.63 44.48 46.69 47.44 47.75 46.83 47.06 44.36 45.02 51.04 51.58 50.43 51.40 52.71 55.56 58.31
55.83 55.38 54.66 54.48 54.42 54.48 54.62 53.68 54.26 54.63 55.48 54.43 54.50 51.57 45.14 53.55 55.78 53.85 58.53 55.62 55.94 54.51 51.05 52.01 50.20 47.79 46.60 47.72 46.52 44.72 44.44 41.98 46.75 46.18 45.39 46.11 43.08 48.78 51.36 49.47 49.93 51.52 52.50 53.42 55.91
55.55 54.30 54.33 54.14 54.14 54.64 54.63 54.17 53.90 54.72 55.36 54.64 52.17 47.46 44.93 55.46 52.47 54.68 57.45 52.85 53.24 53.20 52.59 50.90 49.82 46.07 47.37 44.29 42.78 42.58 40.14 40.97 43.45 46.79 45.62 45.05 44.32 49.62 51.53 49.57 50.40 51.90 52.52 53.09 54.69
54.82 54.14 53.85 54.45 54.41 54.26 53.81 53.64 53.47 54.09 54.26 53.24 51.19 43.98 48.89 48.92 53.46 55.03 56.75 53.86 51.11 50.11 48.38 47.85 48.59 45.33 44.25 42.69 36.66 39.19 39.58 40.78 41.29 45.46 46.37 45.65 45.36 48.93 50.16 48.81 50.38 51.92 52.55 52.81 53.13
55.02 54.16 54.50 54.06 53.65 53.23 52.22 50.64 49.03 47.71 48.28 47.66 48.43 46.70 49.74 54.23 56.66 54.08 54.49 53.64 52.65 49.76 45.02 46.84 43.09 40.58 42.86 44.57 43.83 42.43 41.10 40.57 43.79 46.55 44.62 45.77 45.52 48.29 49.76 49.21 49.23 49.86 51.57 52.27 52.64
54.41 54.34 54.12 53.70 53.66 52.86 50.92 46.90 48.66 50.04 44.87 49.54 49.73 49.39 51.99 53.40 48.90 51.82 54.79 49.35 48.50 44.55 45.94 43.06 40.55 44.21 45.67 44.66 43.06 42.29 40.58 41.02 44.08 46.01 45.14 45.36 45.12 47.56 48.46 48.88 50.24 49.71 50.55 51.44 52.09
53.46 53.64 53.46 53.09 53.15 50.67 48.54 48.26 52.80 52.09 45.12 47.86 49.65 49.35 50.52 52.40 48.86 49.95 51.99 49.21 46.44 44.13 43.69 41.94 43.24 46.31 44.07 42.86 41.54 42.20 40.99 41.28 41.32 44.41 46.04 44.40 43.58 45.12 47.71 49.38 51.87 51.96 51.96 52.42 52.00
53.31 53.48 53.52 53.22 49.42 48.94 46.62 51.48 52.42 52.23 42.10 43.51 46.57 50.27 51.44 52.06 47.97 54.49 53.06 49.49 45.96 43.37 43.72 43.25 46.44 44.39 43.38 42.10 43.14 39.57 45.29 43.88 43.22 41.67 39.08 43.94 37.24 43.88 45.85 47.34 50.07 51.35 52.40 52.69 53.98
53.75 53.46 53.03 52.93 48.74 46.21 48.83 51.44 52.12 50.27 31.96 47.14 47.36 54.92 52.28 49.60 50.29 49.27 52.61 49.57 44.38 43.90 44.67 42.20 43.60 43.42 42.66 43.37 45.26 42.58 46.13 44.28 44.13 42.41 41.23 40.93 39.42 43.25 45.88 45.98 48.32 49.84 50.57 51.46 52.57
53.41 53.55 52.93 50.11 49.22 50.12 51.53 51.04 49.99 40.58 31.62 44.88 48.43 46.74 46.77 48.91 48.47 49.24 48.25 50.49 49.27 45.68 45.00 44.69 47.65 46.29 45.65 46.69 46.38 47.30 44.20 42.61 42.27 41.40 36.21 40.96 40.08 40.58 44.45 46.26 48.04 48.83 48.88 49.42 50.00
53.36 52.82 51.37 51.10 45.60 49.91 49.56 47.91 39.43 34.49 45.93 44.50 44.37 46.67 46.14 45.07 46.15 46.57 45.43 43.47 41.58 38.22 38.87 42.99 43.60 46.58 47.12 43.95 47.45 46.16 43.18 36.48 34.67 34.69 34.48 41.68 39.33 42.29 46.82 47.88 50.03 47.99 47.73 48.45 49.57
53.02 51.33 50.37 50.55 51.32 50.45 48.50 43.89 34.17 40.65 42.35 49.37 46.53 46.20 43.38 45.30 45.62 44.81 43.91 41.83 44.28 43.19 40.13 37.66 35.50 43.39 47.46 45.24 44.20 44.52 43.57 37.35 29.74 31.89 35.56 41.55 37.74 43.00 46.24 47.77 48.95 48.16 47.96 48.29 48.40
51.43 50.40 47.52 48.24 51.19 49.77 42.85 38.04 37.03 41.35 46.22 45.62 45.38 41.21 42.27 44.55 45.04 44.71 43.27 42.82 44.55 44.67 39.53 38.25 37.69 46.91 47.99 49.05 48.22 43.43 41.08 43.97 39.00 38.80 37.07 40.24 42.06 43.64 45.58 45.19 45.87 45.78 46.68 46.66 47.29
48.40 45.62 45.44 50.23 50.94 46.89 41.24 38.96 41.87 47.00 48.78 46.28 40.71 43.75 39.54 42.13 41.95 42.59 41.78 45.16 43.91 45.31 47.75 43.37 37.68 44.39 46.36 48.29 47.61 45.86 46.37 39.21 40.32 30.58 29.66 36.66 38.69 40.87 42.28 43.31 44.67 45.18 45.81 46.01 47.04
47.03 41.19 48.22 51.31 50.23 44.06 38.31 40.54 43.96 48.20 48.51 46.06 43.19 41.70 42.27 41.53 43.92 41.53 41.25 45.11 46.57 44.82 46.39 45.41 42.31 40.61 44.11 43.38 42.72 42.92 41.76 41.60 41.84 39.08 33.62 32.29 36.98 44.01 46.05 45.95 44.76 45.03 44.93 45.27 45.80
45.22 37.05 49.49 51.07 42.45 43.84 40.26 43.66 45.07 45.93 48.76 46.97 47.32 44.80 42.91 42.50 41.75 41.89 41.19 43.77 47.00 47.12 42.58 44.95 43.53 38.31 40.44 43.55 45.24 45.17 43.89 44.09 38.03 36.40 38.39 37.02 37.38 43.66 44.30 45.61 45.56 44.69 44.45 45.19 45.79
42.32 41.05 48.71 48.49 38.97 41.18 44.07 44.26 46.02 45.14 46.28 46.20 44.84 45.27 44.68 42.55 39.92 41.84 43.00 45.53 46.85 46.40 44.96 45.89 41.02 36.73 37.87 41.26 43.79 42.06 43.45 43.91 43.35 42.11 37.69 35.05 37.91 43.64 44.20 44.24 44.88 44.13 44.48 44.64 45.67
42.90 36.07 43.06 45.85 47.47 41.13 39.54 41.14 41.76 46.68 45.93 45.58 44.56 45.52 43.71 42.07 43.15 41.00 42.19 44.03 46.31 46.89 47.86 48.48 41.22 39.57 35.64 37.95 41.47 38.95 41.31 43.40 43.26 38.34 38.80 37.82 40.54 41.12 42.42 43.71 44.65 43.96 43.75 44.38 45.18
42.36 38.56 43.56 38.45 40.64 40.77 41.30 40.99 39.91 40.85 44.62 45.53 42.85 42.52 41.75 39.05 38.58 39.11 41.84 42.14 44.40 45.04 44.67 45.08 40.13 40.08 39.47 40.51 40.16 39.90 40.25 41.37 40.61 41.77 38.10 40.39 40.61 44.50 45.29 45.40 45.20 45.76 44.18 43.77 44.26
40.77 40.45 44.42 41.04 42.57 40.44 40.53 39.57 39.11 41.66 41.80 41.61 41.63 42.79 41.42 39.04 39.18 38.58 41.23 41.45 41.18 43.71 43.28 43.26 38.05 39.11 37.16 39.49 40.04 38.40 40.39 41.01 41.17 41.73 41.60 41.78 41.23 47.92 46.50 46.97 44.73 44.09 43.37 43.28 44.09
46.89 47.50 44.64 40.04 40.24 39.12 39.07 39.42 39.48 42.08 42.55 43.46 43.65 41.10 39.22 41.50 43.75 44.76 44.42 43.51 43.44 42.09 40.99 41.45 39.65 37.76 33.50 37.42 38.10 34.51 39.23 40.65 41.32 42.57 42.44 38.70 43.71 44.80 43.33 43.93 44.29 43.26 42.93 42.57 42.89

GFSSW_sfc_wetblb_102.txt.gz
Wetbulb
57.10 57.17 56.99 56.83 56.79 56.80 56.47 56.45 56.47 56.49 56.55 56.25 56.05 56.02 55.76 55.74 55.96 56.64 53.40 58.23 58.23 58.93 58.77 57.45 55.96 52.76 52.85 51.70 52.75 52.00 45.94 44.10 45.26 45.14 46.58 49.53 48.06 51.09 52.52 50.60 51.88 54.28 56.08 58.25 66.20
57.22 57.37 57.22 56.97 56.69 56.51 56.47 56.34 56.27 56.25 56.45 56.25 55.85 55.46 55.46 55.68 55.10 54.16 60.62 61.22 59.85 59.71 55.66 52.79 50.59 50.68 48.74 49.37 50.29 48.09 44.96 45.37 48.10 48.29 47.41 48.27 48.21 48.67 48.09 48.99 49.69 51.14 54.17 57.23 64.84
57.00 57.04 56.88 57.05 56.77 56.32 56.18 55.95 56.17 56.31 56.35 56.50 55.96 55.32 55.14 55.93 52.97 54.06 61.78 61.92 59.87 60.09 55.87 54.19 52.48 50.41 47.84 49.25 48.92 48.22 45.47 48.09 47.66 48.35 48.68 47.84 47.84 49.92 48.50 47.57 50.17 50.37 52.87 56.66 57.50
56.87 56.55 56.66 56.62 56.35 56.04 55.89 55.85 55.85 56.23 56.01 55.68 55.41 55.18 55.08 55.35 46.36 56.20 62.43 61.61 60.43 59.48 54.59 52.11 50.50 47.94 47.04 45.42 49.06 45.21 48.15 47.99 47.78 47.68 48.57 48.10 49.98 49.10 49.59 50.12 52.15 52.92 53.99 56.29 56.77
56.56 56.47 56.39 56.25 55.61 55.61 55.65 55.63 55.33 55.34 55.24 55.18 55.29 54.87 54.27 50.92 51.96 59.25 62.38 61.59 59.98 57.33 52.63 50.39 48.83 48.30 46.32 47.14 47.31 45.42 47.04 48.42 48.99 50.00 50.32 50.87 49.58 49.46 50.18 52.42 53.67 53.62 54.87 55.80 56.78
56.31 56.30 55.94 55.56 55.37 55.37 55.31 55.14 54.96 54.64 54.44 54.75 55.16 54.47 52.08 46.63 57.23 58.28 60.97 59.20 57.67 54.92 52.46 51.19 49.28 49.99 48.33 48.37 47.49 48.96 47.92 49.60 50.75 50.87 50.95 49.41 50.02 49.99 52.05 54.07 52.87 54.33 54.98 56.26 57.17
55.99 56.01 55.85 55.17 55.04 55.05 55.45 55.23 54.50 54.46 54.97 55.71 55.51 53.55 49.12 51.73 58.46 61.49 60.72 59.38 57.95 55.00 51.50 52.28 50.66 49.18 51.12 48.60 51.33 50.16 47.34 49.35 50.05 50.88 50.16 51.65 48.59 48.79 53.04 53.12 53.34 54.09 55.10 56.58 58.67
55.77 55.65 55.45 54.89 54.78 54.92 55.18 54.99 54.44 54.47 55.28 55.63 55.36 52.22 49.32 57.59 59.05 57.95 61.22 58.31 58.81 56.51 54.06 53.84 52.31 50.31 50.99 51.56 49.24 47.64 48.61 45.19 49.65 50.26 50.32 50.16 45.74 50.57 53.21 53.01 52.87 53.99 55.00 56.35 58.58
55.65 55.06 54.40 54.56 55.26 54.96 54.87 54.36 54.18 54.72 55.26 54.96 52.44 51.13 50.10 56.35 53.74 57.09 59.25 56.18 56.25 55.72 54.40 53.62 52.19 49.04 50.19 46.99 45.29 46.59 43.45 44.61 46.71 50.42 49.42 49.24 46.80 50.71 53.62 53.10 52.87 53.99 55.05 55.48 57.43
55.58 54.85 54.66 54.80 54.85 54.44 53.91 53.70 54.08 54.37 54.73 54.62 53.15 47.06 52.99 51.43 55.44 56.66 58.21 57.46 53.73 53.72 51.42 49.62 48.47 45.76 46.97 45.67 40.09 41.39 42.60 44.83 44.88 48.27 49.04 48.20 48.34 51.16 52.58 52.35 52.73 53.72 54.43 55.25 56.32
55.05 54.80 54.52 54.72 54.56 53.51 52.68 54.91 51.63 49.47 50.75 51.53 52.46 51.35 52.17 55.99 59.00 55.37 57.27 55.48 53.81 51.48 46.04 48.40 44.95 42.55 44.69 47.14 47.13 45.64 44.65 43.71 46.27 48.80 47.62 47.95 48.19 50.20 52.00 52.61 52.65 53.68 54.23 55.28 56.35
54.75 54.68 54.56 54.46 54.01 53.29 52.37 51.62 53.03 53.27 48.20 54.25 53.16 53.77 55.55 55.93 52.29 54.86 57.38 51.54 50.17 46.01 47.89 46.47 43.29 47.13 48.11 47.74 46.56 45.79 44.22 43.91 46.33 48.25 48.39 48.23 47.82 50.30 51.22 52.51 54.19 53.56 54.47 55.39 56.37
54.19 54.15 54.21 54.25 53.43 53.12 52.93 51.94 55.37 55.84 49.08 50.75 53.50 52.30 53.19 54.72 51.52 52.88 54.10 52.73 49.45 46.93 47.21 44.90 45.68 48.31 47.12 46.15 44.45 44.81 44.03 44.13 43.19 47.08 48.75 47.73 46.73 48.68 51.37 53.02 54.66 55.34 55.58 56.56 56.46
53.41 53.56 53.82 53.51 51.13 53.35 50.16 54.22 56.68 55.94 44.82 46.37 48.27 52.05 53.75 54.09 50.06 56.08 55.67 52.24 49.84 46.59 47.62 46.52 48.78 46.30 46.18 44.81 45.91 42.21 46.09 45.14 44.36 44.39 41.65 48.63 40.62 47.55 49.85 50.90 53.21 55.12 56.27 57.01 58.63
52.55 53.21 53.58 52.88 50.03 49.51 52.73 55.55 55.69 54.44 33.33 48.84 49.70 57.34 54.96 51.17 52.40 52.41 56.11 52.02 46.98 46.52 47.50 44.75 45.80 45.61 44.66 45.17 47.24 44.30 47.21 46.59 46.04 45.27 45.23 45.03 42.28 46.12 49.69 48.59 52.02 54.38 55.68 57.95 59.08
52.45 52.75 53.52 51.62 51.73 52.95 54.35 54.18 51.48 42.08 32.58 45.22 50.54 49.17 48.86 50.76 51.28 52.91 51.96 52.81 51.74 47.76 47.89 46.99 50.19 48.51 47.32 47.63 48.19 48.81 47.27 46.84 46.46 44.67 39.09 43.89 43.05 43.48 46.77 49.18 52.18 53.61 54.40 55.26 56.20
51.70 52.59 52.73 53.32 48.31 54.83 55.74 50.47 40.68 35.58 45.76 44.85 46.95 49.36 48.58 47.69 48.72 49.09 48.07 46.82 44.60 41.23 41.94 45.21 45.96 48.59 49.25 46.37 48.96 48.06 45.72 39.46 37.27 37.72 37.12 45.12 42.75 44.82 50.18 51.91 53.24 53.47 53.78 54.82 55.97
51.01 50.85 52.69 54.02 55.32 54.54 51.26 44.79 35.44 40.23 42.01 50.30 49.73 49.23 46.44 48.78 48.24 48.18 47.10 44.91 47.70 46.00 43.75 40.77 39.05 45.97 48.82 46.90 45.39 46.15 45.89 39.42 33.05 34.75 37.36 45.09 39.73 45.62 51.77 52.79 54.89 54.79 54.51 54.42 54.82
50.19 53.32 52.46 54.05 54.76 51.79 44.72 35.22 38.40 42.01 45.24 44.33 48.39 45.17 45.94 47.98 47.83 47.37 46.84 45.93 47.31 48.24 42.98 42.03 41.36 47.84 48.67 49.49 48.73 45.24 43.41 47.44 42.11 42.84 39.84 41.54 45.17 48.97 50.58 51.30 52.23 52.15 52.82 52.96 53.35
48.45 48.64 50.14 54.30 54.15 48.60 40.91 35.90 40.97 45.92 47.71 48.16 42.20 45.96 43.24 46.10 45.42 46.13 45.44 48.27 47.23 49.37 50.50 46.44 41.18 46.69 48.21 50.47 50.24 47.86 48.72 41.49 42.87 33.81 32.32 38.74 41.41 42.22 47.24 48.85 50.79 50.90 51.66 52.29 52.75
48.74 44.48 52.30 53.83 51.43 44.90 37.62 38.39 40.72 44.42 48.12 45.09 43.10 43.93 44.95 44.85 46.22 43.94 44.48 47.03 49.34 48.77 50.18 48.75 46.02 44.80 48.32 46.21 44.50 45.45 44.17 45.16 45.06 42.03 35.90 34.70 39.70 48.43 49.62 51.31 50.82 51.55 52.11 52.15 52.01
45.78 40.57 53.27 52.77 42.93 43.95 40.27 41.87 43.18 45.00 47.72 46.22 47.71 45.80 44.31 45.21 45.20 43.86 42.35 46.46 48.66 49.80 45.66 49.03 46.53 41.98 43.57 48.64 49.72 48.94 45.78 45.95 40.17 38.53 41.80 40.82 40.28 49.27 50.91 52.68 52.54 51.78 51.49 51.65 51.59
42.74 42.86 53.43 50.90 37.58 41.25 44.61 43.18 44.77 45.13 45.44 46.25 45.03 47.12 47.55 44.76 41.57 43.95 45.62 47.86 48.19 47.33 46.80 48.70 44.52 38.73 39.58 45.14 47.83 45.33 46.93 47.53 46.77 45.94 40.45 37.74 40.17 48.96 49.73 50.99 52.06 51.02 50.73 50.63 50.64
44.39 38.10 46.68 45.89 46.98 41.25 39.11 39.72 41.07 47.00 46.07 46.78 45.39 46.47 45.59 44.69 46.78 43.02 43.42 45.75 47.75 47.59 49.19 50.83 46.62 43.26 38.90 41.15 45.86 43.34 45.11 47.12 46.43 40.88 41.06 41.37 42.60 46.11 47.71 48.47 50.06 50.74 51.01 50.69 50.56
43.69 41.48 44.71 38.86 41.94 40.62 40.97 42.31 39.09 37.48 45.22 46.52 44.34 44.64 42.74 41.47 43.16 43.11 45.68 45.22 48.15 48.99 48.42 48.20 42.64 45.01 42.34 43.94 43.04 43.97 43.90 45.03 43.69 44.35 41.02 42.56 41.87 47.01 49.32 49.73 50.77 51.88 51.00 50.20 49.65
40.98 40.49 44.09 42.64 43.62 42.29 41.69 40.96 38.70 40.04 40.90 40.92 42.30 44.14 44.78 41.59 43.51 42.17 44.67 45.60 45.02 48.29 47.48 48.52 42.45 44.22 40.59 44.58 44.29 42.20 44.05 44.30 44.49 44.26 42.78 44.11 43.96 50.12 50.96 52.54 51.35 51.05 49.92 49.34 49.79
48.21 49.23 41.35 40.63 41.62 40.35 39.89 39.60 37.92 37.71 42.91 42.92 43.89 44.50 43.04 42.55 44.74 46.03 47.58 47.14 48.07 46.83 46.21 45.94 44.12 41.68 37.88 42.06 41.40 38.08 42.16 43.31 44.58 46.10 45.35 41.84 45.77 49.23 48.95 49.58 50.72 50.45 48.81 48.58 48.17

GFSSW_sfc_wetblb_105.txt.gz
Wetbulb
58.01 58.01 57.75 57.79 57.68 57.42 57.28 56.83 56.78 56.70 56.77 56.79 56.95 56.43 56.17 56.28 56.29 57.81 55.57 60.20 60.40 62.42 58.99 58.68 57.12 56.47 55.35 53.32 54.52 53.92 47.76 45.85 47.71 48.33 49.51 52.75 49.81 53.60 54.08 52.31 52.93 55.12 55.53 60.44 64.35
57.72 57.66 57.55 57.45 57.44 57.32 57.04 56.77 56.66 56.79 56.76 57.14 56.83 56.60 56.08 55.91 55.69 55.63 60.93 64.04 61.42 60.70 55.28 55.49 54.14 54.49 51.35 51.46 52.56 50.32 46.62 47.17 50.91 51.33 49.96 51.76 50.42 51.38 50.51 51.04 51.18 52.51 55.14 57.63 59.80
57.03 57.27 57.16 57.04 57.07 57.12 56.47 56.57 56.61 56.38 56.62 56.78 56.66 56.21 56.16 55.98 54.49 55.52 65.05 63.86 62.75 60.68 57.28 56.45 55.39 53.20 50.00 50.95 50.58 49.91 46.76 50.06 50.74 50.54 51.04 50.31 50.16 51.46 49.99 48.98 51.86 51.81 53.84 55.42 57.60
56.95 56.94 56.99 56.94 56.78 56.47 56.13 56.24 56.15 56.39 56.01 55.88 55.86 56.17 56.05 55.87 47.64 59.69 63.21 63.93 61.94 59.94 56.84 54.61 52.82 50.11 48.77 47.73 50.53 47.31 49.84 50.06 50.98 50.80 49.53 48.80 51.09 50.17 51.09 51.61 53.79 54.07 55.00 55.48 57.13
57.04 56.64 56.76 56.77 56.41 55.82 56.13 56.10 55.96 55.70 55.36 55.25 55.19 55.59 54.90 53.13 53.68 62.57 63.45 62.61 61.58 59.31 55.29 53.25 51.10 50.38 47.64 49.00 49.56 48.23 49.10 50.60 51.02 50.67 50.42 51.58 50.29 50.59 50.90 53.21 54.37 54.55 54.46 54.55 57.30
56.37 56.35 56.32 56.15 55.73 55.68 55.90 55.94 55.79 55.39 54.95 55.08 55.53 55.54 52.69 49.02 60.01 61.36 61.48 60.48 58.45 57.57 54.97 53.95 51.68 52.11 49.78 49.26 48.64 49.85 49.18 49.34 50.60 50.79 51.37 50.26 50.59 51.26 52.32 54.65 53.98 54.14 54.03 55.03 56.52
56.07 55.88 56.02 55.44 55.29 55.44 55.93 55.70 55.19 55.30 55.04 55.33 56.63 54.91 52.07 53.44 60.03 61.11 61.51 59.73 58.82 57.51 53.36 54.39 54.08 51.33 50.84 49.03 51.42 50.15 47.87 49.49 49.22 51.40 51.14 52.56 49.05 49.66 53.48 54.79 53.39 53.41 54.69 55.73 56.64
55.70 55.61 55.93 55.51 55.41 55.59 55.83 54.99 54.58 54.91 54.85 55.96 56.26 53.68 50.29 60.58 61.62 60.59 61.21 59.55 59.78 57.75 55.29 55.26 54.22 51.33 50.46 52.70 50.40 48.36 48.56 45.60 50.07 50.88 51.38 51.08 46.29 51.80 54.29 54.22 53.20 54.52 54.98 55.37 56.99
55.58 55.44 55.46 55.10 55.06 55.53 55.22 54.44 54.55 55.12 55.67 55.37 54.06 51.68 51.41 58.46 56.00 59.25 61.10 57.45 58.26 57.08 56.02 54.90 53.04 49.72 49.77 48.19 46.16 47.31 43.22 45.30 47.19 51.94 50.69 49.84 47.48 52.80 54.54 53.91 53.78 54.97 55.50 55.62 57.61
55.16 55.09 55.09 54.99 55.18 54.99 54.13 53.62 55.42 54.15 55.31 55.43 55.37 48.84 53.93 53.75 57.45 58.30 59.85 59.46 56.51 54.76 52.74 51.66 50.44 46.96 47.12 46.11 40.70 42.93 43.55 45.88 46.10 49.94 50.16 48.93 48.57 52.00 53.71 54.04 53.77 54.52 55.20 55.95 56.63
55.12 55.01 54.66 54.60 54.72 54.13 53.80 55.11 53.29 50.22 51.94 52.61 53.51 53.44 54.67 57.54 58.68 57.04 58.66 57.02 55.19 53.52 48.10 50.09 46.08 43.37 45.51 47.37 46.81 47.17 46.11 44.74 47.84 50.52 49.20 48.71 49.20 51.10 53.51 53.67 53.33 53.92 54.80 55.64 56.79
54.30 54.20 54.25 54.15 54.35 53.89 54.27 51.71 54.82 55.05 48.94 55.29 54.99 55.60 57.05 57.79 53.53 54.95 58.09 53.11 51.21 47.66 50.17 48.25 44.05 47.97 48.03 47.84 47.12 46.97 45.53 45.80 47.88 48.83 49.17 48.63 48.34 51.36 53.07 53.13 54.35 54.66 55.12 55.62 56.74
53.31 53.25 53.54 54.03 53.66 54.30 55.15 53.79 57.15 56.80 49.21 51.33 53.88 53.76 54.86 56.37 52.59 54.36 54.86 53.52 50.02 47.95 48.02 45.66 47.50 48.88 47.95 47.08 46.14 46.58 44.80 45.56 45.01 47.99 49.30 47.64 45.52 48.49 51.84 53.57 54.70 55.99 56.53 57.02 56.69
52.94 52.92 52.67 53.08 51.65 54.88 51.25 56.65 58.30 59.06 44.72 45.96 50.36 52.77 54.72 55.10 51.38 57.46 56.29 53.52 50.90 47.79 48.54 47.38 50.46 48.41 46.88 46.00 47.44 44.23 47.91 46.13 45.72 44.96 41.78 48.10 39.87 46.89 50.50 50.97 53.45 55.52 56.48 57.16 57.77
51.39 51.70 52.53 52.80 52.31 50.34 53.21 56.56 57.34 56.05 32.57 48.65 50.63 57.29 54.72 51.20 52.66 53.14 57.89 53.85 49.13 48.99 49.43 46.87 47.84 46.90 45.81 46.68 48.65 45.74 48.62 47.05 45.55 43.04 44.27 44.97 42.88 46.04 50.35 49.57 52.36 55.16 56.67 58.42 60.24
51.34 51.40 51.85 52.36 54.05 54.67 56.55 56.65 54.69 42.10 32.70 45.01 51.88 50.37 49.80 51.10 51.81 54.04 54.04 55.21 53.74 50.15 49.98 49.19 52.08 49.96 48.46 49.29 49.22 49.45 47.24 46.85 47.01 45.31 38.34 43.39 44.22 44.69 47.30 50.11 52.83 55.39 57.15 58.74 59.25
51.26 51.45 51.23 53.23 49.46 55.97 56.40 52.26 38.74 33.54 45.70 43.98 47.53 50.84 49.86 48.66 49.94 51.14 49.96 48.23 45.91 43.15 43.74 46.84 47.46 49.80 50.35 47.22 49.16 48.11 45.47 39.24 37.81 38.41 37.48 44.94 42.45 45.44 49.99 51.75 54.52 54.74 55.92 57.43 58.26
50.87 50.09 51.84 54.51 56.44 56.48 52.87 44.01 32.45 38.70 41.80 46.38 46.03 47.14 47.38 49.44 49.15 49.70 48.37 45.71 48.83 47.78 45.02 42.49 40.37 47.15 49.68 48.11 45.99 46.29 46.27 40.92 33.77 36.16 39.63 45.72 40.58 43.60 51.13 54.28 55.73 56.57 56.94 57.54 57.81
49.79 53.45 52.99 55.34 57.30 55.45 46.96 36.20 36.71 40.30 42.54 43.04 44.89 42.60 38.82 47.39 48.37 47.77 47.67 46.75 48.19 49.47 43.96 43.11 42.98 48.81 49.74 50.15 49.93 46.48 43.80 48.39 41.97 44.40 39.63 43.00 45.97 50.81 52.78 52.18 54.31 54.71 55.84 56.15 57.02
49.91 50.67 52.79 57.29 57.34 50.83 41.99 36.98 40.57 43.87 43.07 44.31 37.08 43.35 38.56 42.37 44.02 45.59 46.45 49.41 48.33 50.33 51.31 47.11 41.71 48.19 48.75 50.02 49.89 48.26 50.42 41.99 43.22 35.80 35.25 41.30 42.02 43.61 48.72 50.49 52.89 53.37 54.33 55.64 56.15
49.51 46.70 54.15 57.37 55.29 44.60 38.76 40.72 43.11 44.99 43.79 42.41 41.35 40.19 41.16 41.95 40.52 43.94 44.72 49.15 50.79 49.94 50.75 48.99 46.80 45.27 47.99 45.93 44.93 46.18 45.75 46.72 47.04 44.17 37.55 36.18 40.20 49.59 48.26 51.51 52.25 53.61 55.14 55.34 55.26
47.79 42.15 55.53 55.22 42.62 42.45 41.00 42.53 44.21 44.07 45.58 44.23 45.30 43.88 42.29 42.63 39.24 38.62 40.58 46.15 51.44 51.49 46.70 49.69 47.30 39.08 43.69 49.12 50.51 49.52 47.06 48.06 41.13 39.49 43.28 39.93 40.56 50.93 51.92 53.06 52.13 54.40 55.00 55.48 55.39
44.33 45.46 53.28 53.36 37.80 41.00 43.82 43.51 44.97 43.77 44.18 43.32 43.73 44.40 44.98 43.47 41.69 42.30 41.98 50.09 49.46 49.71 47.48 49.83 45.91 40.53 39.31 46.49 49.80 47.21 47.74 47.97 48.77 47.59 42.07 37.39 40.09 50.89 52.00 53.92 54.57 54.21 54.59 54.50 54.35
44.96 40.69 47.75 50.20 48.57 42.95 40.66 41.16 41.74 44.62 43.08 44.42 43.92 45.66 44.42 44.42 46.12 44.62 43.40 45.67 49.83 48.67 50.41 50.48 46.16 43.81 40.37 42.63 46.66 44.72 46.85 48.38 47.86 42.79 41.98 42.47 43.21 47.89 50.40 51.42 52.96 54.13 54.53 54.17 53.77
45.20 42.99 44.85 40.44 42.25 42.20 42.61 41.50 40.21 38.33 44.30 43.00 44.00 44.63 43.58 39.93 42.22 43.94 46.76 46.52 47.57 47.73 48.38 47.05 42.43 46.51 46.03 45.39 42.97 45.57 45.73 46.23 45.06 46.32 40.93 43.93 44.78 47.22 47.62 50.38 52.63 53.78 53.88 53.24 53.02
42.32 42.00 45.11 43.14 44.72 42.81 40.98 40.98 40.22 39.50 37.89 40.79 38.85 42.78 43.15 39.81 43.07 41.64 45.12 45.83 45.90 48.11 46.62 47.14 41.11 44.23 43.44 46.78 46.17 44.02 45.33 45.85 46.90 47.12 45.86 46.01 45.45 52.40 52.92 53.19 52.84 51.62 52.96 52.12 52.44
47.85 49.34 43.89 39.52 42.03 41.03 41.36 41.35 41.20 42.04 41.85 42.29 43.23 40.93 39.88 44.16 46.36 47.12 47.52 48.77 48.77 47.06 45.21 44.78 44.10 40.75 36.83 44.28 43.91 40.44 44.63 45.61 46.27 47.89 46.70 43.12 47.07 50.76 50.02 51.74 51.89 52.61 52.89 51.31 51.94

GFSSW_sfc_wetblb_108.txt.gz
Wetbulb
57.93 58.13 58.08 57.99 58.13 58.04 57.00 56.86 57.23 56.94 56.53 56.64 56.64 56.74 56.53 56.48 56.42 55.72 52.67 57.68 61.55 64.18 58.53 56.86 55.77 55.20 54.81 52.74 53.73 53.68 45.95 44.55 46.07 47.11 48.80 53.18 51.12 53.51 55.09 52.06 53.62 54.71 54.27 60.14 67.19
58.24 57.69 57.85 57.67 57.76 57.91 57.23 56.82 57.08 56.89 56.70 56.56 57.18 56.63 56.09 56.80 53.54 52.96 59.28 63.45 65.97 64.29 57.02 53.88 53.56 53.44 51.70 51.11 51.38 49.43 45.98 45.86 49.72 50.49 50.09 51.72 51.42 51.20 51.00 51.02 51.34 52.94 55.66 57.36 60.70
58.60 57.89 57.49 57.28 57.28 57.44 56.63 56.32 56.54 56.54 56.54 55.86 56.51 56.88 56.83 55.92 51.72 55.06 67.23 65.06 64.46 62.72 57.96 55.82 55.25 53.73 50.33 51.12 49.79 49.33 46.55 49.55 49.76 51.22 51.90 50.32 50.42 51.86 50.47 49.07 51.38 51.38 52.90 54.74 55.58
57.40 57.22 56.82 56.83 56.76 56.86 55.99 56.00 55.94 56.06 56.26 55.87 55.48 55.78 56.30 54.08 45.94 57.70 65.48 65.06 64.69 60.32 57.22 53.89 53.20 51.04 49.24 47.28 49.93 46.55 49.46 49.82 49.98 51.13 50.45 48.92 50.80 49.58 50.62 50.76 53.48 54.25 54.79 54.95 55.17
56.65 56.34 56.38 56.79 56.38 56.41 56.27 56.17 55.74 56.14 56.12 55.93 55.57 55.64 54.48 51.52 51.80 59.97 65.11 64.06 60.88 57.94 54.17 52.69 51.36 50.57 47.91 48.66 49.11 47.40 48.32 49.91 50.83 50.64 50.60 50.55 48.69 48.86 50.03 52.98 54.28 54.38 54.61 53.97 54.80
56.33 56.18 56.24 56.38 56.29 56.21 56.15 56.12 56.06 56.13 55.58 55.56 55.26 55.95 51.56 45.79 59.43 61.07 61.82 61.62 59.56 56.90 54.60 53.74 52.24 52.31 49.75 48.83 47.77 49.63 49.15 49.02 50.08 50.26 50.42 48.69 48.68 50.36 51.35 53.77 53.22 53.64 53.60 54.14 54.46
56.04 55.88 56.02 56.26 56.08 56.18 56.19 55.80 55.21 55.26 55.06 55.08 55.34 55.46 50.85 50.99 60.67 60.65 60.32 60.25 59.31 57.95 55.03 55.08 54.87 51.66 51.05 48.45 50.86 49.69 47.06 48.54 48.66 49.12 48.84 50.84 47.71 48.63 52.49 53.60 53.24 53.90 54.29 54.35 55.33
55.51 55.46 55.71 55.76 55.62 55.74 55.92 55.27 54.93 55.02 55.32 55.73 55.90 54.19 48.41 59.36 60.56 59.56 60.64 59.10 59.82 58.08 56.81 56.20 55.25 52.20 50.42 51.37 49.21 47.18 47.33 43.23 48.25 50.01 48.86 50.14 44.89 50.92 53.48 52.90 52.59 53.41 53.39 54.27 55.65
55.67 55.06 55.13 55.35 55.44 54.93 55.00 54.42 54.94 55.06 56.09 56.33 53.96 52.15 48.78 61.07 56.61 59.93 60.17 57.83 58.52 57.56 56.80 55.72 53.84 50.20 49.17 45.58 44.30 46.41 42.19 43.53 45.06 50.01 49.46 48.45 46.06 50.95 53.97 53.24 53.36 53.84 54.63 55.06 56.24
55.02 54.29 54.26 54.63 54.92 54.65 54.19 54.07 55.11 55.21 54.96 55.58 55.18 48.61 52.23 52.88 57.69 58.58 60.00 59.86 56.81 55.69 52.70 51.59 49.57 46.16 45.72 43.86 38.35 42.69 43.23 44.68 44.25 47.75 49.11 47.85 47.58 50.67 53.68 53.41 53.16 53.98 54.87 55.55 56.21
54.46 54.11 53.42 53.86 54.07 53.74 53.20 53.72 51.93 49.17 51.83 51.20 51.39 50.49 53.60 57.96 59.57 56.74 58.55 57.72 56.49 53.40 46.96 49.56 44.98 41.93 44.18 45.47 45.64 46.35 45.72 44.60 46.35 49.21 48.56 47.88 48.30 49.90 52.44 53.28 52.99 53.78 54.95 56.06 57.07
52.42 53.02 53.72 53.74 53.45 53.04 52.54 50.31 51.22 54.17 47.07 53.39 53.46 53.90 56.55 57.63 53.24 55.20 58.28 52.93 52.27 47.38 48.70 46.86 42.78 47.00 47.60 47.02 45.53 45.62 44.15 44.83 47.57 48.73 49.20 48.60 47.79 50.25 51.89 52.72 53.57 54.30 54.63 55.89 57.52
51.54 52.00 51.92 52.73 52.79 51.86 53.28 54.85 55.43 55.85 47.23 48.88 51.52 50.86 53.65 55.72 52.47 53.39 55.74 53.23 50.43 47.75 47.31 44.84 46.91 49.04 47.73 46.28 44.80 44.88 43.85 44.68 45.25 47.73 48.68 47.49 45.85 48.00 51.16 53.03 54.26 54.91 55.98 56.34 57.79
51.43 51.55 51.90 52.03 49.71 53.10 50.35 54.80 56.31 57.48 41.61 43.28 47.61 51.25 52.27 53.56 49.95 56.17 56.72 53.45 50.86 46.93 48.03 47.49 50.27 48.73 46.85 45.52 45.83 42.51 47.11 46.76 45.98 44.61 40.45 47.55 39.05 46.31 48.78 50.51 52.40 53.99 56.00 55.87 57.34
51.52 51.71 51.77 51.42 49.04 47.85 52.39 56.18 55.97 53.65 28.72 45.96 50.43 56.40 54.36 49.69 51.42 51.84 57.14 53.41 48.34 48.49 48.42 46.16 47.49 47.14 45.92 45.89 47.56 45.07 48.82 47.16 46.44 44.39 42.99 42.83 41.36 44.40 48.43 47.40 50.70 54.21 55.56 56.67 60.32
51.31 51.67 51.67 50.23 51.42 52.33 55.90 56.20 53.10 39.15 29.10 43.28 49.21 50.12 49.66 50.70 49.67 52.77 52.34 55.00 53.32 49.25 49.48 48.35 51.84 49.44 48.30 49.61 48.78 49.41 47.45 47.06 46.46 43.82 37.87 41.79 40.84 42.10 45.95 48.56 50.50 54.51 55.69 57.56 59.79
51.02 51.21 50.78 51.58 46.20 53.46 54.04 51.69 37.48 31.39 43.13 41.60 43.44 48.10 48.57 48.26 48.35 48.94 48.47 48.25 45.68 41.93 42.95 47.33 47.67 50.28 50.87 46.99 49.03 47.90 44.71 37.63 36.11 36.98 35.99 43.96 41.29 43.72 49.35 52.14 52.81 53.89 56.82 58.61 59.20
50.54 49.51 50.27 52.63 54.32 54.79 51.83 42.56 30.87 38.60 40.01 44.56 43.77 43.65 43.18 46.40 45.68 47.63 47.26 45.97 48.89 47.14 43.88 42.40 39.94 47.60 50.28 47.80 45.30 45.70 44.86 38.68 31.97 34.36 37.75 44.78 40.30 44.08 51.82 54.35 54.63 56.03 56.79 57.70 58.20
49.07 51.21 51.16 53.73 55.71 54.39 45.14 34.13 34.23 38.73 42.47 41.57 42.29 40.16 40.22 42.22 41.87 43.11 45.18 47.38 48.51 48.96 43.06 42.75 42.31 49.17 50.08 49.75 48.79 45.07 42.29 46.95 41.71 42.89 39.58 42.79 45.39 49.76 51.71 52.83 54.31 54.28 55.85 56.36 57.31
47.26 49.12 50.85 56.66 57.53 52.67 42.23 35.54 38.82 43.58 44.01 43.16 37.31 40.13 37.47 39.42 37.59 40.74 42.57 46.46 48.85 50.11 51.08 46.94 41.29 47.85 48.46 49.86 49.22 47.39 48.69 41.40 42.66 32.77 32.79 40.05 41.06 43.06 47.97 50.84 52.72 53.60 53.90 56.20 56.90
48.72 45.67 53.38 57.49 55.67 46.79 36.13 37.82 41.10 45.04 45.27 41.68 40.28 38.79 39.32 39.16 39.39 37.12 37.60 46.42 49.92 48.82 49.73 48.14 45.32 44.88 48.08 45.65 44.14 45.20 43.99 45.52 45.13 43.41 37.20 35.78 36.25 48.93 48.35 49.89 52.48 53.32 55.05 55.71 55.65
46.23 40.16 53.85 56.02 43.12 43.74 39.73 41.90 43.05 43.44 46.15 44.52 44.96 42.00 39.75 41.66 39.12 39.41 38.26 41.54 47.55 48.67 43.91 49.46 46.54 38.46 42.63 48.30 49.42 47.73 46.00 45.81 40.52 38.88 42.42 41.47 40.03 50.31 51.03 50.86 53.43 51.16 55.26 55.38 55.68
40.68 43.93 52.61 52.28 37.97 39.57 42.48 41.38 43.13 42.77 41.88 42.67 42.96 44.56 44.64 40.46 37.11 40.18 42.06 45.74 47.59 46.70 46.93 50.00 45.95 39.47 40.99 45.58 48.04 45.17 46.68 48.31 48.95 47.64 39.22 39.23 40.29 50.41 51.91 52.98 53.43 53.20 52.24 55.20 55.48
42.23 38.81 47.48 49.23 47.50 41.37 37.99 38.06 40.03 45.78 43.61 44.05 43.36 44.61 42.58 40.67 43.61 40.83 42.31 43.49 48.58 48.42 50.63 51.63 47.12 42.66 36.90 41.23 44.87 43.67 45.53 47.36 46.51 42.14 40.25 42.04 42.90 47.05 49.55 51.80 53.03 52.12 51.60 54.57 54.44
43.41 39.76 43.99 39.00 41.26 41.78 42.25 41.09 39.59 38.55 43.63 43.68 41.05 41.89 41.20 38.51 40.83 40.99 43.40 44.38 47.71 48.45 48.17 49.83 43.26 44.96 44.20 44.17 44.39 44.20 45.50 46.36 44.42 46.13 42.27 43.85 42.45 47.35 50.34 51.60 52.17 54.80 53.78 53.21 52.97
40.10 39.20 40.31 38.95 42.30 41.04 41.33 39.68 40.35 41.31 41.54 39.28 36.35 37.98 40.47 36.45 38.08 39.42 43.23 42.13 43.16 46.80 45.68 48.06 42.99 43.88 42.52 42.61 44.55 42.52 42.78 45.88 45.95 46.88 45.91 45.02 42.98 48.07 52.09 52.96 51.98 53.00 53.32 52.50 52.58
45.31 44.30 41.38 38.94 40.17 39.60 40.27 41.01 40.79 43.52 43.22 43.62 42.02 40.20 39.62 43.08 46.38 47.23 48.18 47.97 47.82 45.70 45.09 45.87 43.29 40.84 37.99 43.89 41.74 37.24 40.58 42.05 46.87 48.42 47.54 43.47 47.56 50.97 50.28 50.96 51.44 52.38 52.92 52.47 52.08

GFSSW_sfc_wetblb_111.txt.gz
Wetbulb
59.31 58.91 58.57 58.15 57.98 57.66 57.00 56.32 56.33 56.46 56.36 56.22 56.35 56.12 56.12 55.97 55.79 52.42 48.13 53.77 56.92 61.02 62.74 55.96 53.90 52.80 51.08 47.97 48.79 47.50 39.29 37.95 40.06 41.79 43.77 47.61 44.27 48.40 50.55 48.95 50.29 51.50 53.14 64.79 68.00
58.76 59.07 58.51 57.87 57.79 57.74 57.41 56.28 56.06 56.13 55.96 56.17 56.13 56.80 56.96 56.74 50.98 48.35 55.85 61.41 62.32 63.62 56.53 53.54 50.59 50.27 45.80 46.07 45.34 44.15 38.26 40.98 44.16 45.56 44.09 46.41 44.81 46.38 47.73 47.90 48.22 50.22 53.02 58.61 62.19
57.27 57.27 57.09 57.25 57.28 56.94 56.79 55.68 55.74 55.70 56.20 55.71 55.87 55.18 55.96 55.34 48.09 49.68 66.14 65.43 62.94 64.27 58.73 54.94 53.28 49.78 44.25 46.14 44.20 43.50 41.45 44.12 45.92 47.88 48.09 46.70 45.59 47.49 45.87 44.19 48.22 48.30 50.15 52.22 52.31
56.63 56.59 56.55 56.71 56.53 56.70 56.49 55.51 55.62 55.64 55.96 55.32 55.41 55.88 56.02 52.30 39.51 53.91 65.96 66.82 64.60 61.12 56.70 53.62 50.04 44.89 43.66 42.70 47.09 41.97 45.50 46.21 46.99 48.51 47.74 45.07 46.86 45.80 45.90 45.76 49.67 50.69 51.26 50.93 50.02
56.69 56.21 56.33 56.37 56.52 56.74 55.51 55.49 55.45 55.97 56.47 55.80 55.67 55.22 52.77 47.51 47.03 57.06 64.26 65.36 62.58 58.94 53.69 51.48 47.50 45.58 42.92 45.60 45.86 43.93 44.48 46.61 47.95 47.72 46.12 46.63 45.62 45.25 45.34 48.94 50.64 51.48 51.93 50.56 50.10
56.10 55.95 55.84 56.08 56.22 56.29 55.69 54.95 54.78 55.11 55.94 55.67 55.07 55.18 49.75 42.12 54.77 58.46 58.57 60.13 57.70 55.24 52.86 51.59 48.15 48.84 45.84 46.05 44.53 45.76 45.39 45.97 45.69 45.80 45.66 44.87 45.22 45.31 46.93 50.22 51.03 51.15 50.54 50.46 50.20
56.10 55.84 55.04 55.34 55.25 54.64 54.38 54.88 54.82 55.32 55.69 55.68 55.47 53.00 48.04 45.66 56.51 58.09 56.16 58.57 57.64 55.53 51.88 53.20 52.24 49.07 48.36 43.64 47.67 46.89 43.51 45.01 45.84 44.63 45.17 46.26 43.10 44.07 47.44 50.46 49.63 50.18 50.42 51.35 51.25
55.48 55.15 53.85 53.97 54.00 54.12 54.36 54.36 54.63 55.22 55.17 55.74 56.47 52.04 44.37 55.17 56.23 54.67 55.49 56.33 59.26 57.88 55.54 54.84 53.59 49.61 47.80 46.97 46.27 42.65 42.76 38.59 42.54 44.97 46.16 44.42 39.73 46.49 48.95 48.96 48.83 50.38 51.41 51.87 51.33
54.74 54.62 54.84 54.69 54.49 54.76 54.34 54.10 54.66 55.29 55.67 56.09 53.20 50.68 44.97 57.45 52.74 55.31 57.09 54.99 56.90 57.04 56.09 56.80 52.60 48.14 47.47 41.59 37.43 39.33 35.75 37.32 40.76 44.85 44.86 43.83 41.13 46.72 50.14 49.11 48.55 49.19 50.41 50.99 50.80
52.77 52.85 52.97 53.08 53.00 54.04 53.49 53.22 53.68 54.67 54.08 54.63 52.78 46.65 48.94 47.28 55.36 57.23 57.38 57.73 55.26 54.75 52.20 50.45 47.91 43.51 42.17 37.42 33.12 35.23 36.82 39.43 40.35 43.74 45.52 43.64 42.27 45.25 48.81 49.50 49.40 49.60 50.40 51.48 52.04
52.01 52.10 51.89 52.52 52.75 52.46 50.91 47.42 46.29 46.82 50.23 46.69 46.89 47.03 49.37 54.58 58.02 55.79 57.07 55.49 54.76 52.22 45.13 47.58 41.27 38.13 40.68 42.33 42.12 41.20 40.13 39.91 43.30 46.69 44.26 43.48 44.01 46.06 47.77 48.45 48.25 48.83 49.76 50.64 51.28
51.38 52.23 52.04 52.29 52.46 52.13 49.17 43.39 48.40 49.89 41.89 49.97 50.70 51.41 52.51 53.96 49.81 54.09 57.21 50.60 50.01 45.61 47.46 43.55 39.24 43.77 45.38 44.08 42.28 41.44 39.51 39.31 43.62 46.21 44.19 43.35 44.16 46.53 48.76 48.17 48.51 49.47 49.38 50.28 51.44
51.62 51.70 52.04 52.27 51.87 49.32 46.11 49.68 55.16 54.69 42.87 45.57 49.50 49.13 49.80 52.38 48.23 49.68 53.83 51.41 48.47 45.70 45.44 41.33 43.35 46.94 45.03 42.82 41.56 40.67 39.02 39.70 40.57 45.16 45.16 44.07 42.02 44.61 49.69 50.68 49.90 50.82 50.64 51.32 51.34
51.18 51.32 51.62 51.69 46.71 46.30 43.43 50.14 53.18 52.46 34.19 38.93 43.20 48.44 49.66 49.42 46.02 53.71 55.16 51.45 48.44 45.32 46.03 44.13 47.12 45.29 43.74 42.81 43.29 38.43 43.60 43.31 43.06 41.79 35.99 44.42 31.92 40.35 45.61 46.90 48.82 50.80 50.17 50.52 52.99
51.16 51.37 51.47 51.70 45.55 42.97 47.20 50.90 51.83 48.16 22.87 42.14 45.53 53.00 51.06 46.13 48.05 48.61 55.21 52.35 45.82 46.04 46.48 43.38 44.57 44.26 43.07 43.75 45.72 42.08 45.68 43.66 43.03 39.75 38.04 39.99 34.11 37.95 45.39 44.76 45.94 48.63 50.25 52.52 55.16
51.04 51.14 51.15 47.76 46.77 47.77 49.95 50.19 48.19 34.73 24.92 38.98 44.93 43.42 45.31 47.26 47.12 49.53 49.71 52.90 51.99 46.97 47.38 45.82 49.93 47.82 46.41 48.54 47.40 47.51 44.28 42.88 42.03 38.23 31.12 37.41 35.54 35.21 41.25 44.49 46.37 49.50 51.54 56.85 57.06
50.52 50.61 49.21 48.58 41.66 47.86 48.58 45.05 34.87 28.63 40.34 37.62 39.55 43.08 42.05 41.58 45.70 46.40 45.20 44.19 43.11 38.94 39.34 44.93 45.15 48.31 49.67 45.19 47.83 44.74 38.32 31.64 31.14 30.47 28.98 38.87 36.40 37.93 44.82 49.42 48.50 49.26 54.76 54.98 55.91
50.20 49.14 47.90 48.62 49.26 49.25 46.03 38.35 27.84 34.47 36.21 41.47 40.79 40.76 38.75 42.29 42.96 41.72 40.70 41.05 46.32 44.55 40.42 37.83 36.66 45.23 49.03 45.94 42.78 42.26 39.62 30.90 24.84 26.74 31.77 40.43 34.88 38.57 46.12 50.98 52.19 55.04 54.31 54.53 54.22
49.03 46.79 46.79 49.45 51.41 49.41 43.61 31.51 29.31 34.23 38.64 38.18 39.17 35.78 36.92 41.15 41.66 40.13 40.27 41.28 45.33 46.39 39.44 38.29 38.75 47.96 49.09 49.44 46.81 41.50 38.40 41.84 35.59 38.07 32.80 37.03 40.71 44.81 49.79 50.28 52.39 52.31 53.16 53.31 53.91
45.54 45.01 45.99 52.44 53.22 48.26 39.86 33.60 36.05 41.45 41.30 39.71 33.30 37.06 33.70 36.95 38.07 37.60 36.41 43.14 44.21 46.52 48.71 43.65 37.70 46.53 48.44 49.32 48.56 43.10 44.71 36.48 37.20 29.62 26.55 35.30 37.77 39.77 44.04 46.41 50.21 50.83 51.35 53.14 53.26
44.41 40.45 47.87 55.40 53.55 44.40 34.77 35.07 38.39 43.27 43.90 38.43 36.81 36.06 36.41 36.53 39.22 36.99 38.16 41.92 45.48 46.36 45.87 45.81 42.29 41.46 46.38 44.15 41.69 40.62 41.03 39.96 38.58 36.01 28.39 28.51 34.82 47.40 45.27 46.89 46.79 48.64 51.30 51.46 51.55
41.56 34.00 48.15 52.72 40.51 40.60 36.05 39.37 40.90 41.59 44.34 42.67 42.13 39.51 38.50 38.00 38.18 37.72 37.29 40.49 44.31 42.62 40.43 46.25 40.62 36.63 40.33 46.38 48.15 43.93 41.46 42.01 34.16 32.91 37.00 35.40 36.00 49.90 49.07 49.49 49.69 50.33 51.11 50.71 51.77
37.70 38.20 47.96 48.38 36.13 36.82 39.65 38.47 41.11 40.94 41.80 40.76 40.36 41.01 42.05 38.51 35.29 38.04 39.29 45.37 45.34 43.09 44.39 45.62 39.52 33.95 37.05 42.21 44.20 43.00 43.05 43.79 42.73 39.89 35.66 32.40 36.18 48.18 49.48 50.16 51.41 50.47 51.56 52.22 52.76
38.69 34.52 41.83 45.50 43.58 36.64 36.26 36.84 37.80 43.20 42.45 43.10 41.13 42.43 37.34 38.19 41.01 38.54 40.02 44.44 46.55 46.69 49.36 47.07 42.08 38.03 33.93 37.50 41.63 40.24 42.70 44.61 41.71 35.54 37.01 38.08 40.23 45.37 47.65 48.46 49.70 50.69 50.73 51.03 52.59
41.10 37.30 38.77 32.66 34.13 36.58 38.30 37.97 37.15 37.91 42.36 43.23 39.40 38.79 37.55 35.61 38.04 38.07 41.79 43.66 45.61 47.77 46.62 43.83 39.86 42.53 42.41 43.75 44.45 43.18 43.40 43.98 41.63 42.36 37.75 40.75 39.62 44.44 45.62 48.74 48.94 50.71 50.76 50.96 50.60
37.18 35.98 38.49 35.44 37.54 36.18 37.71 36.67 37.91 39.50 40.34 39.16 38.16 40.17 40.00 36.83 37.80 36.66 40.43 39.70 40.76 45.86 43.09 45.54 40.25 42.71 40.12 44.05 43.38 41.89 44.09 43.79 44.94 43.92 43.38 43.39 42.04 48.68 49.69 49.48 48.86 50.11 49.92 50.42 48.90
43.43 43.52 39.04 35.86 35.51 35.03 36.08 37.09 38.35 40.34 42.63 43.16 41.24 38.52 37.39 40.12 41.24 43.83 45.86 46.21 45.68 44.27 40.74 41.81 41.91 37.24 34.98 40.35 40.86 36.49 41.12 42.90 43.97 45.99 43.81 38.39 42.78 48.13 46.93 49.52 49.26 49.29 50.97 48.69 47.37

GFSSW_sfc_wetblb_114.txt.gz
Wetbulb
58.36 58.18 58.27 58.38 57.75 57.43 57.05 56.35 56.01 56.04 56.07 55.96 55.96 56.29 55.95 55.58 55.75 51.16 45.85 50.83 53.42 59.14 61.40 56.34 54.32 51.93 49.03 45.67 46.71 44.60 35.64 32.28 36.09 38.85 41.19 44.21 42.65 46.71 49.42 47.37 50.78 50.79 61.91 67.46 71.09
58.01 57.75 57.79 57.68 57.12 56.96 56.18 56.20 55.73 55.97 56.03 56.14 56.12 55.80 55.65 55.24 50.35 47.71 54.05 57.94 59.56 62.49 54.67 51.37 50.41 49.70 43.63 43.73 44.39 41.13 36.05 37.28 41.08 42.45 41.96 42.27 42.91 45.75 46.11 46.64 46.97 48.87 53.36 64.70 66.23
56.57 57.31 57.35 57.00 56.95 56.72 56.68 55.55 55.51 55.89 55.99 56.13 55.71 55.73 55.80 54.22 46.56 47.96 61.97 62.87 61.52 61.54 56.82 54.57 52.61 47.84 42.10 41.52 42.08 40.27 39.27 41.61 42.41 44.94 45.21 45.02 43.07 45.39 44.76 43.05 45.74 46.53 48.69 51.65 57.11
56.37 56.17 55.93 56.23 56.45 56.50 56.40 56.28 55.68 55.66 55.49 55.48 56.14 55.79 55.62 51.38 35.15 51.30 66.57 67.34 65.49 59.28 56.60 53.63 49.19 43.68 40.28 40.35 43.18 38.41 42.77 43.83 43.86 45.83 44.73 42.38 44.82 44.86 44.66 45.19 48.04 48.65 50.02 49.88 48.31
56.25 56.10 56.03 56.04 55.80 55.80 55.27 55.52 55.38 55.03 54.87 54.78 55.36 55.55 52.24 44.48 44.57 53.80 61.29 63.46 61.59 57.22 54.99 51.22 46.83 43.29 39.69 40.77 42.63 40.02 43.31 45.06 44.97 45.23 45.61 44.94 44.51 44.12 44.65 47.65 48.12 49.88 50.48 49.03 47.94
55.55 54.43 55.58 54.32 54.81 54.10 54.71 54.76 54.46 54.85 54.97 54.96 55.09 55.47 48.69 38.81 50.76 53.86 55.17 56.22 58.76 54.97 52.55 50.12 47.74 46.93 41.87 42.77 41.86 43.89 45.46 45.60 45.03 42.92 44.94 43.94 44.76 43.35 45.11 47.89 48.36 49.27 49.64 49.26 48.62
54.34 54.58 54.89 55.04 54.94 54.66 54.73 54.17 54.08 54.53 54.79 54.79 55.10 52.93 47.14 42.50 52.35 53.62 52.83 51.63 57.09 56.85 52.13 52.46 51.86 48.00 45.22 42.08 45.83 45.82 42.10 44.05 43.55 42.75 42.04 43.63 41.81 43.17 45.90 47.31 47.37 48.20 48.86 49.91 49.98
52.80 53.13 52.55 52.56 52.74 53.02 53.95 54.21 53.99 54.44 53.83 54.55 55.24 52.56 44.83 52.34 52.81 51.39 51.89 51.97 53.99 57.26 55.40 54.80 53.51 49.49 43.48 45.46 44.90 40.74 41.33 37.88 43.19 42.96 43.90 42.95 39.42 43.75 46.51 45.14 46.07 47.71 48.31 49.36 49.87
52.06 52.27 52.16 51.84 52.09 52.35 52.96 52.92 53.37 53.09 53.62 54.51 51.63 49.23 41.64 54.79 51.01 53.21 53.33 51.48 54.08 56.57 54.74 55.82 51.54 45.79 44.49 40.24 36.98 36.28 34.52 34.03 37.72 41.74 42.68 41.39 40.65 44.33 46.61 46.59 45.73 46.40 47.97 49.05 48.98
52.09 52.09 52.13 52.46 52.11 52.46 52.32 52.36 52.13 52.03 52.23 53.84 52.66 47.11 47.88 46.98 52.68 56.03 54.97 53.74 52.86 53.74 51.93 50.64 46.41 41.19 41.22 37.08 32.20 35.04 33.21 35.34 36.44 41.05 41.53 40.97 40.08 43.12 45.33 46.02 46.12 46.60 47.82 48.48 48.77
51.86 52.00 51.94 52.19 52.34 52.02 49.86 45.43 40.81 42.45 46.88 45.04 45.83 45.59 47.93 52.22 54.75 52.66 55.70 52.89 52.84 50.71 44.14 46.09 40.11 37.49 40.36 41.26 41.07 39.53 37.18 35.97 38.98 42.75 41.69 39.93 41.15 43.37 45.64 43.99 45.17 46.15 47.80 47.69 48.54
51.27 51.90 52.00 51.96 52.02 51.61 48.74 41.56 42.32 45.70 42.08 48.59 49.25 48.60 50.43 51.31 46.16 49.78 53.95 48.98 48.26 43.14 46.57 42.59 38.29 43.38 44.38 43.62 41.58 39.56 37.26 36.35 39.69 42.87 41.66 42.18 41.32 43.89 45.19 45.36 46.46 47.16 47.57 47.95 48.65
51.35 51.44 51.54 51.69 51.47 47.32 43.59 44.81 50.52 48.03 39.53 43.18 47.53 47.25 47.47 49.71 45.18 46.57 50.87 50.09 46.68 43.73 44.30 40.71 41.93 46.09 43.38 41.46 39.95 39.07 37.08 37.31 37.10 41.93 42.19 40.72 38.08 41.60 45.39 47.41 48.38 48.90 48.80 48.55 48.68
51.08 50.94 51.13 51.13 44.93 43.58 40.68 45.86 47.88 48.38 33.08 37.51 41.10 45.41 47.95 49.02 44.69 51.41 51.81 49.21 47.10 43.38 44.88 43.67 46.58 44.05 41.84 40.61 41.02 36.31 41.69 41.26 40.37 38.12 32.53 40.76 32.16 37.93 43.08 44.44 46.93 47.95 47.95 54.41 60.61
51.07 51.25 51.00 50.43 44.08 41.69 43.92 46.82 47.86 44.84 20.75 39.46 42.34 50.75 49.43 44.71 46.52 47.58 52.44 48.38 44.41 44.89 45.38 42.40 43.79 42.90 40.51 41.35 43.19 39.26 43.77 42.24 41.31 36.96 34.60 37.03 32.53 36.36 40.43 41.49 43.83 47.26 50.37 58.68 60.30
51.01 50.94 50.75 46.90 43.43 44.71 47.09 46.63 43.04 32.23 22.17 35.51 42.63 41.79 41.39 44.40 46.02 47.79 48.28 50.25 49.69 45.55 45.80 45.26 48.40 46.40 44.43 45.80 45.57 45.77 43.62 41.95 39.79 36.00 30.02 35.88 34.43 33.58 37.60 41.26 44.33 49.10 54.98 58.34 57.51
50.64 50.29 49.14 48.09 41.15 43.95 43.79 41.33 30.52 26.00 38.28 35.72 37.22 39.95 39.37 38.31 41.48 44.96 42.77 41.78 40.23 38.14 37.55 43.14 43.81 47.43 47.68 43.12 45.60 43.99 39.41 30.27 27.13 28.00 29.15 36.83 33.72 35.64 41.06 43.82 47.61 52.45 54.94 55.54 56.14
49.60 49.16 47.32 46.85 45.62 46.54 44.18 35.18 25.22 31.92 33.65 39.87 38.35 38.55 35.22 38.87 41.06 41.93 40.23 37.07 41.64 41.53 39.03 36.23 35.17 43.77 47.80 44.17 41.40 41.60 40.22 29.44 24.45 25.09 29.30 37.29 31.56 35.97 44.07 49.44 48.38 54.20 53.90 54.76 54.33
48.28 44.51 43.67 47.15 47.17 45.22 42.22 29.97 26.73 32.59 36.94 36.37 37.51 33.08 34.95 38.03 39.86 39.56 39.16 38.38 41.77 43.72 37.61 37.72 37.26 47.25 48.05 48.27 46.38 42.42 38.90 40.76 34.02 35.88 30.88 33.25 39.03 43.00 46.44 48.08 50.59 50.91 52.03 51.57 52.16
43.42 41.01 40.97 49.68 51.98 43.38 38.18 32.99 35.09 39.77 40.06 39.28 32.24 35.05 31.11 35.16 35.25 37.22 37.02 41.60 40.15 43.07 47.04 42.74 36.60 44.92 46.86 48.61 47.86 44.64 43.76 35.49 33.46 27.24 25.17 32.09 35.99 37.71 42.57 44.93 48.85 49.22 49.80 50.67 52.19
39.51 36.26 42.10 48.23 48.38 41.22 32.87 34.93 38.00 42.44 41.90 38.34 34.61 34.97 35.38 34.50 36.29 35.43 37.72 41.48 43.51 43.01 44.71 44.59 40.59 40.63 45.10 43.10 41.32 41.80 40.66 38.69 36.20 33.47 26.46 26.70 30.85 44.17 44.29 46.27 44.98 47.91 50.19 50.34 50.77
38.14 32.02 42.49 45.76 36.05 38.53 35.30 37.83 39.72 39.25 42.70 41.69 40.23 39.11 36.96 37.81 35.73 35.29 37.31 40.97 44.57 43.44 38.67 43.89 41.45 36.23 38.88 46.19 47.80 45.64 41.55 39.45 33.62 31.77 32.94 31.83 31.43 47.87 47.84 49.18 49.21 48.78 48.72 49.17 51.30
35.02 36.79 43.32 46.70 29.98 31.81 36.11 36.80 38.96 38.96 40.28 39.99 39.24 40.84 38.83 36.60 34.76 36.81 39.79 44.88 43.54 41.96 40.04 44.30 39.90 32.94 36.57 41.02 43.59 41.19 42.88 40.65 37.77 35.87 33.34 31.10 33.76 48.21 49.61 49.72 50.51 49.76 50.16 49.72 49.73
36.94 31.51 36.83 37.53 37.72 34.63 33.64 34.75 35.11 41.12 41.11 42.37 40.84 40.45 37.06 35.62 37.99 36.52 38.17 43.39 44.04 43.30 45.90 43.88 42.45 35.29 32.48 36.29 40.10 38.59 40.78 42.44 38.84 32.02 34.17 35.04 39.37 44.38 47.15 48.28 50.10 50.82 51.01 51.56 50.00
37.10 32.45 36.82 28.92 31.67 33.97 35.13 34.58 34.49 34.61 40.93 41.54 39.71 38.85 37.35 34.26 35.61 36.06 39.23 42.41 45.06 46.44 44.43 43.98 39.43 40.50 42.01 43.30 43.10 42.94 42.18 41.48 38.56 38.40 36.27 39.45 39.97 44.01 45.99 47.27 49.18 50.80 52.13 51.72 49.95
31.95 32.74 36.94 33.62 35.05 33.37 33.63 34.84 33.00 33.85 36.80 38.12 37.77 39.12 37.56 34.94 37.25 34.60 38.04 39.96 40.05 44.71 42.89 44.07 39.75 41.49 39.59 43.51 42.97 41.62 42.33 43.36 42.83 43.45 42.79 42.55 41.15 46.69 48.57 50.45 49.71 50.58 50.55 50.24 46.71
40.66 38.76 36.85 33.99 32.85 31.43 32.56 34.07 35.11 36.77 40.39 41.46 39.63 38.09 36.41 38.81 41.07 41.79 41.58 42.92 44.31 43.06 40.67 39.89 41.07 37.64 35.65 42.06 41.10 36.36 41.21 42.83 43.02 45.24 44.13 39.28 43.72 47.58 47.13 48.90 49.18 49.74 49.93 46.67 45.76

GFSSW_sfc_wetblb_117.txt.gz
Wetbulb
57.26 57.03 57.47 57.31 57.15 56.95 56.45 56.59 55.34 55.58 55.66 55.90 55.79 55.75 55.61 55.30 54.85 50.51 45.73 49.45 52.33 58.13 61.17 53.76 53.49 51.29 48.52 44.03 45.11 42.89 34.78 31.06 34.74 37.35 39.72 41.72 40.94 45.21 46.94 45.73 47.84 49.42 56.99 67.55 72.11
56.78 56.60 56.37 56.43 56.48 56.69 56.77 56.04 55.75 55.65 55.68 55.65 56.01 55.39 55.30 54.93 49.29 46.60 52.74 57.11 58.47 59.79 53.38 49.22 48.39 48.72 43.43 42.41 42.86 40.20 32.85 35.00 39.87 40.83 39.62 39.28 40.67 43.18 44.32 43.99 45.97 48.86 58.20 69.43 72.45
55.83 55.71 56.12 56.18 55.95 56.03 56.07 56.24 54.92 55.43 55.92 55.91 55.78 55.96 56.16 54.02 43.48 43.25 57.96 64.19 59.65 59.24 54.41 50.77 51.40 46.88 40.55 40.34 41.30 39.45 36.86 40.06 41.18 43.04 43.13 40.50 42.62 44.07 42.86 41.97 44.52 45.22 51.22 57.03 64.25
54.63 55.14 55.15 55.10 55.12 55.21 54.80 54.58 54.85 54.74 54.97 54.95 54.94 55.21 55.71 50.69 33.92 48.02 63.84 62.35 64.32 56.94 54.72 51.32 48.18 43.02 39.18 38.56 41.13 36.01 40.71 42.90 42.27 44.13 42.48 40.56 43.81 43.01 43.39 44.51 46.72 46.82 48.33 49.22 56.44
53.81 54.02 54.13 54.41 54.76 55.22 54.67 54.34 54.32 53.97 53.88 53.70 54.35 54.78 52.30 43.39 42.87 51.65 58.46 55.98 59.12 55.16 51.74 49.09 44.27 42.64 37.92 39.28 40.51 37.06 40.52 42.72 43.74 43.29 42.83 43.85 42.30 42.97 43.87 46.18 47.32 46.87 48.59 47.56 46.30
52.65 52.63 52.78 52.86 53.03 53.38 53.85 53.90 53.57 53.84 54.26 54.02 53.86 54.82 48.37 37.54 49.29 51.41 51.52 52.06 56.82 53.92 51.46 49.07 47.79 45.44 41.53 40.97 39.52 41.89 43.07 43.54 42.95 42.77 41.54 41.69 43.56 42.08 44.00 46.52 46.13 46.23 47.25 47.54 47.33
51.76 52.15 51.98 52.07 52.22 52.36 53.23 53.03 53.01 53.09 52.86 53.64 53.83 51.16 45.81 41.98 50.81 50.75 49.93 47.97 49.01 54.63 51.51 52.82 50.24 48.09 44.67 40.16 43.67 44.06 40.10 42.55 42.09 42.74 41.80 42.73 40.62 40.98 44.91 46.07 45.32 45.51 46.33 47.81 47.99
52.31 52.24 51.77 51.90 51.86 52.14 52.96 52.66 52.62 52.64 53.21 53.68 53.89 49.08 40.95 51.37 51.85 50.19 50.54 48.61 50.62 50.32 52.34 53.86 52.60 46.60 42.36 43.91 43.13 38.28 39.68 36.65 39.77 41.79 42.25 41.95 37.49 42.61 45.01 44.17 44.34 45.65 46.05 47.08 47.39
52.00 52.05 51.82 51.46 51.79 51.82 52.45 52.32 52.86 52.65 53.13 53.13 48.95 47.96 40.34 52.93 49.63 51.93 51.29 47.55 49.59 50.60 53.30 56.30 49.67 44.35 43.25 38.72 35.16 35.49 30.01 32.47 37.30 41.27 41.60 40.07 37.11 43.54 45.00 43.54 43.47 44.08 45.16 46.58 46.86
51.79 51.78 51.87 51.93 51.89 52.05 51.79 51.72 51.38 50.96 51.54 51.79 51.14 44.39 45.31 44.41 50.31 52.93 53.58 50.60 49.78 50.11 49.86 49.86 44.29 40.20 39.46 36.83 30.72 32.23 31.08 35.37 35.19 39.46 40.02 39.66 36.75 41.75 43.72 43.11 43.12 44.03 44.43 45.71 46.77
51.55 51.57 51.36 51.47 51.70 51.43 48.95 45.60 37.35 40.30 46.05 42.66 44.05 44.00 45.73 50.43 53.10 50.90 53.54 50.50 49.32 49.33 43.86 46.12 39.57 35.50 38.65 40.24 39.79 38.07 36.89 34.53 36.74 41.19 39.59 37.75 38.00 40.62 43.22 42.50 42.07 42.92 43.94 45.28 46.38
51.53 51.64 51.68 51.58 51.49 51.12 48.04 41.51 41.01 42.85 35.80 44.65 45.73 46.09 48.83 49.59 44.32 47.94 52.49 46.47 44.66 41.92 46.11 41.15 38.50 42.78 43.16 41.39 39.80 38.86 35.18 33.88 37.60 41.00 38.69 38.68 38.97 41.85 43.63 43.24 42.62 43.63 43.66 45.04 45.92
51.46 51.48 51.58 51.62 51.06 46.31 40.95 41.91 46.82 44.20 35.68 40.41 44.39 44.52 45.69 47.85 43.72 44.53 48.31 45.89 43.61 41.50 42.95 39.73 41.26 45.72 43.21 41.13 38.43 37.98 36.42 34.55 35.10 40.12 39.58 38.23 36.17 39.02 43.41 44.38 44.46 44.45 45.62 45.78 46.02
50.79 50.80 51.12 51.00 44.35 41.25 40.09 43.57 44.67 44.49 31.62 35.71 40.06 43.88 46.36 47.36 43.17 49.72 49.86 45.58 43.28 40.60 43.19 42.17 45.96 43.44 41.47 39.73 40.40 35.37 40.29 39.02 38.15 35.64 29.62 38.62 27.87 35.75 39.89 42.57 43.73 45.56 44.86 48.93 58.80
50.29 50.49 50.28 50.07 44.33 41.48 42.28 42.98 44.92 41.26 18.79 37.09 40.50 49.68 47.37 42.81 45.00 46.73 51.51 46.13 40.07 42.81 44.01 40.77 42.72 42.19 39.83 40.55 42.40 38.34 42.10 39.45 38.48 34.27 32.37 34.53 30.66 35.07 38.34 39.07 41.07 43.75 54.79 57.82 59.62
49.81 49.93 49.71 45.37 43.43 44.22 45.72 43.28 41.44 30.70 20.79 33.68 40.78 39.86 39.65 41.54 42.03 46.83 47.67 48.52 46.69 43.07 45.59 43.37 47.08 45.79 43.92 44.62 44.12 43.45 40.24 37.99 35.95 32.53 27.08 32.51 32.43 32.32 36.02 40.12 41.24 49.38 56.92 57.50 57.40
49.35 49.19 47.55 47.00 41.13 43.13 42.02 38.89 29.40 23.81 36.29 33.55 34.76 38.50 37.73 36.69 38.91 43.70 41.54 39.73 37.51 36.81 37.12 41.76 42.31 45.70 46.93 41.93 42.98 41.41 36.02 26.17 24.38 24.05 26.51 34.13 31.83 34.44 40.42 43.28 45.82 53.19 54.86 55.98 56.29
48.62 47.81 45.58 45.34 46.60 45.79 43.03 33.50 23.27 29.33 31.52 37.24 37.30 37.04 33.58 35.82 39.75 40.94 39.98 37.22 40.42 39.67 36.95 35.50 34.08 42.67 46.31 42.76 39.55 37.69 35.67 27.13 21.97 23.21 26.95 35.35 29.99 34.79 42.35 46.68 48.62 55.57 54.81 55.44 55.00
47.58 41.27 40.61 42.84 48.22 46.39 40.02 25.68 24.59 30.36 35.56 35.72 36.69 32.68 32.42 36.51 37.26 37.60 37.33 38.00 39.41 40.88 35.90 36.48 35.62 45.31 46.70 46.52 44.65 38.33 35.80 38.60 31.88 33.96 27.48 31.40 36.34 43.44 47.01 47.87 51.95 52.55 53.89 53.00 53.22
40.47 37.24 38.21 45.49 47.12 45.35 34.80 31.86 34.07 39.41 39.42 38.50 31.68 34.47 30.41 33.40 33.97 34.32 35.50 40.71 39.94 43.49 44.27 39.42 35.44 43.75 45.20 47.49 46.96 43.03 42.15 33.78 32.76 25.70 23.56 30.87 34.40 35.31 41.90 43.93 48.43 50.20 50.09 50.12 51.70
36.01 33.92 39.44 44.11 49.04 38.93 31.39 33.33 35.73 39.90 40.98 37.82 36.20 35.37 34.39 34.04 35.74 34.12 34.70 40.19 42.64 42.62 43.61 42.52 38.84 39.61 43.71 42.09 40.52 41.06 39.47 38.89 36.25 33.08 26.99 27.67 32.08 43.01 42.64 44.22 45.98 47.28 48.58 49.81 50.70
38.01 26.25 39.50 44.10 33.26 33.21 32.24 35.00 38.08 38.61 41.49 39.80 40.35 38.09 36.65 37.59 34.29 35.55 34.18 38.48 45.32 44.28 39.03 41.91 38.24 35.30 38.48 44.18 46.49 44.05 40.11 39.67 30.46 29.11 31.92 31.95 31.57 45.82 45.32 44.98 47.11 47.81 48.86 49.86 50.94
34.17 34.12 41.30 42.82 26.52 30.99 34.15 33.64 37.00 37.57 37.36 39.24 36.85 39.50 39.23 35.54 32.07 36.02 37.12 44.00 44.56 42.75 40.25 42.35 38.07 32.25 35.43 40.42 43.84 41.19 41.44 39.48 36.94 36.57 32.52 29.32 33.45 47.32 47.87 47.28 47.83 47.04 48.53 50.36 51.30
36.33 30.51 33.53 34.62 33.77 32.27 30.55 31.46 32.88 38.27 36.91 38.41 38.66 40.98 37.67 35.43 37.56 35.76 37.06 41.91 43.63 43.61 46.49 43.01 37.76 36.84 31.26 34.95 39.15 38.74 41.46 41.45 37.56 33.13 33.84 32.79 40.67 43.25 45.58 46.22 47.66 48.41 48.63 47.62 48.36
36.22 32.20 33.16 25.80 29.06 30.51 32.07 31.80 32.61 32.48 36.59 38.01 38.30 36.95 34.57 33.96 34.00 34.03 38.51 40.01 42.80 44.86 44.51 42.10 35.68 38.49 40.64 41.99 42.41 41.65 41.12 41.90 37.69 37.84 35.61 38.05 40.33 43.68 45.93 46.32 47.37 48.89 47.61 46.65 46.17
31.89 32.46 34.89 32.09 32.14 31.04 31.31 31.81 32.07 34.23 35.42 35.68 36.11 37.34 37.26 34.99 35.01 33.59 37.18 38.04 39.36 43.36 42.10 43.20 36.42 40.41 38.21 42.48 42.74 40.79 42.74 43.02 41.53 40.40 41.14 41.77 39.58 46.54 48.23 48.98 48.47 49.35 48.50 45.94 45.87
40.45 40.61 35.99 31.34 31.35 30.01 30.25 31.82 32.78 35.25 36.47 37.63 37.99 37.77 35.72 37.75 40.63 40.44 41.44 40.50 40.37 40.33 40.60 39.08 36.29 38.65 35.67 40.91 40.11 35.36 40.80 42.48 42.98 43.52 42.46 37.83 41.42 47.04 46.66 47.80 48.28 48.94 50.47 46.67 45.87

GFSSW_sfc_wetblb_120.txt.gz
Wetbulb
56.07 56.31 56.32 56.49 56.42 56.23 55.75 55.94 55.39 55.46 56.08 56.28 56.41 56.51 56.09 56.08 55.72 49.81 44.97 48.87 51.17 56.87 58.79 52.31 52.82 52.17 47.65 42.66 42.62 40.86 33.47 29.59 33.71 35.87 38.08 39.43 41.27 43.07 45.25 43.98 45.40 48.08 52.80 66.72 70.94
54.91 55.06 55.10 55.21 55.80 55.10 54.75 55.05 54.93 54.77 55.40 56.17 56.31 55.86 55.77 56.01 49.96 45.80 52.09 56.41 58.05 58.14 52.05 49.15 46.46 47.34 42.95 42.38 41.87 38.51 31.42 33.42 39.12 39.05 38.57 38.81 38.48 40.65 43.57 42.84 44.13 49.47 61.05 70.94 70.46
53.83 53.70 53.62 53.78 54.03 55.03 54.88 54.43 54.27 54.43 54.37 54.57 55.14 55.32 55.36 54.98 42.04 42.76 56.65 59.63 64.29 58.69 52.93 49.97 48.51 46.06 40.26 38.95 40.12 38.87 34.03 37.72 40.54 41.67 41.66 39.74 40.49 42.88 41.40 41.53 43.50 43.54 53.26 63.56 70.15
52.58 52.79 52.75 52.58 52.74 52.83 53.14 53.49 54.03 54.10 53.97 54.02 53.59 54.45 55.21 50.11 34.36 43.81 62.63 58.08 62.73 56.63 53.66 47.87 46.27 41.51 39.17 36.99 39.84 34.99 39.08 40.59 41.60 42.55 41.96 39.94 42.03 40.96 42.12 44.06 45.23 45.43 46.03 55.08 66.26
51.90 52.28 52.47 52.34 52.45 52.59 52.73 53.04 53.21 53.19 52.92 52.91 53.41 53.99 51.43 42.94 41.62 49.93 57.46 53.85 57.92 54.21 51.89 46.43 44.34 41.39 37.66 38.53 39.49 35.81 39.02 41.14 42.68 42.61 41.75 42.19 41.15 41.45 41.55 45.93 46.45 46.28 46.37 46.83 58.58
51.84 51.84 51.80 51.84 51.99 52.49 53.00 52.93 52.56 52.35 52.44 52.83 52.85 53.12 46.42 36.75 48.28 50.20 50.25 49.86 55.46 52.12 50.25 47.15 45.11 44.41 40.16 39.58 39.03 40.73 41.21 41.97 41.59 40.63 40.59 40.74 42.28 40.92 41.85 45.31 45.19 45.20 45.18 46.00 50.69
51.87 51.54 51.52 51.52 51.61 51.76 52.54 52.34 52.26 52.53 52.06 53.04 53.16 50.02 43.87 40.69 49.67 49.26 48.98 46.75 49.06 53.00 49.40 50.59 49.47 46.69 43.68 38.60 43.12 42.41 37.60 40.28 40.53 40.63 39.77 40.87 40.08 39.77 43.87 44.83 43.87 44.46 44.74 45.91 46.41
52.10 52.34 51.43 51.39 51.54 51.73 52.35 52.15 52.07 52.07 52.46 53.19 53.32 48.66 40.16 48.80 49.79 48.39 48.66 47.20 49.15 49.08 48.07 50.87 51.17 45.28 42.27 42.58 41.47 37.18 37.45 34.96 38.28 41.36 42.09 41.54 35.50 40.99 43.82 43.13 43.15 44.19 44.76 45.00 45.99
52.22 52.24 51.71 51.55 52.13 51.70 51.90 51.80 52.03 51.80 52.68 52.95 48.63 45.13 37.81 50.70 47.93 50.74 50.40 46.18 48.23 48.57 48.46 53.93 49.26 44.05 42.06 37.63 34.03 34.54 28.61 30.78 34.95 40.33 40.95 39.95 35.82 42.63 44.31 42.77 42.38 42.83 43.79 45.02 44.74
51.90 51.90 51.95 51.48 51.95 52.11 51.53 50.76 50.75 50.22 50.98 50.67 49.41 42.88 43.58 42.19 48.64 51.55 52.05 49.58 47.59 45.76 44.56 44.79 43.66 38.75 38.08 36.99 30.17 30.28 29.43 32.33 33.74 38.24 40.50 37.99 35.70 40.86 41.94 41.94 41.93 42.29 43.00 43.85 44.42
50.90 51.21 51.03 51.45 51.42 51.18 49.31 43.85 37.64 39.10 41.88 41.51 42.68 41.33 43.74 48.14 51.69 50.14 52.08 47.53 46.58 43.96 36.18 44.64 41.19 35.08 38.00 39.88 38.90 37.06 34.35 34.11 35.72 39.93 37.53 38.13 38.35 39.05 41.57 40.45 40.71 40.89 41.98 42.94 44.37
50.28 50.03 50.50 51.03 50.74 50.34 47.24 38.73 40.81 40.64 34.78 40.80 40.69 41.40 46.01 47.53 41.64 45.21 49.75 44.14 42.80 39.46 39.60 40.43 37.23 42.43 42.73 41.13 39.39 37.56 33.64 33.07 35.99 38.91 37.51 36.57 36.64 39.66 41.47 41.34 41.72 42.07 42.19 43.28 43.73
50.68 50.34 50.46 50.66 49.99 45.42 39.35 40.36 44.07 42.91 34.29 36.97 40.72 40.41 41.24 43.99 40.37 41.62 45.91 43.40 40.74 39.29 39.42 36.40 39.71 44.65 41.48 39.26 37.21 36.77 35.12 33.19 34.01 38.26 37.73 36.12 34.77 37.28 41.55 42.46 43.43 43.06 44.07 43.96 44.36
50.09 49.94 49.88 49.86 42.62 39.73 39.61 42.78 42.60 42.65 29.74 32.34 38.19 41.86 43.87 45.66 41.77 48.44 48.77 43.89 40.37 37.05 40.22 40.36 43.66 42.71 40.41 37.91 38.72 33.47 39.93 38.14 36.86 33.89 28.65 36.63 26.39 33.58 37.70 39.98 42.14 43.41 42.39 43.35 44.52
49.68 49.99 49.89 49.22 43.01 41.60 41.57 41.51 42.85 40.62 16.06 34.58 38.84 47.99 45.71 42.13 43.11 44.51 50.46 45.02 38.04 38.26 40.52 38.89 41.19 40.81 39.02 39.22 40.73 36.61 41.08 39.11 37.36 33.12 30.50 31.94 28.55 31.70 36.74 38.10 40.59 42.26 46.53 50.05 55.28
49.45 49.74 49.46 43.39 43.40 43.72 45.10 40.87 40.26 30.75 19.39 32.46 39.06 37.87 38.13 40.41 40.99 44.64 45.98 47.81 45.26 40.25 40.54 41.06 46.29 44.79 42.67 43.91 43.22 42.80 39.16 36.99 34.56 31.93 26.06 31.42 30.36 28.84 34.32 39.15 40.02 52.41 55.17 57.54 59.42
49.20 49.19 46.90 45.52 40.20 43.38 41.79 39.18 28.16 22.52 34.62 31.64 32.60 37.54 36.12 35.22 37.03 41.86 40.12 39.11 35.88 33.46 33.05 38.69 40.06 44.85 45.88 40.62 42.74 39.26 33.94 23.59 22.98 23.37 24.19 32.34 29.62 31.70 38.25 40.73 42.36 52.11 55.11 56.03 56.72
48.67 47.58 43.19 43.86 44.40 44.30 40.91 33.66 22.36 28.32 30.12 36.43 36.98 36.79 32.79 34.66 36.32 39.19 38.54 36.09 40.37 35.99 35.79 33.63 32.34 40.69 45.26 41.62 37.58 37.81 34.69 24.36 20.67 21.65 24.09 32.37 27.43 33.51 41.81 45.74 49.43 54.88 55.01 54.80 55.68
47.46 39.21 38.67 40.83 45.29 45.40 40.05 26.28 23.92 29.71 35.17 35.19 36.09 32.05 31.63 35.46 35.83 35.63 35.11 35.67 39.03 39.88 35.08 35.33 33.45 43.53 44.82 44.28 43.26 36.08 33.10 36.43 29.39 30.17 26.68 29.01 34.17 41.28 47.22 50.12 52.20 52.65 53.87 53.86 54.59
40.27 34.73 36.29 42.46 45.95 42.67 36.01 30.95 33.33 37.50 37.91 37.76 32.71 33.97 29.54 33.20 33.18 33.99 33.20 38.73 38.83 41.78 43.91 39.52 33.18 42.18 43.80 45.51 44.70 40.45 41.27 31.77 29.56 24.62 22.90 27.90 31.36 32.16 41.16 46.17 50.41 51.34 52.27 52.42 52.69
36.10 30.83 36.80 42.38 45.33 35.74 29.62 30.77 33.56 37.75 37.72 35.58 35.33 33.98 35.20 33.70 35.02 35.25 35.52 37.14 41.18 41.79 42.14 41.34 37.48 37.44 42.79 40.88 39.29 39.18 36.80 36.07 34.51 29.94 24.48 25.93 29.21 41.13 40.82 45.78 49.29 51.07 51.59 51.28 51.09
37.61 26.94 37.27 42.37 29.58 33.51 30.81 32.43 36.24 35.85 39.28 37.50 39.07 37.17 33.43 35.63 33.98 33.56 33.08 36.59 43.28 42.78 37.80 40.76 36.28 33.34 36.00 41.79 45.18 42.57 38.61 34.33 31.11 27.07 28.91 27.88 28.71 44.28 43.92 45.48 46.96 49.31 50.17 51.06 51.31
32.86 31.35 39.22 39.89 23.37 24.57 29.79 30.86 34.17 36.02 35.40 36.49 35.30 38.81 39.40 35.88 32.83 35.15 37.20 41.86 42.36 42.02 38.93 41.55 35.83 31.50 33.27 39.41 43.17 40.40 40.63 38.98 34.19 32.59 29.53 26.36 30.10 47.46 47.12 46.46 47.29 47.96 50.11 50.31 49.16
34.97 28.22 30.85 32.19 31.06 30.15 28.16 28.89 29.44 36.64 35.81 36.67 35.99 38.39 35.60 35.21 37.49 34.63 34.80 40.31 43.10 43.15 46.07 42.68 35.96 32.18 30.84 33.55 38.82 37.36 39.01 40.81 36.35 29.14 31.07 32.11 39.70 45.01 45.47 45.35 46.99 48.42 49.53 48.54 47.90
31.69 28.17 32.02 24.46 27.48 29.96 31.05 30.79 29.74 29.78 35.59 37.29 36.74 36.58 35.17 32.33 33.55 32.32 36.59 37.46 40.79 44.25 43.57 38.56 34.30 37.02 38.28 41.22 40.90 40.40 39.74 38.66 37.16 37.64 33.61 36.83 40.32 44.23 45.50 45.66 46.92 47.09 46.91 46.16 45.85
33.63 32.80 33.18 31.36 31.56 30.74 30.34 29.61 29.00 31.45 32.29 32.79 33.15 34.32 34.97 33.43 35.10 32.94 34.62 36.41 37.12 41.22 41.73 42.18 35.45 37.77 36.22 41.08 41.19 39.12 40.98 40.82 40.44 39.74 40.60 41.80 40.68 47.04 47.19 47.50 45.86 46.78 46.34 45.87 46.08
40.35 40.58 35.62 31.59 29.00 29.06 28.76 29.95 30.68 32.59 34.67 36.16 35.00 33.88 34.23 36.98 39.82 39.06 39.30 38.77 38.78 37.28 37.11 38.98 35.57 34.88 33.58 39.06 40.09 36.31 40.01 41.35 41.92 42.57 42.77 38.46 41.58 46.47 45.50 46.14 45.51 46.10 46.22 45.44 45.26